# Wetter Temperatur Luftdruck Luftfeuchtigkeit Sichtweite Windgeschwindigkeit Windrichtung Zeit
1 Clear 11 1009 87 10000 4.12 250 06:38 02.10.2022
2 Clear 11 1008 90 10000 4.12 260 02:54 02.10.2022
3 Clear 11 1006 90 10000 5.14 270 00:45 02.10.2022
4 Clouds 12 1005 88 10000 4.63 270 23:43 01.10.2022
5 Clear 12 1004 89 10000 5.14 260 22:31 01.10.2022
6 Clear 12 1003 91 10000 4.12 240 19:58 01.10.2022
7 Clouds 12 1002 91 10000 4.63 230 17:55 01.10.2022
8 Clouds 11 1002 94 10000 4.63 200 16:30 01.10.2022
9 Rain 11 1002 90 10000 5.14 200 14:25 01.10.2022
10 Rain 13 1003 82 10000 5.66 170 12:59 01.10.2022
11 Rain 14 1003 82 10000 5.66 180 12:29 01.10.2022
12 Rain 13 1003 85 10000 5.14 170 11:19 01.10.2022
13 Clear 12 1010 93 10000 4.63 180 10:31 01.10.2022
14 Clear 10 1011 91 10000 3.6 170 09:27 01.10.2022
15 Clear 10 1010 89 10000 3.6 180 08:57 01.10.2022
16 Clear 8 1012 92 10000 2.06 180 03:59 01.10.2022
17 Clear 9 1012 87 10000 3.6 180 03:29 01.10.2022
18 Clear 9 1012 88 10000 4.12 190 23:47 30.09.2022
19 Clear 10 1003 81 10000 3.6 180 22:32 30.09.2022
20 Clear 12 1012 76 10000 2.57 160 21:22 30.09.2022
21 Clear 12 1003 76 10000 3.09 170 20:43 30.09.2022
22 Clear 12 1003 80 10000 1.03 0 19:43 30.09.2022
23 Clear 16 1006 73 10000 2.06 170 17:28 30.09.2022
24 Clear 17 1002 54 10000 1.54 0 15:56 30.09.2022
25 Clouds 16 1002 61 10000 1.03 0 13:30 30.09.2022
26 Clear 14 1002 74 10000 0.51 0 11:57 30.09.2022
27 Clear 11 1006 89 10000 1.54 210 10:30 30.09.2022
28 Clear 7 1010 99 10000 1.03 200 08:24 30.09.2022
29 Clear 7 1003 95 10000 0.51 0 05:54 30.09.2022
30 Clear 8 999 94 10000 1.03 0 02:36 30.09.2022
31 Clear 9 1001 92 10000 1.03 0 22:31 29.09.2022
32 Clouds 10 1000 91 10000 2.06 150 21:27 29.09.2022
33 Clear 10 1000 90 10000 1.54 140 20:44 29.09.2022
34 Clouds 11 1000 86 10000 1.54 70 18:45 29.09.2022
35 Clouds 14 998 77 10000 1.54 20 17:24 29.09.2022
36 Clouds 14 994 65 10000 2.57 270 16:28 29.09.2022
37 Clouds 15 998 74 10000 2.06 0 15:36 29.09.2022
38 Clouds 14 998 71 10000 2.06 290 14:29 29.09.2022
39 Clear 10 993 87 10000 2.57 210 10:29 29.09.2022
40 Clouds 6 1001 95 10000 2.57 200 06:58 29.09.2022
41 Clear 6 1001 93 10000 2.57 210 02:49 29.09.2022
42 Clear 6 991 92 10000 2.57 220 23:55 28.09.2022
43 Clear 6 990 94 10000 1.54 210 22:44 28.09.2022
44 Clouds 8 990 92 10000 1.54 220 21:29 28.09.2022
45 Clear 9 990 89 10000 2.06 230 20:24 28.09.2022
46 Clouds 9 989 90 10000 2.57 260 18:41 28.09.2022
47 Clouds 11 987 85 10000 3.6 270 15:26 28.09.2022
48 Mist 9 986 94 4400 2.06 90 13:26 28.09.2022
49 Rain 8 987 91 10000 3.09 170 11:18 28.09.2022
50 Rain 9 986 90 10000 2.57 160 09:18 28.09.2022
51 Clouds 7 987 93 10000 2.57 170 07:20 28.09.2022
52 Clouds 8 993 90 10000 3.6 210 03:18 28.09.2022
53 Clear 8 993 91 10000 3.09 220 01:36 28.09.2022
54 Clouds 8 989 88 10000 3.09 220 23:27 27.09.2022
55 Clouds 9 993 88 10000 3.09 240 21:47 27.09.2022
56 Rain 9 993 91 10000 3.6 220 20:39 27.09.2022
57 Clouds 9 993 90 10000 3.09 220 19:48 27.09.2022
58 Rain 11 989 85 10000 3.09 250 18:49 27.09.2022
59 Clouds 12 989 83 10000 4.63 250 17:46 27.09.2022
60 Clouds 13 988 73 10000 6.69 260 15:58 27.09.2022
61 Clouds 13 987 86 10000 4.63 260 14:58 27.09.2022
62 Rain 12 987 86 10000 7.72 260 13:28 27.09.2022
63 Clouds 12 986 83 10000 3.6 230 12:21 27.09.2022
64 Clouds 12 986 90 10000 3.09 170 09:46 27.09.2022
65 Clouds 10 986 93 10000 3.6 140 07:28 27.09.2022
66 Clouds 12 989 85 10000 5.14 170 02:51 27.09.2022
67 Clear 11 990 84 10000 4.12 170 01:35 27.09.2022
68 Clear 11 1001 85 10000 3.6 170 23:38 26.09.2022
69 Clear 10 992 85 10000 4.12 190 23:18 26.09.2022
70 Clear 11 1003 87 10000 4.12 180 20:47 26.09.2022
71 Clear 13 997 79 10000 3.09 200 19:34 26.09.2022
72 Clear 14 997 76 10000 2.06 230 18:35 26.09.2022
73 Clear 17 998 54 10000 2.57 240 16:58 26.09.2022
74 Clouds 17 999 55 10000 3.09 240 14:46 26.09.2022
75 Clouds 14 998 85 10000 2.57 220 11:37 26.09.2022
76 Clouds 12 998 93 10000 3.09 170 10:41 26.09.2022
77 Clouds 13 1001 95 10000 3.09 180 10:22 26.09.2022
78 Clouds 12 1008 99 10000 3.09 200 09:56 26.09.2022
79 Clouds 11 1002 97 10000 2.06 210 09:25 26.09.2022
80 Clouds 11 998 93 10000 1.54 170 08:58 26.09.2022
81 Clouds 13 1003 92 10000 1.54 280 02:59 26.09.2022
82 Clouds 12 1010 95 10000 2.06 290 01:52 26.09.2022
83 Clear 12 1000 88 10000 1.54 240 23:20 25.09.2022
84 Clear 13 1001 84 10000 1.03 0 21:44 25.09.2022
85 Clouds 13 1004 87 10000 1.03 160 20:57 25.09.2022
86 Clouds 13 1004 84 10000 0.51 190 20:32 25.09.2022
87 Clear 16 1004 80 10000 1.54 360 18:44 25.09.2022
88 Clear 16 1004 79 10000 2.06 360 18:24 25.09.2022
89 Clear 19 1001 60 10000 2.06 320 16:59 25.09.2022
90 Clouds 19 1001 57 10000 1.54 50 15:48 25.09.2022
91 Clear 19 1002 56 10000 1.54 10 14:35 25.09.2022
92 Clouds 18 1002 60 10000 1.03 0 13:45 25.09.2022
93 Clear 16 1013 87 10000 2.06 200 10:37 25.09.2022
94 Clear 13 1012 88 10000 1.54 220 09:37 25.09.2022
95 Clear 10 1006 92 10000 1.03 190 06:53 25.09.2022
96 Clear 10 1003 89 10000 1.03 0 05:19 25.09.2022
97 Clear 13 1012 76 10000 3.6 160 23:36 24.09.2022
98 Clear 12 1012 82 10000 3.09 160 21:19 24.09.2022
99 Clear 14 1007 83 10000 2.06 150 19:33 24.09.2022
100 Clouds 16 1006 78 10000 2.06 100 18:44 24.09.2022
101 Clear 19 1003 52 10000 2.57 350 16:50 24.09.2022
102 Clouds 19 1003 52 10000 1.54 0 15:23 24.09.2022
103 Clear 18 1004 54 10000 2.06 320 14:27 24.09.2022
104 Clear 18 1003 56 10000 1.54 0 13:18 24.09.2022
105 Clear 17 1003 62 10000 1.54 220 12:22 24.09.2022
106 Clear 12 1004 76 10000 2.06 160 09:58 24.09.2022
107 Clear 10 1014 94 10000 1.54 170 08:56 24.09.2022
108 Clear 8 1013 95 10000 2.57 150 07:41 24.09.2022
109 Clear 9 1005 85 10000 3.09 150 04:53 24.09.2022
110 Clear 9 1005 88 10000 2.57 160 04:19 24.09.2022
111 Clear 10 1007 83 10000 3.09 150 22:54 23.09.2022
112 Clear 10 1007 81 10000 3.09 160 21:37 23.09.2022
113 Clear 11 1016 79 10000 2.57 160 21:19 23.09.2022
114 Clear 11 1007 80 10000 2.57 160 20:43 23.09.2022
115 Clear 12 1010 83 10000 1.54 150 19:20 23.09.2022
116 Clear 17 1008 54 10000 1.03 0 16:23 23.09.2022
117 Clear 16 1010 57 10000 2.06 230 12:52 23.09.2022
118 Clear 9 1011 85 10000 1.54 150 09:36 23.09.2022
119 Mist 4 1020 99 3500 0.51 0 07:29 23.09.2022
120 Clear 7 1022 93 10000 2.57 160 01:21 23.09.2022
121 Clear 8 1022 87 10000 1.54 160 23:29 22.09.2022
122 Clear 10 1022 76 10000 1.03 0 22:27 22.09.2022
123 Clear 10 1023 71 10000 0.51 0 21:30 22.09.2022
124 Clear 12 1022 62 10000 0.51 0 20:21 22.09.2022
125 Clear 13 1017 77 10000 1.54 50 18:44 22.09.2022
126 Clouds 16 1017 67 10000 2.57 60 15:23 22.09.2022
127 Clouds 12 1015 85 10000 1.54 0 10:48 22.09.2022
128 Clouds 12 1015 85 10000 1.03 0 10:19 22.09.2022
129 Clouds 8 1024 93 8000 0.51 0 07:55 22.09.2022
130 Clear 8 1024 100 10000 1.03 230 04:56 22.09.2022
131 Clear 9 1025 100 10000 1.54 240 00:37 22.09.2022
132 Clear 11 1025 87 10000 1.54 260 22:29 21.09.2022
133 Clear 9 1016 88 10000 1.03 0 21:18 21.09.2022
134 Clouds 12 1019 88 10000 1.54 220 18:51 21.09.2022
135 Clouds 13 1019 89 10000 1.03 210 17:44 21.09.2022
136 Clouds 16 1019 79 10000 2.57 310 15:47 21.09.2022
137 Clouds 14 1017 73 10000 3.09 300 13:54 21.09.2022
138 Clouds 14 1020 85 10000 3.6 270 11:43 21.09.2022
139 Clouds 12 1017 83 10000 2.57 270 10:59 21.09.2022
140 Clouds 11 1020 92 10000 3.6 270 09:40 21.09.2022
141 Clear 9 1020 94 10000 2.57 270 08:43 21.09.2022
142 Clouds 8 1015 92 10000 2.06 280 04:57 21.09.2022
143 Clouds 9 1018 93 10000 2.06 270 02:40 21.09.2022
144 Clouds 9 1018 92 10000 2.06 260 01:58 21.09.2022
145 Clouds 9 1018 92 10000 1.03 280 00:20 21.09.2022
146 Clear 9 1017 92 10000 1.54 260 21:53 20.09.2022
147 Clouds 10 1016 91 10000 1.03 310 20:33 20.09.2022
148 Rain 10 1016 87 10000 1.03 0 19:18 20.09.2022
149 Clouds 14 1011 71 10000 4.63 320 15:57 20.09.2022
150 Clouds 13 1011 79 10000 4.12 310 14:29 20.09.2022
151 Clouds 13 1014 91 10000 3.6 310 12:32 20.09.2022
152 Clouds 10 1013 95 10000 2.57 280 08:51 20.09.2022
153 Clouds 9 1013 95 10000 2.06 280 08:24 20.09.2022
154 Clouds 10 1008 93 10000 3.09 290 04:40 20.09.2022
155 Rain 10 1008 93 8000 3.09 270 02:34 20.09.2022
156 Clear 9 1011 95 10000 2.57 250 22:50 19.09.2022
157 Clouds 9 1011 94 10000 1.54 220 21:38 19.09.2022
158 Clouds 10 1006 92 10000 2.57 270 20:45 19.09.2022
159 Rain 11 1006 88 10000 2.57 340 19:27 19.09.2022
160 Clouds 14 1005 76 10000 4.63 290 17:37 19.09.2022
161 Clouds 13 1008 91 10000 4.63 300 13:56 19.09.2022
162 Clouds 11 1008 94 10000 4.63 300 12:48 19.09.2022
163 Rain 10 1007 95 10000 4.63 310 10:31 19.09.2022
164 Clouds 9 1005 95 10000 3.09 290 08:42 19.09.2022
165 Clouds 8 1004 95 10000 4.12 320 05:42 19.09.2022
166 Drizzle 9 999 91 8000 3.6 270 01:53 19.09.2022
167 Clear 8 1002 90 10000 3.09 260 23:22 18.09.2022
168 Clouds 9 1003 90 10000 4.12 260 21:33 18.09.2022
169 Clouds 9 1003 92 10000 4.63 270 20:23 18.09.2022
170 Rain 10 1003 91 10000 4.63 270 17:54 18.09.2022
171 Rain 11 1003 85 10000 6.17 280 17:19 18.09.2022
172 Rain 14 999 69 10000 7.72 260 15:34 18.09.2022
173 Clouds 14 1003 77 10000 5.14 320 13:47 18.09.2022
174 Clouds 14 1004 80 10000 5.66 290 12:34 18.09.2022
175 Clouds 13 1004 88 10000 6.17 270 10:55 18.09.2022
176 Rain 9 1001 94 10000 5.66 280 03:42 18.09.2022
177 Clouds 9 1001 90 10000 5.66 270 01:24 18.09.2022
178 Clouds 9 1002 89 10000 6.17 260 00:23 18.09.2022
179 Clouds 10 1002 84 10000 3.6 270 21:39 17.09.2022
180 Clouds 12 1001 80 10000 3.6 270 19:43 17.09.2022
181 Clouds 12 1001 80 10000 3.6 270 19:43 17.09.2022
182 Clear 13 1001 75 10000 4.12 280 18:57 17.09.2022
183 Clouds 15 1001 71 10000 4.63 290 16:18 17.09.2022
184 Rain 14 998 75 10000 5.66 290 13:56 17.09.2022
185 Clouds 13 1002 91 10000 4.63 280 10:57 17.09.2022
186 Drizzle 11 1001 91 3600 4.63 260 08:55 17.09.2022
187 Clouds 11 1000 84 10000 5.14 260 06:25 17.09.2022
188 Clear 11 1001 81 10000 4.63 250 00:20 17.09.2022
189 Clear 12 1000 84 10000 4.12 240 22:52 16.09.2022
190 Clear 12 1000 84 10000 3.6 230 21:22 16.09.2022
191 Clear 13 1000 82 10000 3.09 250 19:50 16.09.2022
192 Clouds 15 997 70 10000 5.14 300 16:56 16.09.2022
193 Clouds 17 997 67 10000 3.09 260 15:26 16.09.2022
194 Clouds 16 1001 84 10000 4.12 230 13:57 16.09.2022
195 Clouds 15 1002 81 10000 4.63 280 11:31 16.09.2022
196 Clouds 13 1002 89 10000 4.12 280 08:26 16.09.2022
197 Clouds 12 1002 90 10000 4.12 270 07:19 16.09.2022
198 Clouds 12 1001 90 10000 3.09 260 06:47 16.09.2022
199 Clear 13 1001 90 10000 2.57 240 02:40 16.09.2022
200 Clouds 14 1001 86 10000 2.57 270 22:56 15.09.2022
201 Clear 14 1000 87 10000 3.09 260 21:18 15.09.2022
202 Clear 15 1000 88 10000 1.54 250 19:49 15.09.2022
203 Clear 15 999 86 10000 3.09 260 18:29 15.09.2022
204 Clear 15 999 86 10000 3.09 250 17:32 15.09.2022
205 Clouds 15 1000 86 10000 2.57 270 16:43 15.09.2022
206 Clouds 17 999 84 10000 5.14 270 14:36 15.09.2022
207 Clouds 16 1000 87 10000 3.09 260 12:21 15.09.2022
208 Clouds 16 999 94 10000 2.57 290 09:54 15.09.2022
209 Clouds 14 999 96 10000 2.06 280 07:51 15.09.2022
210 Clouds 14 999 97 10000 2.57 320 03:56 15.09.2022
211 Rain 15 998 97 6000 3.09 350 01:20 15.09.2022
212 Rain 16 997 96 3800 2.57 10 21:39 14.09.2022
213 Rain 16 998 97 4900 1.54 10 19:55 14.09.2022
214 Rain 16 998 97 3900 1.54 340 19:20 14.09.2022
215 Clouds 17 999 95 10000 1.54 20 16:57 14.09.2022
216 Clouds 18 999 94 9000 1.54 360 15:49 14.09.2022
217 Rain 18 1000 93 10000 0 0 14:33 14.09.2022
218 Drizzle 17 1001 93 10000 1.03 0 11:39 14.09.2022
219 Rain 16 1001 93 10000 0.51 0 09:48 14.09.2022
220 Clouds 16 1001 93 10000 1.03 0 07:38 14.09.2022
221 Clouds 15 1001 93 10000 1.03 160 06:47 14.09.2022
222 Clouds 15 998 92 10000 1.03 0 04:33 14.09.2022
223 Clouds 16 999 88 10000 1.54 240 01:48 14.09.2022
224 Clouds 16 999 87 10000 1.54 240 01:27 14.09.2022
225 Clouds 15 1003 91 10000 1.54 270 00:48 14.09.2022
226 Clear 15 1003 90 10000 1.03 300 23:54 13.09.2022
227 Clear 15 1003 90 10000 1.03 300 23:36 13.09.2022
228 Clear 16 999 83 10000 1.54 310 23:18 13.09.2022
229 Clear 19 1002 80 10000 2.57 300 21:50 13.09.2022
230 Clear 20 1002 80 10000 2.06 250 19:52 13.09.2022
231 Clear 22 1002 78 10000 3.09 250 18:18 13.09.2022
232 Clear 24 1003 62 10000 4.63 270 15:55 13.09.2022
233 Clear 24 1003 60 10000 5.14 270 14:36 13.09.2022
234 Clouds 23 1000 60 10000 5.14 240 14:36 13.09.2022
235 Clear 20 1001 76 10000 4.12 200 12:40 13.09.2022
236 Clear 16 1005 89 10000 3.6 200 09:23 13.09.2022
237 Clear 12 1002 91 10000 3.09 180 06:24 13.09.2022
238 Clear 13 1006 90 10000 2.57 160 00:22 13.09.2022
239 Clear 13 1010 91 10000 2.06 150 22:50 12.09.2022
240 Clear 14 1010 89 10000 2.06 150 21:55 12.09.2022
241 Clear 16 1010 88 10000 1.54 90 20:25 12.09.2022
242 Clear 18 1010 82 10000 1.03 50 18:51 12.09.2022
243 Clear 20 1010 73 10000 1.54 20 17:25 12.09.2022
244 Clouds 20 1012 78 10000 3.09 0 14:39 12.09.2022
245 Clouds 18 1009 80 10000 1.03 0 11:31 12.09.2022
246 Clouds 15 1013 95 8000 2.57 310 09:56 12.09.2022
247 Clouds 13 1013 96 8000 1.03 0 04:54 12.09.2022
248 Clouds 13 1013 96 8000 1.54 290 04:27 12.09.2022
249 Clouds 15 1012 94 10000 1.54 260 23:47 11.09.2022
250 Clouds 15 1013 92 10000 1.54 250 22:43 11.09.2022
251 Mist 16 1012 91 2800 3.6 20 20:51 11.09.2022
252 Clouds 16 1012 89 10000 2.57 250 20:21 11.09.2022
253 Clouds 17 1011 86 10000 3.09 270 19:26 11.09.2022
254 Clouds 18 1011 84 10000 2.57 260 18:37 11.09.2022
255 Clouds 19 1008 76 10000 2.57 310 16:56 11.09.2022
256 Clouds 16 1018 89 10000 3.09 320 14:56 11.09.2022
257 Clouds 16 1017 96 6000 4.63 330 12:54 11.09.2022
258 Clouds 16 1010 94 10000 3.09 310 09:45 11.09.2022
259 Clouds 14 1009 95 10000 2.06 270 07:43 11.09.2022
260 Clear 13 1008 94 10000 2.57 240 02:55 11.09.2022
261 Rain 15 1007 90 10000 2.57 250 23:45 10.09.2022
262 Clear 14 1008 93 10000 2.06 200 21:35 10.09.2022
263 Clear 16 1007 85 10000 1.03 0 19:56 10.09.2022
264 Clear 17 1007 84 10000 1.03 0 19:37 10.09.2022
265 Clear 17 1013 86 10000 2.06 260 19:19 10.09.2022
266 Clear 20 1012 80 10000 3.09 290 16:58 10.09.2022
267 Clouds 21 1012 78 10000 3.09 270 15:32 10.09.2022
268 Clouds 19 1013 69 10000 3.6 290 12:55 10.09.2022
269 Clouds 19 1013 69 10000 3.6 290 12:55 10.09.2022
270 Clouds 18 1013 73 10000 3.6 270 11:36 10.09.2022
271 Clouds 18 1013 78 10000 3.6 280 10:26 10.09.2022
272 Clear 15 1013 87 10000 3.09 220 08:37 10.09.2022
273 Clear 14 1014 92 10000 3.09 220 08:18 10.09.2022
274 Clear 14 1014 92 10000 3.09 220 08:18 10.09.2022
275 Clear 14 1014 93 10000 2.57 210 03:42 10.09.2022
276 Clear 16 1014 93 10000 1.54 180 23:35 09.09.2022
277 Clear 16 1014 90 10000 1.54 190 22:22 09.09.2022
278 Clear 17 1013 90 10000 3.6 180 20:49 09.09.2022
279 Clear 18 1013 89 10000 4.12 180 19:52 09.09.2022
280 Rain 19 1012 89 10000 2.06 170 19:22 09.09.2022
281 Clouds 22 1012 70 10000 1.54 30 16:34 09.09.2022
282 Clouds 22 1012 85 10000 3.09 120 14:42 09.09.2022
283 Clear 22 1013 75 10000 3.09 90 13:18 09.09.2022
284 Clouds 20 1013 84 10000 5.14 200 10:37 09.09.2022
285 Clear 13 1013 92 10000 1.54 170 07:24 09.09.2022
286 Clear 13 1013 92 10000 1.54 170 07:24 09.09.2022
287 Clear 13 1013 92 10000 1.54 170 07:24 09.09.2022
288 Clear 13 1013 92 10000 3.09 220 03:31 09.09.2022
289 Clouds 15 1012 95 10000 2.06 210 22:33 08.09.2022
290 Clear 15 1012 93 10000 5.14 190 21:51 08.09.2022
291 Clear 17 1011 87 10000 3.6 220 20:46 08.09.2022
292 Clear 17 1011 92 10000 2.57 230 20:24 08.09.2022
293 Clouds 20 1010 86 10000 3.09 260 18:34 08.09.2022
294 Clouds 20 1009 85 10000 3.6 230 16:49 08.09.2022
295 Rain 19 1010 97 10000 2.57 230 14:50 08.09.2022
296 Rain 18 1010 97 6000 1.03 0 13:28 08.09.2022
297 Rain 19 1010 95 10000 1.03 0 12:39 08.09.2022
298 Rain 20 1009 87 10000 2.06 300 11:22 08.09.2022
299 Clear 20 1010 92 10000 1.54 0 09:26 08.09.2022
300 Clear 17 1010 93 10000 3.6 160 06:53 08.09.2022
301 Fog 18 1011 95 6000 1.54 70 03:37 08.09.2022
302 Clouds 18 1011 99 7000 0.51 0 02:36 08.09.2022
303 Mist 17 1012 97 4000 1.03 0 02:18 08.09.2022
304 Clear 19 1013 93 10000 2.57 160 22:58 07.09.2022
305 Clear 20 1013 91 10000 3.6 160 21:44 07.09.2022
306 Clear 20 1013 91 10000 3.6 150 21:21 07.09.2022
307 Rain 21 1013 89 10000 3.09 170 20:25 07.09.2022
308 Clear 22 1013 91 10000 3.09 170 18:54 07.09.2022
309 Clear 25 1013 87 10000 3.6 170 16:18 07.09.2022
310 Clear 22 1014 77 10000 4.12 140 10:52 07.09.2022
311 Clear 22 1014 78 10000 4.12 140 10:32 07.09.2022
312 Clear 18 1015 94 10000 4.12 150 08:26 07.09.2022
313 Clear 16 1015 92 10000 3.6 150 05:46 07.09.2022
314 Clear 16 1016 93 10000 2.57 120 00:31 07.09.2022
315 Clear 16 1018 97 10000 3.09 110 21:51 06.09.2022
316 Clear 16 1018 97 10000 3.09 110 21:51 06.09.2022
317 Clear 17 1017 95 10000 3.09 110 21:32 06.09.2022
318 Clear 19 1017 95 10000 3.09 90 19:39 06.09.2022
319 Rain 19 1018 94 10000 2.06 40 18:39 06.09.2022
320 Rain 19 1018 95 10000 2.06 90 17:39 06.09.2022
321 Thunderstorm 22 1000 80 6000 6.17 220 16:47 06.09.2022
322 Rain 24 1000 67 10000 5.66 190 16:24 06.09.2022
323 Clear 25 999 59 10000 4.63 120 14:27 06.09.2022
324 Clear 25 1018 54 10000 5.14 110 13:44 06.09.2022
325 Clear 24 1000 67 10000 4.63 110 13:18 06.09.2022
326 Clear 22 1008 68 10000 3.09 140 10:55 06.09.2022
327 Clear 20 1008 79 10000 2.06 90 09:22 06.09.2022
328 Clear 16 1008 93 10000 1.54 70 07:53 06.09.2022
329 Clear 15 1008 92 10000 1.54 90 06:20 06.09.2022
330 Clear 16 1009 94 10000 2.57 100 01:20 06.09.2022
331 Clear 18 1010 92 10000 2.06 100 22:54 05.09.2022
332 Clear 18 1010 90 10000 2.57 80 21:38 05.09.2022
333 Clear 20 1010 89 10000 3.6 110 20:30 05.09.2022
334 Clouds 22 1010 78 10000 4.12 120 18:53 05.09.2022
335 Clouds 23 1010 72 10000 3.6 110 18:26 05.09.2022
336 Clouds 23 1022 70 10000 4.12 100 17:53 05.09.2022
337 Clouds 25 1010 63 10000 4.12 90 15:54 05.09.2022
338 Clouds 24 1004 66 10000 3.6 80 14:48 05.09.2022
339 Clouds 25 1023 62 10000 2.57 100 12:53 05.09.2022
340 Clear 22 1024 70 10000 3.09 110 11:21 05.09.2022
341 Clear 20 1012 81 10000 3.09 100 08:52 05.09.2022
342 Clear 16 1004 86 10000 2.57 70 05:20 05.09.2022
343 Clear 17 1004 84 10000 2.06 110 01:19 05.09.2022
344 Clear 18 1011 82 10000 2.57 70 22:29 04.09.2022
345 Clear 18 1011 77 10000 3.09 80 21:59 04.09.2022
346 Clear 20 1010 64 10000 3.09 60 20:35 04.09.2022
347 Clear 23 1009 56 10000 3.6 60 18:39 04.09.2022
348 Clear 25 1021 50 10000 3.09 60 17:43 04.09.2022
349 Clear 25 1021 48 10000 3.6 100 16:28 04.09.2022
350 Clear 24 1021 58 10000 2.57 70 14:25 04.09.2022
351 Clear 24 1001 56 10000 3.6 0 12:52 04.09.2022
352 Clear 22 1001 64 10000 3.6 90 11:28 04.09.2022
353 Clear 19 1001 71 10000 1.54 90 09:39 04.09.2022
354 Clear 14 1006 90 10000 1.03 110 06:40 04.09.2022
355 Clear 15 1006 86 10000 2.57 80 03:18 04.09.2022
356 Clear 16 1005 80 10000 2.57 90 22:56 03.09.2022
357 Clear 17 997 73 10000 2.57 80 22:18 03.09.2022
358 Clear 17 1005 73 10000 3.09 70 21:22 03.09.2022
359 Clear 22 1016 41 10000 3.09 140 18:57 03.09.2022
360 Clear 23 1004 42 10000 3.6 140 17:25 03.09.2022
361 Clear 23 997 45 10000 4.12 110 16:20 03.09.2022
362 Clear 23 1004 45 10000 5.14 90 14:43 03.09.2022
363 Clear 22 997 48 10000 4.63 60 13:50 03.09.2022
364 Clear 21 998 51 10000 4.12 70 11:37 03.09.2022
365 Clear 18 998 65 10000 2.57 90 09:51 03.09.2022
366 Clear 13 998 74 10000 1.54 150 07:57 03.09.2022
367 Clear 13 998 79 10000 0.51 0 04:57 03.09.2022
368 Clear 13 999 79 10000 1.54 80 03:57 03.09.2022
369 Clear 14 1007 72 10000 2.06 110 23:49 02.09.2022
370 Clear 15 1006 68 10000 3.6 110 22:39 02.09.2022
371 Clear 17 1006 61 10000 3.09 100 20:59 02.09.2022
372 Clear 17 1006 59 10000 4.12 90 20:27 02.09.2022
373 Clear 20 1006 52 10000 4.12 80 18:59 02.09.2022
374 Clear 20 1006 50 10000 4.63 80 18:28 02.09.2022
375 Clear 20 1007 50 10000 4.63 90 17:36 02.09.2022
376 Clear 20 1000 53 10000 5.14 90 16:46 02.09.2022
377 Clouds 22 1008 45 10000 4.12 110 13:55 02.09.2022
378 Clouds 20 1020 55 10000 3.6 90 12:24 02.09.2022
379 Clear 18 1001 69 10000 2.57 90 09:50 02.09.2022
380 Clear 18 1009 71 10000 1.03 0 08:56 02.09.2022
381 Clear 13 1001 85 10000 2.57 160 07:30 02.09.2022
382 Clear 13 1001 85 10000 2.57 160 07:30 02.09.2022
383 Clear 13 1001 85 10000 1.54 150 06:36 02.09.2022
384 Clear 14 1002 80 10000 1.54 130 02:37 02.09.2022
385 Clear 16 1003 74 10000 1.54 100 22:30 01.09.2022
386 Clear 17 1002 70 10000 1.54 100 21:43 01.09.2022
387 Clear 16 1002 75 10000 1.54 80 21:25 01.09.2022
388 Clear 17 1002 67 10000 1.54 70 20:43 01.09.2022
389 Clear 19 1009 62 10000 3.6 60 18:54 01.09.2022
390 Clouds 20 1009 56 10000 3.09 60 17:22 01.09.2022
391 Clear 21 1021 56 10000 3.09 120 15:56 01.09.2022
392 Clouds 21 1022 54 10000 3.6 90 14:22 01.09.2022
393 Clear 20 1022 65 10000 3.09 70 12:58 01.09.2022
394 Clear 19 1022 71 10000 2.57 60 11:53 01.09.2022
395 Clear 18 1022 72 10000 2.57 60 11:31 01.09.2022
396 Clear 18 1003 78 10000 1.54 50 10:38 01.09.2022
397 Clear 14 1010 96 10000 0.51 0 08:30 01.09.2022
398 Clear 12 1010 94 10000 0.51 0 06:22 01.09.2022
399 Clear 14 1003 92 10000 1.54 30 01:32 01.09.2022
400 Clear 16 1003 84 10000 0.51 20 00:18 01.09.2022
401 Clear 17 1010 82 10000 0.51 350 21:33 31.08.2022
402 Clear 19 1010 74 10000 1.03 40 19:50 31.08.2022
403 Clear 20 1010 65 10000 2.57 50 18:18 31.08.2022
404 Clear 22 1010 59 10000 3.6 30 16:23 31.08.2022
405 Clouds 23 1010 57 10000 3.6 90 14:32 31.08.2022
406 Clouds 20 1003 74 10000 3.6 30 12:23 31.08.2022
407 Clear 20 1014 74 10000 3.6 40 11:26 31.08.2022
408 Clear 16 1013 93 10000 1.54 40 08:54 31.08.2022
409 Clear 13 1009 95 10000 1.54 20 05:26 31.08.2022
410 Clear 16 1012 88 10000 1.03 40 23:20 30.08.2022
411 Clear 18 1009 76 10000 2.06 40 21:43 30.08.2022
412 Clear 18 1012 78 10000 2.06 20 20:57 30.08.2022
413 Clear 21 1020 63 10000 3.6 30 18:49 30.08.2022
414 Clear 23 1009 60 10000 4.63 40 15:29 30.08.2022
415 Clouds 23 1009 62 10000 2.57 30 13:25 30.08.2022
416 Clear 22 1010 66 10000 2.57 40 11:22 30.08.2022
417 Clear 21 1021 67 10000 1.54 70 10:57 30.08.2022
418 Clear 15 1002 92 10000 1.54 120 07:50 30.08.2022
419 Clear 13 1009 92 10000 2.06 200 02:55 30.08.2022
420 Clear 15 1012 88 10000 0.51 0 23:28 29.08.2022
421 Clear 16 1009 82 10000 1.03 150 22:32 29.08.2022
422 Clear 17 1012 83 10000 1.03 40 21:27 29.08.2022
423 Clear 18 1011 75 10000 1.54 350 20:26 29.08.2022
424 Clear 22 1020 56 10000 2.06 310 17:58 29.08.2022
425 Clear 22 1020 57 10000 2.57 270 17:25 29.08.2022
426 Clear 22 1020 55 10000 2.57 310 16:50 29.08.2022
427 Clear 23 1009 56 10000 2.57 290 15:18 29.08.2022
428 Clear 22 1009 59 10000 3.6 270 13:34 29.08.2022
429 Clouds 21 1012 60 10000 4.63 280 11:33 29.08.2022
430 Clear 19 1002 70 10000 3.09 290 10:39 29.08.2022
431 Clear 16 1009 76 10000 3.09 260 08:39 29.08.2022
432 Clear 12 1011 92 10000 1.03 260 06:25 29.08.2022
433 Clear 15 1007 86 10000 1.54 270 01:53 29.08.2022
434 Clear 17 1006 82 10000 1.03 270 22:55 28.08.2022
435 Clear 18 1006 80 10000 1.54 290 21:46 28.08.2022
436 Clear 18 1009 78 10000 1.03 0 20:59 28.08.2022
437 Clouds 20 1008 71 10000 1.54 320 19:59 28.08.2022
438 Clouds 23 1008 62 10000 2.57 340 18:22 28.08.2022
439 Clouds 22 1008 63 10000 3.6 290 17:50 28.08.2022
440 Clouds 23 1005 66 10000 3.6 310 16:44 28.08.2022
441 Clouds 22 1008 67 10000 4.63 320 15:00 28.08.2022
442 Clouds 21 1008 73 10000 4.12 300 12:57 28.08.2022
443 Clouds 19 1008 83 10000 3.6 290 11:25 28.08.2022
444 Clouds 17 1004 90 10000 4.63 300 10:20 28.08.2022
445 Clouds 17 1007 97 10000 4.12 310 08:52 28.08.2022
446 Clouds 17 1007 97 10000 4.12 310 07:53 28.08.2022
447 Clouds 17 1007 97 9000 4.12 300 07:26 28.08.2022
448 Rain 19 1005 96 9000 4.63 320 00:37 28.08.2022
449 Rain 20 1002 95 10000 2.57 330 23:20 27.08.2022
450 Clouds 20 1005 96 10000 2.57 290 22:27 27.08.2022
451 Clouds 20 1005 96 9000 2.57 270 20:35 27.08.2022
452 Clouds 21 1004 96 10000 2.06 260 19:26 27.08.2022
453 Clouds 21 1004 95 10000 3.09 320 16:29 27.08.2022
454 Clouds 21 1004 96 9000 2.57 320 15:31 27.08.2022
455 Rain 20 1004 96 4300 2.57 300 13:22 27.08.2022
456 Rain 20 1004 96 2500 2.06 270 12:20 27.08.2022
457 Rain 20 1004 96 5000 2.57 310 10:30 27.08.2022
458 Mist 20 1003 96 3500 2.57 320 09:36 27.08.2022
459 Mist 20 1003 96 3800 1.03 260 06:54 27.08.2022
460 Rain 20 1003 96 10000 1.03 0 01:21 27.08.2022
461 Rain 21 1003 94 10000 3.58 286 23:49 26.08.2022
462 Clouds 22 1003 91 10000 1.54 120 21:49 26.08.2022
463 Clear 22 1003 90 10000 1.54 40 20:22 26.08.2022
464 Clear 27 1011 62 10000 3.09 40 18:19 26.08.2022
465 Rain 28 1002 60 10000 5.66 300 16:36 26.08.2022
466 Clear 29 1000 58 10000 2.06 90 15:25 26.08.2022
467 Thunderstorm 27 995 66 10000 3.6 70 13:20 26.08.2022
468 Rain 26 995 78 10000 3.6 70 12:34 26.08.2022
469 Clear 28 1002 71 10000 1.79 133 11:22 26.08.2022
470 Clear 25 1006 81 10000 1.03 0 09:53 26.08.2022
471 Mist 19 1006 95 4500 1.03 0 04:56 26.08.2022
472 Clear 21 1007 93 10000 0.51 0 00:55 26.08.2022
473 Clear 21 1007 90 10000 1.54 50 22:57 25.08.2022
474 Clear 24 1007 84 10000 3.6 80 20:59 25.08.2022
475 Clear 25 1015 68 10000 5.14 80 19:54 25.08.2022
476 Clear 27 1015 65 10000 5.66 60 18:47 25.08.2022
477 Clouds 29 1015 55 10000 5.66 60 17:32 25.08.2022
478 Clouds 29 1015 58 10000 4.63 60 16:49 25.08.2022
479 Clouds 29 1016 57 10000 5.66 50 15:37 25.08.2022
480 Clouds 28 1017 61 10000 4.63 70 14:30 25.08.2022
481 Clouds 26 1007 75 10000 3.6 60 11:34 25.08.2022
482 Clouds 25 1007 78 10000 1.54 0 10:46 25.08.2022
483 Clouds 22 1008 86 9000 0.51 0 08:52 25.08.2022
484 Clouds 17 1011 95 10000 0 0 04:59 25.08.2022
485 Clear 19 1012 93 10000 1.03 80 00:26 25.08.2022
486 Clear 20 1020 86 10000 1.54 90 23:25 24.08.2022
487 Clear 20 1012 88 10000 1.03 80 22:21 24.08.2022
488 Clear 22 1009 81 10000 1.03 70 21:33 24.08.2022
489 Clear 23 1011 81 10000 2.06 60 20:24 24.08.2022
490 Clouds 25 1019 69 10000 2.06 40 18:46 24.08.2022
491 Clouds 26 1020 67 10000 3.09 350 16:28 24.08.2022
492 Clear 26 1008 67 10000 2.06 0 15:51 24.08.2022
493 Clouds 25 1012 72 10000 2.06 30 13:33 24.08.2022
494 Clouds 22 1021 82 10000 1.54 350 11:24 24.08.2022
495 Clouds 20 1021 88 10000 1.03 0 09:33 24.08.2022
496 Clear 19 1012 94 10000 2.06 310 07:47 24.08.2022
497 Clouds 18 1019 94 10000 1.03 270 02:25 24.08.2022
498 Clouds 19 1020 93 10000 1.03 250 23:26 23.08.2022
499 Clouds 19 1020 93 10000 1.03 300 22:30 23.08.2022
500 Clouds 19 1019 93 10000 1.03 330 21:28 23.08.2022
501 Clouds 19 1019 91 10000 1.03 0 20:20 23.08.2022
502 Clouds 21 1018 82 10000 1.54 310 18:44 23.08.2022
503 Clouds 20 1018 84 10000 1.54 330 17:48 23.08.2022
504 Clouds 20 1018 85 10000 1.54 320 16:53 23.08.2022
505 Clouds 20 1019 90 10000 2.57 360 15:37 23.08.2022
506 Clouds 19 1010 92 10000 3.09 320 13:26 23.08.2022
507 Clouds 18 1006 95 10000 2.06 340 11:32 23.08.2022
508 Clouds 18 1010 97 9000 2.57 330 10:36 23.08.2022
509 Clouds 17 1009 96 9000 3.09 320 09:54 23.08.2022
510 Clouds 17 1009 96 7000 3.09 340 08:51 23.08.2022
511 Clouds 17 1009 96 8000 3.09 340 08:20 23.08.2022
512 Clouds 17 1009 96 8000 3.09 340 08:20 23.08.2022
513 Clouds 16 1009 97 8000 2.06 330 07:34 23.08.2022
514 Rain 16 1008 97 10000 1.54 340 06:28 23.08.2022
515 Rain 16 1005 96 9000 2.06 330 04:38 23.08.2022
516 Rain 16 1009 95 10000 2.06 320 00:28 23.08.2022
517 Rain 16 1009 91 10000 1.54 70 23:37 22.08.2022
518 Rain 17 1009 86 10000 1.03 0 22:44 22.08.2022
519 Rain 18 1017 78 10000 1.03 60 21:45 22.08.2022
520 Clear 19 1017 64 10000 2.06 30 19:48 22.08.2022
521 Rain 19 1017 62 10000 2.57 40 19:18 22.08.2022
522 Rain 19 1017 76 10000 2.59 99 17:37 22.08.2022
523 Clear 21 1017 54 10000 4.12 60 15:39 22.08.2022
524 Rain 21 1017 62 10000 3.6 50 14:32 22.08.2022
525 Clear 20 1008 74 10000 2.06 360 10:43 22.08.2022
526 Clear 15 1009 88 10000 0.51 0 08:21 22.08.2022
527 Clear 15 997 90 10000 1.03 190 04:30 22.08.2022
528 Clear 16 997 80 10000 0.51 200 00:49 22.08.2022
529 Clear 16 997 80 10000 0.51 180 00:26 22.08.2022
530 Clear 17 1004 77 10000 0.51 230 22:54 21.08.2022
531 Clear 18 997 74 10000 1.03 310 21:36 21.08.2022
532 Clear 19 997 68 10000 1.54 330 20:57 21.08.2022
533 Clear 21 1007 58 10000 2.57 320 19:28 21.08.2022
534 Clear 23 1004 55 10000 3.6 320 17:59 21.08.2022
535 Clear 22 1004 59 10000 5.14 320 15:59 21.08.2022
536 Clouds 22 1004 62 10000 5.14 330 15:28 21.08.2022
537 Clouds 21 1004 69 10000 3.6 330 13:58 21.08.2022
538 Clouds 21 1004 69 10000 3.6 330 13:40 21.08.2022
539 Clouds 20 1007 76 10000 3.09 310 12:37 21.08.2022
540 Clouds 19 1007 97 10000 1.54 300 09:32 21.08.2022
541 Rain 19 1007 97 5000 2.57 340 08:56 21.08.2022
542 Mist 18 1008 97 5000 2.57 340 08:38 21.08.2022
543 Mist 18 1007 98 5000 1.03 230 07:28 21.08.2022
544 Rain 18 1004 96 9000 1.54 10 04:26 21.08.2022
545 Drizzle 18 1004 96 5000 2.57 310 00:53 21.08.2022
546 Rain 18 1004 96 7000 1.54 260 22:59 20.08.2022
547 Clouds 19 1005 95 6000 1.54 250 21:45 20.08.2022
548 Rain 18 1008 97 7000 0.51 0 20:48 20.08.2022
549 Rain 18 1007 96 10000 2.57 310 19:42 20.08.2022
550 Rain 19 1007 97 8000 3.09 330 18:44 20.08.2022
551 Rain 18 1007 97 6000 2.06 340 18:25 20.08.2022
552 Rain 19 1003 93 10000 2.06 320 17:20 20.08.2022
553 Rain 19 1007 98 3800 3.09 300 15:52 20.08.2022
554 Rain 19 1006 96 6000 3.6 310 13:39 20.08.2022
555 Rain 19 1006 97 4200 3.6 320 11:53 20.08.2022
556 Mist 19 1006 98 4700 4.12 310 11:24 20.08.2022
557 Rain 18 1005 97 2900 3.6 320 09:20 20.08.2022
558 Rain 19 1001 94 4700 2.57 290 06:40 20.08.2022
559 Mist 19 1004 95 4300 3.09 300 04:42 20.08.2022
560 Clouds 20 1005 90 10000 2.06 300 00:55 20.08.2022
561 Clouds 21 1005 89 10000 1.03 0 23:25 19.08.2022
562 Rain 20 1004 89 10000 2.06 300 22:36 19.08.2022
563 Clouds 21 1004 88 10000 2.06 300 20:41 19.08.2022
564 Clouds 22 1003 84 10000 2.57 310 18:55 19.08.2022
565 Clouds 22 1003 87 10000 3.6 310 15:55 19.08.2022
566 Clouds 22 1012 83 10000 3.6 270 13:42 19.08.2022
567 Clouds 21 1002 92 9000 2.57 270 11:46 19.08.2022
568 Clouds 20 1002 96 7000 3.6 260 10:31 19.08.2022
569 Clouds 20 1002 92 10000 3.09 280 08:31 19.08.2022
570 Clouds 21 1000 91 10000 4.12 300 03:39 19.08.2022
571 Clear 22 1000 87 10000 3.09 320 00:40 19.08.2022
572 Clouds 22 1000 86 10000 3.6 290 00:19 19.08.2022
573 Clear 23 1000 76 10000 4.12 290 22:56 18.08.2022
574 Clear 24 1000 72 10000 3.6 270 22:23 18.08.2022
575 Clouds 24 997 72 10000 3.6 310 21:47 18.08.2022
576 Clear 24 1009 71 10000 2.57 320 20:45 18.08.2022
577 Clear 27 1008 57 10000 2.06 310 19:34 18.08.2022
578 Clear 28 1001 56 10000 3.6 310 18:43 18.08.2022
579 Clear 29 1009 50 10000 4.12 310 17:32 18.08.2022
580 Clear 28 1009 51 10000 3.09 280 15:51 18.08.2022
581 Clear 28 1002 49 10000 4.12 270 14:21 18.08.2022
582 Clear 29 1000 49 10000 4.12 270 13:44 18.08.2022
583 Clear 30 1002 45 10000 2.06 0 12:28 18.08.2022
584 Clear 29 1010 51 10000 1.54 220 11:19 18.08.2022
585 Clear 28 1000 46 10000 1.03 0 09:43 18.08.2022
586 Clear 21 993 66 10000 1.54 220 07:27 18.08.2022
587 Clear 20 993 69 10000 1.54 0 06:18 18.08.2022
588 Clear 23 993 57 10000 2.57 150 01:43 18.08.2022
589 Clear 25 993 52 10000 1.54 150 22:45 17.08.2022
590 Clear 29 1000 39 10000 1.54 90 20:21 17.08.2022
591 Clear 28 1002 44 10000 2.57 80 19:55 17.08.2022
592 Clear 32 1009 33 10000 3.6 80 18:33 17.08.2022
593 Clear 33 999 33 10000 2.57 0 16:52 17.08.2022
594 Clear 33 999 33 10000 3.09 60 15:46 17.08.2022
595 Clear 33 999 34 10000 4.12 90 14:40 17.08.2022
596 Clear 31 1000 39 10000 2.06 0 12:29 17.08.2022
597 Clear 30 1000 44 10000 1.03 0 11:23 17.08.2022
598 Clear 25 1000 54 10000 1.03 0 09:22 17.08.2022
599 Clear 20 993 75 10000 0.51 190 06:34 17.08.2022
600 Clear 22 1000 68 10000 0.51 0 01:22 17.08.2022
601 Clear 24 1003 61 10000 1.03 0 23:27 16.08.2022
602 Clear 24 1002 58 10000 0.51 110 21:33 16.08.2022
603 Clear 26 1002 51 10000 1.54 310 20:22 16.08.2022
604 Clear 29 1001 43 10000 2.57 300 19:27 16.08.2022
605 Clear 30 1009 38 10000 3.6 280 17:56 16.08.2022
606 Clear 30 1009 40 10000 1.54 0 16:55 16.08.2022
607 Clear 31 998 41 10000 1.03 0 15:45 16.08.2022
608 Clear 30 998 43 10000 2.06 0 14:54 16.08.2022
609 Clear 30 998 43 10000 2.06 0 14:36 16.08.2022
610 Clear 28 999 48 10000 2.57 190 12:39 16.08.2022
611 Clear 25 992 61 10000 3.09 230 10:23 16.08.2022
612 Clear 24 992 64 10000 3.09 240 09:29 16.08.2022
613 Clear 20 998 79 10000 3.09 220 08:26 16.08.2022
614 Clear 18 1001 89 10000 3.09 210 07:20 16.08.2022
615 Clear 19 999 94 10000 1.03 0 01:23 16.08.2022
616 Clear 20 998 89 10000 1.03 0 22:29 15.08.2022
617 Clear 21 998 90 10000 2.06 60 21:51 15.08.2022
618 Clear 22 997 87 10000 1.03 0 20:39 15.08.2022
619 Rain 22 996 88 10000 3.09 180 20:00 15.08.2022
620 Rain 23 994 92 10000 9.77 210 18:20 15.08.2022
621 Clear 28 1004 50 10000 4.63 210 16:40 15.08.2022
622 Clear 28 1004 50 10000 4.63 210 16:40 15.08.2022
623 Clouds 28 993 51 10000 4.12 210 16:20 15.08.2022
624 Rain 28 1004 52 10000 2.57 150 13:55 15.08.2022
625 Clear 29 996 51 10000 1.54 0 12:24 15.08.2022
626 Clear 26 997 64 10000 1.03 0 09:57 15.08.2022
627 Clear 21 998 83 10000 2.06 150 08:22 15.08.2022
628 Clear 17 994 89 10000 1.03 160 04:55 15.08.2022
629 Clear 19 998 88 10000 2.06 120 01:35 15.08.2022
630 Clear 21 999 80 10000 1.54 130 22:39 14.08.2022
631 Clear 22 999 75 10000 2.06 80 21:39 14.08.2022
632 Clear 25 999 62 10000 4.12 50 20:21 14.08.2022
633 Clear 27 996 56 10000 2.06 70 19:31 14.08.2022
634 Clear 28 997 53 10000 2.57 100 18:19 14.08.2022
635 Clear 29 1000 49 10000 4.63 30 16:55 14.08.2022
636 Clear 29 998 51 10000 3.09 80 15:51 14.08.2022
637 Clouds 29 999 49 10000 4.12 110 14:36 14.08.2022
638 Clear 29 999 50 10000 6.17 90 13:50 14.08.2022
639 Clouds 29 999 49 10000 6.69 70 13:22 14.08.2022
640 Clouds 29 1003 50 10000 4.63 60 12:34 14.08.2022
641 Clouds 29 1003 50 10000 4.63 60 12:34 14.08.2022
642 Clear 26 1001 63 10000 1.54 60 11:18 14.08.2022
643 Clear 21 1013 75 10000 1.03 0 08:53 14.08.2022
644 Clear 16 1002 93 10000 0.51 0 06:23 14.08.2022
645 Clear 17 1003 91 10000 1.03 60 03:48 14.08.2022
646 Clear 19 1007 88 10000 0.51 80 00:39 14.08.2022
647 Clouds 21 1005 79 10000 1.54 160 22:56 13.08.2022
648 Clear 21 1005 78 10000 0.51 260 21:55 13.08.2022
649 Clear 21 1008 77 10000 0.51 80 20:49 13.08.2022
650 Clouds 23 1008 70 10000 2.57 60 19:46 13.08.2022
651 Clouds 25 1016 64 10000 4.63 80 18:19 13.08.2022
652 Clouds 25 1016 63 10000 3.6 50 16:23 13.08.2022
653 Clouds 24 1009 66 10000 4.63 40 14:41 13.08.2022
654 Clouds 24 1017 63 10000 4.63 30 13:48 13.08.2022
655 Clouds 24 1009 65 10000 4.63 70 13:23 13.08.2022
656 Clouds 20 1007 64 10000 1.03 0 10:44 13.08.2022
657 Clouds 21 982 67 10000 2.54 55 09:22 13.08.2022
658 Clear 16 999 76 10000 0.51 0 06:26 13.08.2022
659 Clear 19 1001 60 10000 1.54 180 01:36 13.08.2022
660 Clear 22 1001 50 10000 2.57 50 23:25 12.08.2022
661 Clear 21 1011 53 10000 2.06 110 21:35 12.08.2022
662 Clear 27 1018 36 10000 5.14 80 19:47 12.08.2022
663 Clear 27 1018 38 10000 5.14 70 19:22 12.08.2022
664 Clear 27 1018 36 10000 6.17 80 18:21 12.08.2022
665 Clear 28 1019 35 10000 5.66 70 16:26 12.08.2022
666 Clear 28 1019 38 10000 5.66 80 15:19 12.08.2022
667 Clear 26 1009 44 10000 5.66 70 13:43 12.08.2022
668 Clear 26 1013 42 10000 6.17 90 12:32 12.08.2022
669 Clear 22 1013 47 10000 1.03 0 08:52 12.08.2022
670 Clear 18 1011 58 10000 2.06 110 07:45 12.08.2022
671 Clear 16 1003 68 10000 2.06 180 06:21 12.08.2022
672 Clear 18 1010 58 10000 1.03 110 00:32 12.08.2022
673 Clear 19 1010 56 10000 0.51 120 23:58 11.08.2022
674 Clear 19 1010 55 10000 2.06 110 23:22 11.08.2022
675 Clear 21 1013 45 10000 1.54 120 21:53 11.08.2022
676 Clear 21 1013 46 10000 2.57 120 21:28 11.08.2022
677 Clear 21 1013 46 10000 2.57 120 21:28 11.08.2022
678 Clear 24 1013 39 10000 3.6 110 20:31 11.08.2022
679 Clear 27 1021 31 10000 4.63 110 19:34 11.08.2022
680 Clear 28 1009 33 10000 5.14 90 18:57 11.08.2022
681 Clear 28 1021 30 10000 4.12 80 17:22 11.08.2022
682 Clear 28 1021 29 10000 5.14 70 15:48 11.08.2022
683 Clear 28 1022 29 10000 6.69 80 14:46 11.08.2022
684 Clear 26 1012 41 10000 6.17 50 11:59 11.08.2022
685 Clear 23 1024 48 10000 1.03 0 09:22 11.08.2022
686 Clear 16 1005 70 10000 1.54 170 06:58 11.08.2022
687 Clear 19 1005 59 10000 1.54 120 03:23 11.08.2022
688 Clear 20 1005 57 10000 1.03 0 00:19 11.08.2022
689 Clear 21 1013 55 10000 1.54 90 22:18 10.08.2022
690 Clear 22 1013 50 10000 1.54 60 21:19 10.08.2022
691 Clear 23 1015 46 10000 2.57 70 20:42 10.08.2022
692 Clear 28 1012 33 10000 4.12 60 18:53 10.08.2022
693 Clear 28 1016 32 10000 2.06 60 17:31 10.08.2022
694 Clear 29 1025 31 10000 3.09 180 15:53 10.08.2022
695 Clear 28 1017 34 10000 1.54 0 13:34 10.08.2022
696 Clear 26 1026 43 10000 2.06 0 12:24 10.08.2022
697 Clear 20 1008 58 10000 0.51 0 08:45 10.08.2022
698 Clear 18 1015 63 10000 0.51 0 07:44 10.08.2022
699 Clear 15 1007 70 10000 1.03 180 05:53 10.08.2022
700 Clear 17 1008 63 10000 0.51 0 02:45 10.08.2022
701 Clear 19 1018 57 10000 1.54 50 23:34 09.08.2022
702 Clear 20 1018 54 10000 2.06 60 22:55 09.08.2022
703 Clear 22 1017 47 10000 2.06 20 21:34 09.08.2022
704 Clear 25 1025 36 10000 1.03 0 19:34 09.08.2022
705 Clear 27 1014 36 10000 4.63 40 18:29 09.08.2022
706 Clear 28 1014 34 10000 3.6 50 17:27 09.08.2022
707 Clear 28 1025 32 10000 1.54 0 16:40 09.08.2022
708 Clear 28 1025 32 10000 1.54 0 16:40 09.08.2022
709 Clear 27 1025 33 10000 3.09 20 15:46 09.08.2022
710 Clear 26 1026 37 10000 2.57 30 12:48 09.08.2022
711 Clear 22 1018 48 10000 1.54 210 09:30 09.08.2022
712 Clear 20 1008 55 10000 1.54 220 08:39 09.08.2022
713 Clear 19 1015 56 10000 0.51 160 07:52 09.08.2022
714 Clear 16 1006 63 10000 1.54 150 04:22 09.08.2022
715 Clear 18 1017 57 10000 2.06 110 23:27 08.08.2022
716 Clear 18 1016 55 10000 1.54 100 22:54 08.08.2022
717 Clear 20 1013 54 10000 2.06 100 22:18 08.08.2022
718 Clear 20 1016 48 10000 1.54 80 21:18 08.08.2022
719 Clear 24 1015 38 10000 2.57 40 19:51 08.08.2022
720 Clear 26 1012 36 10000 4.12 90 18:50 08.08.2022
721 Clear 27 1023 32 10000 4.12 80 16:44 08.08.2022
722 Clear 28 1012 32 10000 4.12 70 15:40 08.08.2022
723 Clear 26 1012 34 10000 3.09 0 13:55 08.08.2022
724 Clear 26 1012 35 10000 4.63 60 12:27 08.08.2022
725 Clear 23 1012 47 10000 1.03 0 09:48 08.08.2022
726 Clear 14 1005 70 10000 0.51 200 06:51 08.08.2022
727 Clear 16 1004 58 10000 1.54 140 03:31 08.08.2022
728 Clear 17 1014 52 10000 2.06 90 22:42 07.08.2022
729 Clear 19 1014 49 10000 1.54 70 21:40 07.08.2022
730 Clear 22 1013 39 10000 2.57 90 20:26 07.08.2022
731 Clear 22 1013 39 10000 2.57 90 20:26 07.08.2022
732 Clear 23 1010 38 10000 3.09 70 19:57 07.08.2022
733 Clear 23 1021 37 10000 3.09 70 19:39 07.08.2022
734 Clear 25 1021 32 10000 2.57 0 18:36 07.08.2022
735 Clear 25 1022 31 10000 3.09 30 16:55 07.08.2022
736 Clear 25 1022 30 10000 3.09 30 16:35 07.08.2022
737 Clear 26 1011 33 10000 2.57 70 15:24 07.08.2022
738 Clear 25 1012 34 10000 3.6 110 13:37 07.08.2022
739 Clear 24 1016 34 10000 3.6 90 12:18 07.08.2022
740 Clear 22 1025 44 10000 3.09 0 10:35 07.08.2022
741 Clear 15 1007 66 10000 0.51 0 07:59 07.08.2022
742 Clear 13 1014 66 10000 0.51 0 04:26 07.08.2022
743 Clear 13 1018 66 10000 1.03 80 01:50 07.08.2022
744 Clear 17 1017 48 10000 2.06 360 22:28 06.08.2022
745 Clear 19 1016 48 10000 2.06 350 21:28 06.08.2022
746 Clear 22 1024 38 10000 3.09 360 19:42 06.08.2022
747 Clear 23 1024 36 10000 4.12 360 18:33 06.08.2022
748 Clear 24 1013 35 10000 3.6 30 17:39 06.08.2022
749 Clear 24 1013 40 10000 4.12 360 15:21 06.08.2022
750 Clouds 23 1014 46 10000 4.63 340 13:50 06.08.2022
751 Clouds 21 1017 49 10000 3.6 330 12:21 06.08.2022
752 Clouds 19 1014 62 10000 3.09 0 10:37 06.08.2022
753 Clouds 17 1017 67 10000 4.12 320 09:23 06.08.2022
754 Clouds 16 1014 94 10000 2.06 270 03:56 06.08.2022
755 Rain 19 1012 75 10000 4.63 300 00:27 06.08.2022
756 Clouds 21 1010 79 10000 4.63 320 22:34 05.08.2022
757 Clear 27 1008 56 10000 6.69 310 20:37 05.08.2022
758 Clear 32 1013 35 10000 5.14 310 18:55 05.08.2022
759 Clear 33 1012 31 10000 5.14 310 18:36 05.08.2022
760 Clear 34 1002 38 10000 3.09 0 16:52 05.08.2022
761 Clear 33 1002 40 10000 1.54 0 15:24 05.08.2022
762 Clear 33 1002 42 10000 1.54 0 14:35 05.08.2022
763 Clear 32 996 46 10000 2.57 0 13:36 05.08.2022
764 Clear 31 1002 49 10000 3.6 310 13:18 05.08.2022
765 Clear 28 1013 52 10000 3.6 280 11:29 05.08.2022
766 Clear 28 1001 48 10000 2.06 210 08:57 05.08.2022
767 Clear 25 994 54 10000 1.54 130 07:53 05.08.2022
768 Clear 23 1012 57 10000 4.63 150 04:19 05.08.2022
769 Clear 26 1005 49 10000 3.6 160 23:36 04.08.2022
770 Clear 29 1004 39 10000 3.6 170 21:28 04.08.2022
771 Clear 31 1004 35 10000 4.12 170 20:57 04.08.2022
772 Clear 31 1005 34 10000 4.12 170 20:37 04.08.2022
773 Clear 34 1012 28 10000 3.6 170 18:59 04.08.2022
774 Clear 34 1012 30 10000 3.6 170 18:34 04.08.2022
775 Clear 36 1002 29 10000 4.12 0 15:59 04.08.2022
776 Clear 35 1003 31 10000 2.06 0 13:32 04.08.2022
777 Clear 34 1003 36 10000 1.54 0 11:40 04.08.2022
778 Clear 31 1015 42 10000 2.57 140 10:24 04.08.2022
779 Clear 26 1004 47 10000 4.63 150 07:49 04.08.2022
780 Clear 25 998 51 10000 3.6 160 03:29 04.08.2022
781 Clear 24 1007 56 10000 3.6 160 00:52 04.08.2022
782 Clear 25 1007 53 10000 3.09 150 23:41 03.08.2022
783 Clear 27 1007 42 10000 1.54 120 21:34 03.08.2022
784 Clear 29 1014 39 10000 2.57 360 20:21 03.08.2022
785 Clear 29 1014 39 10000 2.57 360 20:21 03.08.2022
786 Clear 33 1003 34 10000 2.06 0 19:27 03.08.2022
787 Clear 34 1003 30 10000 1.54 0 17:20 03.08.2022
788 Clear 33 1015 30 10000 2.06 0 16:23 03.08.2022
789 Clear 33 1004 33 10000 3.58 217 14:23 03.08.2022
790 Clear 31 1005 42 10000 1.34 215 11:47 03.08.2022
791 Clear 23 1006 60 10000 2.06 160 07:55 03.08.2022
792 Clear 18 1005 80 10000 1.03 180 04:46 03.08.2022
793 Clear 19 1006 73 10000 1.03 0 03:27 03.08.2022
794 Clear 20 1006 71 10000 0.51 0 01:18 03.08.2022
795 Clear 22 1009 64 10000 0.51 0 22:59 02.08.2022
796 Clear 23 1009 60 10000 1.03 20 21:53 02.08.2022
797 Clear 25 1008 55 10000 1.54 330 20:58 02.08.2022
798 Clear 28 1016 46 10000 3.09 310 18:52 02.08.2022
799 Clear 30 1008 40 10000 3.09 0 16:24 02.08.2022
800 Clouds 27 1007 52 10000 1.54 0 12:34 02.08.2022
801 Clear 23 1008 68 10000 1.03 0 09:40 02.08.2022
802 Clouds 18 1011 84 10000 1.03 0 07:56 02.08.2022
803 Clear 16 1010 93 10000 2.06 230 06:43 02.08.2022
804 Clouds 15 1010 91 10000 1.03 260 04:55 02.08.2022
805 Clouds 18 1009 82 10000 0.51 30 23:52 01.08.2022
806 Clouds 19 1009 77 10000 1.03 0 22:50 01.08.2022
807 Clouds 23 1008 60 10000 3.09 360 20:53 01.08.2022
808 Clouds 25 1007 56 10000 3.09 330 19:34 01.08.2022
809 Clouds 25 1007 56 10000 3.6 340 18:42 01.08.2022
810 Clouds 27 1015 53 10000 5.14 320 16:54 01.08.2022
811 Clouds 26 1015 55 10000 5.66 320 16:28 01.08.2022
812 Clouds 26 1006 59 10000 5.14 310 15:31 01.08.2022
813 Clouds 24 1003 75 10000 3.6 340 14:43 01.08.2022
814 Rain 24 1003 72 10000 4.63 290 12:52 01.08.2022
815 Clouds 21 1006 87 10000 3.6 260 10:30 01.08.2022
816 Clouds 21 1006 77 10000 4.12 290 08:41 01.08.2022
817 Clouds 20 1005 69 10000 1.54 230 06:50 01.08.2022
818 Clear 19 1005 72 10000 2.57 220 04:24 01.08.2022
819 Rain 22 1006 60 10000 2.57 260 00:56 01.08.2022
820 Clear 23 1006 58 10000 2.06 240 22:42 31.07.2022
821 Rain 23 1006 53 10000 1.54 250 21:46 31.07.2022
822 Clear 25 1005 46 10000 2.06 270 20:18 31.07.2022
823 Clear 27 1014 39 10000 3.6 280 18:38 31.07.2022
824 Clear 28 1003 42 10000 5.66 280 16:22 31.07.2022
825 Clouds 27 1004 51 10000 5.14 300 13:59 31.07.2022
826 Clouds 27 1008 49 10000 4.12 300 12:43 31.07.2022
827 Clear 23 998 65 10000 4.63 300 10:22 31.07.2022
828 Clear 19 1005 81 10000 3.6 270 08:19 31.07.2022
829 Clear 14 1009 92 10000 2.06 240 04:46 31.07.2022
830 Clear 16 1010 93 10000 1.54 250 00:56 31.07.2022
831 Clear 17 1010 90 10000 1.54 280 22:20 30.07.2022
832 Clear 18 1010 87 10000 1.54 270 21:50 30.07.2022
833 Clear 18 1009 85 10000 2.06 300 21:24 30.07.2022
834 Clear 20 1009 73 10000 2.06 40 20:24 30.07.2022
835 Clear 21 1017 57 10000 3.09 50 19:27 30.07.2022
836 Clouds 23 1017 46 10000 4.63 30 17:52 30.07.2022
837 Clouds 22 1017 53 10000 4.63 30 16:37 30.07.2022
838 Clouds 21 1016 64 10000 3.09 350 15:29 30.07.2022
839 Clouds 19 997 84 10000 1.54 290 13:23 30.07.2022
840 Clouds 18 1008 85 10000 1.34 237 12:22 30.07.2022
841 Clouds 19 1007 81 10000 2.06 50 10:45 30.07.2022
842 Clear 19 1007 83 10000 1.54 10 09:59 30.07.2022
843 Clouds 18 1007 88 10000 2.06 340 08:54 30.07.2022
844 Rain 18 1006 92 10000 1.54 260 06:58 30.07.2022
845 Rain 20 1007 76 10000 2.06 280 02:33 30.07.2022
846 Clear 21 1015 61 10000 3.09 90 23:57 29.07.2022
847 Clear 24 1006 48 10000 2.06 90 21:37 29.07.2022
848 Clear 25 1006 48 10000 2.57 90 20:50 29.07.2022
849 Clear 26 1015 45 10000 2.06 100 19:45 29.07.2022
850 Clear 29 1015 36 10000 3.6 110 17:25 29.07.2022
851 Clear 29 1004 40 10000 5.14 90 14:48 29.07.2022
852 Clear 28 1004 40 10000 3.6 130 12:42 29.07.2022
853 Clear 19 1008 60 10000 1.54 110 08:52 29.07.2022
854 Clear 19 1005 59 10000 0.51 0 08:24 29.07.2022
855 Clear 16 998 66 10000 1.03 0 05:22 29.07.2022
856 Clear 16 1010 59 10000 1.54 60 01:19 29.07.2022
857 Clear 20 1009 42 10000 2.06 40 21:41 28.07.2022
858 Clear 22 1017 35 10000 2.57 50 20:54 28.07.2022
859 Clear 24 1008 34 10000 3.6 60 20:20 28.07.2022
860 Clear 24 1016 34 10000 4.12 50 19:40 28.07.2022
861 Clear 26 1016 31 10000 4.63 70 18:25 28.07.2022
862 Clear 26 1017 30 10000 4.63 60 17:42 28.07.2022
863 Clear 26 1017 30 10000 4.12 80 16:41 28.07.2022
864 Clear 25 1018 32 10000 4.63 110 14:30 28.07.2022
865 Clear 24 1007 37 10000 2.06 0 12:41 28.07.2022
866 Clear 19 1008 54 10000 1.03 0 09:34 28.07.2022
867 Clear 11 1000 75 10000 1.03 110 05:45 28.07.2022
868 Clear 11 1000 78 10000 1.54 360 05:24 28.07.2022
869 Clear 14 1007 62 10000 1.03 110 00:29 28.07.2022
870 Clear 15 1010 58 10000 1.03 300 22:25 27.07.2022
871 Clear 20 1009 44 10000 3.09 310 20:20 27.07.2022
872 Clear 21 1006 44 10000 3.6 330 19:32 27.07.2022
873 Clear 22 1006 46 10000 3.6 0 16:54 27.07.2022
874 Clear 23 1009 43 10000 3.09 290 15:51 27.07.2022
875 Clear 22 1006 47 10000 3.6 0 14:46 27.07.2022
876 Clear 20 1018 48 10000 3.6 0 14:27 27.07.2022
877 Clouds 20 1010 50 10000 2.57 320 12:48 27.07.2022
878 Clouds 16 1009 67 10000 1.54 360 07:53 27.07.2022
879 Clouds 16 1008 76 10000 2.57 10 06:18 27.07.2022
880 Clear 19 1008 72 10000 1.54 330 00:46 27.07.2022
881 Clear 19 1004 70 10000 1.03 310 22:25 26.07.2022
882 Clear 21 1006 63 10000 2.57 320 21:20 26.07.2022
883 Clear 22 1015 57 10000 3.6 330 19:59 26.07.2022
884 Clear 24 1014 53 10000 4.63 330 18:41 26.07.2022
885 Clear 25 1005 47 10000 5.66 290 17:57 26.07.2022
886 Clear 26 1005 42 10000 5.14 310 15:50 26.07.2022
887 Clear 26 1013 38 10000 4.63 280 14:57 26.07.2022
888 Clouds 25 1002 46 10000 4.12 290 12:59 26.07.2022
889 Clouds 23 1005 53 10000 5.14 260 10:59 26.07.2022
890 Clear 22 1004 69 10000 4.12 250 08:46 26.07.2022
891 Clouds 20 1004 81 10000 1.03 0 05:49 26.07.2022
892 Clear 22 1009 83 10000 2.57 280 00:28 26.07.2022
893 Clouds 24 1000 74 4400 1.54 260 22:53 25.07.2022
894 Rain 26 1000 60 5000 1.03 0 22:22 25.07.2022
895 Clouds 26 1008 53 4600 2.57 320 21:38 25.07.2022
896 Clouds 29 1007 39 10000 6.17 310 20:40 25.07.2022
897 Clear 33 1006 32 10000 5.14 140 19:33 25.07.2022
898 Clear 34 999 29 10000 3.6 180 18:18 25.07.2022
899 Clear 35 997 31 10000 5.14 210 17:27 25.07.2022
900 Clear 34 999 31 10000 5.66 210 14:59 25.07.2022
901 Clear 33 1001 34 10000 5.14 170 12:22 25.07.2022
902 Clear 30 1001 43 10000 5.66 160 09:50 25.07.2022
903 Clear 19 1007 64 10000 3.6 150 04:25 25.07.2022
904 Clear 20 1017 56 10000 2.06 130 23:54 24.07.2022
905 Clear 21 1009 53 10000 2.57 120 23:18 24.07.2022
906 Clear 22 1009 49 10000 1.03 120 22:29 24.07.2022
907 Clear 24 1009 44 10000 1.03 30 21:23 24.07.2022
908 Clear 25 1017 40 10000 1.03 40 20:50 24.07.2022
909 Clear 27 1017 33 10000 1.54 50 20:26 24.07.2022
910 Clear 29 1017 31 10000 2.06 330 18:48 24.07.2022
911 Clear 29 1018 32 10000 2.06 0 16:32 24.07.2022
912 Clear 30 1007 34 10000 2.57 330 15:50 24.07.2022
913 Clear 29 1008 36 10000 3.09 290 14:38 24.07.2022
914 Clear 27 1009 41 10000 3.09 340 12:55 24.07.2022
915 Clear 25 1020 44 10000 1.54 0 11:40 24.07.2022
916 Clear 25 1009 45 10000 2.68 293 11:18 24.07.2022
917 Clear 21 1009 61 10000 2.06 220 08:56 24.07.2022
918 Clear 17 1009 75 10000 1.54 210 07:52 24.07.2022
919 Clear 14 1013 87 10000 1.54 220 06:27 24.07.2022
920 Clear 15 1012 84 10000 2.57 340 01:50 24.07.2022
921 Clear 19 1011 76 10000 1.54 250 22:25 23.07.2022
922 Clear 22 1010 63 10000 2.06 300 20:35 23.07.2022
923 Clouds 24 1009 60 10000 2.57 340 18:51 23.07.2022
924 Clouds 24 1009 60 10000 4.12 330 17:41 23.07.2022
925 Clouds 24 1009 61 10000 3.6 320 17:23 23.07.2022
926 Clouds 25 1009 62 10000 4.63 330 15:42 23.07.2022
927 Clouds 23 1009 66 10000 4.63 320 14:59 23.07.2022
928 Clouds 23 1009 66 10000 4.63 320 14:35 23.07.2022
929 Clouds 25 1009 56 10000 4.12 320 13:50 23.07.2022
930 Clear 23 1005 67 10000 1.54 0 11:19 23.07.2022
931 Clear 22 1005 71 10000 3.09 10 10:23 23.07.2022
932 Clouds 19 1008 83 10000 4.12 330 08:55 23.07.2022
933 Clear 18 1007 88 10000 1.54 40 04:59 23.07.2022
934 Clear 18 1008 83 10000 2.57 40 02:30 23.07.2022
935 Clear 21 1009 70 10000 1.03 360 23:39 22.07.2022
936 Clear 26 1008 53 10000 2.06 10 20:57 22.07.2022
937 Clear 28 1016 45 10000 2.57 10 19:55 22.07.2022
938 Clear 29 1016 44 10000 3.91 7 18:36 22.07.2022
939 Clear 29 1016 42 10000 3.09 330 17:37 22.07.2022
940 Clear 30 1006 45 10000 4.12 280 15:26 22.07.2022
941 Clouds 27 1007 53 10000 4.12 300 12:33 22.07.2022
942 Clouds 24 1008 64 10000 3.09 0 09:45 22.07.2022
943 Clouds 23 1008 69 10000 2.57 300 09:19 22.07.2022
944 Clear 19 1008 82 10000 1.54 210 07:23 22.07.2022
945 Clear 17 1010 90 10000 2.06 230 04:18 22.07.2022
946 Clear 22 1000 77 10000 2.57 230 23:27 21.07.2022
947 Clear 22 1009 79 10000 3.09 180 21:37 21.07.2022
948 Clear 25 1006 68 10000 3.09 180 19:35 21.07.2022
949 Clouds 24 1007 74 10000 5.14 200 18:29 21.07.2022
950 Rain 24 1019 69 10000 3.09 230 17:20 21.07.2022
951 Rain 25 1001 66 10000 4.63 250 15:49 21.07.2022
952 Rain 26 1011 57 10000 7.2 270 14:46 21.07.2022
953 Rain 29 1018 44 10000 4.63 270 13:49 21.07.2022
954 Clear 31 1007 44 10000 3.6 280 11:48 21.07.2022
955 Clear 29 1001 47 10000 2.68 264 09:51 21.07.2022
956 Clear 27 1007 52 10000 2.06 270 08:53 21.07.2022
957 Clear 25 1006 57 10000 2.06 270 07:50 21.07.2022
958 Clear 23 1009 60 10000 2.57 240 06:27 21.07.2022
959 Clear 23 1015 58 10000 3.6 160 02:35 21.07.2022
960 Clear 26 1008 48 10000 2.57 120 22:47 20.07.2022
961 Clear 27 1008 47 10000 2.57 120 22:19 20.07.2022
962 Clear 31 1015 33 10000 2.57 120 20:46 20.07.2022
963 Clear 34 1005 31 10000 5.14 140 19:46 20.07.2022
964 Clear 35 1005 29 10000 6.17 140 18:54 20.07.2022
965 Clear 35 1005 27 10000 5.66 120 18:31 20.07.2022
966 Clear 36 1005 27 10000 4.12 120 17:28 20.07.2022
967 Clear 35 1007 26 10000 3.6 170 15:33 20.07.2022
968 Clear 36 1007 26 10000 4.63 140 14:49 20.07.2022
969 Clear 35 1007 26 10000 6.17 140 13:21 20.07.2022
970 Clear 33 1007 33 10000 3.6 170 10:59 20.07.2022
971 Clear 21 1013 55 10000 3.09 160 06:49 20.07.2022
972 Clear 23 1010 51 10000 3.6 150 01:56 20.07.2022
973 Clear 24 1008 45 10000 4.12 180 00:42 20.07.2022
974 Clear 26 1010 43 10000 3.09 160 22:38 19.07.2022
975 Clear 26 1010 42 10000 3.09 160 22:20 19.07.2022
976 Clear 30 1018 36 10000 1.03 50 20:50 19.07.2022
977 Clear 32 1017 30 10000 1.54 60 19:38 19.07.2022
978 Clear 34 1017 25 10000 0.51 0 18:43 19.07.2022
979 Clear 35 1018 23 10000 1.54 0 17:56 19.07.2022
980 Clear 35 1018 22 10000 1.54 0 15:50 19.07.2022
981 Clear 35 1003 26 10000 0.6 263 14:20 19.07.2022
982 Clear 32 1020 28 10000 2.06 0 11:35 19.07.2022
983 Clear 27 1020 44 10000 2.06 210 09:58 19.07.2022
984 Clear 26 1009 44 10000 2.57 170 08:48 19.07.2022
985 Clear 22 1021 53 10000 2.06 180 08:22 19.07.2022
986 Clear 20 1021 55 10000 2.06 170 07:18 19.07.2022
987 Clear 18 1002 62 10000 2.57 170 05:26 19.07.2022
988 Clear 19 1002 60 10000 2.57 160 04:41 19.07.2022
989 Clear 19 1013 55 10000 3.09 160 00:34 19.07.2022
990 Clear 20 1013 54 10000 2.57 170 23:22 18.07.2022
991 Clouds 21 1011 55 10000 2.43 174 22:56 18.07.2022
992 Clear 22 1013 48 10000 1.03 130 21:53 18.07.2022
993 Clear 24 1013 43 10000 1.03 0 20:50 18.07.2022
994 Clear 28 1011 37 10000 1.03 0 19:25 18.07.2022
995 Clear 29 1011 32 10000 2.57 290 17:22 18.07.2022
996 Clear 29 1011 32 10000 2.57 350 15:46 18.07.2022
997 Clear 28 1012 32 10000 3.09 330 14:24 18.07.2022
998 Clear 28 1013 31 10000 2.57 0 12:45 18.07.2022
999 Clear 26 1025 32 10000 2.57 0 11:29 18.07.2022
1000 Clear 20 1013 48 10000 2.06 210 08:51 18.07.2022
1001 Clear 16 1006 58 10000 1.54 210 07:28 18.07.2022
1002 Clear 15 1014 59 10000 2.06 210 00:42 18.07.2022
1003 Clear 17 1014 54 10000 0.51 130 22:37 17.07.2022
1004 Clear 18 1017 48 10000 1.03 10 21:57 17.07.2022
1005 Clear 19 1025 43 10000 1.54 350 21:21 17.07.2022
1006 Clear 21 1025 37 10000 1.54 340 20:44 17.07.2022
1007 Clear 23 1025 33 10000 3.09 300 19:32 17.07.2022
1008 Clear 24 1025 30 10000 3.6 360 18:30 17.07.2022
1009 Clear 25 1025 31 10000 3.09 0 17:38 17.07.2022
1010 Clear 25 1014 32 10000 3.09 330 16:51 17.07.2022
1011 Clear 25 1014 34 10000 2.57 0 16:26 17.07.2022
1012 Clear 24 1014 38 10000 3.09 0 14:58 17.07.2022
1013 Clear 22 1015 43 10000 3.6 0 13:32 17.07.2022
1014 Clear 21 1015 49 10000 3.09 280 11:50 17.07.2022
1015 Clear 18 1015 58 10000 2.57 320 09:30 17.07.2022
1016 Clear 9 1018 81 10000 2.57 240 05:54 17.07.2022
1017 Clear 12 1014 66 10000 2.06 280 02:33 17.07.2022
1018 Clear 14 1015 56 10000 1.54 320 23:21 16.07.2022
1019 Clear 17 1023 46 10000 2.57 320 21:47 16.07.2022
1020 Clear 22 1009 39 10000 5.66 320 19:53 16.07.2022
1021 Clear 22 1009 42 10000 7.2 330 18:41 16.07.2022
1022 Clouds 23 1011 45 10000 7.72 320 17:19 16.07.2022
1023 Clouds 22 1007 50 10000 6.69 270 15:23 16.07.2022
1024 Clouds 19 1011 61 10000 5.14 270 11:54 16.07.2022
1025 Clouds 18 1011 57 10000 3.09 280 09:37 16.07.2022
1026 Clouds 20 1010 51 10000 3.6 240 08:48 16.07.2022
1027 Clear 19 1010 54 10000 4.63 220 08:29 16.07.2022
1028 Clear 13 1012 72 10000 3.09 230 04:28 16.07.2022
1029 Clear 13 1012 70 10000 2.57 230 03:29 16.07.2022
1030 Clear 14 1012 62 10000 2.06 250 23:38 15.07.2022
1031 Clear 15 1012 59 10000 1.54 270 22:43 15.07.2022
1032 Clear 18 1012 48 10000 2.57 330 21:29 15.07.2022
1033 Clear 19 1011 46 10000 3.09 330 20:31 15.07.2022
1034 Clear 21 1011 41 10000 4.12 330 18:44 15.07.2022
1035 Clear 23 1011 39 10000 4.12 320 17:48 15.07.2022
1036 Clear 22 1012 42 10000 4.63 300 15:41 15.07.2022
1037 Clear 20 1012 48 10000 5.66 300 13:22 15.07.2022
1038 Clouds 19 1012 52 10000 5.14 300 11:48 15.07.2022
1039 Clouds 19 1009 55 10000 5.14 310 10:42 15.07.2022
1040 Clouds 15 1008 73 10000 4.92 228 07:47 15.07.2022
1041 Clear 15 1010 64 10000 3.09 310 02:39 15.07.2022
1042 Clear 17 1018 58 10000 3.09 320 00:38 15.07.2022
1043 Clear 19 1008 50 10000 4.12 340 22:54 14.07.2022
1044 Clear 20 1007 65 10000 3.09 320 21:57 14.07.2022
1045 Clear 20 1007 71 10000 2.57 250 21:33 14.07.2022
1046 Clear 21 1006 72 10000 2.06 250 20:57 14.07.2022
1047 Clear 21 1006 72 10000 2.06 250 20:37 14.07.2022
1048 Clear 21 1006 70 10000 2.06 250 20:18 14.07.2022
1049 Clouds 23 1006 62 10000 1.03 0 17:25 14.07.2022
1050 Rain 24 1007 55 10000 2.57 310 16:18 14.07.2022
1051 Rain 26 1007 50 10000 2.06 330 14:44 14.07.2022
1052 Clouds 26 1005 53 10000 2.57 0 13:39 14.07.2022
1053 Clear 24 1006 58 10000 2.57 300 12:34 14.07.2022
1054 Rain 23 1006 62 10000 1.54 0 11:26 14.07.2022
1055 Clear 22 1009 59 10000 2.57 350 10:51 14.07.2022
1056 Clear 21 1010 65 10000 2.57 330 08:45 14.07.2022
1057 Clear 20 1018 66 10000 2.57 330 04:18 14.07.2022
1058 Clear 24 1009 47 10000 3.09 270 01:18 14.07.2022
1059 Clear 24 1008 50 10000 3.09 260 00:50 14.07.2022
1060 Clear 26 1017 41 10000 4.12 260 22:30 13.07.2022
1061 Clear 27 1016 39 10000 4.63 270 21:38 13.07.2022
1062 Clear 28 1016 36 10000 2.57 250 20:38 13.07.2022
1063 Clear 30 1008 30 10000 4.12 280 18:36 13.07.2022
1064 Clear 30 1006 31 10000 4.12 280 17:31 13.07.2022
1065 Clear 30 1018 29 10000 4.12 280 17:31 13.07.2022
1066 Clear 30 1006 31 10000 4.12 280 17:31 13.07.2022
1067 Clear 29 1010 30 10000 5.66 290 16:19 13.07.2022
1068 Clear 29 1018 35 10000 4.12 290 14:46 13.07.2022
1069 Clear 29 1018 34 10000 4.12 290 14:46 13.07.2022
1070 Clear 28 1008 39 10000 3.6 270 11:54 13.07.2022
1071 Clear 24 1009 50 10000 3.09 230 10:45 13.07.2022
1072 Clear 23 1009 52 10000 2.57 230 09:54 13.07.2022
1073 Clear 22 1010 57 10000 2.06 230 09:20 13.07.2022
1074 Clear 15 1013 80 10000 2.06 230 05:22 13.07.2022
1075 Clear 17 1010 63 10000 2.06 270 01:22 13.07.2022
1076 Clear 19 1014 58 10000 2.06 250 23:35 12.07.2022
1077 Clear 21 1013 50 10000 2.06 270 21:53 12.07.2022
1078 Clear 23 1021 46 10000 2.06 300 20:58 12.07.2022
1079 Clear 24 1022 41 10000 2.06 300 20:37 12.07.2022
1080 Clear 26 1010 38 10000 3.6 350 18:56 12.07.2022
1081 Clear 26 1010 36 10000 4.63 340 17:38 12.07.2022
1082 Clear 26 1011 36 10000 4.12 310 15:43 12.07.2022
1083 Clear 25 1014 36 10000 4.63 340 14:23 12.07.2022
1084 Clear 24 1012 45 10000 3.09 0 12:29 12.07.2022
1085 Clouds 22 1011 51 10000 3.6 310 11:22 12.07.2022
1086 Clear 20 1012 67 10000 3.09 310 09:38 12.07.2022
1087 Clouds 18 1015 77 10000 3.6 270 08:19 12.07.2022
1088 Clear 12 1015 88 10000 2.06 230 06:29 12.07.2022
1089 Clear 13 1014 88 10000 2.06 240 05:39 12.07.2022
1090 Clear 13 1010 70 10000 1.54 250 02:21 12.07.2022
1091 Clear 16 1010 57 10000 2.06 280 23:28 11.07.2022
1092 Clear 17 1009 55 10000 1.54 290 22:30 11.07.2022
1093 Clear 21 1012 42 10000 2.06 330 20:41 11.07.2022
1094 Clear 22 1020 42 10000 1.54 350 19:36 11.07.2022
1095 Clear 22 1009 42 10000 2.57 330 18:32 11.07.2022
1096 Clear 22 1009 41 10000 4.12 270 17:49 11.07.2022
1097 Clear 23 1009 41 10000 2.57 0 16:20 11.07.2022
1098 Clear 23 1012 41 10000 4.12 300 14:49 11.07.2022
1099 Clouds 19 1009 54 10000 3.6 260 11:59 11.07.2022
1100 Clouds 18 1013 57 10000 3.6 280 10:37 11.07.2022
1101 Clouds 17 1013 63 10000 3.09 310 09:49 11.07.2022
1102 Clouds 16 1009 72 10000 3.6 310 08:35 11.07.2022
1103 Clear 14 1009 79 10000 4.12 300 07:24 11.07.2022
1104 Clear 16 1012 66 10000 3.6 290 00:47 11.07.2022
1105 Clear 16 1021 59 10000 3.6 300 23:48 10.07.2022
1106 Clear 17 1020 66 10000 2.06 270 22:26 10.07.2022
1107 Clear 17 1011 59 10000 2.57 290 20:55 10.07.2022
1108 Clear 18 1011 54 10000 3.6 300 19:59 10.07.2022
1109 Clear 19 1011 52 10000 4.12 300 19:21 10.07.2022
1110 Clouds 19 1011 52 10000 4.12 300 17:51 10.07.2022
1111 Clouds 18 1012 54 10000 4.63 310 16:59 10.07.2022
1112 Clouds 18 1012 54 10000 4.12 310 16:20 10.07.2022
1113 Clouds 16 1012 59 10000 6.69 300 14:43 10.07.2022
1114 Clouds 17 1012 59 10000 6.17 300 13:18 10.07.2022
1115 Clouds 16 1008 69 10000 4.12 300 11:36 10.07.2022
1116 Clouds 14 1012 76 10000 5.14 280 09:44 10.07.2022
1117 Clouds 14 1012 78 10000 5.14 290 08:43 10.07.2022
1118 Clear 13 1011 76 10000 3.6 290 06:36 10.07.2022
1119 Rain 17 1012 79 10000 2.57 300 23:47 09.07.2022
1120 Clouds 17 1020 74 10000 2.57 350 22:26 09.07.2022
1121 Clouds 18 1020 72 10000 4.12 260 21:41 09.07.2022
1122 Clear 20 1011 62 10000 4.12 250 19:44 09.07.2022
1123 Clear 20 1011 62 10000 4.12 250 19:44 09.07.2022
1124 Clouds 21 1012 62 10000 4.63 260 18:26 09.07.2022
1125 Clouds 21 1012 62 10000 4.63 260 18:26 09.07.2022
1126 Clouds 21 1013 62 10000 3.6 290 17:27 09.07.2022
1127 Clouds 21 1009 62 10000 4.63 300 16:34 09.07.2022
1128 Clouds 20 1014 63 10000 4.63 330 15:39 09.07.2022
1129 Rain 20 1011 66 10000 4.63 300 14:23 09.07.2022
1130 Clouds 21 1015 66 10000 4.63 300 13:48 09.07.2022
1131 Clouds 19 1015 71 10000 3.09 310 12:22 09.07.2022
1132 Rain 18 1016 75 10000 4.63 310 10:27 09.07.2022
1133 Clouds 17 1016 80 10000 4.12 310 09:57 09.07.2022
1134 Clouds 16 1016 84 10000 3.09 270 07:44 09.07.2022
1135 Clouds 14 1016 92 10000 2.06 250 04:49 09.07.2022
1136 Clear 15 1018 85 10000 2.06 250 00:38 09.07.2022
1137 Clear 16 1018 80 10000 1.54 250 22:41 08.07.2022
1138 Clouds 18 1018 69 10000 3.09 300 21:27 08.07.2022
1139 Clouds 19 1018 63 10000 3.6 310 20:40 08.07.2022
1140 Clouds 19 1018 60 10000 4.12 310 19:48 08.07.2022
1141 Clouds 19 1018 60 10000 4.12 310 19:48 08.07.2022
1142 Clouds 20 1018 52 10000 6.17 310 17:57 08.07.2022
1143 Clouds 21 1014 58 10000 5.66 290 16:37 08.07.2022
1144 Clouds 17 1019 70 10000 4.12 300 14:51 08.07.2022
1145 Clouds 17 1019 71 10000 3.6 300 13:24 08.07.2022
1146 Clouds 17 1019 71 10000 3.6 300 13:24 08.07.2022
1147 Clouds 17 1019 78 10000 3.6 290 11:25 08.07.2022
1148 Clouds 15 1018 85 10000 4.12 310 10:26 08.07.2022
1149 Clouds 14 1017 90 10000 3.09 290 08:26 08.07.2022
1150 Clouds 14 1016 90 10000 4.02 285 06:47 08.07.2022
1151 Clouds 14 1014 87 10000 3.6 290 01:19 08.07.2022
1152 Rain 15 1012 94 10000 7.2 310 22:57 07.07.2022
1153 Rain 16 1011 94 10000 5.14 300 22:27 07.07.2022
1154 Clouds 18 1010 86 10000 4.12 270 19:53 07.07.2022
1155 Clouds 20 1009 71 10000 3.6 270 18:20 07.07.2022
1156 Clouds 19 1009 77 10000 4.63 250 16:46 07.07.2022
1157 Clouds 17 999 87 10000 4.12 260 14:32 07.07.2022
1158 Drizzle 16 1009 86 10000 4.63 220 13:18 07.07.2022
1159 Drizzle 16 1009 86 10000 4.12 250 12:24 07.07.2022
1160 Drizzle 16 1009 86 10000 4.12 250 12:24 07.07.2022
1161 Drizzle 17 1009 81 10000 4.63 230 11:44 07.07.2022
1162 Clouds 17 1009 82 10000 4.12 230 11:24 07.07.2022
1163 Rain 15 1009 88 10000 3.6 230 10:40 07.07.2022
1164 Rain 15 1010 90 10000 4.12 230 10:22 07.07.2022
1165 Rain 12 1011 89 10000 3.6 260 06:40 07.07.2022
1166 Clear 14 1012 67 10000 2.06 260 01:43 07.07.2022
1167 Clouds 16 1022 58 10000 1.52 218 23:36 06.07.2022
1168 Clear 17 1013 55 10000 1.03 300 23:18 06.07.2022
1169 Clear 17 1021 53 10000 1.03 300 22:52 06.07.2022
1170 Clear 17 1009 55 10000 1.03 300 22:52 06.07.2022
1171 Clear 17 1022 52 10000 1.03 300 22:34 06.07.2022
1172 Clear 20 1012 45 10000 4.63 340 20:33 06.07.2022
1173 Clear 21 1020 42 10000 4.63 340 19:34 06.07.2022
1174 Clear 23 1012 40 10000 5.14 320 17:22 06.07.2022
1175 Clear 22 1021 44 10000 3.6 310 15:59 06.07.2022
1176 Clouds 22 1013 48 10000 3.6 290 13:56 06.07.2022
1177 Clouds 20 1010 55 10000 4.63 280 12:31 06.07.2022
1178 Clouds 20 1014 53 10000 3.6 300 11:45 06.07.2022
1179 Clouds 18 1010 69 10000 3.09 330 10:18 06.07.2022
1180 Clear 15 1009 91 10000 2.57 300 07:44 06.07.2022
1181 Clear 15 1009 91 10000 2.57 300 07:44 06.07.2022
1182 Clear 15 1013 90 10000 3.09 280 07:20 06.07.2022
1183 Rain 16 1013 86 7000 6.17 310 01:42 06.07.2022
1184 Clear 21 1011 54 10000 2.06 350 22:45 05.07.2022
1185 Clear 22 1010 48 10000 2.06 350 21:32 05.07.2022
1186 Clear 22 1010 48 10000 2.06 350 21:32 05.07.2022
1187 Clear 24 1019 38 10000 3.6 360 20:38 05.07.2022
1188 Clear 25 1019 41 10000 3.09 360 19:41 05.07.2022
1189 Clear 26 1007 37 10000 2.06 330 19:21 05.07.2022
1190 Clear 27 1018 34 10000 3.6 300 17:46 05.07.2022
1191 Clear 26 1018 34 10000 3.09 360 16:39 05.07.2022
1192 Clear 27 1007 36 10000 4.63 350 15:24 05.07.2022
1193 Clear 26 1008 37 10000 3.6 310 13:47 05.07.2022
1194 Clear 27 1008 38 10000 3.6 340 12:42 05.07.2022
1195 Clear 25 1001 42 10000 3.09 0 11:24 05.07.2022
1196 Clear 24 1019 44 10000 3.09 340 10:31 05.07.2022
1197 Clear 20 1008 66 10000 1.03 0 08:25 05.07.2022
1198 Clear 17 1008 73 10000 1.54 300 07:31 05.07.2022
1199 Clear 16 1010 77 10000 1.03 0 04:47 05.07.2022
1200 Clear 16 1010 76 10000 1.54 300 04:20 05.07.2022
1201 Clear 20 1010 58 10000 1.54 50 23:45 04.07.2022
1202 Clear 20 1010 53 10000 2.06 30 23:25 04.07.2022
1203 Clear 21 1010 55 10000 2.57 10 22:21 04.07.2022
1204 Clear 24 1009 47 10000 2.06 360 21:20 04.07.2022
1205 Clear 24 1009 48 10000 2.57 360 20:52 04.07.2022
1206 Clear 25 1009 47 10000 2.57 360 20:33 04.07.2022
1207 Clear 26 1009 41 10000 2.57 350 19:51 04.07.2022
1208 Clear 26 1017 38 10000 2.57 350 19:33 04.07.2022
1209 Clear 27 1005 42 10000 5.14 340 17:57 04.07.2022
1210 Clear 28 1006 45 10000 4.63 350 15:50 04.07.2022
1211 Clear 27 1017 47 10000 3.09 310 14:54 04.07.2022
1212 Clouds 27 1006 49 10000 2.06 0 13:29 04.07.2022
1213 Clear 26 1007 53 10000 2.57 320 12:20 04.07.2022
1214 Clear 24 1007 58 10000 3.6 330 10:34 04.07.2022
1215 Clear 23 1018 61 10000 2.57 300 09:40 04.07.2022
1216 Clear 19 1010 74 10000 3.6 280 07:21 04.07.2022
1217 Clear 20 1007 65 10000 3.58 275 03:36 04.07.2022
1218 Clear 21 1007 70 10000 4.63 160 00:35 04.07.2022
1219 Clear 23 1007 61 10000 3.09 160 22:58 03.07.2022
1220 Clear 27 1015 47 10000 1.03 0 20:58 03.07.2022
1221 Clear 28 1004 46 10000 1.54 360 20:26 03.07.2022
1222 Clear 29 1015 42 10000 1.03 0 19:27 03.07.2022
1223 Clear 29 1015 39 10000 2.06 310 18:35 03.07.2022
1224 Clear 30 1015 36 10000 3.09 310 17:43 03.07.2022
1225 Clear 28 1016 39 10000 4.63 220 15:51 03.07.2022
1226 Clear 29 1005 42 10000 3.09 250 14:59 03.07.2022
1227 Clear 29 1006 41 10000 2.68 166 14:18 03.07.2022
1228 Clear 29 1006 42 10000 2.57 250 13:48 03.07.2022
1229 Clear 28 1006 44 10000 3.09 170 12:33 03.07.2022
1230 Clear 27 1007 47 10000 2.57 170 11:20 03.07.2022
1231 Clear 26 1007 50 10000 3.6 180 10:38 03.07.2022
1232 Clear 24 1007 56 10000 4.63 160 09:31 03.07.2022
1233 Clear 18 1007 73 10000 4.63 140 07:35 03.07.2022
1234 Clear 15 1013 79 10000 2.57 160 02:49 03.07.2022
1235 Clear 16 1013 73 10000 2.57 130 00:21 03.07.2022
1236 Clear 18 1013 65 10000 2.57 110 22:33 02.07.2022
1237 Clear 22 1010 50 10000 2.06 130 20:58 02.07.2022
1238 Clear 24 1021 42 10000 3.09 120 19:52 02.07.2022
1239 Clear 25 1010 40 10000 2.57 140 19:20 02.07.2022
1240 Clear 26 1022 36 10000 1.54 0 17:41 02.07.2022
1241 Clear 25 1023 37 10000 2.06 0 16:53 02.07.2022
1242 Clear 25 1012 43 10000 3.09 230 14:40 02.07.2022
1243 Clear 23 1013 49 10000 1.79 71 12:21 02.07.2022
1244 Clouds 23 1013 52 10000 2.57 0 11:27 02.07.2022
1245 Clouds 22 1013 57 10000 1.03 0 10:43 02.07.2022
1246 Clear 20 1013 71 10000 1.54 260 09:25 02.07.2022
1247 Clear 18 1013 79 10000 2.57 220 08:20 02.07.2022
1248 Clear 16 1013 85 10000 2.57 210 07:48 02.07.2022
1249 Clear 12 1015 94 10000 1.54 240 02:50 02.07.2022
1250 Clear 14 1014 93 10000 2.57 250 00:26 02.07.2022
1251 Clouds 15 1014 93 10000 2.06 250 22:58 01.07.2022
1252 Clouds 16 1013 91 10000 2.57 280 21:49 01.07.2022
1253 Rain 16 1013 91 10000 3.09 270 21:29 01.07.2022
1254 Rain 16 1012 90 10000 3.6 260 20:56 01.07.2022
1255 Clouds 16 1011 89 10000 2.57 290 19:47 01.07.2022
1256 Clouds 16 1011 92 10000 4.12 290 17:58 01.07.2022
1257 Clouds 17 1009 90 10000 5.14 270 16:24 01.07.2022
1258 Rain 19 1008 86 10000 5.14 300 13:55 01.07.2022
1259 Rain 20 1007 78 10000 5.14 280 12:59 01.07.2022
1260 Clouds 22 1014 77 10000 6.69 260 10:46 01.07.2022
1261 Clouds 22 1006 79 10000 6.17 270 10:18 01.07.2022
1262 Clear 18 1011 94 10000 1.54 220 05:27 01.07.2022
1263 Clear 20 1003 89 10000 1.54 150 01:27 01.07.2022
1264 Clear 22 1003 85 10000 2.06 130 23:28 30.06.2022
1265 Clear 23 1004 80 10000 2.57 110 22:45 30.06.2022
1266 Clear 23 1004 79 10000 2.06 120 22:27 30.06.2022
1267 Clear 24 1003 75 10000 2.06 130 21:50 30.06.2022
1268 Clear 27 1003 63 10000 3.6 140 20:31 30.06.2022
1269 Clear 28 1000 62 10000 3.6 120 19:55 30.06.2022
1270 Clear 28 999 59 10000 3.6 120 19:35 30.06.2022
1271 Clear 29 1000 56 10000 4.12 110 18:43 30.06.2022
1272 Clouds 29 1000 58 10000 3.6 110 17:49 30.06.2022
1273 Clouds 29 1001 61 10000 3.6 150 16:55 30.06.2022
1274 Clouds 29 1001 62 10000 3.6 150 15:52 30.06.2022
1275 Clouds 27 1001 69 10000 2.57 120 13:51 30.06.2022
1276 Clouds 27 1001 69 10000 1.54 0 13:18 30.06.2022
1277 Clouds 26 1001 73 10000 1.03 0 12:32 30.06.2022
1278 Clouds 24 1005 77 10000 1.03 0 10:19 30.06.2022
1279 Clouds 23 1005 83 8000 1.54 300 09:40 30.06.2022
1280 Clouds 21 1002 90 6000 2.06 230 08:26 30.06.2022
1281 Rain 20 1005 93 10000 1.54 240 07:40 30.06.2022
1282 Clouds 19 1005 96 10000 1.03 0 03:53 30.06.2022
1283 Clouds 19 1014 95 10000 2.57 40 23:39 29.06.2022
1284 Clouds 20 1005 93 10000 2.57 70 22:41 29.06.2022
1285 Clouds 20 1005 93 10000 2.57 40 22:19 29.06.2022
1286 Clouds 21 1006 94 10000 3.09 50 20:35 29.06.2022
1287 Clouds 21 1006 93 10000 4.12 60 19:56 29.06.2022
1288 Clouds 21 1006 93 10000 4.12 70 18:46 29.06.2022
1289 Rain 21 1006 88 10000 3.6 70 17:38 29.06.2022
1290 Clouds 21 997 93 7000 5.66 50 16:24 29.06.2022
1291 Clouds 23 1005 79 10000 6.17 70 13:45 29.06.2022
1292 Clouds 23 1005 80 10000 3.6 40 12:38 29.06.2022
1293 Clouds 20 1008 87 10000 4.12 80 10:18 29.06.2022
1294 Clouds 19 1008 88 10000 5.14 90 09:27 29.06.2022
1295 Clouds 19 1009 91 10000 5.66 80 06:32 29.06.2022
1296 Rain 19 1006 85 10000 3.09 80 04:44 29.06.2022
1297 Clear 19 1010 76 10000 2.06 60 00:54 29.06.2022
1298 Clear 19 1010 77 10000 2.06 60 00:35 29.06.2022
1299 Clear 20 1011 75 10000 2.06 110 22:52 28.06.2022
1300 Clear 20 1011 71 10000 2.57 120 22:18 28.06.2022
1301 Clear 21 1011 67 10000 2.57 100 21:49 28.06.2022
1302 Clear 22 1011 64 10000 2.06 110 21:29 28.06.2022
1303 Clear 24 1018 53 10000 2.06 220 19:56 28.06.2022
1304 Clear 25 1019 52 10000 1.54 0 19:31 28.06.2022
1305 Clear 25 1019 48 10000 2.06 300 18:40 28.06.2022
1306 Clear 25 1019 49 10000 1.54 0 17:36 28.06.2022
1307 Clouds 25 1009 54 10000 2.06 350 15:55 28.06.2022
1308 Clouds 24 1010 59 10000 2.57 0 14:54 28.06.2022
1309 Clouds 25 1010 57 10000 2.57 310 14:19 28.06.2022
1310 Clouds 24 1010 63 10000 3.09 290 13:45 28.06.2022
1311 Clouds 22 1010 71 10000 2.06 0 12:47 28.06.2022
1312 Clouds 20 1014 83 10000 3.09 320 10:44 28.06.2022
1313 Clouds 19 1012 88 10000 4.63 290 08:56 28.06.2022
1314 Clouds 19 1012 89 10000 4.63 290 08:38 28.06.2022
1315 Clouds 17 1011 96 7000 3.6 280 07:20 28.06.2022
1316 Rain 18 1012 95 8000 2.06 320 04:56 28.06.2022
1317 Clear 23 1010 68 10000 3.09 290 23:56 27.06.2022
1318 Clear 23 1017 63 10000 2.57 300 23:28 27.06.2022
1319 Clear 24 1016 60 10000 3.09 280 22:42 27.06.2022
1320 Clear 27 1015 57 10000 3.6 280 21:30 27.06.2022
1321 Clear 28 1014 57 10000 2.06 240 20:38 27.06.2022
1322 Rain 27 1005 67 10000 3.6 230 18:55 27.06.2022
1323 Rain 29 1013 54 10000 4.63 260 17:45 27.06.2022
1324 Rain 32 1004 42 10000 5.14 180 16:18 27.06.2022
1325 Clear 34 1002 38 10000 5.14 150 14:44 27.06.2022
1326 Clear 34 1002 39 10000 6.17 160 13:24 27.06.2022
1327 Clear 33 1002 40 10000 5.66 150 12:49 27.06.2022
1328 Clear 30 1013 46 10000 5.14 160 10:22 27.06.2022
1329 Clear 27 1002 62 10000 2.57 120 08:47 27.06.2022
1330 Clear 24 1002 68 10000 3.09 140 07:59 27.06.2022
1331 Clear 21 1006 76 10000 3.6 160 06:38 27.06.2022
1332 Clear 21 1005 78 10000 3.09 170 02:23 27.06.2022
1333 Clear 22 1006 71 10000 2.57 160 23:49 26.06.2022
1334 Clear 25 1006 63 10000 1.54 120 21:58 26.06.2022
1335 Clear 27 1014 59 10000 1.54 130 20:34 26.06.2022
1336 Clear 29 1013 48 10000 2.57 120 19:27 26.06.2022
1337 Clear 30 1014 45 10000 3.09 160 18:28 26.06.2022
1338 Clouds 30 1006 49 10000 4.12 130 16:21 26.06.2022
1339 Clear 30 1003 47 10000 1.34 156 14:34 26.06.2022
1340 Clear 30 1003 51 10000 2.57 0 13:30 26.06.2022
1341 Clear 30 1004 49 10000 2.06 270 12:52 26.06.2022
1342 Clouds 28 1014 54 10000 1.54 0 11:21 26.06.2022
1343 Clear 27 1015 57 10000 1.03 0 10:23 26.06.2022
1344 Clear 24 1004 75 10000 2.06 170 08:46 26.06.2022
1345 Clear 21 1006 88 10000 2.06 180 07:23 26.06.2022
1346 Clear 19 1013 92 10000 1.54 130 00:48 26.06.2022
1347 Clear 19 1013 91 10000 1.54 130 00:20 26.06.2022
1348 Clear 19 1013 90 10000 2.06 140 23:33 25.06.2022
1349 Clear 20 1013 89 10000 2.57 160 22:55 25.06.2022
1350 Clear 21 1013 85 10000 2.06 170 22:27 25.06.2022
1351 Clear 22 1013 80 10000 1.54 160 21:37 25.06.2022
1352 Clear 22 1013 78 10000 1.54 120 21:18 25.06.2022
1353 Clouds 23 1013 73 10000 1.03 0 20:25 25.06.2022
1354 Clouds 24 1012 62 10000 0.51 0 19:19 25.06.2022
1355 Clouds 25 1012 67 10000 3.6 210 17:53 25.06.2022
1356 Clouds 26 1012 61 10000 1.03 0 17:19 25.06.2022
1357 Clouds 25 1012 66 10000 2.57 310 14:59 25.06.2022
1358 Clouds 23 1013 70 10000 3.09 310 12:57 25.06.2022
1359 Rain 23 1013 69 10000 3.09 310 12:37 25.06.2022
1360 Clouds 22 1012 76 10000 3.6 290 10:32 25.06.2022
1361 Clouds 20 1012 83 10000 2.57 270 08:57 25.06.2022
1362 Clouds 20 1012 86 10000 2.57 270 08:35 25.06.2022
1363 Rain 19 1012 90 10000 2.06 260 07:45 25.06.2022
1364 Rain 18 1001 92 10000 1.54 190 03:30 25.06.2022
1365 Clear 18 1001 92 10000 4.12 170 00:33 25.06.2022
1366 Clear 19 1001 91 10000 3.6 150 22:53 24.06.2022
1367 Clear 20 1000 89 10000 4.12 150 21:34 24.06.2022
1368 Clear 21 1000 85 10000 3.09 140 20:44 24.06.2022
1369 Clear 22 1000 80 10000 4.12 150 20:18 24.06.2022
1370 Clear 22 1000 84 10000 1.54 0 19:20 24.06.2022
1371 Clear 21 1000 91 10000 4.63 150 18:48 24.06.2022
1372 Clouds 21 1000 92 10000 3.6 150 18:30 24.06.2022
1373 Rain 21 1009 77 10000 5.66 200 17:19 24.06.2022
1374 Rain 28 1008 43 10000 4.12 190 15:29 24.06.2022
1375 Clear 29 997 44 10000 6.17 180 14:26 24.06.2022
1376 Rain 29 1000 42 10000 5.66 160 13:54 24.06.2022
1377 Clear 30 998 39 10000 6.17 130 11:43 24.06.2022
1378 Clear 29 998 39 10000 5.66 140 10:47 24.06.2022
1379 Clear 27 999 44 10000 5.14 140 09:49 24.06.2022
1380 Clear 26 1010 45 10000 5.66 140 09:27 24.06.2022
1381 Clear 25 999 49 10000 6.17 150 08:51 24.06.2022
1382 Clear 20 1003 62 10000 3.6 150 06:48 24.06.2022
1383 Clear 19 1003 64 10000 2.57 150 06:30 24.06.2022
1384 Clear 18 1004 68 10000 3.09 140 05:52 24.06.2022
1385 Clear 20 1012 55 10000 3.6 170 01:21 24.06.2022
1386 Clear 22 1012 48 10000 2.57 110 22:44 23.06.2022
1387 Clear 24 1012 38 10000 3.09 100 21:52 23.06.2022
1388 Clear 27 1012 40 10000 4.12 80 20:54 23.06.2022
1389 Clear 28 1011 33 10000 4.12 80 20:32 23.06.2022
1390 Clear 31 1011 25 10000 4.12 80 18:44 23.06.2022
1391 Clear 31 1011 26 10000 4.12 90 17:45 23.06.2022
1392 Clear 32 1012 21 10000 3.09 0 16:36 23.06.2022
1393 Clear 32 1002 24 10000 3.6 90 15:29 23.06.2022
1394 Clear 31 1013 25 10000 4.12 90 14:59 23.06.2022
1395 Clear 30 1003 33 10000 1.54 0 12:43 23.06.2022
1396 Clear 28 1014 37 10000 3.09 60 11:20 23.06.2022
1397 Clear 24 1004 51 10000 1.03 0 09:30 23.06.2022
1398 Clouds 19 996 64 10000 1.54 220 07:51 23.06.2022
1399 Clear 17 1001 67 10000 0.51 360 02:19 23.06.2022
1400 Clear 19 1004 57 10000 1.03 30 00:25 23.06.2022
1401 Clear 20 1004 52 10000 1.54 30 23:27 22.06.2022
1402 Clear 22 1003 51 10000 3.09 20 22:24 22.06.2022
1403 Clear 25 999 47 10000 1.54 330 20:57 22.06.2022
1404 Clear 26 1010 41 10000 1.54 300 20:21 22.06.2022
1405 Clear 27 1010 33 10000 1.54 300 19:50 22.06.2022
1406 Clear 28 1010 34 10000 3.09 330 18:21 22.06.2022
1407 Clear 28 1010 33 10000 3.09 260 17:24 22.06.2022
1408 Clear 28 1010 33 10000 1.54 0 16:18 22.06.2022
1409 Clear 28 1011 34 10000 2.57 0 15:25 22.06.2022
1410 Clear 28 1000 37 10000 1.54 0 14:18 22.06.2022
1411 Clear 27 1012 34 10000 1.54 0 13:37 22.06.2022
1412 Clear 27 1012 34 10000 3.6 0 13:18 22.06.2022
1413 Clear 26 1001 41 10000 3.6 50 11:48 22.06.2022
1414 Clear 24 1012 45 10000 2.06 170 10:54 22.06.2022
1415 Clear 22 1001 53 10000 3.09 170 09:54 22.06.2022
1416 Clear 18 1004 63 10000 2.57 150 07:58 22.06.2022
1417 Clear 14 1013 74 10000 1.54 80 03:40 22.06.2022
1418 Clear 13 1006 75 10000 1.03 150 01:23 22.06.2022
1419 Clear 15 1013 68 10000 1.03 0 23:42 21.06.2022
1420 Clear 17 1014 59 10000 0.51 0 21:49 21.06.2022
1421 Clear 22 1013 45 10000 2.06 290 19:50 21.06.2022
1422 Clear 22 1013 44 10000 1.54 0 18:35 21.06.2022
1423 Clear 22 1014 42 10000 2.06 0 17:31 21.06.2022
1424 Clouds 21 1004 50 10000 4.12 290 13:45 21.06.2022
1425 Clouds 19 1004 59 10000 4.63 270 11:37 21.06.2022
1426 Clouds 16 1008 67 10000 4.12 310 09:54 21.06.2022
1427 Clouds 15 1004 77 10000 4.63 290 08:47 21.06.2022
1428 Clouds 11 1007 87 10000 4.12 270 06:36 21.06.2022
1429 Clouds 12 1006 84 10000 3.09 250 01:31 21.06.2022
1430 Clear 12 1006 90 10000 3.6 240 23:24 20.06.2022
1431 Clear 13 1005 88 10000 2.24 224 21:54 20.06.2022
1432 Clear 14 1005 82 10000 2.57 270 20:50 20.06.2022
1433 Clouds 14 1002 79 10000 3.6 270 19:40 20.06.2022
1434 Clouds 13 1005 87 10000 4.12 290 18:46 20.06.2022
1435 Clouds 13 1005 91 10000 4.92 302 18:00 20.06.2022
1436 Clouds 13 1004 93 10000 4.63 280 17:35 20.06.2022
1437 Rain 15 1005 93 6000 4.12 340 15:57 20.06.2022
1438 Clouds 20 1010 67 10000 5.66 340 12:56 20.06.2022
1439 Clouds 21 1009 67 10000 1.54 0 11:18 20.06.2022
1440 Clouds 19 998 76 10000 4.12 10 09:47 20.06.2022
1441 Clouds 20 1009 71 10000 6.17 320 08:44 20.06.2022
1442 Clear 19 1001 78 10000 2.57 20 06:37 20.06.2022
1443 Clouds 19 1003 74 10000 4.63 10 03:20 20.06.2022
1444 Clear 22 1011 62 10000 4.63 40 00:37 20.06.2022
1445 Clear 24 1010 56 10000 2.57 320 23:24 19.06.2022
1446 Clear 27 1010 47 10000 4.12 330 22:18 19.06.2022
1447 Clear 28 1008 44 10000 5.66 360 21:41 19.06.2022
1448 Clear 30 1008 42 10000 6.17 350 20:46 19.06.2022
1449 Clear 33 1006 37 10000 4.63 330 19:48 19.06.2022
1450 Clear 34 995 41 10000 4.63 320 19:23 19.06.2022
1451 Clear 36 1004 31 10000 3.6 270 18:31 19.06.2022
1452 Clear 37 1004 28 10000 5.66 290 17:39 19.06.2022
1453 Clear 38 1004 25 10000 5.66 280 16:38 19.06.2022
1454 Clear 38 1005 24 10000 6.17 190 15:44 19.06.2022
1455 Clear 37 1005 24 10000 7.2 180 15:26 19.06.2022
1456 Clear 37 995 28 10000 9.77 190 14:30 19.06.2022
1457 Clear 36 995 28 10000 8.75 180 13:43 19.06.2022
1458 Clear 34 997 36 10000 8.75 170 11:53 19.06.2022
1459 Clear 33 997 36 10000 8.75 180 10:52 19.06.2022
1460 Clear 26 1009 56 10000 5.66 150 08:55 19.06.2022
1461 Clear 26 998 56 10000 6.17 160 08:30 19.06.2022
1462 Clear 22 1002 64 10000 4.63 150 06:48 19.06.2022
1463 Clear 22 1001 64 10000 3.09 160 03:38 19.06.2022
1464 Clear 24 1002 57 10000 1.54 180 00:28 19.06.2022
1465 Clear 23 1005 58 10000 2.57 190 23:59 18.06.2022
1466 Clear 24 1005 56 10000 2.57 190 23:34 18.06.2022
1467 Clear 26 1006 52 10000 2.06 200 22:23 18.06.2022
1468 Clear 28 1014 45 10000 1.54 290 20:51 18.06.2022
1469 Clear 31 1006 36 10000 2.06 270 20:18 18.06.2022
1470 Clear 33 1003 35 10000 5.14 300 18:57 18.06.2022
1471 Clear 33 1003 34 10000 5.14 300 18:38 18.06.2022
1472 Clear 34 1014 29 10000 4.63 270 17:29 18.06.2022
1473 Clear 34 1015 28 10000 4.63 250 15:57 18.06.2022
1474 Clear 34 1004 30 10000 5.14 250 14:58 18.06.2022
1475 Clear 34 1016 29 10000 5.14 250 14:37 18.06.2022
1476 Clear 32 1017 30 10000 4.63 270 12:31 18.06.2022
1477 Clear 30 1018 32 10000 5.66 240 11:25 18.06.2022
1478 Clear 29 1007 37 10000 4.63 230 09:46 18.06.2022
1479 Clear 25 1008 46 10000 4.63 200 08:59 18.06.2022
1480 Clear 22 1001 52 10000 4.12 190 07:34 18.06.2022
1481 Clear 22 1001 52 10000 4.12 190 07:34 18.06.2022
1482 Clear 19 1001 60 10000 2.06 170 05:58 18.06.2022
1483 Clear 17 1013 66 10000 3.6 180 02:51 18.06.2022
1484 Clear 19 1014 61 10000 3.09 180 01:21 18.06.2022
1485 Clear 20 1014 59 10000 2.57 180 00:39 18.06.2022
1486 Clear 21 1014 53 10000 2.06 210 23:40 17.06.2022
1487 Clear 21 1014 49 10000 1.54 230 22:49 17.06.2022
1488 Clear 24 1014 41 10000 2.06 270 20:33 17.06.2022
1489 Clear 25 1011 41 10000 2.06 260 19:24 17.06.2022
1490 Clear 25 1022 37 10000 3.09 300 18:24 17.06.2022
1491 Clear 26 1022 36 10000 2.06 0 17:22 17.06.2022
1492 Clear 25 1023 38 10000 3.6 310 16:38 17.06.2022
1493 Clear 25 1023 39 10000 3.09 260 15:41 17.06.2022
1494 Clear 25 1023 40 10000 2.57 230 14:37 17.06.2022
1495 Clear 25 1024 42 10000 2.57 0 14:18 17.06.2022
1496 Clear 25 1013 45 10000 3.09 0 13:41 17.06.2022
1497 Clouds 24 1013 47 10000 3.6 250 12:42 17.06.2022
1498 Clouds 23 1013 50 10000 3.09 300 11:56 17.06.2022
1499 Clouds 22 1013 49 10000 3.09 300 11:35 17.06.2022
1500 Clear 21 1013 52 10000 1.54 330 09:59 17.06.2022
1501 Clear 18 1012 62 10000 1.54 310 08:27 17.06.2022
1502 Clear 14 1015 70 10000 1.54 270 06:57 17.06.2022
1503 Clear 13 1015 74 10000 1.54 310 04:52 17.06.2022
1504 Clear 16 1014 66 10000 1.54 340 02:41 17.06.2022
1505 Clear 16 1014 65 10000 2.06 350 00:33 17.06.2022
1506 Clear 19 1014 52 10000 3.09 360 22:44 16.06.2022
1507 Clear 22 1011 46 10000 4.12 360 21:26 16.06.2022
1508 Clear 23 1011 44 10000 5.66 350 20:59 16.06.2022
1509 Clear 23 1019 40 10000 5.66 350 20:36 16.06.2022
1510 Clear 25 1018 41 10000 5.66 340 19:55 16.06.2022
1511 Clear 26 1006 41 10000 6.17 330 18:28 16.06.2022
1512 Clear 27 1009 40 10000 4.12 330 17:43 16.06.2022
1513 Clear 27 1006 44 10000 4.63 300 16:40 16.06.2022
1514 Clear 26 1006 45 10000 4.12 330 15:24 16.06.2022
1515 Clear 25 1006 50 10000 4.12 310 14:46 16.06.2022
1516 Clear 24 1006 53 10000 3.09 330 13:45 16.06.2022
1517 Rain 23 1018 54 10000 3.6 340 12:37 16.06.2022
1518 Clear 23 1018 60 10000 3.09 310 11:53 16.06.2022
1519 Clear 22 1017 60 10000 1.54 310 11:18 16.06.2022
1520 Clouds 21 1017 65 10000 1.54 20 10:33 16.06.2022
1521 Clouds 20 1008 69 10000 2.57 260 09:25 16.06.2022
1522 Rain 20 1008 66 10000 2.06 220 08:46 16.06.2022
1523 Clear 18 1016 71 10000 1.03 0 07:29 16.06.2022
1524 Clear 17 996 73 10000 1.03 150 05:42 16.06.2022
1525 Clear 16 1004 72 10000 2.06 150 02:54 16.06.2022
1526 Clear 17 1004 68 10000 1.03 0 01:51 16.06.2022
1527 Clear 17 1008 70 10000 2.06 210 01:21 16.06.2022
1528 Clear 17 1008 70 10000 2.06 210 01:21 16.06.2022
1529 Clear 18 1008 65 10000 1.03 170 23:56 15.06.2022
1530 Clear 18 1008 65 10000 1.03 170 23:56 15.06.2022
1531 Clear 19 1017 58 10000 1.03 0 22:45 15.06.2022
1532 Clear 22 1008 50 10000 1.03 280 21:29 15.06.2022
1533 Clear 24 1016 43 10000 1.54 320 20:57 15.06.2022
1534 Clear 25 1016 36 10000 1.54 320 20:35 15.06.2022
1535 Clear 26 1016 39 10000 3.09 330 19:49 15.06.2022
1536 Clear 28 1016 35 10000 3.09 330 18:30 15.06.2022
1537 Clear 28 1016 33 10000 2.57 340 17:42 15.06.2022
1538 Clear 28 1006 35 10000 3.09 310 16:21 15.06.2022
1539 Clear 27 1018 35 10000 1.54 0 14:37 15.06.2022
1540 Clear 27 1007 38 10000 1.54 0 13:20 15.06.2022
1541 Clear 26 1007 39 10000 2.06 0 12:39 15.06.2022
1542 Clear 24 1019 40 10000 2.06 0 11:24 15.06.2022
1543 Clear 23 1020 47 10000 1.54 70 10:21 15.06.2022
1544 Clear 18 1020 59 10000 1.54 150 08:59 15.06.2022
1545 Clear 15 1001 70 10000 0.51 0 07:32 15.06.2022
1546 Clear 12 1001 77 10000 1.03 0 05:36 15.06.2022
1547 Clear 12 1009 77 10000 2.06 170 02:47 15.06.2022
1548 Clear 11 1013 78 10000 1.54 120 01:36 15.06.2022
1549 Clear 13 1013 73 10000 1.03 0 00:19 15.06.2022
1550 Clear 13 1013 72 10000 0.51 0 23:38 14.06.2022
1551 Clear 14 1013 67 10000 0.51 0 22:47 14.06.2022
1552 Clear 16 1021 58 10000 1.54 240 21:43 14.06.2022
1553 Clear 17 1021 52 10000 1.54 240 21:20 14.06.2022
1554 Clear 19 1021 47 10000 2.06 250 20:40 14.06.2022
1555 Clear 20 1020 46 10000 3.09 270 19:47 14.06.2022
1556 Clear 21 1021 44 10000 3.09 0 18:40 14.06.2022
1557 Clear 21 1021 43 10000 3.6 300 17:19 14.06.2022
1558 Clear 22 1010 45 10000 3.6 320 16:42 14.06.2022
1559 Clear 22 1010 45 10000 4.63 290 15:43 14.06.2022
1560 Clear 21 1010 47 10000 4.12 310 14:56 14.06.2022
1561 Clouds 19 1022 44 10000 5.14 320 14:18 14.06.2022
1562 Clouds 20 1014 48 10000 4.63 280 13:28 14.06.2022
1563 Clouds 18 1011 56 10000 4.12 300 12:19 14.06.2022
1564 Clouds 17 1011 59 10000 3.6 300 10:55 14.06.2022
1565 Clouds 17 1015 56 10000 3.6 280 10:29 14.06.2022
1566 Clouds 15 1011 67 10000 2.57 260 09:26 14.06.2022
1567 Clouds 14 1011 70 10000 2.57 300 08:40 14.06.2022
1568 Clouds 12 1015 78 10000 2.06 290 06:53 14.06.2022
1569 Clear 11 1014 80 10000 2.06 290 04:27 14.06.2022
1570 Clear 13 1013 74 10000 1.54 260 01:50 14.06.2022
1571 Clouds 14 1013 73 10000 2.06 290 00:27 14.06.2022
1572 Clear 15 1013 66 10000 1.79 302 23:18 13.06.2022
1573 Clear 15 1013 64 10000 2.06 260 22:24 13.06.2022
1574 Clear 15 1013 67 10000 3.09 270 21:41 13.06.2022
1575 Clear 17 1008 71 10000 3.09 310 19:59 13.06.2022
1576 Clouds 18 1011 71 10000 2.57 330 19:25 13.06.2022
1577 Clouds 20 1019 48 10000 7.72 330 17:57 13.06.2022
1578 Clouds 20 1018 51 10000 7.72 330 17:35 13.06.2022
1579 Clear 21 1018 45 10000 5.66 290 16:32 13.06.2022
1580 Rain 20 1010 48 10000 8.75 300 14:53 13.06.2022
1581 Rain 20 1009 49 10000 8.75 300 14:33 13.06.2022
1582 Clouds 20 1006 54 10000 5.66 330 13:39 13.06.2022
1583 Clouds 20 1018 57 10000 4.63 320 12:25 13.06.2022
1584 Clouds 19 1006 66 10000 3.09 340 11:18 13.06.2022
1585 Clouds 19 1009 64 10000 4.12 340 10:26 13.06.2022
1586 Clouds 18 1017 63 10000 3.6 330 09:23 13.06.2022
1587 Clouds 16 1005 71 10000 3.6 330 07:34 13.06.2022
1588 Clear 16 1008 68 10000 3.6 310 05:39 13.06.2022
1589 Clear 16 1008 72 10000 1.54 300 02:47 13.06.2022
1590 Clear 18 1008 66 10000 2.06 330 01:37 13.06.2022
1591 Clear 18 1008 69 10000 2.57 330 00:18 13.06.2022
1592 Clear 19 1008 67 10000 2.06 300 23:24 12.06.2022
1593 Clear 20 1008 64 10000 1.54 270 22:22 12.06.2022
1594 Clear 22 1008 57 10000 1.03 300 21:22 12.06.2022
1595 Clear 25 1016 49 10000 3.09 300 20:29 12.06.2022
1596 Clear 26 1017 42 10000 3.6 320 19:30 12.06.2022
1597 Clear 28 1006 42 10000 5.14 270 17:53 12.06.2022
1598 Clear 28 1007 49 10000 5.66 310 16:24 12.06.2022
1599 Clear 29 1007 48 10000 5.66 290 14:58 12.06.2022
1600 Clear 28 1007 48 10000 6.17 310 14:23 12.06.2022
1601 Clear 29 1007 45 10000 5.14 300 13:55 12.06.2022
1602 Clear 28 1008 43 10000 4.63 260 12:43 12.06.2022
1603 Clear 28 1008 48 10000 3.6 270 11:40 12.06.2022
1604 Clouds 26 1009 55 10000 4.12 210 10:38 12.06.2022
1605 Clear 23 1012 64 10000 3.09 180 09:25 12.06.2022
1606 Clear 21 1010 68 10000 3.09 190 08:46 12.06.2022
1607 Clear 19 1002 73 10000 3.09 160 07:38 12.06.2022
1608 Clear 16 1002 83 10000 2.57 180 05:29 12.06.2022
1609 Clear 16 1003 79 10000 2.57 210 03:29 12.06.2022
1610 Clear 16 1014 82 10000 1.03 200 01:43 12.06.2022
1611 Clear 16 1014 80 10000 1.54 240 00:58 12.06.2022
1612 Clear 17 1014 75 10000 1.54 280 00:25 12.06.2022
1613 Clear 18 1014 72 10000 1.54 260 23:47 11.06.2022
1614 Clear 18 1014 72 10000 1.54 260 23:47 11.06.2022
1615 Clear 19 1013 67 10000 1.54 280 22:39 11.06.2022
1616 Clear 20 1013 65 10000 1.03 280 22:18 11.06.2022
1617 Clear 23 1022 50 10000 3.09 300 20:50 11.06.2022
1618 Clear 24 1021 50 10000 3.09 300 20:21 11.06.2022
1619 Clear 26 1021 42 10000 3.6 270 19:26 11.06.2022
1620 Clear 26 1021 38 10000 3.09 280 18:36 11.06.2022
1621 Clear 26 1021 36 10000 3.6 300 17:52 11.06.2022
1622 Clear 26 1022 34 10000 4.12 260 17:29 11.06.2022
1623 Clear 26 1022 41 10000 4.12 310 16:58 11.06.2022
1624 Clear 27 1010 44 10000 4.63 300 16:30 11.06.2022
1625 Clear 27 1010 43 10000 3.6 270 15:45 11.06.2022
1626 Clear 26 1010 43 10000 3.6 270 13:54 11.06.2022
1627 Clear 27 1013 40 10000 2.57 0 13:24 11.06.2022
1628 Clear 26 1014 41 10000 2.06 0 10:58 11.06.2022
1629 Clouds 24 1004 51 10000 2.57 300 10:20 11.06.2022
1630 Clouds 22 1022 57 10000 2.06 240 09:29 11.06.2022
1631 Clear 17 1011 72 10000 3.09 200 07:52 11.06.2022
1632 Clear 15 1003 81 10000 1.03 0 06:31 11.06.2022
1633 Clear 14 1003 83 10000 3.09 200 05:21 11.06.2022
1634 Clear 15 1003 80 10000 2.57 200 01:53 11.06.2022
1635 Clear 15 1003 80 10000 2.57 200 01:53 11.06.2022
1636 Clear 14 1010 82 10000 2.57 200 01:34 11.06.2022
1637 Clear 15 1010 78 10000 1.54 200 00:34 11.06.2022
1638 Clear 17 1022 68 10000 1.03 190 22:35 10.06.2022
1639 Clear 18 1022 64 10000 1.03 290 21:54 10.06.2022
1640 Clear 21 1022 60 10000 2.06 310 20:43 10.06.2022
1641 Clear 22 1021 52 10000 2.57 320 20:23 10.06.2022
1642 Clear 23 1021 45 10000 3.6 330 19:48 10.06.2022
1643 Clear 23 1021 46 10000 3.09 350 19:18 10.06.2022
1644 Clear 24 1021 44 10000 3.6 320 18:20 10.06.2022
1645 Clear 24 1021 44 10000 3.09 340 17:36 10.06.2022
1646 Clear 23 1022 50 10000 4.63 330 16:58 10.06.2022
1647 Clouds 23 1022 50 10000 4.12 300 15:50 10.06.2022
1648 Clouds 22 1023 49 10000 2.57 0 15:30 10.06.2022
1649 Clouds 23 1022 52 10000 3.09 280 13:52 10.06.2022
1650 Clouds 22 1011 59 10000 4.12 290 12:41 10.06.2022
1651 Clouds 22 1011 62 10000 3.09 290 11:40 10.06.2022
1652 Clouds 20 1011 66 10000 3.6 320 10:44 10.06.2022
1653 Clouds 20 1014 64 10000 3.09 350 09:44 10.06.2022
1654 Clouds 17 1003 75 10000 3.09 310 08:30 10.06.2022
1655 Clouds 15 1010 84 10000 2.06 280 07:20 10.06.2022
1656 Clouds 15 1013 86 10000 1.54 270 06:43 10.06.2022
1657 Clouds 14 1013 88 10000 2.57 290 06:24 10.06.2022
1658 Clouds 15 1020 82 10000 3.09 300 03:52 10.06.2022
1659 Clouds 15 1018 81 10000 2.57 280 01:41 10.06.2022
1660 Clear 15 1018 87 10000 1.54 250 00:28 10.06.2022
1661 Clear 16 1009 87 10000 2.06 260 23:29 09.06.2022
1662 Clear 17 1008 84 10000 2.06 260 22:18 09.06.2022
1663 Clear 17 1008 83 10000 1.54 260 21:33 09.06.2022
1664 Clear 17 1008 83 10000 1.54 240 20:54 09.06.2022
1665 Clouds 18 1007 79 10000 1.54 300 19:59 09.06.2022
1666 Clouds 18 1006 78 10000 2.57 310 19:19 09.06.2022
1667 Clouds 18 1003 76 10000 2.06 290 18:21 09.06.2022
1668 Clouds 20 1005 70 10000 3.6 290 16:51 09.06.2022
1669 Clouds 19 1005 75 10000 3.09 300 15:48 09.06.2022
1670 Clouds 19 1005 75 10000 3.09 300 15:48 09.06.2022
1671 Clouds 18 1005 83 10000 3.09 310 14:35 09.06.2022
1672 Clouds 17 1004 89 10000 2.57 270 13:54 09.06.2022
1673 Clouds 16 1004 93 10000 3.6 270 13:28 09.06.2022
1674 Rain 16 1004 86 10000 3.6 280 11:54 09.06.2022
1675 Clouds 16 1003 87 10000 3.6 290 11:18 09.06.2022
1676 Clouds 17 1002 81 10000 3.6 270 09:44 09.06.2022
1677 Clouds 17 1002 82 10000 3.09 260 09:23 09.06.2022
1678 Clouds 16 1001 81 10000 3.6 290 07:45 09.06.2022
1679 Clear 16 1001 82 10000 2.06 280 06:33 09.06.2022
1680 Clear 17 1007 79 10000 2.06 270 02:52 09.06.2022
1681 Clear 19 999 70 10000 2.06 230 23:39 08.06.2022
1682 Clouds 20 999 68 10000 3.09 160 22:58 08.06.2022
1683 Clouds 19 1007 69 10000 1.54 150 22:27 08.06.2022
1684 Clouds 19 1007 69 10000 2.57 170 21:55 08.06.2022
1685 Clouds 21 999 65 10000 2.06 170 21:21 08.06.2022
1686 Clear 23 1007 60 10000 2.57 150 20:21 08.06.2022
1687 Clear 24 1007 49 10000 2.57 200 19:38 08.06.2022
1688 Clouds 24 1007 54 10000 1.54 300 18:45 08.06.2022
1689 Clouds 24 1007 53 10000 1.03 0 17:18 08.06.2022
1690 Clouds 24 997 55 10000 3.09 240 15:48 08.06.2022
1691 Clouds 25 998 54 10000 2.06 280 13:52 08.06.2022
1692 Clouds 23 999 58 10000 2.57 260 12:20 08.06.2022
1693 Rain 23 1002 58 10000 2.06 0 11:33 08.06.2022
1694 Clouds 23 999 61 10000 3.09 230 10:20 08.06.2022
1695 Clouds 21 999 68 10000 2.57 250 09:22 08.06.2022
1696 Clear 20 999 69 10000 2.57 230 08:40 08.06.2022
1697 Clear 13 1000 89 10000 2.57 200 05:55 08.06.2022
1698 Clear 14 1004 92 10000 2.57 200 03:58 08.06.2022
1699 Clear 15 1004 92 10000 3.09 180 00:45 08.06.2022
1700 Clear 16 1005 90 10000 3.09 160 23:29 07.06.2022
1701 Clear 16 1005 89 10000 3.09 160 22:45 07.06.2022
1702 Clear 17 1005 89 10000 3.6 160 22:26 07.06.2022
1703 Clear 18 1013 84 10000 3.6 170 21:35 07.06.2022
1704 Clear 19 1004 73 10000 2.06 230 20:59 07.06.2022
1705 Clear 20 1012 68 10000 2.06 230 20:33 07.06.2022
1706 Clear 21 1012 63 10000 2.06 260 19:45 07.06.2022
1707 Clouds 22 1013 57 10000 3.09 250 18:24 07.06.2022
1708 Clouds 21 1012 65 10000 1.03 0 17:27 07.06.2022
1709 Clouds 20 1013 66 10000 0.51 0 16:43 07.06.2022
1710 Clouds 20 1005 62 10000 2.06 0 15:56 07.06.2022
1711 Clouds 21 1005 60 10000 2.57 300 15:26 07.06.2022
1712 Clouds 21 1002 66 10000 2.06 0 14:52 07.06.2022
1713 Clouds 21 1002 66 10000 2.06 0 14:32 07.06.2022
1714 Clouds 20 1002 68 10000 3.09 250 13:32 07.06.2022
1715 Clouds 20 1005 66 10000 3.09 270 12:52 07.06.2022
1716 Clouds 20 1014 72 10000 3.09 310 11:48 07.06.2022
1717 Clouds 19 1014 75 10000 1.03 0 10:27 07.06.2022
1718 Rain 19 1006 77 10000 2.06 260 08:51 07.06.2022
1719 Clouds 17 1006 81 10000 2.57 210 07:35 07.06.2022
1720 Clear 16 1006 87 10000 1.03 0 06:38 07.06.2022
1721 Clear 16 1006 87 10000 1.03 0 06:38 07.06.2022
1722 Clear 16 1005 88 10000 1.54 190 04:20 07.06.2022
1723 Clear 16 1007 88 10000 1.54 90 01:27 07.06.2022
1724 Clear 18 1006 81 10000 1.03 70 23:52 06.06.2022
1725 Clear 18 1006 79 10000 2.06 200 22:54 06.06.2022
1726 Clear 18 1007 75 10000 2.06 180 22:29 06.06.2022
1727 Clouds 19 1007 71 10000 1.54 220 20:43 06.06.2022
1728 Clouds 21 1007 66 10000 5.66 310 19:24 06.06.2022
1729 Clouds 21 1007 66 10000 6.17 280 18:48 06.06.2022
1730 Clouds 22 1006 60 10000 2.06 270 18:21 06.06.2022
1731 Clear 25 1003 51 10000 3.6 310 17:24 06.06.2022
1732 Clear 25 1014 46 10000 2.06 0 16:18 06.06.2022
1733 Clouds 25 1014 53 10000 3.6 280 14:59 06.06.2022
1734 Clouds 25 1015 52 10000 3.09 300 14:29 06.06.2022
1735 Clouds 24 1016 55 10000 3.6 280 13:21 06.06.2022
1736 Clouds 24 1004 58 10000 4.63 270 12:35 06.06.2022
1737 Clouds 23 1004 63 10000 3.09 260 11:50 06.06.2022
1738 Clouds 22 1004 70 10000 4.12 280 10:21 06.06.2022
1739 Clouds 20 1004 78 10000 4.12 280 09:24 06.06.2022
1740 Clouds 20 1004 84 10000 4.02 230 08:31 06.06.2022
1741 Clouds 18 1007 95 10000 1.54 240 07:28 06.06.2022
1742 Rain 18 1006 91 10000 4.63 260 05:18 06.06.2022
1743 Clear 20 1014 69 10000 3.6 210 02:42 06.06.2022
1744 Clear 21 1005 64 10000 2.57 160 00:57 06.06.2022
1745 Clear 21 1005 64 10000 2.57 160 00:37 06.06.2022
1746 Clear 22 1005 61 10000 3.09 130 23:28 05.06.2022
1747 Clear 22 1005 61 10000 2.57 110 22:33 05.06.2022
1748 Clear 24 1014 62 10000 3.6 90 20:46 05.06.2022
1749 Rain 25 1014 56 10000 5.14 90 19:38 05.06.2022
1750 Clear 27 1002 48 10000 4.63 120 18:26 05.06.2022
1751 Clear 28 1003 45 10000 5.14 100 17:51 05.06.2022
1752 Clear 27 1003 42 10000 5.66 170 17:24 05.06.2022
1753 Clear 27 1003 42 10000 5.14 130 16:49 05.06.2022
1754 Clear 28 1003 41 10000 3.09 140 16:30 05.06.2022
1755 Clear 28 1005 45 10000 5.14 140 14:24 05.06.2022
1756 Clouds 27 1006 51 10000 4.12 150 12:49 05.06.2022
1757 Clouds 26 1006 54 10000 4.63 130 11:43 05.06.2022
1758 Clouds 24 1007 62 10000 5.14 140 10:33 05.06.2022
1759 Clear 23 1007 65 10000 3.09 110 09:59 05.06.2022
1760 Clear 19 1008 77 10000 1.54 130 08:32 05.06.2022
1761 Clear 18 1008 80 10000 2.57 100 07:43 05.06.2022
1762 Fog 12 1012 96 10000 0.51 0 05:22 05.06.2022
1763 Clear 13 1012 95 10000 1.03 120 03:46 05.06.2022
1764 Clear 14 1012 93 10000 0.51 0 01:32 05.06.2022
1765 Clear 14 1012 91 10000 1.03 200 00:33 05.06.2022
1766 Clear 17 1012 87 10000 0 0 22:22 04.06.2022
1767 Clear 20 1020 70 10000 1.54 360 20:31 04.06.2022
1768 Clear 22 1011 66 10000 1.54 50 18:45 04.06.2022
1769 Clear 22 1019 67 10000 3.09 360 16:44 04.06.2022
1770 Clouds 22 1011 66 10000 3.09 10 16:18 04.06.2022
1771 Clouds 21 1019 73 10000 2.06 360 14:53 04.06.2022
1772 Clouds 21 1019 74 10000 2.06 360 14:53 04.06.2022
1773 Clouds 21 1019 73 10000 2.06 340 12:38 04.06.2022
1774 Clouds 18 1018 90 10000 2.06 350 11:19 04.06.2022
1775 Clouds 18 1018 93 10000 1.54 350 10:44 04.06.2022
1776 Clear 17 1018 93 10000 1.54 300 09:44 04.06.2022
1777 Clouds 18 1009 95 10000 1.54 270 08:43 04.06.2022
1778 Clouds 17 1008 96 6000 2.57 300 07:41 04.06.2022
1779 Clouds 16 1008 96 9000 1.03 0 05:30 04.06.2022
1780 Rain 18 1009 82 10000 3.6 280 01:42 04.06.2022
1781 Rain 19 1008 64 10000 3.09 110 00:19 04.06.2022
1782 Clear 21 1016 57 10000 3.09 90 22:40 03.06.2022
1783 Clear 22 1017 47 10000 3.6 80 21:39 03.06.2022
1784 Clear 23 1016 56 10000 4.12 80 20:38 03.06.2022
1785 Clear 26 1004 45 10000 3.6 120 18:54 03.06.2022
1786 Clear 27 1005 41 10000 3.09 0 16:52 03.06.2022
1787 Clear 27 1006 42 10000 4.12 150 15:37 03.06.2022
1788 Clear 26 1007 42 10000 4.63 170 13:49 03.06.2022
1789 Clear 25 1008 44 10000 5.14 110 11:51 03.06.2022
1790 Clear 21 1008 54 10000 4.63 110 09:53 03.06.2022
1791 Clear 20 1009 56 10000 4.12 110 09:28 03.06.2022
1792 Clear 14 1002 70 10000 1.03 0 07:27 03.06.2022
1793 Clear 11 1003 79 10000 1.03 0 06:45 03.06.2022
1794 Clear 11 1002 78 10000 0.51 0 06:27 03.06.2022
1795 Clear 10 1010 78 10000 1.03 160 02:24 03.06.2022
1796 Clear 12 1014 74 10000 1.03 140 23:36 02.06.2022
1797 Clear 14 1022 62 10000 1.03 330 21:58 02.06.2022
1798 Clear 18 1012 51 10000 1.54 330 20:26 02.06.2022
1799 Clear 18 1021 45 10000 2.57 320 19:54 02.06.2022
1800 Clear 19 1021 45 10000 2.57 320 19:36 02.06.2022
1801 Clear 19 1020 46 10000 3.09 360 18:34 02.06.2022
1802 Clouds 20 1021 47 10000 3.6 0 16:28 02.06.2022
1803 Clouds 20 1009 50 10000 4.12 300 15:30 02.06.2022
1804 Clouds 19 1009 55 10000 4.12 250 13:30 02.06.2022
1805 Clouds 18 1009 55 10000 3.13 227 12:46 02.06.2022
1806 Clouds 16 1009 63 10000 3.09 300 10:34 02.06.2022
1807 Clouds 15 1008 71 10000 3.09 300 09:29 02.06.2022
1808 Clouds 13 1000 80 10000 3.6 300 08:39 02.06.2022
1809 Clouds 12 1000 86 10000 3.09 300 08:19 02.06.2022
1810 Clear 10 1011 90 10000 1.54 270 06:20 02.06.2022
1811 Rain 11 1010 87 10000 2.06 220 03:50 02.06.2022
1812 Clear 12 1008 78 10000 1.03 0 00:47 02.06.2022
1813 Clear 14 1007 74 10000 3.09 290 22:57 01.06.2022
1814 Clear 15 1006 74 10000 2.06 240 21:59 01.06.2022
1815 Clouds 16 1006 69 10000 2.06 220 21:24 01.06.2022
1816 Clouds 17 1015 60 10000 1.54 270 20:38 01.06.2022
1817 Clouds 18 1006 60 10000 1.54 270 19:51 01.06.2022
1818 Clear 20 1005 55 10000 4.63 320 18:37 01.06.2022
1819 Clouds 20 1013 56 10000 3.6 340 16:58 01.06.2022
1820 Clouds 21 1002 52 10000 4.12 290 15:43 01.06.2022
1821 Clouds 21 1002 50 10000 2.68 300 14:49 01.06.2022
1822 Clouds 20 1002 55 10000 2.06 280 13:23 01.06.2022
1823 Clouds 19 1002 58 10000 3.09 290 10:48 01.06.2022
1824 Clouds 17 1002 72 10000 3.09 240 09:29 01.06.2022
1825 Clouds 13 1002 88 10000 2.57 200 08:18 01.06.2022
1826 Mist 12 1005 90 5000 3.09 210 07:20 01.06.2022
1827 Clear 9 1006 97 7000 1.54 260 04:41 01.06.2022
1828 Clear 12 1005 95 10000 2.06 260 23:50 31.05.2022
1829 Clouds 13 1007 93 10000 1.03 0 22:43 31.05.2022
1830 Clouds 13 1004 93 10000 2.57 330 22:24 31.05.2022
1831 Clouds 13 1004 90 10000 2.57 310 21:44 31.05.2022
1832 Rain 15 1001 72 10000 1.54 130 20:44 31.05.2022
1833 Rain 19 992 50 10000 3.09 150 19:46 31.05.2022
1834 Clear 21 999 42 10000 3.09 160 18:32 31.05.2022
1835 Clear 22 1000 40 10000 3.13 121 17:38 31.05.2022
1836 Clear 21 1001 41 10000 2.06 70 16:21 31.05.2022
1837 Clear 21 1001 42 10000 3.09 10 15:37 31.05.2022
1838 Clear 21 1001 46 10000 4.63 180 13:22 31.05.2022
1839 Clouds 20 1002 52 10000 2.06 140 12:19 31.05.2022
1840 Clouds 18 1003 61 10000 3.09 150 10:52 31.05.2022
1841 Clear 12 996 83 10000 1.54 110 08:35 31.05.2022
1842 Fog 7 1004 94 800 1.03 0 06:38 31.05.2022
1843 Clear 6 1008 94 10000 1.03 0 04:34 31.05.2022
1844 Clear 9 1007 84 10000 0.51 290 23:49 30.05.2022
1845 Clear 9 1007 82 10000 0.51 310 23:25 30.05.2022
1846 Clear 10 1007 77 10000 1.03 310 22:42 30.05.2022
1847 Clear 12 1015 65 10000 1.03 0 21:42 30.05.2022
1848 Clouds 13 1005 64 10000 1.54 300 21:21 30.05.2022
1849 Clouds 15 1001 66 10000 3.6 320 19:45 30.05.2022
1850 Clouds 15 1004 59 10000 4.12 310 18:26 30.05.2022
1851 Clouds 15 1000 63 10000 4.12 320 17:23 30.05.2022
1852 Clouds 15 1000 63 10000 4.12 320 17:23 30.05.2022
1853 Clouds 16 1000 61 10000 3.09 290 16:30 30.05.2022
1854 Rain 15 1003 65 10000 5.14 320 13:44 30.05.2022
1855 Clouds 15 1000 66 10000 2.57 250 11:54 30.05.2022
1856 Clouds 13 1000 73 10000 2.57 0 10:20 30.05.2022
1857 Clouds 12 1003 78 10000 2.57 290 09:19 30.05.2022
1858 Clear 8 1002 93 10000 2.06 290 06:28 30.05.2022
1859 Clouds 7 1002 94 10000 1.54 320 05:38 30.05.2022
1860 Clouds 9 1003 83 10000 2.06 230 01:31 30.05.2022
1861 Clear 10 1000 75 10000 1.51 230 22:49 29.05.2022
1862 Clear 10 1000 77 10000 0.45 192 22:31 29.05.2022
1863 Clouds 13 1002 65 10000 2.57 150 20:51 29.05.2022
1864 Clouds 15 998 58 10000 2.06 170 19:30 29.05.2022
1865 Clouds 15 1010 57 10000 0.51 0 18:35 29.05.2022
1866 Clouds 15 1003 56 10000 3.09 310 16:51 29.05.2022
1867 Clouds 17 1002 47 10000 3.09 330 15:47 29.05.2022
1868 Clear 17 1002 45 10000 3.09 360 14:57 29.05.2022
1869 Clear 17 999 47 10000 3.09 310 13:46 29.05.2022
1870 Clouds 16 1001 51 10000 3.09 0 11:34 29.05.2022
1871 Clouds 14 1001 58 10000 4.92 207 10:38 29.05.2022
1872 Clouds 11 993 72 10000 3.09 280 08:47 29.05.2022
1873 Clear 6 1005 85 10000 1.54 250 05:48 29.05.2022
1874 Clear 7 1005 85 10000 2.57 240 04:43 29.05.2022
1875 Clear 8 1006 83 10000 2.06 270 03:41 29.05.2022
1876 Clear 11 1007 73 10000 2.06 250 23:49 28.05.2022
1877 Clouds 11 1007 75 10000 2.06 250 23:26 28.05.2022
1878 Clouds 11 1007 72 10000 2.57 250 22:33 28.05.2022
1879 Clouds 12 1006 68 10000 3.6 270 21:34 28.05.2022
1880 Clouds 14 1006 56 10000 4.63 290 19:41 28.05.2022
1881 Clouds 14 1006 58 10000 4.63 280 18:47 28.05.2022
1882 Clouds 16 1002 53 10000 6.17 300 17:36 28.05.2022
1883 Clouds 15 1006 50 10000 5.66 280 16:38 28.05.2022
1884 Clear 16 1015 46 10000 7.72 300 15:43 28.05.2022
1885 Clouds 16 1003 54 10000 8.23 280 14:23 28.05.2022
1886 Clouds 14 1007 55 10000 7.72 280 12:51 28.05.2022
1887 Clouds 14 1003 62 10000 7.72 280 12:33 28.05.2022
1888 Clouds 12 1003 66 10000 7.2 290 11:21 28.05.2022
1889 Clouds 12 1007 71 10000 6.69 280 09:58 28.05.2022
1890 Clouds 10 995 86 10000 5.66 270 08:45 28.05.2022
1891 Rain 9 1007 82 10000 6.17 300 07:23 28.05.2022
1892 Clouds 9 1006 76 10000 4.02 256 05:36 28.05.2022
1893 Clear 10 1007 68 10000 2.57 250 02:44 28.05.2022
1894 Clear 11 1008 66 10000 4.63 290 00:32 28.05.2022
1895 Clear 12 1008 65 10000 2.57 270 23:20 27.05.2022
1896 Clear 14 1007 59 10000 4.63 300 21:46 27.05.2022
1897 Clouds 15 1005 57 10000 1.34 303 20:56 27.05.2022
1898 Clear 16 1006 53 10000 7.2 310 20:25 27.05.2022
1899 Clear 17 1003 54 10000 7.72 310 19:42 27.05.2022
1900 Clear 17 1003 54 10000 7.72 310 19:24 27.05.2022
1901 Clouds 19 1002 56 10000 7.2 300 17:58 27.05.2022
1902 Clouds 18 1002 64 10000 5.66 290 16:39 27.05.2022
1903 Clouds 17 1003 79 10000 5.66 260 15:22 27.05.2022
1904 Clouds 15 1007 82 10000 4.12 260 14:25 27.05.2022
1905 Rain 14 1008 90 10000 4.12 260 13:18 27.05.2022
1906 Rain 13 1008 92 10000 3.09 260 11:34 27.05.2022
1907 Rain 12 1008 92 7000 3.6 300 10:56 27.05.2022
1908 Rain 12 1008 93 7000 3.6 300 10:31 27.05.2022
1909 Drizzle 15 1008 86 3500 6.17 280 09:37 27.05.2022
1910 Rain 16 1007 79 10000 2.68 230 07:55 27.05.2022
1911 Clouds 18 1007 62 10000 6.17 260 05:47 27.05.2022
1912 Clouds 18 1008 62 10000 4.63 240 02:47 27.05.2022
1913 Clear 17 1009 63 10000 3.6 230 00:29 27.05.2022
1914 Clear 18 1009 58 10000 3.09 250 22:43 26.05.2022
1915 Clouds 18 1010 60 10000 3.09 250 21:42 26.05.2022
1916 Clouds 18 1019 52 10000 2.57 270 20:59 26.05.2022
1917 Clouds 20 1010 51 10000 6.17 270 19:24 26.05.2022
1918 Clouds 20 1007 57 10000 5.14 270 18:18 26.05.2022
1919 Clouds 20 1019 53 10000 7.72 270 16:55 26.05.2022
1920 Clouds 21 1010 51 10000 6.17 290 15:46 26.05.2022
1921 Clouds 21 1007 55 10000 6.17 270 14:46 26.05.2022
1922 Clouds 21 1007 55 10000 6.69 260 12:50 26.05.2022
1923 Clouds 20 1010 55 10000 7.2 270 11:36 26.05.2022
1924 Clouds 18 1007 60 10000 7.2 260 10:24 26.05.2022
1925 Clouds 18 1010 56 10000 5.66 260 09:35 26.05.2022
1926 Clouds 17 1010 59 10000 4.63 270 08:37 26.05.2022
1927 Clear 15 1008 57 10000 3.6 240 05:22 26.05.2022
1928 Clear 14 1009 69 10000 2.06 240 00:57 26.05.2022
1929 Clear 15 1009 66 10000 2.06 250 23:40 25.05.2022
1930 Clear 16 1008 64 10000 2.06 260 22:29 25.05.2022
1931 Clear 15 1008 65 10000 1.54 250 21:33 25.05.2022
1932 Clear 19 1016 43 10000 2.57 250 20:38 25.05.2022
1933 Clear 20 1015 42 10000 4.63 290 19:31 25.05.2022
1934 Clear 21 1003 49 10000 3.09 290 17:46 25.05.2022
1935 Clear 22 1003 46 10000 3.6 280 16:40 25.05.2022
1936 Clear 21 1015 45 10000 3.6 300 15:58 25.05.2022
1937 Clouds 21 1003 50 10000 3.09 260 14:56 25.05.2022
1938 Clouds 20 1003 51 10000 3.09 260 14:33 25.05.2022
1939 Clouds 20 1007 52 10000 2.57 0 13:58 25.05.2022
1940 Clouds 18 1004 62 10000 4.12 250 12:48 25.05.2022
1941 Rain 16 1007 71 10000 2.57 270 10:58 25.05.2022
1942 Rain 15 1007 73 10000 3.09 270 10:20 25.05.2022
1943 Clouds 16 1004 70 10000 0.45 198 08:45 25.05.2022
1944 Clouds 14 996 83 10000 0.89 199 07:23 25.05.2022
1945 Clear 12 1004 83 10000 1.54 210 05:18 25.05.2022
1946 Clear 15 1012 66 10000 1.03 0 00:31 25.05.2022
1947 Clear 15 1004 73 10000 1.03 260 23:47 24.05.2022
1948 Clear 16 1000 68 10000 2.57 290 22:52 24.05.2022
1949 Clear 18 1010 63 10000 2.06 310 21:46 24.05.2022
1950 Clear 18 1010 67 10000 3.09 300 21:21 24.05.2022
1951 Clouds 19 1010 54 10000 2.57 300 20:44 24.05.2022
1952 Clouds 21 1009 48 10000 4.63 280 18:59 24.05.2022
1953 Clouds 21 1008 56 10000 5.66 280 17:19 24.05.2022
1954 Clear 21 1007 57 10000 5.14 260 16:29 24.05.2022
1955 Clouds 21 988 58 10000 5.66 260 15:27 24.05.2022
1956 Clouds 22 1006 46 10000 4.63 250 14:36 24.05.2022
1957 Clouds 23 994 63 10000 4.63 280 13:35 24.05.2022
1958 Clouds 22 997 66 10000 3.6 270 12:18 24.05.2022
1959 Clouds 22 993 69 10000 4.63 280 09:50 24.05.2022
1960 Clouds 21 993 71 10000 3.09 260 08:51 24.05.2022
1961 Clouds 19 992 77 10000 3.09 230 07:44 24.05.2022
1962 Clouds 18 995 76 10000 3.6 240 06:34 24.05.2022
1963 Clear 18 994 69 10000 5.14 170 03:32 24.05.2022
1964 Clear 19 1002 62 10000 6.17 160 01:46 24.05.2022
1965 Clear 19 994 60 10000 5.14 160 00:30 24.05.2022
1966 Clear 19 995 59 10000 5.14 160 22:24 23.05.2022
1967 Clear 19 995 59 10000 4.63 150 21:50 23.05.2022
1968 Clear 20 994 57 10000 4.63 140 20:46 23.05.2022
1969 Clear 21 992 58 10000 6.17 130 19:51 23.05.2022
1970 Clear 21 995 55 10000 5.14 130 19:24 23.05.2022
1971 Clear 21 993 60 10000 4.63 130 18:41 23.05.2022
1972 Clear 21 997 55 10000 4.63 150 17:56 23.05.2022
1973 Rain 21 1007 51 10000 5.14 160 16:29 23.05.2022
1974 Clear 22 996 50 10000 5.14 150 14:20 23.05.2022
1975 Clear 20 998 54 10000 5.66 140 11:57 23.05.2022
1976 Clear 19 998 58 10000 4.12 140 10:58 23.05.2022
1977 Clear 17 999 64 10000 5.66 140 09:48 23.05.2022
1978 Clear 17 999 65 10000 5.14 130 08:47 23.05.2022
1979 Clear 14 999 74 10000 3.09 120 07:37 23.05.2022
1980 Clear 11 1004 81 10000 2.06 130 06:41 23.05.2022
1981 Clear 10 1004 83 10000 2.06 170 04:40 23.05.2022
1982 Clear 11 1005 83 10000 3.09 160 02:19 23.05.2022
1983 Clear 10 1014 83 10000 3.09 180 01:33 23.05.2022
1984 Clear 12 1006 76 10000 1.54 90 23:22 22.05.2022
1985 Clear 13 1006 72 10000 1.03 60 22:34 22.05.2022
1986 Clear 13 1014 66 10000 1.54 330 21:54 22.05.2022
1987 Clear 16 1014 54 10000 1.54 320 20:51 22.05.2022
1988 Clear 17 1014 52 10000 2.06 310 20:23 22.05.2022
1989 Clear 18 1014 53 10000 2.57 330 19:54 22.05.2022
1990 Clear 19 1014 46 10000 3.09 310 18:53 22.05.2022
1991 Clear 20 1014 46 10000 3.09 330 18:24 22.05.2022
1992 Clear 20 1015 47 10000 3.6 290 17:28 22.05.2022
1993 Clouds 20 1015 46 10000 3.6 330 15:59 22.05.2022
1994 Clouds 20 1004 52 10000 3.09 0 14:48 22.05.2022
1995 Clouds 20 1004 53 10000 5.14 320 13:38 22.05.2022
1996 Clouds 18 1004 58 10000 5.14 320 12:50 22.05.2022
1997 Clouds 18 1008 57 10000 3.6 280 11:37 22.05.2022
1998 Clouds 17 1005 70 10000 2.57 340 09:43 22.05.2022
1999 Clouds 14 1006 79 10000 2.57 300 08:34 22.05.2022
2000 Clouds 12 1009 84 10000 1.54 290 07:21 22.05.2022
2001 Clouds 11 1009 88 10000 2.06 290 05:44 22.05.2022
2002 Clear 12 1010 79 10000 1.54 260 01:43 22.05.2022
2003 Clear 12 1010 79 10000 2.57 290 00:43 22.05.2022
2004 Clouds 13 1010 78 10000 2.06 280 23:55 21.05.2022
2005 Clouds 14 1010 76 10000 1.54 270 23:20 21.05.2022
2006 Clouds 15 1019 67 10000 3.09 290 21:43 21.05.2022
2007 Clear 15 1010 69 10000 2.57 290 21:23 21.05.2022
2008 Clouds 16 1010 67 10000 2.57 280 20:24 21.05.2022
2009 Clouds 17 1010 59 10000 7.2 290 19:35 21.05.2022
2010 Clouds 19 1010 52 10000 5.66 290 17:51 21.05.2022
2011 Clouds 19 1010 55 10000 7.2 270 16:46 21.05.2022
2012 Clouds 19 1006 59 10000 6.71 272 14:38 21.05.2022
2013 Clouds 19 1006 58 10000 8.23 280 13:53 21.05.2022
2014 Clouds 18 999 62 10000 6.69 270 12:57 21.05.2022
2015 Clouds 18 999 61 10000 6.69 270 12:37 21.05.2022
2016 Clouds 17 1007 64 10000 5.14 300 10:44 21.05.2022
2017 Clouds 16 1007 66 10000 8.23 310 09:48 21.05.2022
2018 Clouds 14 1007 76 10000 6.17 290 08:58 21.05.2022
2019 Clouds 14 1010 73 10000 6.17 290 08:33 21.05.2022
2020 Clouds 15 1006 77 10000 3.58 272 05:28 21.05.2022
2021 Rain 18 1004 93 10000 3.09 230 00:58 21.05.2022
2022 Clouds 18 1003 91 10000 4.12 260 23:22 20.05.2022
2023 Rain 20 1003 90 10000 6.71 145 22:24 20.05.2022
2024 Rain 20 1003 91 10000 4.12 160 21:49 20.05.2022
2025 Clouds 21 1003 90 10000 2.57 120 20:58 20.05.2022
2026 Clouds 22 1003 87 10000 2.06 160 20:29 20.05.2022
2027 Rain 26 1001 67 10000 2.06 120 19:29 20.05.2022
2028 Clouds 27 1013 58 10000 2.57 80 18:47 20.05.2022
2029 Clouds 27 1014 54 10000 1.03 0 17:47 20.05.2022
2030 Clouds 27 1016 56 10000 2.57 250 16:21 20.05.2022
2031 Clouds 27 1005 57 10000 2.57 0 15:53 20.05.2022
2032 Clouds 26 1007 61 10000 1.54 0 14:31 20.05.2022
2033 Clear 25 1007 65 10000 1.54 0 13:56 20.05.2022
2034 Clouds 23 1010 71 10000 3.6 250 11:49 20.05.2022
2035 Clouds 22 1010 72 10000 2.57 260 10:30 20.05.2022
2036 Clouds 19 1010 79 10000 3.6 290 08:58 20.05.2022
2037 Clouds 18 1010 85 10000 3.09 270 07:40 20.05.2022
2038 Clear 17 1013 83 10000 2.57 250 06:38 20.05.2022
2039 Clear 16 1013 91 10000 1.54 240 05:28 20.05.2022
2040 Clouds 19 1000 84 10000 4.12 200 01:18 20.05.2022
2041 Rain 23 1019 40 10000 5.66 180 23:28 19.05.2022
2042 Clear 19 1019 54 10000 5.66 170 22:33 19.05.2022
2043 Clear 20 1019 46 10000 4.63 170 21:49 19.05.2022
2044 Clear 21 1012 44 10000 4.63 160 21:23 19.05.2022
2045 Clear 22 1008 48 10000 5.14 170 20:40 19.05.2022
2046 Clear 23 1000 54 10000 4.12 160 19:54 19.05.2022
2047 Clear 25 1007 45 10000 5.66 170 18:58 19.05.2022
2048 Clear 26 1019 32 10000 6.17 160 17:35 19.05.2022
2049 Clear 26 1019 32 10000 6.17 160 17:35 19.05.2022
2050 Clear 26 1020 30 10000 6.17 160 15:34 19.05.2022
2051 Clear 26 1009 31 10000 5.14 160 14:35 19.05.2022
2052 Clear 26 1010 33 10000 6.17 170 13:59 19.05.2022
2053 Clear 25 1011 38 10000 7.72 170 11:52 19.05.2022
2054 Clear 23 1023 42 10000 5.66 160 10:25 19.05.2022
2055 Clear 18 1012 60 10000 3.09 150 08:31 19.05.2022
2056 Clear 14 1015 68 10000 3.6 150 06:57 19.05.2022
2057 Clear 14 1024 66 10000 5.66 150 02:59 19.05.2022
2058 Clear 15 1024 67 10000 4.63 150 00:56 19.05.2022
2059 Clear 17 1016 63 10000 3.6 160 23:21 18.05.2022
2060 Clear 17 1016 67 10000 3.6 150 22:41 18.05.2022
2061 Clear 18 1024 64 10000 2.57 150 21:33 18.05.2022
2062 Clear 19 1013 62 10000 2.57 140 20:55 18.05.2022
2063 Clear 21 1016 57 10000 3.6 150 20:19 18.05.2022
2064 Clear 23 1013 52 10000 3.6 160 18:53 18.05.2022
2065 Clear 24 1012 52 10000 4.12 170 17:42 18.05.2022
2066 Clear 24 1013 53 10000 3.6 160 17:23 18.05.2022
2067 Clear 24 1012 52 10000 3.6 120 16:52 18.05.2022
2068 Clear 24 1013 54 10000 4.12 140 15:45 18.05.2022
2069 Clear 24 1013 53 10000 3.09 140 15:20 18.05.2022
2070 Clouds 23 1013 54 10000 3.6 140 13:59 18.05.2022
2071 Clouds 23 1014 53 10000 4.12 0 12:54 18.05.2022
2072 Clouds 23 1014 57 10000 3.6 130 11:48 18.05.2022
2073 Clouds 22 1026 60 10000 3.09 170 11:30 18.05.2022
2074 Clouds 21 1026 63 10000 3.09 170 10:43 18.05.2022
2075 Clear 16 1017 78 10000 2.57 150 07:59 18.05.2022
2076 Clouds 14 1025 83 10000 2.06 130 07:27 18.05.2022
2077 Clear 13 1024 96 10000 0.51 0 03:40 18.05.2022
2078 Clear 15 1023 93 10000 2.06 150 00:51 18.05.2022
2079 Clear 16 1023 87 10000 1.54 190 23:33 17.05.2022
2080 Clear 17 1014 85 10000 1.54 150 21:21 17.05.2022
2081 Clouds 17 1022 81 10000 2.06 140 20:43 17.05.2022
2082 Clouds 19 1022 71 10000 1.54 120 19:41 17.05.2022
2083 Clouds 19 1009 77 10000 1.54 120 19:20 17.05.2022
2084 Clouds 19 1020 73 10000 1.03 0 17:34 17.05.2022
2085 Rain 18 1009 78 10000 1.03 0 16:57 17.05.2022
2086 Clouds 19 1009 80 10000 1.54 340 15:58 17.05.2022
2087 Clouds 18 1009 80 10000 2.06 360 14:55 17.05.2022
2088 Clouds 18 1009 84 10000 2.57 350 14:28 17.05.2022
2089 Clouds 16 1013 93 10000 3.09 330 12:39 17.05.2022
2090 Clouds 15 1012 96 10000 3.09 310 10:42 17.05.2022
2091 Drizzle 14 1011 97 7000 2.57 330 08:51 17.05.2022
2092 Clouds 15 1010 97 8000 4.12 330 07:55 17.05.2022
2093 Rain 15 1009 97 6000 3.6 300 06:26 17.05.2022
2094 Clear 17 1005 95 10000 4.12 200 01:34 17.05.2022
2095 Rain 17 1009 95 10000 3.6 260 23:46 16.05.2022
2096 Rain 19 1008 78 10000 2.06 150 22:39 16.05.2022
2097 Clear 20 1010 69 10000 1.79 125 21:24 16.05.2022
2098 Clear 19 1007 69 10000 2.57 140 20:43 16.05.2022
2099 Clear 22 997 64 10000 4.12 260 18:53 16.05.2022
2100 Clear 26 1004 44 10000 2.68 229 17:26 16.05.2022
2101 Clear 28 1005 37 10000 2.06 310 15:36 16.05.2022
2102 Clear 27 1017 35 10000 1.03 0 13:48 16.05.2022
2103 Clear 26 1017 40 10000 2.06 0 12:44 16.05.2022
2104 Clear 24 1006 50 10000 2.57 150 10:47 16.05.2022
2105 Clear 17 1019 58 10000 3.09 130 08:37 16.05.2022
2106 Clear 13 999 73 10000 1.54 140 06:32 16.05.2022
2107 Clear 12 1008 71 10000 1.03 0 02:33 16.05.2022
2108 Clear 13 1020 65 10000 1.54 80 22:52 15.05.2022
2109 Clear 14 1020 62 10000 1.54 100 22:28 15.05.2022
2110 Clear 16 1020 57 10000 2.06 70 21:38 15.05.2022
2111 Clear 18 1020 48 10000 2.57 80 20:53 15.05.2022
2112 Clear 22 1019 43 10000 3.09 340 18:53 15.05.2022
2113 Clear 22 1019 38 10000 3.09 10 17:45 15.05.2022
2114 Clear 22 1020 41 10000 3.6 350 15:44 15.05.2022
2115 Clear 21 1009 49 10000 3.09 360 13:49 15.05.2022
2116 Clouds 20 1010 51 10000 3.09 10 12:22 15.05.2022
2117 Clouds 20 1010 54 10000 2.57 0 11:38 15.05.2022
2118 Clouds 20 1010 54 10000 2.57 0 11:38 15.05.2022
2119 Clouds 18 1022 57 10000 2.06 280 10:20 15.05.2022
2120 Clear 12 1010 79 10000 1.03 0 07:36 15.05.2022
2121 Clear 10 1014 86 10000 1.54 230 06:57 15.05.2022
2122 Clear 9 1013 88 10000 1.03 0 04:44 15.05.2022
2123 Clear 12 1015 73 10000 2.57 320 00:48 15.05.2022
2124 Clear 13 1013 70 10000 1.54 290 23:38 14.05.2022
2125 Clear 14 1012 68 10000 1.03 320 22:45 14.05.2022
2126 Clear 17 1014 56 10000 2.57 330 21:27 14.05.2022
2127 Clear 19 1019 50 10000 2.57 310 20:32 14.05.2022
2128 Clear 20 1019 44 10000 3.6 310 19:21 14.05.2022
2129 Clear 20 1019 44 10000 3.6 310 19:21 14.05.2022
2130 Clear 21 1019 45 10000 5.14 300 18:59 14.05.2022
2131 Clear 21 1019 45 10000 5.66 300 17:54 14.05.2022
2132 Clear 21 1019 45 10000 4.63 270 16:32 14.05.2022
2133 Clouds 21 1019 47 10000 5.66 300 14:58 14.05.2022
2134 Clouds 21 1008 49 10000 5.66 280 14:30 14.05.2022
2135 Clouds 20 1008 52 10000 4.12 260 12:23 14.05.2022
2136 Clouds 19 1008 55 10000 5.14 300 10:53 14.05.2022
2137 Clouds 19 1008 58 10000 4.63 280 10:20 14.05.2022
2138 Clear 18 1008 59 10000 4.12 300 09:53 14.05.2022
2139 Clear 16 1008 66 10000 2.57 240 08:46 14.05.2022
2140 Clear 9 1008 80 10000 3.09 210 05:43 14.05.2022
2141 Clear 10 1012 76 10000 2.57 220 01:58 14.05.2022
2142 Clear 12 1011 67 10000 2.06 240 23:36 13.05.2022
2143 Clear 13 1011 61 10000 2.57 250 22:57 13.05.2022
2144 Clear 13 1011 63 10000 1.54 250 22:23 13.05.2022
2145 Clear 14 1011 60 10000 2.06 270 21:39 13.05.2022
2146 Clear 16 1008 52 10000 3.09 280 20:44 13.05.2022
2147 Clear 16 1010 51 10000 4.63 300 20:24 13.05.2022
2148 Clear 18 1010 47 10000 7.2 310 19:25 13.05.2022
2149 Clear 19 1006 46 10000 9.26 310 17:50 13.05.2022
2150 Clear 20 1006 44 10000 7.72 310 17:27 13.05.2022
2151 Clear 21 1005 45 10000 8.23 280 16:18 13.05.2022
2152 Clear 21 1004 49 10000 5.66 300 15:28 13.05.2022
2153 Clear 21 1004 47 10000 6.17 280 13:41 13.05.2022
2154 Clear 20 998 52 10000 6.69 270 12:28 13.05.2022
2155 Clear 21 998 51 10000 5.66 290 11:22 13.05.2022
2156 Clear 19 1005 58 10000 3.09 270 09:34 13.05.2022
2157 Clear 17 1005 67 10000 2.57 250 08:44 13.05.2022
2158 Clear 14 1005 74 10000 1.54 210 07:48 13.05.2022
2159 Clear 12 1005 81 10000 1.03 0 06:33 13.05.2022
2160 Clear 12 1005 81 10000 1.03 0 06:33 13.05.2022
2161 Clear 12 1005 81 10000 1.03 0 06:33 13.05.2022
2162 Clear 12 1009 78 10000 1.03 180 03:29 13.05.2022
2163 Clear 14 1009 70 10000 0.51 0 00:24 13.05.2022
2164 Clear 15 1009 63 10000 0.51 0 22:45 12.05.2022
2165 Clear 15 1009 60 10000 1.03 0 21:56 12.05.2022
2166 Clear 18 1008 50 10000 2.57 310 20:29 12.05.2022
2167 Clear 20 1016 45 10000 3.09 310 18:59 12.05.2022
2168 Clear 20 1017 46 10000 4.12 290 17:24 12.05.2022
2169 Clear 21 1017 42 10000 4.12 280 16:18 12.05.2022
2170 Clear 21 1006 49 10000 3.6 300 14:41 12.05.2022
2171 Clear 21 1006 50 10000 5.14 300 13:41 12.05.2022
2172 Clouds 19 1005 58 10000 7.72 320 10:52 12.05.2022
2173 Clouds 18 1004 63 10000 5.14 290 09:30 12.05.2022
2174 Clear 18 1007 63 10000 5.14 280 08:51 12.05.2022
2175 Clear 19 1005 64 10000 5.14 310 07:40 12.05.2022
2176 Clear 21 1011 48 10000 5.14 260 06:34 12.05.2022
2177 Clear 22 1001 46 10000 6.17 230 02:58 12.05.2022
2178 Clear 21 1002 52 10000 4.63 210 00:36 12.05.2022
2179 Clear 21 1001 52 10000 4.63 200 22:39 11.05.2022
2180 Clear 22 1002 49 10000 4.12 220 21:52 11.05.2022
2181 Clear 23 1002 47 10000 4.12 220 21:24 11.05.2022
2182 Clear 28 1010 32 10000 5.14 250 18:58 11.05.2022
2183 Clear 29 1010 34 10000 6.17 250 16:55 11.05.2022
2184 Clear 28 1000 40 10000 7.2 240 15:50 11.05.2022
2185 Clear 28 1001 40 10000 6.69 230 14:39 11.05.2022
2186 Clear 28 994 42 10000 6.69 230 14:19 11.05.2022
2187 Clear 26 1002 46 10000 6.17 240 11:54 11.05.2022
2188 Clouds 26 1003 48 10000 5.14 240 11:30 11.05.2022
2189 Rain 21 1003 64 10000 4.12 210 08:55 11.05.2022
2190 Clear 17 1006 67 10000 3.6 220 05:45 11.05.2022
2191 Clear 17 1007 65 10000 4.12 200 01:28 11.05.2022
2192 Clear 18 1008 63 10000 2.57 190 22:53 10.05.2022
2193 Clear 19 1008 60 10000 2.06 190 22:19 10.05.2022
2194 Clear 20 1008 60 10000 2.06 170 20:59 10.05.2022
2195 Clear 22 1005 58 10000 1.03 0 20:21 10.05.2022
2196 Clear 24 1005 50 10000 1.54 260 18:36 10.05.2022
2197 Clear 24 1016 41 10000 3.09 250 17:37 10.05.2022
2198 Clear 25 1018 42 10000 4.12 280 15:49 10.05.2022
2199 Clear 24 1009 49 10000 2.06 0 12:51 10.05.2022
2200 Clouds 24 1009 50 10000 2.57 310 11:53 10.05.2022
2201 Clouds 23 1009 53 10000 2.06 0 11:28 10.05.2022
2202 Clouds 22 1021 51 10000 2.57 300 10:55 10.05.2022
2203 Clouds 18 1021 57 10000 2.06 180 09:28 10.05.2022
2204 Clear 15 1013 64 10000 0.51 0 07:51 10.05.2022
2205 Clear 11 1010 80 10000 1.03 0 05:43 10.05.2022
2206 Clear 11 1016 76 10000 1.54 140 01:37 10.05.2022
2207 Clear 13 1016 66 10000 2.57 60 23:43 09.05.2022
2208 Clear 13 1025 63 10000 1.54 120 22:33 09.05.2022
2209 Clear 14 1025 57 10000 1.03 70 21:36 09.05.2022
2210 Clear 20 1024 44 10000 3.09 70 19:52 09.05.2022
2211 Clear 21 1024 36 10000 2.06 30 18:25 09.05.2022
2212 Clear 22 1024 37 10000 1.54 0 17:25 09.05.2022
2213 Clear 22 1025 38 10000 1.54 0 16:18 09.05.2022
2214 Clear 22 1025 38 10000 2.57 0 15:47 09.05.2022
2215 Clear 22 1026 39 10000 3.6 50 14:33 09.05.2022
2216 Clear 22 1026 42 10000 3.6 70 13:56 09.05.2022
2217 Clear 21 1027 46 10000 3.6 60 12:55 09.05.2022
2218 Clouds 21 1015 50 10000 2.57 0 11:52 09.05.2022
2219 Clouds 19 1028 54 10000 1.54 0 10:47 09.05.2022
2220 Clouds 18 1028 57 10000 1.54 0 10:23 09.05.2022
2221 Clear 11 1015 74 10000 0.51 0 07:57 09.05.2022
2222 Clear 8 1019 84 10000 1.03 330 04:52 09.05.2022
2223 Clear 11 1018 70 10000 1.03 360 00:30 09.05.2022
2224 Clear 13 1017 68 10000 2.06 30 23:28 08.05.2022
2225 Clear 13 1027 67 10000 2.06 360 22:29 08.05.2022
2226 Clear 17 1025 59 10000 1.54 340 20:54 08.05.2022
2227 Clear 17 1013 60 10000 2.57 340 20:22 08.05.2022
2228 Clouds 19 1025 45 10000 3.6 350 19:33 08.05.2022
2229 Clouds 19 1024 59 10000 4.63 350 18:35 08.05.2022
2230 Clouds 20 1024 58 10000 4.63 350 17:36 08.05.2022
2231 Clouds 21 1024 59 10000 4.63 360 15:46 08.05.2022
2232 Clouds 20 1024 59 10000 4.63 340 15:22 08.05.2022
2233 Clouds 19 1025 67 10000 4.63 360 12:46 08.05.2022
2234 Clouds 18 1025 68 10000 3.09 0 11:45 08.05.2022
2235 Clear 16 1024 72 10000 2.06 330 10:25 08.05.2022
2236 Clear 16 1024 77 10000 1.54 320 09:52 08.05.2022
2237 Clear 13 1012 74 10000 1.54 220 07:44 08.05.2022
2238 Clear 10 1004 85 10000 2.06 220 05:57 08.05.2022
2239 Clear 11 1003 79 10000 1.54 220 03:22 08.05.2022
2240 Clear 13 1014 74 10000 0.51 0 00:48 08.05.2022
2241 Clear 14 1014 68 10000 0.51 0 23:56 07.05.2022
2242 Clear 14 1013 64 10000 1.54 10 23:32 07.05.2022
2243 Clear 16 1013 58 10000 2.06 30 22:42 07.05.2022
2244 Clear 16 1022 53 10000 2.06 340 21:56 07.05.2022
2245 Clear 15 1022 59 10000 1.03 330 21:28 07.05.2022
2246 Clear 18 1021 44 10000 0.51 360 20:25 07.05.2022
2247 Clear 18 1021 44 10000 0.51 360 20:25 07.05.2022
2248 Clear 21 1020 39 10000 2.06 360 18:52 07.05.2022
2249 Clear 22 1009 40 10000 1.03 0 16:50 07.05.2022
2250 Clear 21 1010 43 10000 1.54 90 14:54 07.05.2022
2251 Clouds 20 1023 43 10000 2.06 330 11:51 07.05.2022
2252 Clouds 18 1011 59 10000 1.03 0 09:55 07.05.2022
2253 Clear 14 1004 70 10000 2.06 210 08:33 07.05.2022
2254 Clear 12 1011 76 10000 2.06 220 07:30 07.05.2022
2255 Clear 9 1003 85 10000 2.06 210 06:42 07.05.2022
2256 Clear 9 1011 83 10000 1.54 0 04:19 07.05.2022
2257 Clear 13 1015 71 10000 1.03 0 00:45 07.05.2022
2258 Clear 14 1015 61 10000 1.54 360 22:41 06.05.2022
2259 Clear 14 1014 61 10000 1.03 0 22:21 06.05.2022
2260 Clear 16 1023 51 10000 1.54 330 21:32 06.05.2022
2261 Clear 18 1023 55 10000 2.06 360 19:49 06.05.2022
2262 Clear 18 1022 52 10000 2.57 10 19:27 06.05.2022
2263 Clear 19 1022 48 10000 3.09 30 18:43 06.05.2022
2264 Clear 19 1023 46 10000 2.57 30 17:38 06.05.2022
2265 Clear 20 1023 46 10000 4.12 340 15:55 06.05.2022
2266 Clear 20 1023 44 10000 4.12 340 15:32 06.05.2022
2267 Clouds 19 1023 48 10000 3.09 360 14:22 06.05.2022
2268 Clouds 19 1012 55 10000 2.57 0 12:52 06.05.2022
2269 Clouds 18 1024 55 10000 2.06 110 12:20 06.05.2022
2270 Clouds 16 1025 61 10000 1.54 0 11:31 06.05.2022
2271 Clouds 14 1013 65 10000 1.54 330 09:48 06.05.2022
2272 Clouds 14 1013 65 10000 1.54 330 09:48 06.05.2022
2273 Clouds 13 1012 67 10000 1.54 350 09:18 06.05.2022
2274 Clouds 11 1016 68 10000 1.03 0 07:55 06.05.2022
2275 Clear 8 1015 79 10000 0.51 0 06:28 06.05.2022
2276 Clear 10 1015 73 10000 0.51 0 04:29 06.05.2022
2277 Clouds 10 1014 74 10000 0.51 0 02:38 06.05.2022
2278 Clear 11 1014 71 10000 1.54 290 23:25 05.05.2022
2279 Clear 13 1022 58 10000 1.54 300 21:51 05.05.2022
2280 Clear 15 1021 67 10000 2.06 300 20:37 05.05.2022
2281 Clear 18 1021 48 10000 2.06 330 19:42 05.05.2022
2282 Clouds 19 1020 54 10000 4.63 300 16:51 05.05.2022
2283 Clouds 19 1020 55 10000 4.63 320 15:48 05.05.2022
2284 Clouds 19 1020 55 10000 3.6 340 14:37 05.05.2022
2285 Clouds 18 1020 67 10000 3.09 360 13:18 05.05.2022
2286 Clouds 17 1020 69 10000 2.57 0 11:48 05.05.2022
2287 Clouds 15 1007 82 10000 2.06 270 10:28 05.05.2022
2288 Clouds 14 1008 82 10000 0.89 232 09:32 05.05.2022
2289 Clear 12 1010 87 10000 1.03 250 06:49 05.05.2022
2290 Clear 13 1008 79 10000 2.06 260 02:30 05.05.2022
2291 Clear 13 1008 78 10000 1.54 230 01:47 05.05.2022
2292 Clear 14 1008 76 10000 1.03 210 01:20 05.05.2022
2293 Clear 15 1009 63 10000 1.54 260 23:28 04.05.2022
2294 Clear 15 1008 63 10000 2.57 110 22:25 04.05.2022
2295 Clear 16 1016 58 10000 2.57 90 21:48 04.05.2022
2296 Clear 16 1016 57 10000 2.57 90 21:26 04.05.2022
2297 Clear 18 1007 52 10000 3.09 90 20:22 04.05.2022
2298 Clear 18 1015 56 10000 4.12 90 19:51 04.05.2022
2299 Clear 20 1003 50 10000 4.63 80 18:45 04.05.2022
2300 Clear 21 1007 45 10000 4.12 70 18:20 04.05.2022
2301 Clear 21 1007 41 10000 4.12 60 17:28 04.05.2022
2302 Clear 21 1004 43 10000 4.12 40 15:38 04.05.2022
2303 Clear 22 1004 42 10000 4.12 40 15:38 04.05.2022
2304 Clear 21 1016 43 10000 4.63 40 14:59 04.05.2022
2305 Clear 21 1016 41 10000 1.54 0 14:20 04.05.2022
2306 Clear 20 1017 40 10000 3.6 70 13:18 04.05.2022
2307 Clear 20 1017 42 10000 1.03 0 12:29 04.05.2022
2308 Clear 18 1006 53 10000 1.54 50 10:40 04.05.2022
2309 Clear 16 1018 58 10000 1.03 0 09:38 04.05.2022
2310 Clear 13 998 78 10000 1.54 200 08:33 04.05.2022
2311 Clear 7 1005 86 10000 0.51 40 05:53 04.05.2022
2312 Clear 8 1009 88 10000 1.03 0 02:49 04.05.2022
2313 Clear 11 1009 75 10000 1.54 50 23:41 03.05.2022
2314 Clear 12 1017 71 10000 1.54 60 22:30 03.05.2022
2315 Clear 14 1016 58 10000 1.54 330 21:36 03.05.2022
2316 Clear 15 1016 67 10000 1.54 330 20:53 03.05.2022
2317 Clear 18 1015 48 10000 2.57 340 19:49 03.05.2022
2318 Clear 18 1014 47 10000 4.12 310 18:50 03.05.2022
2319 Clear 19 1015 46 10000 4.12 320 18:20 03.05.2022
2320 Clear 19 1015 49 10000 3.6 320 16:37 03.05.2022
2321 Clear 19 1015 46 10000 4.63 340 15:35 03.05.2022
2322 Clouds 19 1016 51 10000 3.6 360 12:47 03.05.2022
2323 Clouds 19 1016 49 10000 3.6 360 12:27 03.05.2022
2324 Clear 18 1016 54 10000 2.57 350 10:57 03.05.2022
2325 Clear 16 1016 62 10000 1.03 0 09:29 03.05.2022
2326 Clear 10 996 79 10000 1.03 0 06:46 03.05.2022
2327 Clear 9 1003 83 10000 1.03 0 05:58 03.05.2022
2328 Clear 12 1008 73 10000 2.06 10 00:54 03.05.2022
2329 Clear 14 1016 63 10000 1.03 20 22:38 02.05.2022
2330 Clear 13 1016 62 10000 2.06 30 21:52 02.05.2022
2331 Clear 15 1016 54 10000 2.06 340 20:51 02.05.2022
2332 Clear 20 1015 44 10000 1.54 0 18:44 02.05.2022
2333 Clear 20 1003 46 10000 1.54 0 18:25 02.05.2022
2334 Clear 20 1016 43 10000 1.54 70 17:37 02.05.2022
2335 Clear 20 1004 46 10000 1.54 210 16:23 02.05.2022
2336 Clear 20 1005 48 10000 2.57 70 15:31 02.05.2022
2337 Clear 20 1017 46 10000 2.06 50 13:52 02.05.2022
2338 Clear 18 1018 48 10000 4.63 60 12:20 02.05.2022
2339 Clear 16 1019 57 10000 3.09 40 10:51 02.05.2022
2340 Clear 13 1019 64 10000 1.54 90 09:29 02.05.2022
2341 Clear 10 1020 76 10000 0.51 0 07:52 02.05.2022
2342 Clear 8 1012 81 10000 2.06 10 04:36 02.05.2022
2343 Clear 11 1021 66 10000 1.03 20 00:25 02.05.2022
2344 Clear 12 1021 63 10000 2.06 10 23:52 01.05.2022
2345 Clear 12 1009 64 10000 3.6 20 22:39 01.05.2022
2346 Clear 14 1011 61 10000 4.63 20 21:26 01.05.2022
2347 Clear 16 1010 55 10000 3.09 330 20:19 01.05.2022
2348 Clear 18 1011 44 10000 4.63 330 19:18 01.05.2022
2349 Clear 18 1019 40 10000 4.63 340 18:46 01.05.2022
2350 Clear 19 1019 38 10000 3.09 360 17:46 01.05.2022
2351 Clear 20 1011 37 10000 3.09 20 16:24 01.05.2022
2352 Clear 20 1008 41 10000 1.03 0 15:38 01.05.2022
2353 Clouds 19 1020 44 10000 4.12 310 14:22 01.05.2022
2354 Clear 17 1021 50 10000 1.54 0 11:41 01.05.2022
2355 Clear 12 1022 71 10000 1.54 320 09:32 01.05.2022
2356 Clear 11 1010 75 10000 3.09 280 08:47 01.05.2022
2357 Clear 7 1001 83 10000 1.03 0 05:31 01.05.2022
2358 Clear 10 1009 72 10000 3.09 160 00:43 01.05.2022
2359 Clear 11 1021 67 10000 1.03 100 21:52 30.04.2022
2360 Clear 12 1021 65 10000 2.06 100 21:30 30.04.2022
2361 Clear 12 1021 65 10000 2.06 100 21:30 30.04.2022
2362 Clear 16 1020 47 10000 2.06 40 19:47 30.04.2022
2363 Clear 17 1020 45 10000 1.54 40 18:50 30.04.2022
2364 Clear 18 1020 43 10000 2.06 50 17:20 30.04.2022
2365 Clear 19 1012 40 10000 2.06 30 15:51 30.04.2022
2366 Clouds 19 1009 44 10000 2.57 360 14:54 30.04.2022
2367 Clouds 19 1010 49 10000 2.06 340 13:41 30.04.2022
2368 Clear 17 1014 51 10000 1.03 0 11:39 30.04.2022
2369 Clear 16 1011 55 10000 2.57 320 10:55 30.04.2022
2370 Clear 14 1011 62 10000 1.03 0 09:54 30.04.2022
2371 Clear 9 1011 76 10000 2.06 150 07:35 30.04.2022
2372 Clear 9 1023 71 10000 3.09 150 03:53 30.04.2022
2373 Clear 10 1016 70 10000 0.51 0 23:54 29.04.2022
2374 Clear 11 1016 63 10000 1.54 110 22:36 29.04.2022
2375 Clear 10 1025 63 10000 1.54 100 21:55 29.04.2022
2376 Clear 11 1025 58 10000 2.06 90 21:21 29.04.2022
2377 Clear 16 1025 43 10000 3.09 90 19:52 29.04.2022
2378 Clear 17 1016 42 10000 1.03 0 18:58 29.04.2022
2379 Clear 18 1013 42 10000 2.57 0 17:34 29.04.2022
2380 Clear 18 1014 41 10000 2.06 0 16:30 29.04.2022
2381 Clear 18 1027 43 10000 3.09 50 14:34 29.04.2022
2382 Clouds 17 1015 46 10000 3.09 360 13:27 29.04.2022
2383 Clouds 17 1028 48 10000 1.54 0 12:33 29.04.2022
2384 Clear 14 1016 67 10000 1.03 0 09:52 29.04.2022
2385 Clear 8 1017 84 10000 2.06 220 07:52 29.04.2022
2386 Clear 6 1029 90 10000 1.54 220 07:25 29.04.2022
2387 Clear 5 1016 89 10000 1.54 210 06:29 29.04.2022
2388 Clear 9 1017 77 10000 0.51 0 00:52 29.04.2022
2389 Clear 10 1016 73 10000 1.54 340 23:55 28.04.2022
2390 Clear 10 1016 73 10000 2.06 320 23:25 28.04.2022
2391 Clear 10 1020 74 10000 1.54 320 22:19 28.04.2022
2392 Clear 11 1020 68 10000 2.06 290 21:41 28.04.2022
2393 Clear 13 1028 57 10000 1.54 290 20:45 28.04.2022
2394 Clear 15 1027 56 10000 2.57 330 19:52 28.04.2022
2395 Clear 16 1027 47 10000 3.09 320 19:24 28.04.2022
2396 Clear 16 1027 49 10000 2.57 300 18:51 28.04.2022
2397 Clear 17 1027 48 10000 4.63 310 17:42 28.04.2022
2398 Clear 16 1027 47 10000 4.63 330 16:52 28.04.2022
2399 Clouds 16 1027 47 10000 4.12 310 16:20 28.04.2022
2400 Clouds 17 1027 43 10000 4.63 310 15:48 28.04.2022
2401 Clouds 17 1028 51 10000 4.63 300 14:58 28.04.2022
2402 Clouds 17 1028 52 10000 2.57 0 13:37 28.04.2022
2403 Clouds 16 1009 58 10000 3.09 320 12:29 28.04.2022
2404 Clouds 16 1028 52 10000 3.09 350 11:37 28.04.2022
2405 Clear 14 1028 62 10000 2.06 340 10:26 28.04.2022
2406 Clear 12 1028 69 10000 1.54 0 09:50 28.04.2022
2407 Clear 8 1016 83 10000 1.79 197 07:41 28.04.2022
2408 Clear 7 1006 85 10000 1.54 220 06:51 28.04.2022
2409 Clear 6 1006 88 10000 2.06 230 05:53 28.04.2022
2410 Clear 6 1014 86 10000 2.57 230 04:43 28.04.2022
2411 Clear 6 1026 86 10000 2.06 220 02:41 28.04.2022
2412 Clear 8 1013 79 10000 1.54 300 23:32 27.04.2022
2413 Clear 9 1017 75 10000 2.06 290 22:22 27.04.2022
2414 Clear 9 1026 71 10000 1.54 300 21:46 27.04.2022
2415 Clear 11 1025 64 10000 1.54 270 20:46 27.04.2022
2416 Clear 13 1024 57 10000 2.06 300 19:57 27.04.2022
2417 Clear 14 1024 56 10000 2.06 300 19:36 27.04.2022
2418 Clear 15 1015 49 10000 3.6 300 18:42 27.04.2022
2419 Clear 16 1015 49 10000 2.06 320 18:21 27.04.2022
2420 Clouds 15 1015 53 10000 3.09 10 16:20 27.04.2022
2421 Clouds 16 1023 53 10000 2.57 0 13:21 27.04.2022
2422 Clouds 15 1015 63 10000 2.57 350 11:37 27.04.2022
2423 Clouds 13 1015 70 10000 1.03 0 10:51 27.04.2022
2424 Clear 9 1010 89 10000 1.54 210 08:31 27.04.2022
2425 Clear 6 1001 94 10000 1.03 340 06:44 27.04.2022
2426 Clear 7 1007 86 10000 1.03 90 02:40 27.04.2022
2427 Clear 8 1007 82 10000 0.51 0 01:24 27.04.2022
2428 Clear 8 1019 82 10000 1.03 150 00:35 27.04.2022
2429 Clear 8 1019 84 10000 1.03 70 23:24 26.04.2022
2430 Clear 8 1019 83 10000 1.54 70 22:52 26.04.2022
2431 Clear 9 1019 81 10000 1.54 80 22:32 26.04.2022
2432 Clouds 10 1009 73 10000 1.54 110 21:26 26.04.2022
2433 Clear 12 1017 64 10000 2.06 150 20:40 26.04.2022
2434 Clear 12 1017 64 10000 2.06 150 20:40 26.04.2022
2435 Clear 13 1008 61 10000 2.06 50 19:48 26.04.2022
2436 Clear 15 1007 58 10000 1.54 70 19:26 26.04.2022
2437 Clear 14 1007 57 10000 2.57 100 18:42 26.04.2022
2438 Clouds 15 1007 56 10000 4.12 130 17:50 26.04.2022
2439 Clouds 15 1006 54 10000 3.6 100 16:26 26.04.2022
2440 Clouds 16 1004 58 10000 2.06 0 13:58 26.04.2022
2441 Clouds 16 1004 59 10000 3.6 80 13:29 26.04.2022
2442 Clouds 14 1004 64 10000 2.57 70 11:48 26.04.2022
2443 Clouds 13 1003 72 10000 1.54 0 10:31 26.04.2022
2444 Fog 9 1004 77 10000 1.03 0 08:47 26.04.2022
2445 Clear 4 995 97 10000 1.03 140 06:57 26.04.2022
2446 Clear 4 995 97 10000 1.54 170 04:23 26.04.2022
2447 Clear 4 1006 94 10000 1.03 0 00:57 26.04.2022
2448 Clear 5 1006 93 10000 1.03 180 00:20 26.04.2022
2449 Clear 6 1005 88 10000 1.54 160 22:21 25.04.2022
2450 Clear 7 1014 85 10000 0.51 130 21:34 25.04.2022
2451 Clear 8 1014 76 10000 1.03 100 20:35 25.04.2022
2452 Clouds 12 1012 62 10000 4.12 20 18:54 25.04.2022
2453 Clouds 12 999 71 10000 4.12 10 17:43 25.04.2022
2454 Clouds 12 1003 72 10000 4.63 20 16:52 25.04.2022
2455 Clouds 11 999 80 10000 4.12 320 15:24 25.04.2022
2456 Clouds 11 1002 77 10000 3.09 300 14:34 25.04.2022
2457 Clouds 10 1002 82 10000 3.6 320 13:30 25.04.2022
2458 Clouds 9 1001 90 10000 3.6 350 11:37 25.04.2022
2459 Clouds 8 1000 93 9000 3.6 350 10:20 25.04.2022
2460 Clouds 8 999 98 6000 3.09 10 08:35 25.04.2022
2461 Drizzle 8 998 97 3500 4.12 360 06:38 25.04.2022
2462 Rain 8 997 97 7000 3.6 360 03:44 25.04.2022
2463 Rain 8 996 97 4500 2.57 350 00:43 25.04.2022
2464 Mist 8 996 97 4500 2.57 350 23:51 24.04.2022
2465 Clouds 8 996 97 4000 3.09 350 22:41 24.04.2022
2466 Clouds 8 996 97 8000 2.57 350 22:18 24.04.2022
2467 Rain 8 996 95 10000 2.06 20 21:24 24.04.2022
2468 Rain 8 995 94 10000 3.09 70 20:48 24.04.2022
2469 Rain 8 991 91 10000 3.09 80 20:29 24.04.2022
2470 Rain 8 995 92 10000 4.63 100 19:45 24.04.2022
2471 Rain 9 995 90 10000 1.03 0 18:20 24.04.2022
2472 Rain 9 994 89 10000 3.6 120 17:27 24.04.2022
2473 Rain 9 994 88 10000 4.12 120 16:58 24.04.2022
2474 Rain 9 994 83 10000 4.12 120 16:32 24.04.2022
2475 Rain 10 994 80 10000 8.23 80 15:54 24.04.2022
2476 Rain 11 993 79 10000 5.14 70 15:29 24.04.2022
2477 Rain 11 993 73 10000 9.26 80 13:56 24.04.2022
2478 Rain 12 1002 56 10000 9.26 90 13:25 24.04.2022
2479 Clear 13 1001 54 10000 9.26 80 11:56 24.04.2022
2480 Clear 14 1001 54 10000 8.75 90 11:28 24.04.2022
2481 Clear 12 1002 61 10000 5.66 80 10:24 24.04.2022
2482 Clear 11 1002 66 10000 6.17 80 09:23 24.04.2022
2483 Clear 7 984 79 10000 2.06 40 06:34 24.04.2022
2484 Clear 7 992 75 10000 2.06 80 03:43 24.04.2022
2485 Clear 8 993 74 10000 2.57 80 01:38 24.04.2022
2486 Clear 9 994 71 10000 2.57 90 00:22 24.04.2022
2487 Clear 8 998 71 10000 2.57 110 23:44 23.04.2022
2488 Clear 9 998 68 10000 3.6 80 23:21 23.04.2022
2489 Clear 11 998 59 10000 3.6 90 21:51 23.04.2022
2490 Clear 12 998 58 10000 3.6 90 21:32 23.04.2022
2491 Clear 13 998 55 10000 4.63 80 20:45 23.04.2022
2492 Clear 15 998 49 10000 6.17 90 19:46 23.04.2022
2493 Clear 16 998 46 10000 7.2 90 19:19 23.04.2022
2494 Clear 16 1006 46 10000 8.23 90 18:49 23.04.2022
2495 Clear 17 1006 46 10000 7.2 80 17:50 23.04.2022
2496 Clear 17 1007 42 10000 7.2 80 17:20 23.04.2022
2497 Clear 17 1007 44 10000 7.72 100 16:40 23.04.2022
2498 Clouds 16 1008 48 10000 7.72 80 14:57 23.04.2022
2499 Clouds 16 997 47 10000 6.17 100 12:35 23.04.2022
2500 Clouds 13 1009 50 10000 7.2 90 10:43 23.04.2022
2501 Clear 11 997 63 10000 5.66 90 09:30 23.04.2022
2502 Clear 4 997 90 10000 2.57 50 06:29 23.04.2022
2503 Clear 5 997 88 10000 1.03 0 03:54 23.04.2022
2504 Clear 9 1001 80 10000 4.63 80 00:57 23.04.2022
2505 Clouds 10 1000 80 10000 7.2 90 23:29 22.04.2022
2506 Clouds 10 1000 79 10000 6.69 80 22:20 22.04.2022
2507 Clouds 11 1000 78 10000 7.2 80 21:42 22.04.2022
2508 Clear 11 1000 75 10000 8.23 80 20:46 22.04.2022
2509 Clear 12 1000 74 10000 7.72 80 20:26 22.04.2022
2510 Clear 13 999 68 10000 8.23 90 19:18 22.04.2022
2511 Clear 13 999 67 10000 8.23 90 18:41 22.04.2022
2512 Clouds 14 999 68 10000 9.26 80 17:40 22.04.2022
2513 Clouds 14 999 69 10000 9.26 90 16:46 22.04.2022
2514 Clouds 14 998 65 10000 8.75 60 15:42 22.04.2022
2515 Clouds 15 998 65 10000 8.23 80 14:46 22.04.2022
2516 Clouds 16 998 62 10000 7.2 70 13:49 22.04.2022
2517 Clouds 16 995 66 10000 5.14 60 12:58 22.04.2022
2518 Clouds 15 995 70 10000 4.63 110 11:50 22.04.2022
2519 Clouds 14 996 71 10000 5.66 80 11:21 22.04.2022
2520 Clouds 13 996 78 10000 4.63 60 10:50 22.04.2022
2521 Clouds 12 996 79 10000 4.63 80 10:30 22.04.2022
2522 Clouds 11 1000 78 8000 2.06 50 09:50 22.04.2022
2523 Mist 8 1000 90 5000 2.06 120 08:50 22.04.2022
2524 Fog 5 1001 96 3200 1.54 150 06:58 22.04.2022
2525 Clouds 7 1011 94 7000 2.57 70 03:30 22.04.2022
2526 Clouds 8 1012 93 10000 2.57 50 00:51 22.04.2022
2527 Clouds 8 1003 94 10000 2.57 70 23:24 21.04.2022
2528 Drizzle 9 1003 94 8000 3.09 70 22:29 21.04.2022
2529 Drizzle 9 1004 95 7000 2.06 40 20:37 21.04.2022
2530 Drizzle 9 1004 95 7000 2.57 60 20:18 21.04.2022
2531 Drizzle 10 1004 89 10000 3.09 70 18:42 21.04.2022
2532 Clouds 10 1004 87 10000 3.6 60 18:18 21.04.2022
2533 Clouds 10 1004 87 10000 2.06 60 16:44 21.04.2022
2534 Clouds 11 1004 83 10000 1.54 40 15:22 21.04.2022
2535 Clouds 9 1004 90 10000 1.54 70 14:49 21.04.2022
2536 Mist 9 1005 93 4500 1.03 0 13:23 21.04.2022
2537 Drizzle 9 1001 96 6000 1.03 0 12:59 21.04.2022
2538 Drizzle 8 1005 96 1500 1.54 330 10:57 21.04.2022
2539 Drizzle 7 1004 96 500 2.57 350 08:57 21.04.2022
2540 Fog 7 1004 96 800 1.54 330 07:32 21.04.2022
2541 Fog 7 1004 96 600 1.54 330 05:44 21.04.2022
2542 Clouds 7 1004 94 6000 1.03 0 03:33 21.04.2022
2543 Clouds 7 1005 93 10000 2.06 340 02:48 21.04.2022
2544 Clouds 7 1005 93 10000 2.06 340 02:48 21.04.2022
2545 Clouds 7 1005 92 10000 1.54 280 01:41 21.04.2022
2546 Clouds 7 1005 93 10000 1.03 0 23:51 20.04.2022
2547 Clouds 7 1005 92 10000 1.54 260 23:23 20.04.2022
2548 Clouds 7 1005 93 10000 1.54 250 22:51 20.04.2022
2549 Clouds 7 1005 93 10000 1.54 250 22:32 20.04.2022
2550 Clouds 7 1001 93 10000 2.06 250 21:33 20.04.2022
2551 Clouds 7 1006 92 10000 1.54 240 20:41 20.04.2022
2552 Clouds 7 1006 91 10000 1.54 270 19:53 20.04.2022
2553 Clouds 7 1006 90 10000 1.54 330 19:25 20.04.2022
2554 Rain 8 1006 87 10000 3.6 360 18:26 20.04.2022
2555 Rain 8 1006 86 10000 4.12 350 16:57 20.04.2022
2556 Clouds 8 1006 86 10000 4.12 350 16:38 20.04.2022
2557 Clouds 8 1007 79 10000 2.57 310 14:48 20.04.2022
2558 Clouds 9 1004 62 10000 3.09 300 11:56 20.04.2022
2559 Clouds 8 1008 65 10000 3.09 270 11:29 20.04.2022
2560 Clouds 7 1008 70 10000 3.6 250 10:29 20.04.2022
2561 Clear 5 1005 78 10000 2.57 210 09:27 20.04.2022
2562 Clear 4 997 86 10000 2.06 190 08:24 20.04.2022
2563 Clear 3 997 87 10000 1.54 190 07:43 20.04.2022
2564 Clear 1 997 88 10000 2.06 190 04:49 20.04.2022
2565 Clear 2 1004 82 10000 1.03 0 01:20 20.04.2022
2566 Clear 3 1004 77 10000 1.03 210 00:20 20.04.2022
2567 Clear 4 1004 76 10000 2.06 170 22:40 19.04.2022
2568 Clear 5 1004 72 10000 2.06 170 22:19 19.04.2022
2569 Clear 5 1008 72 10000 1.03 170 21:38 19.04.2022
2570 Clear 6 1007 65 10000 1.54 0 20:56 19.04.2022
2571 Clear 7 1007 66 10000 1.54 0 20:36 19.04.2022
2572 Clear 8 1007 58 10000 4.12 100 19:32 19.04.2022
2573 Clouds 11 1006 51 10000 5.14 80 18:26 19.04.2022
2574 Clear 10 1005 55 10000 6.69 90 16:47 19.04.2022
2575 Clouds 11 1014 53 10000 5.66 50 16:25 19.04.2022
2576 Clouds 11 1014 44 10000 5.66 20 15:23 19.04.2022
2577 Clouds 11 1014 41 10000 6.69 30 14:40 19.04.2022
2578 Clear 12 1013 44 10000 6.69 30 12:52 19.04.2022
2579 Clouds 12 1001 46 10000 6.17 30 12:29 19.04.2022
2580 Clouds 11 1001 53 10000 4.12 30 11:23 19.04.2022
2581 Clear 8 1005 66 10000 4.63 360 09:31 19.04.2022
2582 Clouds 6 1005 74 10000 2.57 330 07:37 19.04.2022
2583 Rain 5 1005 74 10000 1.03 0 04:24 19.04.2022
2584 Clear 6 1003 69 10000 0.51 0 01:24 19.04.2022
2585 Clear 6 1007 63 10000 0.51 320 23:44 18.04.2022
2586 Clear 8 1008 54 10000 1.54 30 21:57 18.04.2022
2587 Clear 9 1017 44 10000 2.06 30 21:25 18.04.2022
2588 Clear 10 1017 47 10000 2.06 30 20:39 18.04.2022
2589 Clear 12 1016 53 10000 4.12 360 19:59 18.04.2022
2590 Clear 13 1017 38 10000 4.12 360 19:32 18.04.2022
2591 Clear 13 1016 42 10000 4.12 10 18:43 18.04.2022
2592 Clear 15 1008 39 10000 4.12 340 17:40 18.04.2022
2593 Clear 15 1008 39 10000 5.14 350 17:19 18.04.2022
2594 Clear 15 1005 42 10000 4.63 330 16:38 18.04.2022
2595 Clear 14 1018 42 10000 4.63 10 15:30 18.04.2022
2596 Clouds 14 1007 49 10000 4.63 10 14:27 18.04.2022
2597 Clouds 13 1020 49 10000 3.6 360 12:56 18.04.2022
2598 Clouds 13 1020 56 10000 4.12 330 12:24 18.04.2022
2599 Clouds 11 1021 58 10000 2.57 360 10:47 18.04.2022
2600 Clear 10 1021 58 10000 2.06 360 09:53 18.04.2022
2601 Clear 9 1022 62 10000 1.54 320 09:27 18.04.2022
2602 Clear 3 1009 81 10000 1.03 0 07:25 18.04.2022
2603 Clear 4 1010 77 10000 0 0 02:45 18.04.2022
2604 Clear 6 1012 73 10000 0.51 0 23:23 17.04.2022
2605 Clear 6 1012 72 10000 0.51 280 22:37 17.04.2022
2606 Clear 7 1016 66 10000 1.54 310 21:34 17.04.2022
2607 Clear 8 1017 62 10000 1.03 350 20:53 17.04.2022
2608 Clear 9 1017 58 10000 1.03 0 20:19 17.04.2022
2609 Clear 12 1025 45 10000 3.09 40 19:20 17.04.2022
2610 Clear 13 1017 45 10000 3.6 60 17:34 17.04.2022
2611 Clear 13 1027 46 10000 3.6 50 15:37 17.04.2022
2612 Clear 14 1028 42 10000 4.12 30 14:53 17.04.2022
2613 Clouds 13 1029 41 10000 3.09 0 13:41 17.04.2022
2614 Clear 12 1030 47 10000 3.6 70 12:52 17.04.2022
2615 Clear 10 1031 53 10000 3.09 20 11:22 17.04.2022
2616 Clear 9 1031 58 10000 1.54 310 10:30 17.04.2022
2617 Clear 8 1018 60 10000 1.03 0 09:57 17.04.2022
2618 Clear 7 1019 65 10000 1.03 0 09:23 17.04.2022
2619 Clear 5 1019 74 10000 1.54 170 08:41 17.04.2022
2620 Clear 1 1019 83 10000 1.54 340 06:52 17.04.2022
2621 Clear 2 1024 81 10000 0.51 0 02:56 17.04.2022
2622 Clear 4 1033 69 10000 1.03 60 00:43 17.04.2022
2623 Clear 4 1033 74 10000 1.54 30 23:48 16.04.2022
2624 Clear 5 1033 68 10000 1.54 10 21:55 16.04.2022
2625 Clear 6 1024 64 10000 2.57 20 21:23 16.04.2022
2626 Clear 9 1032 51 10000 3.6 20 19:54 16.04.2022
2627 Clear 11 1032 47 10000 5.66 10 18:54 16.04.2022
2628 Clear 11 1032 47 10000 5.14 20 17:38 16.04.2022
2629 Clouds 11 1032 49 10000 4.63 0 16:31 16.04.2022
2630 Clouds 11 1020 52 10000 4.63 360 15:26 16.04.2022
2631 Clouds 11 1020 58 10000 3.09 0 14:47 16.04.2022
2632 Clouds 10 1020 59 10000 3.6 0 13:56 16.04.2022
2633 Clouds 10 1024 56 10000 4.63 350 13:25 16.04.2022
2634 Clouds 7 1021 67 10000 3.6 10 11:58 16.04.2022
2635 Clouds 6 1024 67 10000 4.63 50 10:42 16.04.2022
2636 Clouds 4 1024 74 10000 4.12 40 09:41 16.04.2022
2637 Clouds 3 1024 75 10000 4.12 30 08:56 16.04.2022
2638 Clouds 3 1023 78 10000 5.14 10 07:31 16.04.2022
2639 Clouds 3 1022 82 10000 4.12 10 06:22 16.04.2022
2640 Clouds 6 1020 89 10000 4.12 10 01:53 16.04.2022
2641 Clouds 7 1019 91 10000 3.6 360 00:21 16.04.2022
2642 Drizzle 7 1018 94 8000 4.12 360 22:54 15.04.2022
2643 Drizzle 7 1018 94 7000 6.17 350 22:31 15.04.2022
2644 Clouds 8 1027 93 10000 6.17 350 21:44 15.04.2022
2645 Drizzle 9 1017 94 8000 4.12 320 20:56 15.04.2022
2646 Clouds 9 1017 93 10000 4.12 320 19:59 15.04.2022
2647 Clouds 9 1017 93 10000 4.12 320 19:38 15.04.2022
2648 Clouds 9 1016 93 10000 4.12 320 18:46 15.04.2022
2649 Clouds 9 1016 95 8000 4.12 320 18:24 15.04.2022
2650 Drizzle 9 1016 93 6000 4.63 310 17:30 15.04.2022
2651 Clouds 10 1016 79 10000 6.17 320 16:26 15.04.2022
2652 Clouds 10 1016 76 10000 5.66 310 15:59 15.04.2022
2653 Drizzle 10 1016 76 10000 4.63 310 14:41 15.04.2022
2654 Clouds 9 1016 79 10000 4.63 310 13:33 15.04.2022
2655 Clouds 9 1016 79 10000 5.66 310 12:40 15.04.2022
2656 Clouds 9 1015 81 10000 5.14 320 11:54 15.04.2022
2657 Clouds 9 1015 83 10000 5.66 310 10:58 15.04.2022
2658 Clouds 9 1015 84 10000 5.66 310 10:40 15.04.2022
2659 Clouds 10 1014 87 10000 4.63 320 09:41 15.04.2022
2660 Clouds 10 1014 89 10000 4.63 330 09:19 15.04.2022
2661 Mist 11 1022 92 3800 3.09 290 07:28 15.04.2022
2662 Mist 10 1021 95 5000 2.57 280 05:58 15.04.2022
2663 Clear 11 1012 94 10000 2.68 234 02:39 15.04.2022
2664 Fog 12 1013 96 10000 1.54 240 23:31 14.04.2022
2665 Clear 12 1013 95 10000 1.03 240 22:49 14.04.2022
2666 Clouds 12 1013 96 10000 1.54 280 22:29 14.04.2022
2667 Rain 12 1013 96 10000 1.54 220 21:59 14.04.2022
2668 Rain 12 1012 93 10000 1.54 320 20:37 14.04.2022
2669 Rain 15 1012 73 10000 4.63 350 19:23 14.04.2022
2670 Clouds 17 1011 66 10000 5.66 340 18:22 14.04.2022
2671 Clouds 18 1019 58 10000 5.14 320 17:38 14.04.2022
2672 Clouds 19 1018 57 10000 4.63 350 16:36 14.04.2022
2673 Clouds 20 1006 59 10000 5.66 310 15:24 14.04.2022
2674 Clouds 19 1010 53 10000 4.12 340 13:46 14.04.2022
2675 Clouds 19 1009 54 10000 3.6 330 12:56 14.04.2022
2676 Clouds 19 1006 59 10000 3.09 300 12:31 14.04.2022
2677 Clear 18 1009 58 10000 2.57 290 11:29 14.04.2022
2678 Clear 18 1010 57 10000 2.57 260 10:52 14.04.2022
2679 Clear 17 1006 61 10000 2.57 270 10:26 14.04.2022
2680 Clear 16 1009 55 10000 3.09 210 09:24 14.04.2022
2681 Clear 10 1009 72 10000 3.09 160 07:27 14.04.2022
2682 Clear 11 1009 67 10000 3.6 150 03:32 14.04.2022
2683 Clear 13 1018 60 10000 2.06 150 23:26 13.04.2022
2684 Clear 14 1009 59 10000 3.58 132 22:23 13.04.2022
2685 Clear 15 1009 57 10000 2.68 119 21:37 13.04.2022
2686 Clear 16 1009 55 10000 2.57 160 20:23 13.04.2022
2687 Clear 18 1009 48 10000 4.63 170 19:37 13.04.2022
2688 Clear 20 1017 40 10000 4.63 170 18:36 13.04.2022
2689 Clear 21 1008 39 10000 5.14 160 17:24 13.04.2022
2690 Clear 21 1005 40 10000 5.14 160 16:41 13.04.2022
2691 Clear 21 1017 34 10000 4.12 130 15:43 13.04.2022
2692 Clear 21 1017 34 10000 4.12 150 14:53 13.04.2022
2693 Clear 21 1017 35 10000 3.09 170 14:30 13.04.2022
2694 Clear 21 1017 34 10000 4.12 150 13:29 13.04.2022
2695 Clear 20 1017 39 10000 4.12 160 12:38 13.04.2022
2696 Clear 17 1017 44 10000 7.72 160 10:58 13.04.2022
2697 Clear 15 1017 43 10000 6.69 150 09:45 13.04.2022
2698 Clear 13 1005 54 10000 7.72 150 08:43 13.04.2022
2699 Clear 9 1008 59 10000 7.72 150 07:23 13.04.2022
2700 Clear 8 1008 61 10000 6.17 150 06:46 13.04.2022
2701 Clear 8 1008 61 10000 5.14 150 06:18 13.04.2022
2702 Clear 9 1008 58 10000 4.63 140 00:25 13.04.2022
2703 Clear 9 1008 58 10000 3.6 130 23:46 12.04.2022
2704 Clear 10 1008 55 10000 3.58 99 22:31 12.04.2022
2705 Clear 10 1017 52 10000 3.09 130 21:42 12.04.2022
2706 Clear 12 1017 44 10000 4.12 130 20:44 12.04.2022
2707 Clear 14 1005 43 10000 4.12 120 19:54 12.04.2022
2708 Clear 14 1005 43 10000 4.12 120 19:54 12.04.2022
2709 Clear 15 1018 31 10000 4.12 120 19:35 12.04.2022
2710 Clear 17 1017 33 10000 4.63 120 18:52 12.04.2022
2711 Clear 17 1005 34 10000 4.63 160 17:37 12.04.2022
2712 Clear 18 1005 36 10000 3.6 160 16:34 12.04.2022
2713 Clear 17 1005 35 10000 5.14 160 15:33 12.04.2022
2714 Clear 16 1006 37 10000 6.17 160 14:33 12.04.2022
2715 Clear 16 1006 37 10000 5.14 140 13:45 12.04.2022
2716 Clear 15 1018 34 10000 5.66 150 13:23 12.04.2022
2717 Clear 15 1006 43 10000 5.66 140 11:49 12.04.2022
2718 Clear 14 998 46 10000 4.63 150 11:28 12.04.2022
2719 Clear 10 1019 56 10000 3.6 140 09:32 12.04.2022
2720 Clear 6 1019 66 10000 3.6 150 08:32 12.04.2022
2721 Clear 2 1018 78 10000 1.03 0 06:33 12.04.2022
2722 Clear 2 1006 80 10000 2.06 140 05:38 12.04.2022
2723 Clear 3 1006 71 10000 1.54 140 01:48 12.04.2022
2724 Clear 5 1006 68 10000 2.57 110 23:20 11.04.2022
2725 Clear 6 1010 63 10000 1.54 70 21:51 11.04.2022
2726 Clear 6 1010 61 10000 2.06 60 21:18 11.04.2022
2727 Clear 8 1018 47 10000 2.06 20 20:30 11.04.2022
2728 Clear 10 1018 48 10000 2.06 10 19:58 11.04.2022
2729 Clouds 10 1018 45 10000 3.09 10 19:26 11.04.2022
2730 Clear 11 1018 42 10000 3.09 20 18:53 11.04.2022
2731 Clear 13 1018 38 10000 3.6 10 17:58 11.04.2022
2732 Clear 13 1018 38 10000 3.6 10 17:33 11.04.2022
2733 Clear 13 1019 41 10000 3.6 310 16:25 11.04.2022
2734 Clear 13 1007 41 10000 2.06 0 14:42 11.04.2022
2735 Clear 12 1008 40 10000 2.06 0 13:34 11.04.2022
2736 Clear 12 1008 43 10000 3.13 230 12:38 11.04.2022
2737 Clouds 11 1009 48 10000 3.6 230 11:54 11.04.2022
2738 Clouds 10 1009 57 10000 3.09 270 10:36 11.04.2022
2739 Clear 8 1009 68 10000 3.09 230 09:41 11.04.2022
2740 Clear 2 1012 83 10000 3.09 220 07:54 11.04.2022
2741 Clouds 2 1012 82 10000 2.68 226 03:19 11.04.2022
2742 Clouds 3 1012 82 10000 2.24 227 23:27 10.04.2022
2743 Clear 4 1007 82 10000 3.6 300 22:26 10.04.2022
2744 Clouds 4 1011 78 10000 4.12 300 21:43 10.04.2022
2745 Clouds 5 1010 78 10000 4.92 224 20:50 10.04.2022
2746 Clouds 6 1018 70 10000 3.6 250 19:54 10.04.2022
2747 Clouds 5 1009 73 10000 3.6 250 19:33 10.04.2022
2748 Clouds 6 1009 72 10000 2.57 260 18:46 10.04.2022
2749 Clouds 6 1009 76 10000 3.58 229 18:20 10.04.2022
2750 Clouds 8 1009 63 10000 5.66 290 17:41 10.04.2022
2751 Clouds 7 1018 61 10000 6.69 290 16:51 10.04.2022
2752 Clouds 9 1004 65 10000 4.63 320 15:38 10.04.2022
2753 Clouds 8 1004 66 10000 5.14 280 14:40 10.04.2022
2754 Clouds 7 1005 76 10000 5.66 280 12:58 10.04.2022
2755 Clouds 5 1009 76 10000 5.66 290 12:26 10.04.2022
2756 Clouds 6 1005 74 10000 5.66 300 11:35 10.04.2022
2757 Clouds 5 1008 72 10000 6.17 280 10:58 10.04.2022
2758 Clouds 5 1008 73 10000 5.66 260 10:22 10.04.2022
2759 Clouds 5 1008 74 10000 5.66 270 09:41 10.04.2022
2760 Clouds 4 1007 75 10000 4.63 260 08:26 10.04.2022
2761 Clouds 4 1007 77 10000 4.63 270 07:47 10.04.2022
2762 Clouds 3 1006 79 10000 5.14 270 06:48 10.04.2022
2763 Clouds 3 1005 82 10000 5.14 260 03:36 10.04.2022
2764 Clear 3 1004 85 10000 4.02 233 01:29 10.04.2022
2765 Clouds 3 1004 84 10000 4.12 260 23:52 09.04.2022
2766 Clouds 3 1003 85 10000 4.12 260 22:52 09.04.2022
2767 Clear 4 1003 84 10000 3.13 232 21:51 09.04.2022
2768 Clouds 4 998 84 10000 4.92 215 20:58 09.04.2022
2769 Clouds 4 1001 81 10000 4.47 229 20:26 09.04.2022
2770 Clouds 5 1001 80 10000 3.09 290 19:43 09.04.2022
2771 Clouds 5 1001 81 10000 6.17 280 19:21 09.04.2022
2772 Clouds 7 1000 79 10000 7.2 270 18:22 09.04.2022
2773 Rain 7 996 73 10000 6.69 270 17:43 09.04.2022
2774 Clouds 9 995 68 10000 7.2 270 16:55 09.04.2022
2775 Clouds 10 995 62 10000 6.69 290 16:28 09.04.2022
2776 Clouds 10 998 60 10000 8.23 290 15:48 09.04.2022
2777 Clouds 9 998 64 10000 7.2 290 15:25 09.04.2022
2778 Clouds 7 999 75 10000 6.17 280 14:25 09.04.2022
2779 Clouds 5 998 83 10000 5.14 290 13:24 09.04.2022
2780 Clouds 6 994 76 5000 6.69 310 12:53 09.04.2022
2781 Clouds 7 997 69 10000 4.63 280 11:44 09.04.2022
2782 Clouds 5 997 83 10000 5.66 280 10:41 09.04.2022
2783 Rain 5 997 84 10000 6.69 290 10:18 09.04.2022
2784 Clouds 6 992 78 10000 6.17 290 09:22 09.04.2022
2785 Clouds 4 994 84 10000 6.17 300 07:49 09.04.2022
2786 Clouds 3 985 90 10000 1.79 213 03:57 09.04.2022
2787 Clouds 4 983 88 10000 2.24 198 00:33 09.04.2022
2788 Clouds 4 983 87 10000 4.12 220 23:22 08.04.2022
2789 Clouds 5 984 89 10000 5.14 190 21:43 08.04.2022
2790 Clouds 5 985 89 10000 5.14 200 20:43 08.04.2022
2791 Clouds 4 985 88 10000 5.66 200 19:46 08.04.2022
2792 Clouds 6 985 82 10000 6.69 220 18:42 08.04.2022
2793 Clouds 6 985 82 10000 7.72 210 18:20 08.04.2022
2794 Clouds 7 985 70 10000 5.66 230 17:28 08.04.2022
2795 Clouds 9 984 60 10000 5.66 250 16:55 08.04.2022
2796 Clouds 9 984 62 10000 5.36 214 16:27 08.04.2022
2797 Clouds 10 985 56 10000 5.81 230 15:33 08.04.2022
2798 Clouds 11 985 52 10000 5.66 240 14:45 08.04.2022
2799 Clouds 11 986 52 10000 6.69 270 13:59 08.04.2022
2800 Clouds 11 990 52 10000 7.2 270 13:31 08.04.2022
2801 Clouds 10 990 52 10000 7.72 280 12:49 08.04.2022
2802 Clouds 10 990 53 10000 7.72 270 11:26 08.04.2022
2803 Clouds 9 986 63 10000 9.26 260 09:59 08.04.2022
2804 Clouds 9 985 61 10000 10.73 232 09:19 08.04.2022
2805 Clouds 7 984 65 10000 8.75 260 07:44 08.04.2022
2806 Clouds 7 983 65 10000 8.75 250 06:45 08.04.2022
2807 Clear 8 979 62 10000 8.75 240 02:55 08.04.2022
2808 Clouds 7 979 82 10000 6.69 260 00:31 08.04.2022
2809 Clouds 7 978 81 10000 5.66 250 23:52 07.04.2022
2810 Clouds 8 977 77 10000 9.26 280 22:55 07.04.2022
2811 Rain 8 977 73 10000 9.26 280 22:36 07.04.2022
2812 Clouds 9 976 76 10000 6.17 270 22:18 07.04.2022
2813 Rain 10 975 72 10000 6.17 240 21:30 07.04.2022
2814 Clouds 10 975 73 10000 6.26 241 20:55 07.04.2022
2815 Clouds 10 975 73 10000 6.26 234 20:21 07.04.2022
2816 Rain 13 966 69 10000 13.38 220 17:45 07.04.2022
2817 Rain 15 973 58 10000 13.41 219 17:23 07.04.2022
2818 Clouds 15 985 52 10000 13.89 220 16:42 07.04.2022
2819 Clouds 15 987 51 10000 12.35 220 15:56 07.04.2022
2820 Clouds 16 977 53 10000 11.32 220 13:59 07.04.2022
2821 Clouds 16 977 53 10000 11.32 220 13:41 07.04.2022
2822 Clouds 15 991 51 10000 9.77 240 12:28 07.04.2022
2823 Clouds 14 974 66 10000 9.77 220 10:56 07.04.2022
2824 Clouds 12 982 64 10000 8.75 230 09:34 07.04.2022
2825 Clear 11 983 70 10000 6.71 211 08:27 07.04.2022
2826 Clear 9 984 72 10000 5.66 220 06:18 07.04.2022
2827 Clear 10 985 71 10000 5.14 230 02:40 07.04.2022
2828 Clear 10 990 67 10000 6.17 240 01:27 07.04.2022
2829 Clouds 11 990 63 10000 4.92 225 23:53 06.04.2022
2830 Clear 10 991 71 10000 4.02 228 22:45 06.04.2022
2831 Clouds 10 991 70 10000 4.12 210 22:24 06.04.2022
2832 Clear 11 991 67 10000 3.09 220 21:31 06.04.2022
2833 Clouds 12 991 60 10000 4.63 240 20:27 06.04.2022
2834 Clouds 13 991 58 10000 4.12 240 19:53 06.04.2022
2835 Clouds 14 991 56 10000 5.14 240 18:50 06.04.2022
2836 Clouds 15 992 55 10000 6.26 233 17:57 06.04.2022
2837 Clouds 15 992 54 10000 4.63 250 17:35 06.04.2022
2838 Clouds 16 992 55 10000 7.72 240 16:36 06.04.2022
2839 Clouds 15 993 57 10000 5.66 250 15:48 06.04.2022
2840 Clouds 15 993 59 10000 6.69 240 14:35 06.04.2022
2841 Clouds 14 994 61 10000 7.15 228 12:58 06.04.2022
2842 Clouds 13 992 71 10000 6.17 250 11:55 06.04.2022
2843 Clouds 12 995 70 10000 5.36 215 10:47 06.04.2022
2844 Clouds 11 995 75 10000 4.47 224 10:24 06.04.2022
2845 Clouds 11 995 86 10000 4.92 227 09:40 06.04.2022
2846 Clouds 10 996 86 10000 5.81 224 08:32 06.04.2022
2847 Clouds 10 995 81 10000 5.81 226 07:49 06.04.2022
2848 Rain 9 995 89 10000 6.71 202 03:53 06.04.2022
2849 Clouds 9 995 84 10000 5.81 224 23:52 05.04.2022
2850 Clouds 9 995 87 10000 5.66 240 22:31 05.04.2022
2851 Clouds 9 992 91 10000 5.36 228 21:20 05.04.2022
2852 Rain 9 995 88 10000 6.71 223 20:25 05.04.2022
2853 Rain 10 995 82 10000 6.26 216 19:42 05.04.2022
2854 Clouds 9 1003 87 10000 4.12 250 18:18 05.04.2022
2855 Clouds 9 1003 86 10000 2.57 240 16:54 05.04.2022
2856 Rain 8 996 87 10000 4.12 250 15:57 05.04.2022
2857 Clouds 8 992 88 10000 4.12 250 15:34 05.04.2022
2858 Rain 8 996 86 10000 2.57 260 14:36 05.04.2022
2859 Rain 8 992 90 10000 2.68 226 13:35 05.04.2022
2860 Drizzle 7 1005 84 10000 4.12 330 11:51 05.04.2022
2861 Drizzle 7 1005 84 10000 4.12 330 11:51 05.04.2022
2862 Drizzle 8 995 83 10000 6.71 220 11:32 05.04.2022
2863 Clouds 7 995 85 10000 5.66 270 09:59 05.04.2022
2864 Clouds 6 995 87 10000 6.69 260 08:55 05.04.2022
2865 Clouds 5 994 88 10000 7.15 228 07:22 05.04.2022
2866 Snow 6 993 77 10000 7.72 250 01:58 05.04.2022
2867 Snow 4 994 83 10000 8.23 240 22:48 04.04.2022
2868 Snow 4 994 81 10000 9.83 234 22:29 04.04.2022
2869 Clouds 4 995 82 10000 8.23 230 21:22 04.04.2022
2870 Clouds 3 995 82 10000 9.26 230 20:50 04.04.2022
2871 Clouds 3 995 81 10000 8.94 213 20:22 04.04.2022
2872 Clouds 4 996 74 10000 9.26 220 19:26 04.04.2022
2873 Snow 4 997 76 10000 8.23 230 18:37 04.04.2022
2874 Clouds 8 1007 38 10000 9.26 240 16:41 04.04.2022
2875 Clouds 8 998 44 10000 7.72 240 16:23 04.04.2022
2876 Clouds 9 999 42 10000 10.29 230 15:33 04.04.2022
2877 Clouds 9 996 46 10000 10.29 230 14:46 04.04.2022
2878 Clouds 9 1002 44 10000 10.29 240 13:40 04.04.2022
2879 Clouds 8 999 48 10000 9.26 240 12:26 04.04.2022
2880 Clouds 7 993 55 10000 7.72 250 11:29 04.04.2022
2881 Clouds 5 994 64 10000 6.69 240 09:53 04.04.2022
2882 Clouds 2 1007 71 10000 4.92 219 05:33 04.04.2022
2883 Clouds 3 1008 65 10000 4.63 260 02:47 04.04.2022
2884 Clouds 3 1009 60 10000 4.47 228 22:49 03.04.2022
2885 Clouds 3 1009 58 10000 3.13 235 21:59 03.04.2022
2886 Clouds 3 1009 57 10000 3.6 270 21:25 03.04.2022
2887 Clouds 4 1009 52 10000 2.68 230 20:21 03.04.2022
2888 Clouds 5 1009 45 10000 5.36 278 18:46 03.04.2022
2889 Clouds 6 1009 43 10000 4.63 290 17:55 03.04.2022
2890 Clouds 6 1009 43 10000 4.63 290 17:35 03.04.2022
2891 Clouds 5 1005 48 10000 3.09 320 16:49 03.04.2022
2892 Clouds 5 1010 44 10000 3.09 290 15:46 03.04.2022
2893 Clouds 5 1010 44 10000 5.14 320 14:20 03.04.2022
2894 Clouds 4 1007 49 10000 3.6 310 12:59 03.04.2022
2895 Clouds 3 1011 50 10000 4.63 310 11:50 03.04.2022
2896 Clear 2 1007 65 10000 2.57 350 09:57 03.04.2022
2897 Clouds 0 1007 72 10000 2.57 320 08:57 03.04.2022
2898 Clouds -1 1009 74 10000 3.09 350 05:45 03.04.2022
2899 Clouds 1 1008 67 10000 4.12 360 02:55 03.04.2022
2900 Clouds 1 1007 70 10000 5.14 360 23:48 02.04.2022
2901 Clear 2 1007 68 10000 4.63 360 22:51 02.04.2022
2902 Clear 3 1006 63 10000 4.63 360 21:56 02.04.2022
2903 Clear 3 1005 61 10000 5.66 360 21:21 02.04.2022
2904 Clear 3 1005 57 10000 5.66 360 20:36 02.04.2022
2905 Clear 3 1005 57 10000 5.66 360 20:36 02.04.2022
2906 Clear 5 1003 51 10000 6.69 360 18:49 02.04.2022
2907 Clear 6 1003 48 10000 7.72 10 18:20 02.04.2022
2908 Clear 7 1002 43 10000 6.69 10 17:23 02.04.2022
2909 Clear 7 1002 43 10000 6.69 10 15:58 02.04.2022
2910 Clear 7 1002 44 10000 6.17 360 15:20 02.04.2022
2911 Clouds 6 1002 44 10000 7.2 10 14:32 02.04.2022
2912 Clouds 6 998 50 10000 6.69 30 13:34 02.04.2022
2913 Clouds 5 1002 53 10000 7.2 20 12:32 02.04.2022
2914 Clouds 3 1002 64 10000 5.66 30 10:50 02.04.2022
2915 Clouds 0 1001 75 10000 3.6 10 08:44 02.04.2022
2916 Clear -1 1000 71 10000 4.63 30 06:43 02.04.2022
2917 Clear 2 998 55 10000 5.66 30 03:31 02.04.2022
2918 Rain 4 997 46 10000 5.14 40 23:55 01.04.2022
2919 Clear 4 997 49 10000 6.17 40 22:55 01.04.2022
2920 Clear 4 997 50 10000 2.57 30 21:32 01.04.2022
2921 Rain 4 996 51 10000 3.6 60 20:50 01.04.2022
2922 Rain 4 996 57 10000 4.12 50 19:51 01.04.2022
2923 Clear 5 992 59 10000 6.69 50 19:30 01.04.2022
2924 Clear 5 995 58 10000 4.12 70 18:44 01.04.2022
2925 Rain 5 995 57 10000 3.09 60 17:46 01.04.2022
2926 Clouds 5 994 59 10000 2.57 90 16:48 01.04.2022
2927 Rain 5 991 62 10000 3.09 60 15:36 01.04.2022
2928 Rain 3 991 70 10000 5.14 70 14:20 01.04.2022
2929 Clouds 3 983 77 10000 7.2 60 13:33 01.04.2022
2930 Clouds 2 994 75 10000 4.12 50 12:32 01.04.2022
2931 Clouds 2 991 80 5000 4.12 50 11:37 01.04.2022
2932 Clouds 1 993 82 10000 4.63 50 10:18 01.04.2022
2933 Clouds 1 993 83 10000 7.72 60 08:47 01.04.2022
2934 Clouds 2 1001 66 10000 7.2 60 06:54 01.04.2022
2935 Clouds 3 991 70 10000 4.63 60 04:49 01.04.2022
2936 Clouds 3 991 72 10000 3.6 60 04:30 01.04.2022
2937 Clouds 3 992 77 10000 5.66 70 01:56 01.04.2022
2938 Clouds 4 992 82 10000 9.26 80 22:58 31.03.2022
2939 Clouds 4 992 83 10000 8.23 80 21:51 31.03.2022
2940 Clouds 4 992 84 10000 9.26 70 21:32 31.03.2022
2941 Rain 4 992 84 10000 5.66 60 20:29 31.03.2022
2942 Snow 4 992 83 10000 5.66 60 19:49 31.03.2022
2943 Snow 3 992 84 10000 6.17 80 18:46 31.03.2022
2944 Snow 3 991 86 7000 7.2 80 17:50 31.03.2022
2945 Snow 3 992 85 8000 8.23 80 16:38 31.03.2022
2946 Clouds 3 992 84 10000 6.17 80 15:45 31.03.2022
2947 Clouds 3 992 84 10000 6.17 80 15:19 31.03.2022
2948 Clouds 3 993 84 10000 7.2 70 14:37 31.03.2022
2949 Clouds 3 993 86 10000 6.17 80 12:19 31.03.2022
2950 Clouds 3 994 86 10000 6.17 90 11:26 31.03.2022
2951 Clouds 2 993 90 10000 5.66 90 09:47 31.03.2022
2952 Clouds 2 994 91 8000 6.17 90 08:23 31.03.2022
2953 Clouds 3 993 91 10000 5.14 70 05:42 31.03.2022
2954 Clouds 3 1003 92 10000 4.12 60 00:32 31.03.2022
2955 Clouds 4 994 92 10000 3.6 40 23:23 30.03.2022
2956 Clouds 4 994 95 8000 3.09 40 21:41 30.03.2022
2957 Clouds 4 994 95 9000 2.57 30 20:55 30.03.2022
2958 Clouds 4 994 94 8000 2.57 30 20:20 30.03.2022
2959 Clouds 4 994 94 8000 3.09 40 19:36 30.03.2022
2960 Rain 5 990 92 7000 3.6 60 18:29 30.03.2022
2961 Rain 4 994 92 8000 3.09 50 17:48 30.03.2022
2962 Rain 5 991 92 8000 3.09 50 16:57 30.03.2022
2963 Rain 5 995 91 8000 3.09 50 16:38 30.03.2022
2964 Rain 6 995 90 9000 3.6 50 15:24 30.03.2022
2965 Rain 6 992 87 10000 1.03 0 13:44 30.03.2022
2966 Rain 6 996 85 10000 1.54 130 12:58 30.03.2022
2967 Rain 6 997 83 10000 1.03 0 11:36 30.03.2022
2968 Rain 6 994 81 10000 1.03 0 10:31 30.03.2022
2969 Clouds 6 997 81 10000 0.51 0 09:27 30.03.2022
2970 Rain 4 998 87 9000 0.51 0 07:41 30.03.2022
2971 Clouds 4 997 90 9000 1.54 300 05:41 30.03.2022
2972 Clear 3 998 88 10000 1.54 290 04:19 30.03.2022
2973 Clouds 5 999 85 10000 2.57 220 00:42 30.03.2022
2974 Clouds 6 999 80 10000 1.54 250 22:34 29.03.2022
2975 Clouds 6 1000 81 10000 1.03 0 21:46 29.03.2022
2976 Clear 7 1000 77 10000 0.51 0 20:54 29.03.2022
2977 Clear 7 1000 75 10000 1.03 0 20:20 29.03.2022
2978 Clouds 10 999 67 10000 3.09 280 18:56 29.03.2022
2979 Clouds 10 1000 66 10000 3.09 280 18:36 29.03.2022
2980 Clouds 11 1000 63 10000 3.6 310 17:37 29.03.2022
2981 Clouds 11 1000 63 10000 4.12 290 16:58 29.03.2022
2982 Clouds 11 1001 66 10000 4.12 310 15:58 29.03.2022
2983 Clouds 10 1002 70 10000 3.09 310 14:53 29.03.2022
2984 Clouds 10 1000 70 10000 4.63 300 14:22 29.03.2022
2985 Clouds 9 1000 77 10000 3.09 290 12:57 29.03.2022
2986 Clouds 7 993 90 8000 3.6 310 11:45 29.03.2022
2987 Clouds 7 1004 85 7000 3.09 330 10:58 29.03.2022
2988 Clouds 7 1004 86 10000 3.6 290 09:49 29.03.2022
2989 Clouds 6 1004 87 10000 2.06 300 08:20 29.03.2022
2990 Clear 6 1005 88 10000 2.06 310 05:35 29.03.2022
2991 Rain 10 1006 82 10000 2.57 300 01:25 29.03.2022
2992 Clear 10 1006 75 10000 2.06 280 23:25 28.03.2022
2993 Clear 11 1006 71 10000 2.06 280 22:54 28.03.2022
2994 Clear 11 1007 72 10000 1.54 250 22:28 28.03.2022
2995 Clear 13 1003 67 10000 1.03 250 20:59 28.03.2022
2996 Clear 14 1003 64 10000 1.03 280 20:31 28.03.2022
2997 Clear 15 1007 58 10000 2.06 300 19:46 28.03.2022
2998 Clear 16 1007 56 10000 3.6 320 19:28 28.03.2022
2999 Clear 17 1016 47 10000 4.12 310 18:40 28.03.2022
3000 Clear 18 1016 49 10000 5.14 280 17:39 28.03.2022
3001 Clear 20 1005 49 10000 4.02 276 16:38 28.03.2022
3002 Clear 19 1007 44 10000 3.6 300 14:49 28.03.2022
3003 Clear 19 1020 44 10000 3.6 270 14:22 28.03.2022
3004 Clear 18 1012 49 10000 3.6 280 12:41 28.03.2022
3005 Clear 16 1010 59 10000 2.68 230 11:32 28.03.2022
3006 Clear 12 1012 61 10000 3.09 210 09:43 28.03.2022
3007 Clear 9 1025 65 10000 4.12 200 09:19 28.03.2022
3008 Clear 8 1004 79 10000 4.12 200 08:23 28.03.2022
3009 Clear 6 1004 85 10000 3.09 200 07:56 28.03.2022
3010 Clear 6 1006 82 10000 3.09 200 04:27 28.03.2022
3011 Clear 9 1008 71 10000 2.06 230 23:43 27.03.2022
3012 Clear 9 1016 67 10000 1.03 250 22:25 27.03.2022
3013 Clear 9 1016 67 10000 1.03 250 22:25 27.03.2022
3014 Clear 10 1016 66 10000 0.51 0 21:42 27.03.2022
3015 Clear 10 1016 66 10000 0.51 0 21:42 27.03.2022
3016 Clear 10 1016 65 10000 0.51 310 20:58 27.03.2022
3017 Clear 12 1019 57 10000 1.54 330 19:53 27.03.2022
3018 Clear 13 1019 52 10000 2.57 340 19:30 27.03.2022
3019 Clear 15 1028 42 10000 3.09 340 18:28 27.03.2022
3020 Clear 16 1028 43 10000 3.09 340 17:42 27.03.2022
3021 Clear 17 1016 42 10000 2.06 350 17:23 27.03.2022
3022 Clear 16 1029 38 10000 1.54 0 15:39 27.03.2022
3023 Clear 16 1017 44 10000 2.57 70 13:56 27.03.2022
3024 Clouds 15 1019 53 10000 2.06 0 12:50 27.03.2022
3025 Clear 14 1019 61 10000 2.57 50 11:30 27.03.2022
3026 Clear 10 1022 74 10000 2.06 180 09:32 27.03.2022
3027 Fog 5 1011 91 10000 0.51 0 06:44 27.03.2022
3028 Clouds 8 1022 82 10000 1.03 30 01:55 27.03.2022
3029 Clouds 9 1018 79 10000 1.03 10 00:25 27.03.2022
3030 Clouds 11 1022 74 10000 3.09 50 22:45 26.03.2022
3031 Clouds 12 1021 72 10000 2.57 10 21:50 26.03.2022
3032 Clouds 12 1021 72 10000 4.12 360 21:26 26.03.2022
3033 Clouds 14 1028 64 10000 4.63 10 19:31 26.03.2022
3034 Clouds 15 1019 52 10000 3.6 320 18:25 26.03.2022
3035 Clouds 16 1027 46 10000 4.63 300 17:33 26.03.2022
3036 Clouds 17 1019 48 10000 5.66 280 16:30 26.03.2022
3037 Clear 18 1015 49 10000 6.69 300 15:35 26.03.2022
3038 Clouds 17 1028 47 10000 6.69 290 13:55 26.03.2022
3039 Clouds 17 1016 52 10000 5.66 310 13:19 26.03.2022
3040 Clear 16 1020 48 10000 5.14 290 11:42 26.03.2022
3041 Clear 15 1017 55 10000 4.63 280 10:32 26.03.2022
3042 Clear 11 1021 59 10000 4.12 260 08:46 26.03.2022
3043 Clear 5 1009 79 10000 3.6 220 06:37 26.03.2022
3044 Clear 5 1008 79 10000 2.57 230 05:29 26.03.2022
3045 Clear 6 1009 74 10000 2.06 230 00:41 26.03.2022
3046 Clear 8 1017 65 10000 1.54 280 21:58 25.03.2022
3047 Clear 9 1016 64 10000 1.54 310 20:47 25.03.2022
3048 Clear 9 1016 62 10000 2.06 310 20:24 25.03.2022
3049 Clear 11 1020 51 10000 1.03 320 18:59 25.03.2022
3050 Clear 13 1019 47 10000 2.06 330 18:22 25.03.2022
3051 Clear 14 1019 43 10000 3.6 340 17:28 25.03.2022
3052 Clear 16 1019 41 10000 4.12 330 16:21 25.03.2022
3053 Clear 16 1016 43 10000 4.63 350 15:26 25.03.2022
3054 Clear 15 1017 40 10000 2.57 50 13:28 25.03.2022
3055 Clear 13 1017 46 10000 2.06 50 10:49 25.03.2022
3056 Clear 9 1017 59 10000 1.03 0 09:28 25.03.2022
3057 Clear 9 1017 55 10000 1.54 200 08:43 25.03.2022
3058 Clear 5 1009 71 10000 1.03 0 07:32 25.03.2022
3059 Clear 3 1008 74 10000 1.54 210 06:29 25.03.2022
3060 Clear 5 1008 69 10000 2.06 220 02:28 25.03.2022
3061 Clear 8 1008 57 10000 0.51 150 22:56 24.03.2022
3062 Clear 9 1008 55 10000 1.03 110 21:56 24.03.2022
3063 Clear 9 1016 57 10000 1.03 0 20:51 24.03.2022
3064 Clear 9 1019 51 10000 2.06 320 19:49 24.03.2022
3065 Clear 12 1019 41 10000 1.54 320 18:34 24.03.2022
3066 Clear 15 1027 34 10000 3.09 310 17:32 24.03.2022
3067 Clear 17 1018 31 10000 3.09 350 16:24 24.03.2022
3068 Clear 17 1028 34 10000 3.09 10 14:51 24.03.2022
3069 Clear 17 1016 34 10000 3.6 340 14:21 24.03.2022
3070 Clear 16 1016 35 10000 2.57 10 13:31 24.03.2022
3071 Clear 15 1017 42 10000 2.57 360 12:24 24.03.2022
3072 Clear 14 1021 46 10000 2.06 310 10:48 24.03.2022
3073 Clear 10 1020 55 10000 2.06 320 09:24 24.03.2022
3074 Clear 8 1017 62 10000 1.54 210 08:32 24.03.2022
3075 Clear 4 1008 77 10000 1.54 220 04:52 24.03.2022
3076 Clear 9 1010 56 10000 0.51 0 23:59 23.03.2022
3077 Clear 10 1009 50 10000 1.03 0 22:19 23.03.2022
3078 Clear 11 1009 51 10000 1.03 0 21:21 23.03.2022
3079 Clear 11 1016 48 10000 1.54 320 19:56 23.03.2022
3080 Clear 12 1020 43 10000 2.06 330 19:25 23.03.2022
3081 Clear 16 1028 33 10000 2.57 330 17:52 23.03.2022
3082 Clear 18 1020 31 10000 3.09 330 17:24 23.03.2022
3083 Clear 19 1029 31 10000 3.09 330 15:43 23.03.2022
3084 Clear 18 1029 33 10000 3.09 310 14:47 23.03.2022
3085 Clear 18 1029 26 10000 2.57 340 13:31 23.03.2022
3086 Clear 16 1031 31 10000 2.06 180 11:24 23.03.2022
3087 Clear 11 1018 45 10000 2.57 190 08:41 23.03.2022
3088 Clear 4 1022 52 10000 2.06 160 05:50 23.03.2022
3089 Clear 6 1022 51 10000 1.54 210 02:50 23.03.2022
3090 Clear 7 1023 44 10000 4.12 190 00:27 23.03.2022
3091 Clear 7 1033 44 10000 3.6 140 21:52 22.03.2022
3092 Clear 9 1023 42 10000 2.68 103 21:23 22.03.2022
3093 Clear 9 1033 37 10000 2.06 70 20:23 22.03.2022
3094 Clear 12 1023 35 10000 2.57 90 19:27 22.03.2022
3095 Clear 12 1032 34 10000 3.6 140 18:49 22.03.2022
3096 Clear 17 1032 23 10000 4.63 140 17:44 22.03.2022
3097 Clear 17 1032 23 10000 4.63 120 16:58 22.03.2022
3098 Clear 18 1033 21 10000 5.14 120 15:43 22.03.2022
3099 Clear 17 1033 22 10000 4.12 130 15:20 22.03.2022
3100 Clear 17 1033 21 10000 4.12 170 14:44 22.03.2022
3101 Clear 16 1034 23 10000 4.12 140 13:52 22.03.2022
3102 Clear 15 1022 25 10000 5.14 170 12:34 22.03.2022
3103 Clear 14 1035 26 10000 6.17 170 11:24 22.03.2022
3104 Clear 12 1027 30 10000 6.69 150 09:42 22.03.2022
3105 Clear 5 1023 47 10000 3.6 150 07:44 22.03.2022
3106 Clear 3 1022 51 10000 3.6 140 04:29 22.03.2022
3107 Clear 2 1035 52 10000 2.06 130 02:52 22.03.2022
3108 Clear 4 1027 47 10000 2.24 94 23:19 21.03.2022
3109 Clear 6 1022 42 10000 3.58 94 21:47 21.03.2022
3110 Clear 6 1026 43 10000 2.57 140 20:45 21.03.2022
3111 Clear 7 1026 34 10000 3.58 102 20:24 21.03.2022
3112 Clear 8 1026 39 10000 4.02 124 19:53 21.03.2022
3113 Clear 8 1026 33 10000 2.68 109 19:22 21.03.2022
3114 Clear 12 1035 20 10000 4.12 150 17:43 21.03.2022
3115 Clear 14 1021 27 10000 4.63 160 17:00 21.03.2022
3116 Clear 14 1021 26 10000 4.63 160 16:36 21.03.2022
3117 Clear 14 1022 26 10000 5.81 164 15:46 21.03.2022
3118 Clear 14 1022 28 10000 4.92 105 14:48 21.03.2022
3119 Clear 12 1022 30 10000 5.14 150 13:35 21.03.2022
3120 Clear 11 1023 30 10000 5.66 150 12:31 21.03.2022
3121 Clear 11 1023 32 10000 5.66 150 11:43 21.03.2022
3122 Clear 9 1024 34 10000 6.17 170 10:20 21.03.2022
3123 Clear 6 1028 42 10000 4.63 140 08:26 21.03.2022
3124 Clear 2 1015 56 10000 2.57 130 06:36 21.03.2022
3125 Clear 2 1027 52 10000 3.09 110 02:40 21.03.2022
3126 Clear 5 1027 42 10000 5.66 140 23:40 20.03.2022
3127 Clear 6 1027 42 10000 4.63 140 22:43 20.03.2022
3128 Clear 6 1027 41 10000 4.63 130 21:50 20.03.2022
3129 Clear 6 1027 40 10000 4.63 140 21:20 20.03.2022
3130 Clear 7 1027 38 10000 4.63 150 20:43 20.03.2022
3131 Clear 7 1028 35 10000 4.12 140 19:57 20.03.2022
3132 Clear 8 1027 34 10000 7.2 140 19:26 20.03.2022
3133 Clear 10 1027 30 10000 6.69 140 18:19 20.03.2022
3134 Clear 11 1027 28 10000 6.69 140 17:33 20.03.2022
3135 Clear 12 1027 26 10000 6.17 130 16:57 20.03.2022
3136 Clear 13 1027 23 10000 8.75 120 15:28 20.03.2022
3137 Clear 13 1023 27 10000 8.75 150 14:34 20.03.2022
3138 Clear 12 1024 28 10000 9.77 130 12:30 20.03.2022
3139 Clear 11 1024 33 10000 8.23 120 11:22 20.03.2022
3140 Clear 8 1029 38 10000 6.17 130 08:59 20.03.2022
3141 Clear 2 1029 58 10000 5.14 120 07:28 20.03.2022
3142 Clear 2 1016 61 10000 2.06 100 05:40 20.03.2022
3143 Clear 1 1024 63 10000 2.06 80 01:50 20.03.2022
3144 Clear 2 1025 61 10000 3.09 90 00:39 20.03.2022
3145 Clear 3 1029 51 10000 5.14 90 23:19 19.03.2022
3146 Clear 5 1030 42 10000 5.14 90 21:27 19.03.2022
3147 Clear 5 1030 44 10000 5.66 90 20:49 19.03.2022
3148 Clear 7 1030 38 10000 7.72 90 18:58 19.03.2022
3149 Clear 7 1030 37 10000 7.72 90 18:23 19.03.2022
3150 Clear 8 1030 35 10000 8.23 90 17:35 19.03.2022
3151 Clear 10 1030 35 10000 8.75 80 15:44 19.03.2022
3152 Clouds 10 1030 41 10000 8.75 80 14:57 19.03.2022
3153 Clouds 9 1031 54 10000 5.66 60 13:19 19.03.2022
3154 Clouds 8 1032 62 10000 5.66 60 12:40 19.03.2022
3155 Clouds 6 1032 76 10000 4.63 50 11:54 19.03.2022
3156 Clouds 5 1028 84 10000 3.09 50 10:53 19.03.2022
3157 Clouds 3 1034 88 10000 2.06 340 07:59 19.03.2022
3158 Clear 4 1034 89 10000 1.54 10 03:53 19.03.2022
3159 Clear 3 1044 94 10000 1.03 360 02:30 19.03.2022
3160 Clear 4 1035 87 10000 1.54 40 23:46 18.03.2022
3161 Clear 5 1035 82 10000 2.57 30 22:29 18.03.2022
3162 Clear 6 1035 82 10000 2.57 30 21:55 18.03.2022
3163 Clear 8 1034 73 10000 2.57 360 19:54 18.03.2022
3164 Clear 8 1034 72 10000 2.06 360 19:22 18.03.2022
3165 Clouds 9 1033 68 10000 4.12 10 18:27 18.03.2022
3166 Clouds 12 1032 59 10000 4.12 350 16:52 18.03.2022
3167 Clouds 13 1032 57 10000 4.12 350 15:43 18.03.2022
3168 Clouds 12 1032 59 10000 3.6 350 14:25 18.03.2022
3169 Clouds 12 1032 62 10000 4.12 350 12:39 18.03.2022
3170 Clouds 11 1032 66 10000 4.12 340 11:21 18.03.2022
3171 Clouds 8 1031 77 10000 4.12 340 09:34 18.03.2022
3172 Clouds 7 1031 80 9000 3.6 350 08:45 18.03.2022
3173 Clouds 6 1029 88 8000 2.57 330 06:42 18.03.2022
3174 Clouds 7 1028 87 10000 3.09 320 04:38 18.03.2022
3175 Clouds 8 1026 87 7000 3.09 300 00:54 18.03.2022
3176 Clouds 8 1025 85 9000 3.09 290 23:52 17.03.2022
3177 Clouds 8 1025 85 9000 3.09 290 23:52 17.03.2022
3178 Clear 9 1025 81 10000 3.6 280 22:43 17.03.2022
3179 Clear 9 1024 76 10000 4.63 270 22:18 17.03.2022
3180 Clear 9 1023 71 10000 3.09 210 21:27 17.03.2022
3181 Clear 9 1023 69 10000 1.34 204 20:52 17.03.2022
3182 Clear 9 1023 67 10000 1.54 170 20:18 17.03.2022
3183 Clear 10 1022 65 10000 2.06 180 19:37 17.03.2022
3184 Rain 10 1022 62 10000 2.06 160 18:51 17.03.2022
3185 Clear 12 1020 55 10000 2.57 190 17:27 17.03.2022
3186 Clear 13 1020 49 10000 5.14 170 16:19 17.03.2022
3187 Clear 13 1020 49 10000 5.14 170 16:19 17.03.2022
3188 Clear 13 1020 47 10000 5.14 160 15:42 17.03.2022
3189 Clear 14 1019 45 10000 5.14 150 14:58 17.03.2022
3190 Clear 13 1016 52 10000 6.69 150 13:28 17.03.2022
3191 Clear 13 1020 52 10000 7.2 150 12:44 17.03.2022
3192 Clear 12 1020 56 10000 5.66 160 11:32 17.03.2022
3193 Clear 10 1020 61 10000 4.63 150 10:41 17.03.2022
3194 Clear 7 1019 74 10000 3.09 140 08:46 17.03.2022
3195 Clear 7 1019 76 10000 3.6 140 08:18 17.03.2022
3196 Clear 4 1019 85 10000 3.6 140 05:49 17.03.2022
3197 Clear 4 1019 85 10000 2.06 90 04:24 17.03.2022
3198 Clear 5 1019 88 10000 1.79 115 00:25 17.03.2022
3199 Clear 6 1015 85 10000 2.06 120 22:52 16.03.2022
3200 Clear 6 1015 85 10000 2.06 120 22:34 16.03.2022
3201 Clear 6 1019 82 10000 3.09 110 21:55 16.03.2022
3202 Clouds 7 1019 79 10000 3.6 100 20:40 16.03.2022
3203 Clouds 9 1019 70 10000 2.57 100 19:23 16.03.2022
3204 Clouds 10 1019 64 10000 3.09 80 18:42 16.03.2022
3205 Clouds 11 1028 58 10000 3.09 100 17:46 16.03.2022
3206 Clouds 12 1019 59 10000 4.12 70 17:28 16.03.2022
3207 Clouds 12 1027 56 10000 3.6 60 16:21 16.03.2022
3208 Clouds 12 1019 59 10000 2.06 90 14:50 16.03.2022
3209 Clouds 13 1019 59 10000 2.57 30 13:36 16.03.2022
3210 Clouds 12 1019 64 10000 2.57 70 12:55 16.03.2022
3211 Clouds 11 1019 73 10000 3.6 60 11:23 16.03.2022
3212 Clouds 10 1019 78 9000 2.57 40 10:32 16.03.2022
3213 Clouds 9 1019 83 9000 1.54 30 09:56 16.03.2022
3214 Mist 6 1018 92 4000 2.06 320 07:43 16.03.2022
3215 Mist 6 1014 96 2800 2.06 330 02:45 16.03.2022
3216 Rain 7 1012 96 9000 2.57 350 22:56 15.03.2022
3217 Rain 7 1012 95 9000 2.57 350 22:35 15.03.2022
3218 Rain 8 1013 92 10000 3.09 360 20:59 15.03.2022
3219 Rain 8 1013 87 10000 1.54 30 19:46 15.03.2022
3220 Rain 10 1014 68 10000 1.54 70 17:47 15.03.2022
3221 Rain 11 1014 65 10000 2.57 130 16:41 15.03.2022
3222 Clear 12 1015 61 10000 3.09 120 15:38 15.03.2022
3223 Clear 12 1016 60 10000 2.57 130 14:54 15.03.2022
3224 Clouds 13 1017 58 10000 3.09 120 13:56 15.03.2022
3225 Clouds 13 1018 58 10000 4.12 130 13:23 15.03.2022
3226 Clear 11 1015 71 10000 4.12 170 11:34 15.03.2022
3227 Clear 10 1016 76 10000 2.57 160 10:53 15.03.2022
3228 Clear 8 1017 83 10000 1.79 94 09:24 15.03.2022
3229 Clear 6 1009 91 10000 2.06 160 08:27 15.03.2022
3230 Clear 5 1009 93 10000 2.06 160 07:38 15.03.2022
3231 Clear 4 1009 86 10000 1.79 188 06:32 15.03.2022
3232 Clouds 7 1021 83 10000 3.6 220 00:58 15.03.2022
3233 Clouds 6 1021 91 10000 4.02 221 23:30 14.03.2022
3234 Clouds 6 1021 92 10000 3.13 210 22:50 14.03.2022
3235 Clouds 7 1021 92 10000 3.09 230 21:55 14.03.2022
3236 Clouds 7 1021 93 10000 5.14 200 20:59 14.03.2022
3237 Clouds 6 1021 92 10000 3.6 210 20:28 14.03.2022
3238 Rain 6 1021 91 10000 4.12 220 19:32 14.03.2022
3239 Rain 8 1020 79 10000 5.66 260 17:58 14.03.2022
3240 Rain 8 1020 79 10000 5.66 260 17:58 14.03.2022
3241 Clouds 8 1020 75 10000 5.66 260 17:40 14.03.2022
3242 Clouds 11 1018 60 10000 6.69 260 16:33 14.03.2022
3243 Clear 13 1018 41 10000 5.14 240 14:52 14.03.2022
3244 Clear 13 1017 30 10000 5.14 200 13:57 14.03.2022
3245 Clear 11 1026 29 10000 5.14 180 11:27 14.03.2022
3246 Clear 9 1025 31 10000 7.72 180 09:57 14.03.2022
3247 Clear 9 1025 31 10000 7.72 180 09:38 14.03.2022
3248 Clear 8 1024 34 10000 8.23 160 08:58 14.03.2022
3249 Clear 6 1023 34 10000 7.72 160 08:30 14.03.2022
3250 Clear 4 1014 39 10000 6.69 160 06:47 14.03.2022
3251 Clear 5 1013 33 10000 4.63 140 03:36 14.03.2022
3252 Clear 5 1013 32 10000 4.12 140 01:42 14.03.2022
3253 Clear 6 1013 30 10000 5.66 150 00:29 14.03.2022
3254 Clear 8 1012 30 10000 7.2 150 21:55 13.03.2022
3255 Clear 8 1012 31 10000 6.69 140 21:26 13.03.2022
3256 Clear 8 1012 30 10000 5.66 140 20:46 13.03.2022
3257 Clear 8 1012 31 10000 4.12 120 20:23 13.03.2022
3258 Clear 8 1012 30 10000 5.14 120 19:42 13.03.2022
3259 Clear 8 1012 29 10000 4.63 130 19:23 13.03.2022
3260 Clear 9 1012 26 10000 4.63 140 18:45 13.03.2022
3261 Clear 10 1012 27 10000 5.14 140 18:26 13.03.2022
3262 Clear 11 1021 20 10000 4.63 150 17:39 13.03.2022
3263 Clear 12 1021 22 10000 6.17 140 16:46 13.03.2022
3264 Clear 13 1021 22 10000 5.14 130 16:25 13.03.2022
3265 Clear 13 1008 22 10000 6.69 140 15:42 13.03.2022
3266 Clear 12 1008 23 10000 8.23 130 14:49 13.03.2022
3267 Clear 11 1009 24 10000 7.72 140 13:29 13.03.2022
3268 Clear 11 1009 24 10000 6.69 130 12:25 13.03.2022
3269 Clear 11 1013 21 10000 6.69 130 11:45 13.03.2022
3270 Clear 9 1009 25 10000 6.69 160 10:51 13.03.2022
3271 Clear 8 1009 28 10000 7.72 160 10:30 13.03.2022
3272 Clear 7 1013 27 10000 7.72 160 09:43 13.03.2022
3273 Clear 5 1009 34 10000 9.77 160 08:51 13.03.2022
3274 Clear 4 1013 33 10000 9.26 160 08:31 13.03.2022
3275 Clear 2 1013 37 10000 8.23 160 07:37 13.03.2022
3276 Clear 1 1013 41 10000 6.69 140 05:39 13.03.2022
3277 Clear 2 1013 35 10000 6.17 140 01:48 13.03.2022
3278 Clear 3 1014 32 10000 8.23 150 23:30 12.03.2022
3279 Clear 4 1014 29 10000 6.69 160 21:48 12.03.2022
3280 Clear 5 1014 32 10000 5.14 140 20:27 12.03.2022
3281 Clear 5 1014 32 10000 4.92 109 19:46 12.03.2022
3282 Clear 6 1015 30 10000 4.12 130 18:44 12.03.2022
3283 Clear 6 1014 28 10000 5.14 140 18:20 12.03.2022
3284 Clear 10 1011 24 10000 6.17 130 16:32 12.03.2022
3285 Clear 10 1011 25 10000 7.2 140 15:55 12.03.2022
3286 Clear 10 1011 24 10000 7.2 130 15:22 12.03.2022
3287 Clear 10 1011 24 10000 7.2 130 15:22 12.03.2022
3288 Clear 9 1012 25 10000 6.69 150 13:54 12.03.2022
3289 Clear 9 1012 25 10000 8.23 150 12:33 12.03.2022
3290 Clear 8 1012 26 10000 7.72 160 11:55 12.03.2022
3291 Clear 8 1012 26 10000 7.72 160 11:34 12.03.2022
3292 Clear 7 1013 27 10000 8.23 160 10:43 12.03.2022
3293 Clear 6 1017 28 10000 7.72 160 09:44 12.03.2022
3294 Clear 4 1017 31 10000 7.72 160 08:41 12.03.2022
3295 Clear 1 1016 32 10000 6.69 150 06:44 12.03.2022
3296 Clear 2 1017 38 10000 6.17 140 01:44 12.03.2022
3297 Clear 3 1017 35 10000 5.66 140 23:46 11.03.2022
3298 Clear 3 1017 36 10000 6.71 105 22:36 11.03.2022
3299 Clear 3 1017 36 10000 5.66 130 21:26 11.03.2022
3300 Clear 3 1017 38 10000 5.66 130 20:51 11.03.2022
3301 Clear 4 1017 39 10000 5.66 130 20:26 11.03.2022
3302 Clear 4 1017 39 10000 5.36 108 19:36 11.03.2022
3303 Clear 4 1018 39 10000 4.12 120 18:43 11.03.2022
3304 Clear 6 1018 34 10000 7.72 140 17:26 11.03.2022
3305 Clear 8 1018 31 10000 8.23 130 16:26 11.03.2022
3306 Clear 8 1008 34 10000 3.58 161 15:51 11.03.2022
3307 Clear 8 1019 31 10000 8.75 130 14:18 11.03.2022
3308 Clear 6 1015 38 10000 1.34 130 12:43 11.03.2022
3309 Clear 6 1016 39 10000 8.75 140 12:20 11.03.2022
3310 Clear 6 1020 37 10000 8.23 130 11:28 11.03.2022
3311 Clear 3 1019 44 10000 8.23 130 09:37 11.03.2022
3312 Clear 0 1019 48 10000 7.72 140 08:29 11.03.2022
3313 Clear -1 1019 49 10000 6.69 140 07:48 11.03.2022
3314 Clear -1 1019 51 10000 6.17 130 06:55 11.03.2022
3315 Clear -1 1019 47 10000 6.69 130 04:44 11.03.2022
3316 Clear 0 1020 53 10000 6.69 140 01:51 11.03.2022
3317 Clear 2 1021 54 10000 3.09 110 22:51 10.03.2022
3318 Clear 2 1021 54 10000 4.63 110 22:27 10.03.2022
3319 Clear 2 1021 58 10000 4.12 110 21:26 10.03.2022
3320 Clear 3 1021 54 10000 4.12 110 20:39 10.03.2022
3321 Clear 4 1021 54 10000 5.66 100 19:22 10.03.2022
3322 Clear 6 1020 54 10000 6.17 80 18:30 10.03.2022
3323 Clear 8 1029 50 10000 7.2 80 16:53 10.03.2022
3324 Clear 9 1029 50 10000 7.72 90 15:36 10.03.2022
3325 Clear 11 1029 46 10000 7.72 80 14:23 10.03.2022
3326 Clear 11 1017 50 10000 5.66 90 12:46 10.03.2022
3327 Clouds 10 1021 46 10000 4.63 130 11:37 10.03.2022
3328 Clear 7 1017 58 10000 3.6 100 10:19 10.03.2022
3329 Clear 4 1017 66 10000 1.03 0 08:48 10.03.2022
3330 Clear -1 1029 80 10000 0.51 0 05:50 10.03.2022
3331 Clear -1 1028 86 10000 2.57 160 03:33 10.03.2022
3332 Clear 2 1027 75 10000 0.51 130 00:23 10.03.2022
3333 Clear 3 1026 65 10000 2.06 110 22:45 09.03.2022
3334 Clear 4 1026 65 10000 1.54 80 21:48 09.03.2022
3335 Clear 6 1026 56 10000 0 0 20:59 09.03.2022
3336 Clear 4 1026 64 10000 0.82 58 19:28 09.03.2022
3337 Clear 8 1026 55 10000 2.57 300 17:57 09.03.2022
3338 Clear 9 1025 51 10000 2.57 340 17:23 09.03.2022
3339 Clear 10 1025 48 10000 3.6 320 16:23 09.03.2022
3340 Clear 11 1026 47 10000 1.54 0 14:27 09.03.2022
3341 Clear 10 1026 49 10000 2.57 320 13:51 09.03.2022
3342 Clear 9 1026 52 10000 2.06 0 12:36 09.03.2022
3343 Clear 8 1027 52 10000 1.54 0 11:48 09.03.2022
3344 Clear 8 1027 52 10000 1.54 0 11:18 09.03.2022
3345 Clear 4 1026 70 10000 2.06 210 09:41 09.03.2022
3346 Clear 1 1026 74 10000 2.57 210 08:47 09.03.2022
3347 Clear -2 1025 80 10000 1.54 170 06:51 09.03.2022
3348 Clear 1 1005 73 10000 1.03 180 01:54 09.03.2022
3349 Clear 2 1004 66 10000 1.54 140 00:26 09.03.2022
3350 Clear 1 1012 75 10000 1.54 210 22:46 08.03.2022
3351 Clear 2 1012 67 10000 1.54 90 21:52 08.03.2022
3352 Clear 2 1016 67 10000 0.51 110 21:22 08.03.2022
3353 Clouds 1 1025 74 10000 1.52 106 20:24 08.03.2022
3354 Clouds 2 1025 71 10000 1.48 92 19:24 08.03.2022
3355 Clear 5 1025 50 10000 1.54 120 18:23 08.03.2022
3356 Clear 8 1025 45 10000 3.09 70 16:56 08.03.2022
3357 Clear 8 1025 41 10000 3.09 50 14:58 08.03.2022
3358 Clouds 8 1025 41 10000 3.09 80 13:54 08.03.2022
3359 Clear 7 1013 57 10000 3.6 50 12:28 08.03.2022
3360 Clear 6 1013 61 10000 3.6 70 11:43 08.03.2022
3361 Clear 5 1013 68 10000 1.03 0 10:37 08.03.2022
3362 Clear 1 1017 78 10000 0 0 08:58 08.03.2022
3363 Clear -1 1004 85 10000 0.51 0 06:31 08.03.2022
3364 Clear -1 1011 82 10000 1.03 0 04:25 08.03.2022
3365 Clear 1 1026 71 10000 2.57 300 22:57 07.03.2022
3366 Clouds 2 1025 69 10000 2.57 310 21:46 07.03.2022
3367 Clouds 2 1025 68 10000 2.06 300 21:27 07.03.2022
3368 Clouds 2 1025 67 10000 2.06 290 20:39 07.03.2022
3369 Clear 3 1025 64 10000 2.06 310 19:55 07.03.2022
3370 Clear 3 1025 64 10000 2.57 320 19:29 07.03.2022
3371 Clear 4 1025 61 10000 2.57 320 18:40 07.03.2022
3372 Clouds 5 1025 51 10000 2.57 330 17:41 07.03.2022
3373 Clouds 6 1024 55 10000 4.12 340 16:55 07.03.2022
3374 Clouds 7 1015 57 10000 4.63 320 15:27 07.03.2022
3375 Clouds 5 1012 66 10000 5.66 310 12:54 07.03.2022
3376 Clouds 5 1016 62 10000 5.14 310 12:21 07.03.2022
3377 Clouds 3 1013 64 10000 3.6 320 10:36 07.03.2022
3378 Clouds 1 1017 74 10000 2.06 300 08:39 07.03.2022
3379 Clouds -1 1025 73 10000 2.57 320 03:41 07.03.2022
3380 Clouds -1 1016 69 10000 1.54 340 00:22 07.03.2022
3381 Clouds -1 1016 69 10000 1.54 330 23:31 06.03.2022
3382 Clouds 0 1016 69 10000 1.54 340 22:37 06.03.2022
3383 Clouds -1 1016 69 10000 2.57 340 21:46 06.03.2022
3384 Clouds 0 1016 67 10000 2.06 360 20:30 06.03.2022
3385 Clouds 0 1015 65 10000 2.57 10 19:51 06.03.2022
3386 Clouds 0 1015 63 10000 2.06 360 18:51 06.03.2022
3387 Clouds 1 1015 61 10000 3.09 360 17:57 06.03.2022
3388 Clouds 1 1015 61 10000 3.09 350 17:21 06.03.2022
3389 Clouds 1 1015 59 10000 3.6 340 16:41 06.03.2022
3390 Clouds 1 1010 62 10000 3.09 360 15:45 06.03.2022
3391 Clouds 2 1003 61 10000 3.09 320 14:49 06.03.2022
3392 Clouds 2 1010 61 10000 3.6 350 14:30 06.03.2022
3393 Clouds 1 1015 62 10000 3.09 340 12:50 06.03.2022
3394 Clouds 2 1015 62 10000 3.6 340 11:56 06.03.2022
3395 Clouds 2 1015 62 10000 3.09 350 10:52 06.03.2022
3396 Clouds 1 1015 72 10000 2.57 330 09:54 06.03.2022
3397 Clouds -1 1025 78 10000 2.06 10 08:29 06.03.2022
3398 Clouds -1 1024 82 10000 1.54 350 07:34 06.03.2022
3399 Clouds -1 1015 83 10000 1.54 330 04:46 06.03.2022
3400 Clouds -1 1010 80 10000 2.06 40 00:44 06.03.2022
3401 Clear -1 1010 80 10000 1.03 130 00:25 06.03.2022
3402 Clear -1 1015 80 10000 2.06 120 23:20 05.03.2022
3403 Clouds -1 1024 77 10000 2.06 80 22:43 05.03.2022
3404 Clouds -1 1025 80 10000 2.06 130 21:45 05.03.2022
3405 Clear 0 1025 79 10000 2.57 130 21:20 05.03.2022
3406 Clouds 1 1024 71 10000 1.03 330 19:24 05.03.2022
3407 Clear 1 1023 69 10000 0.51 330 18:53 05.03.2022
3408 Clouds 3 1023 63 10000 1.03 50 17:53 05.03.2022
3409 Clouds 4 1014 63 10000 1.54 70 16:32 05.03.2022
3410 Clouds 5 1014 58 10000 2.06 40 15:31 05.03.2022
3411 Clouds 5 1010 62 10000 2.06 60 14:45 05.03.2022
3412 Clouds 5 1010 61 10000 2.57 120 14:26 05.03.2022
3413 Clouds 5 1011 69 10000 4.12 80 13:21 05.03.2022
3414 Clouds 3 1011 79 10000 1.54 50 11:48 05.03.2022
3415 Clear 3 1025 82 10000 1.54 50 11:18 05.03.2022
3416 Clear 2 1015 87 10000 0.51 0 09:59 05.03.2022
3417 Fog 0 1015 91 7000 0.51 0 08:59 05.03.2022
3418 Fog 0 1011 90 6000 0.51 0 07:38 05.03.2022
3419 Clouds -1 1024 91 10000 0.51 170 05:43 05.03.2022
3420 Clear -1 1015 91 10000 0.51 0 02:27 05.03.2022
3421 Clouds 0 1024 86 10000 1.03 50 23:37 04.03.2022
3422 Clouds 1 1025 84 10000 1.03 360 22:42 04.03.2022
3423 Clouds 1 1024 84 10000 0.51 0 21:49 04.03.2022
3424 Clouds 1 1024 82 10000 1.03 10 20:54 04.03.2022
3425 Clouds 1 1015 84 10000 1.54 20 20:27 04.03.2022
3426 Clouds 1 1011 85 10000 1.54 360 19:36 04.03.2022
3427 Clouds 2 1015 83 10000 1.54 340 18:45 04.03.2022
3428 Clouds 2 1015 83 10000 2.06 360 17:39 04.03.2022
3429 Clouds 2 1015 84 10000 2.57 10 16:54 04.03.2022
3430 Clouds 2 1014 87 10000 1.54 350 15:30 04.03.2022
3431 Clouds 2 1014 89 10000 1.03 0 14:33 04.03.2022
3432 Mist 1 1015 92 1600 2.06 340 13:26 04.03.2022
3433 Fog 1 1014 93 700 3.09 340 11:54 04.03.2022
3434 Fog 1 1014 93 550 3.09 340 10:54 04.03.2022
3435 Fog 1 1014 93 400 2.57 340 09:58 04.03.2022
3436 Fog 0 1014 93 300 2.57 330 08:40 04.03.2022
3437 Fog 0 1013 93 550 2.57 330 07:38 04.03.2022
3438 Clouds 0 1013 90 10000 2.06 320 04:31 04.03.2022
3439 Clouds 0 1013 90 8000 1.54 290 00:41 04.03.2022
3440 Clouds 0 1013 88 8000 1.54 320 22:39 03.03.2022
3441 Clear -1 1022 88 10000 1.03 0 21:50 03.03.2022
3442 Clear 0 1022 85 10000 1.03 0 21:29 03.03.2022
3443 Clear 1 1012 83 10000 2.57 20 20:21 03.03.2022
3444 Clear 2 1011 72 10000 2.57 20 18:57 03.03.2022
3445 Clear 3 1011 66 10000 3.6 50 18:24 03.03.2022
3446 Clear 5 1019 56 10000 4.12 20 17:31 03.03.2022
3447 Clear 7 1019 45 10000 3.09 350 16:26 03.03.2022
3448 Clear 8 1010 44 10000 4.12 340 15:41 03.03.2022
3449 Clear 8 1019 43 10000 2.57 340 14:44 03.03.2022
3450 Clear 8 1010 44 10000 3.6 320 14:25 03.03.2022
3451 Clear 6 1007 51 10000 2.57 350 12:28 03.03.2022
3452 Clear 4 1020 67 10000 2.57 300 10:56 03.03.2022
3453 Clear 2 1021 70 10000 1.03 0 09:58 03.03.2022
3454 Clear 0 999 77 10000 1.54 220 08:42 03.03.2022
3455 Clear -2 999 79 10000 1.54 200 06:54 03.03.2022
3456 Clear -1 1000 77 10000 2.06 220 05:22 03.03.2022
3457 Clear -1 1009 73 10000 2.57 220 23:48 02.03.2022
3458 Clear 0 1002 71 10000 1.03 0 22:54 02.03.2022
3459 Clear 0 1002 70 10000 1.03 0 22:33 02.03.2022
3460 Clear 1 1010 69 10000 0.51 30 20:59 02.03.2022
3461 Clear 1 1010 68 10000 0.51 0 20:25 02.03.2022
3462 Clear 1 1023 64 10000 1.54 40 19:41 02.03.2022
3463 Clear 2 1023 64 10000 1.03 90 19:23 02.03.2022
3464 Clear 3 1023 56 10000 2.06 90 18:35 02.03.2022
3465 Clear 6 1023 47 10000 3.09 50 17:45 02.03.2022
3466 Clear 7 1023 38 10000 0.51 0 16:53 02.03.2022
3467 Clear 8 1023 35 10000 1.54 130 16:18 02.03.2022
3468 Clear 8 1024 42 10000 1.03 0 14:32 02.03.2022
3469 Clear 8 1011 47 10000 1.54 0 13:18 02.03.2022
3470 Clear 7 1016 46 10000 1.54 40 12:39 02.03.2022
3471 Clear 5 1026 61 10000 1.03 0 11:28 02.03.2022
3472 Clear 4 1012 63 10000 1.03 0 10:58 02.03.2022
3473 Clouds 4 1009 54 10000 0.89 190 09:40 02.03.2022
3474 Clear 1 1006 72 10000 0.51 0 08:50 02.03.2022
3475 Clear -1 1006 75 10000 1.03 140 07:25 02.03.2022
3476 Clear -1 1006 74 10000 1.54 170 05:43 02.03.2022
3477 Clear 0 1008 71 10000 1.79 171 00:57 02.03.2022
3478 Clear -1 1015 72 10000 1.79 117 23:45 01.03.2022
3479 Clear -1 1015 75 10000 2.06 150 22:42 01.03.2022
3480 Clear -1 1016 74 10000 2.57 90 21:56 01.03.2022
3481 Clear 0 1016 74 10000 2.06 120 21:21 01.03.2022
3482 Clear 1 1016 68 10000 1.03 0 20:24 01.03.2022
3483 Clear 1 1018 61 10000 0.89 186 19:23 01.03.2022
3484 Clear 2 1021 61 10000 1.54 150 18:35 01.03.2022
3485 Clear 4 1021 54 10000 2.06 150 17:55 01.03.2022
3486 Clear 7 1030 41 10000 3.6 140 16:54 01.03.2022
3487 Clear 7 1016 45 10000 3.09 170 16:30 01.03.2022
3488 Clear 8 1017 40 10000 2.57 140 15:32 01.03.2022
3489 Clear 8 1017 43 10000 3.09 110 14:34 01.03.2022
3490 Clear 7 1018 44 10000 3.6 150 13:45 01.03.2022
3491 Clear 7 1018 44 10000 2.24 125 13:22 01.03.2022
3492 Clear 7 1019 46 10000 3.6 190 12:27 01.03.2022
3493 Clear 4 1020 53 10000 5.14 160 10:32 01.03.2022
3494 Clear 1 1021 65 10000 3.09 160 08:41 01.03.2022
3495 Clear -1 1012 72 10000 4.12 160 07:40 01.03.2022
3496 Clear -3 1020 76 10000 5.36 107 05:49 01.03.2022
3497 Clear -2 1021 74 10000 3.09 150 01:48 01.03.2022
3498 Clear -2 1022 74 10000 2.06 140 00:24 01.03.2022
3499 Clear -1 1022 72 10000 2.57 150 23:19 28.02.2022
3500 Clear -1 1022 71 10000 3.6 140 21:59 28.02.2022
3501 Clear 0 1022 70 10000 3.6 130 21:24 28.02.2022
3502 Clear 1 1022 63 10000 3.6 100 19:53 28.02.2022
3503 Clear 1 1036 58 10000 3.6 100 19:33 28.02.2022
3504 Clear 1 1026 56 10000 4.63 110 18:40 28.02.2022
3505 Clear 3 1026 49 10000 4.63 90 17:30 28.02.2022
3506 Clear 5 1026 48 10000 6.17 90 16:33 28.02.2022
3507 Clouds 6 1025 44 10000 6.17 80 15:23 28.02.2022
3508 Clouds 6 1035 43 10000 6.17 80 14:31 28.02.2022
3509 Clouds 6 1026 48 10000 6.17 80 13:47 28.02.2022
3510 Clouds 5 1022 59 10000 4.63 80 12:47 28.02.2022
3511 Clouds 4 1022 70 10000 3.6 70 11:57 28.02.2022
3512 Clouds 3 1026 70 10000 2.57 60 10:48 28.02.2022
3513 Clouds 2 1022 78 10000 2.57 90 10:20 28.02.2022
3514 Clouds 1 1026 79 10000 3.09 100 09:33 28.02.2022
3515 Clouds 0 1026 88 10000 2.06 60 08:32 28.02.2022
3516 Clouds -1 1021 90 7000 2.06 70 07:35 28.02.2022
3517 Clouds -1 1021 91 8000 0.51 0 05:21 28.02.2022
3518 Clouds -1 1021 88 8000 1.54 50 04:27 28.02.2022
3519 Mist 0 1026 91 3000 1.34 98 23:45 27.02.2022
3520 Mist 0 1022 90 3800 3.6 80 22:36 27.02.2022
3521 Clouds 0 1036 88 6000 3.09 70 21:52 27.02.2022
3522 Clear 1 1036 86 8000 4.12 80 21:27 27.02.2022
3523 Clouds 2 1026 78 10000 3.6 80 20:37 27.02.2022
3524 Clouds 2 1026 74 10000 3.09 70 19:59 27.02.2022
3525 Clear 3 1026 70 10000 2.57 70 19:27 27.02.2022
3526 Clear 3 1026 70 10000 2.57 70 19:27 27.02.2022
3527 Clear 4 1026 69 10000 3.09 90 18:48 27.02.2022
3528 Clear 5 1026 62 10000 3.6 70 17:57 27.02.2022
3529 Clouds 6 1035 58 10000 4.63 70 17:26 27.02.2022
3530 Clouds 7 1035 50 10000 4.63 70 16:22 27.02.2022
3531 Clouds 8 1022 50 10000 4.63 50 13:49 27.02.2022
3532 Clear 8 1023 50 10000 4.12 100 12:35 27.02.2022
3533 Clouds 7 1027 51 10000 5.14 110 11:28 27.02.2022
3534 Clouds 6 1023 63 10000 4.12 130 10:36 27.02.2022
3535 Clear 5 1024 81 10000 2.57 100 09:52 27.02.2022
3536 Mist 3 1027 88 3300 1.54 90 09:21 27.02.2022
3537 Fog 2 1027 91 200 2.24 102 08:38 27.02.2022
3538 Clear 1 1036 90 8000 0 0 05:41 27.02.2022
3539 Clear 2 1036 88 10000 0.51 0 02:57 27.02.2022
3540 Clouds 3 1026 84 10000 1.54 320 23:51 26.02.2022
3541 Clouds 3 1036 83 10000 1.54 290 22:42 26.02.2022
3542 Clouds 3 1026 83 10000 1.54 280 21:26 26.02.2022
3543 Clouds 3 1026 83 10000 1.03 0 20:41 26.02.2022
3544 Clouds 4 1025 79 10000 0.51 0 19:55 26.02.2022
3545 Clouds 4 1025 79 10000 0.51 0 19:33 26.02.2022
3546 Clouds 4 1025 77 10000 1.54 330 18:33 26.02.2022
3547 Clouds 5 1024 75 10000 1.54 340 17:34 26.02.2022
3548 Clouds 5 1024 73 10000 3.09 340 16:39 26.02.2022
3549 Clouds 6 1024 74 10000 3.6 320 15:37 26.02.2022
3550 Clouds 6 1024 75 10000 4.63 320 15:18 26.02.2022
3551 Clouds 6 1024 74 10000 4.63 330 14:41 26.02.2022
3552 Clouds 5 1024 76 10000 4.12 340 13:53 26.02.2022
3553 Clouds 6 1023 76 10000 4.12 340 12:53 26.02.2022
3554 Clouds 5 1023 79 10000 4.63 330 11:52 26.02.2022
3555 Clouds 5 1023 82 10000 3.6 320 11:25 26.02.2022
3556 Clouds 4 1022 87 10000 3.09 330 10:19 26.02.2022
3557 Clouds 3 1021 88 10000 5.14 310 08:35 26.02.2022
3558 Clouds 3 1020 84 10000 4.63 290 06:40 26.02.2022
3559 Clouds 3 1015 88 10000 5.66 290 00:25 26.02.2022
3560 Clouds 4 1014 84 10000 5.14 260 22:43 25.02.2022
3561 Clouds 3 1014 81 10000 5.81 236 21:33 25.02.2022
3562 Clouds 4 1013 80 10000 6.26 231 20:57 25.02.2022
3563 Clear 4 1013 81 10000 4.63 250 20:28 25.02.2022
3564 Clouds 3 1012 85 10000 4.12 230 18:18 25.02.2022
3565 Clouds 3 1012 86 10000 6.17 260 17:20 25.02.2022
3566 Clouds 7 1011 54 10000 5.81 218 16:19 25.02.2022
3567 Clouds 7 1011 53 10000 5.66 250 15:42 25.02.2022
3568 Clouds 7 1011 53 10000 8.05 227 15:18 25.02.2022
3569 Clouds 7 1007 55 10000 7.72 240 14:39 25.02.2022
3570 Clouds 7 1011 54 10000 6.69 250 13:36 25.02.2022
3571 Clouds 7 1011 56 10000 7.72 250 12:42 25.02.2022
3572 Clouds 6 1011 58 10000 7.2 260 11:23 25.02.2022
3573 Clouds 6 1011 62 10000 6.71 237 10:28 25.02.2022
3574 Clouds 5 1011 66 10000 6.69 250 09:53 25.02.2022
3575 Clouds 3 1010 76 10000 6.26 240 08:44 25.02.2022
3576 Clouds 3 1010 82 10000 5.14 250 07:37 25.02.2022
3577 Clouds 3 1008 81 10000 4.12 250 05:47 25.02.2022
3578 Clouds 3 1006 86 10000 4.92 239 02:58 25.02.2022
3579 Rain 5 1003 81 10000 7.2 280 23:42 24.02.2022
3580 Clouds 9 1000 65 10000 6.17 230 21:56 24.02.2022
3581 Clouds 9 1000 66 10000 7.15 239 21:37 24.02.2022
3582 Clouds 9 999 65 10000 6.69 210 21:18 24.02.2022
3583 Clear 9 1000 67 10000 8.75 190 19:38 24.02.2022
3584 Clear 9 1000 67 10000 6.69 180 18:43 24.02.2022
3585 Clouds 9 1000 65 10000 7.72 180 18:18 24.02.2022
3586 Clouds 9 1001 64 10000 7.2 180 17:33 24.02.2022
3587 Clouds 9 1001 64 10000 7.2 180 17:33 24.02.2022
3588 Clear 9 1001 61 10000 7.2 180 16:49 24.02.2022
3589 Clear 9 1002 61 10000 5.66 180 16:23 24.02.2022
3590 Clouds 11 1002 54 10000 5.14 220 14:54 24.02.2022
3591 Clouds 11 999 58 10000 5.14 220 14:35 24.02.2022
3592 Clouds 11 1004 54 10000 5.14 230 13:39 24.02.2022
3593 Clouds 11 1005 51 10000 5.36 204 12:54 24.02.2022
3594 Clear 10 1007 55 10000 6.17 180 10:41 24.02.2022
3595 Clear 10 1007 55 10000 6.17 180 10:41 24.02.2022
3596 Clear 5 1017 70 10000 6.17 160 09:24 24.02.2022
3597 Clear 4 997 77 10000 5.14 160 08:41 24.02.2022
3598 Clear 1 999 88 10000 4.12 160 05:58 24.02.2022
3599 Clear 2 1009 78 10000 0.51 0 01:58 24.02.2022
3600 Clear 4 1002 67 10000 3.6 160 23:40 23.02.2022
3601 Clear 4 1011 75 10000 4.12 170 21:53 23.02.2022
3602 Clear 4 1012 75 10000 3.6 210 20:32 23.02.2022
3603 Clear 5 1012 72 10000 2.57 220 19:49 23.02.2022
3604 Clear 7 1012 66 10000 1.54 250 18:42 23.02.2022
3605 Clouds 8 1012 65 10000 3.6 280 17:46 23.02.2022
3606 Clouds 10 1016 54 10000 7.2 290 15:28 23.02.2022
3607 Clouds 10 1012 59 10000 7.2 290 13:34 23.02.2022
3608 Clouds 9 1016 61 10000 6.69 300 12:26 23.02.2022
3609 Clouds 8 1015 69 10000 10.29 300 10:45 23.02.2022
3610 Clouds 7 1014 73 10000 6.17 280 09:31 23.02.2022
3611 Clouds 6 1013 76 10000 6.17 280 08:28 23.02.2022
3612 Clouds 6 1012 77 10000 1.79 92 07:19 23.02.2022
3613 Clouds 6 1012 77 10000 6.17 280 07:19 23.02.2022
3614 Clouds 7 1006 81 10000 6.17 280 02:22 23.02.2022
3615 Rain 7 1004 84 10000 8.94 235 23:46 22.02.2022
3616 Clouds 7 1003 84 10000 7.2 240 23:28 22.02.2022
3617 Clouds 7 1004 76 10000 6.26 228 22:28 22.02.2022
3618 Clouds 6 1004 77 10000 6.26 226 21:40 22.02.2022
3619 Clouds 6 1005 80 10000 5.66 230 21:19 22.02.2022
3620 Rain 6 1005 76 10000 6.26 218 20:31 22.02.2022
3621 Rain 6 1006 72 10000 5.14 230 19:56 22.02.2022
3622 Clouds 6 1006 69 10000 5.14 230 19:33 22.02.2022
3623 Clouds 6 1006 66 10000 4.12 230 18:35 22.02.2022
3624 Clouds 6 1007 63 10000 3.6 260 17:27 22.02.2022
3625 Clouds 7 1007 63 10000 5.66 270 16:55 22.02.2022
3626 Clouds 7 1007 61 10000 5.66 280 16:20 22.02.2022
3627 Clouds 7 1008 59 10000 5.81 241 15:22 22.02.2022
3628 Clouds 7 1008 60 10000 6.69 290 14:28 22.02.2022
3629 Clouds 6 1006 72 10000 7.2 290 11:38 22.02.2022
3630 Clouds 4 1005 78 10000 6.69 300 09:45 22.02.2022
3631 Clouds 4 1003 83 10000 0.45 290 07:30 22.02.2022
3632 Clouds 4 1002 84 10000 9.26 300 06:54 22.02.2022
3633 Clouds 4 998 87 10000 5.66 270 02:51 22.02.2022
3634 Clouds 4 995 85 10000 7.2 300 23:42 21.02.2022
3635 Clouds 4 994 89 10000 8.75 300 22:37 21.02.2022
3636 Clouds 5 987 87 9000 7.72 270 21:21 21.02.2022
3637 Clouds 6 984 65 10000 8.23 240 18:58 21.02.2022
3638 Clear 7 984 59 10000 9.77 240 18:39 21.02.2022
3639 Clouds 7 985 51 10000 7.2 240 16:30 21.02.2022
3640 Clouds 8 999 48 10000 10.29 260 14:23 21.02.2022
3641 Clouds 8 1000 55 10000 8.75 260 13:40 21.02.2022
3642 Clouds 8 1000 53 10000 1.79 294 12:46 21.02.2022
3643 Clouds 7 1000 55 10000 9.77 260 12:21 21.02.2022
3644 Clouds 6 999 68 10000 7.2 260 10:31 21.02.2022
3645 Clouds 6 983 77 10000 8.94 234 07:51 21.02.2022
3646 Rain 10 989 73 10000 11.83 220 00:36 21.02.2022
3647 Rain 9 992 76 10000 9.26 230 22:37 20.02.2022
3648 Rain 9 993 78 10000 9.26 230 21:44 20.02.2022
3649 Rain 9 994 77 10000 8.75 230 21:25 20.02.2022
3650 Rain 9 995 78 10000 9.83 225 20:45 20.02.2022
3651 Clouds 9 995 73 10000 8.75 230 19:51 20.02.2022
3652 Clouds 9 996 72 10000 8.23 230 18:57 20.02.2022
3653 Clouds 9 996 72 10000 8.23 230 18:37 20.02.2022
3654 Clouds 9 997 73 10000 9.77 240 17:56 20.02.2022
3655 Clouds 9 997 74 10000 8.75 240 17:24 20.02.2022
3656 Clouds 8 999 81 10000 8.49 224 15:28 20.02.2022
3657 Rain 7 1000 83 10000 7.15 227 13:59 20.02.2022
3658 Rain 8 1001 73 10000 7.72 260 12:49 20.02.2022
3659 Clouds 9 1002 62 10000 7.2 270 11:56 20.02.2022
3660 Clouds 7 1002 69 10000 7.72 280 10:21 20.02.2022
3661 Clouds 6 1002 74 10000 7.2 270 09:51 20.02.2022
3662 Rain 6 999 77 10000 1.34 265 06:30 20.02.2022
3663 Rain 5 1003 58 10000 4.63 210 00:33 20.02.2022
3664 Clear 5 1004 59 10000 6.17 210 23:39 19.02.2022
3665 Clear 4 1005 60 10000 5.14 220 22:25 19.02.2022
3666 Clear 4 1005 61 10000 4.63 220 21:52 19.02.2022
3667 Clear 5 1005 57 10000 4.63 220 20:45 19.02.2022
3668 Clear 4 1005 58 10000 4.12 220 19:36 19.02.2022
3669 Clear 5 1006 59 10000 4.12 220 18:41 19.02.2022
3670 Clear 6 1002 59 10000 5.66 270 17:59 19.02.2022
3671 Clear 6 1001 56 10000 5.66 270 17:33 19.02.2022
3672 Clouds 8 1005 49 10000 9.26 270 15:59 19.02.2022
3673 Clouds 8 1005 47 10000 9.77 270 14:56 19.02.2022
3674 Clouds 8 1004 49 10000 9.26 270 13:58 19.02.2022
3675 Clouds 8 1003 47 10000 12.35 270 11:59 19.02.2022
3676 Clouds 8 1003 47 10000 12.35 270 11:36 19.02.2022
3677 Clouds 7 1000 53 10000 10.8 260 09:27 19.02.2022
3678 Clear 6 996 55 10000 10.29 260 06:51 19.02.2022
3679 Clear 8 992 48 10000 10.29 260 01:39 19.02.2022
3680 Clear 10 985 53 10000 10.29 260 22:54 18.02.2022
3681 Clouds 11 978 67 10000 9.83 242 21:28 18.02.2022
3682 Clouds 12 982 70 10000 9.39 218 20:31 18.02.2022
3683 Clouds 11 982 76 10000 8.49 196 19:51 18.02.2022
3684 Clouds 10 983 80 10000 10.8 190 18:49 18.02.2022
3685 Clouds 10 983 83 10000 9.26 180 18:19 18.02.2022
3686 Clouds 9 978 86 10000 8.05 218 17:21 18.02.2022
3687 Rain 7 993 88 10000 6.17 160 14:47 18.02.2022
3688 Rain 7 995 85 10000 5.66 180 13:54 18.02.2022
3689 Rain 9 997 67 10000 4.63 190 12:51 18.02.2022
3690 Rain 9 999 63 10000 4.12 220 11:58 18.02.2022
3691 Rain 9 999 63 10000 4.12 220 11:58 18.02.2022
3692 Rain 9 999 62 10000 4.63 230 11:21 18.02.2022
3693 Clear 8 1001 66 10000 4.63 230 09:33 18.02.2022
3694 Clear 6 1001 72 10000 4.12 260 06:52 18.02.2022
3695 Clouds 5 997 71 10000 5.81 242 05:38 18.02.2022
3696 Clear 6 999 70 10000 7.72 290 22:47 17.02.2022
3697 Clouds 7 998 68 10000 10.28 243 21:44 17.02.2022
3698 Clear 7 997 64 10000 8.23 290 20:59 17.02.2022
3699 Clear 7 997 62 10000 8.23 290 20:34 17.02.2022
3700 Clear 7 995 59 10000 10.29 290 19:48 17.02.2022
3701 Clear 8 994 54 10000 7.72 280 18:38 17.02.2022
3702 Clear 8 993 55 10000 8.23 270 17:50 17.02.2022
3703 Clouds 9 992 56 10000 11.32 280 16:20 17.02.2022
3704 Clouds 9 992 57 10000 11.32 280 16:20 17.02.2022
3705 Clouds 10 991 55 10000 11.83 280 15:30 17.02.2022
3706 Clouds 10 986 61 10000 11.32 280 14:25 17.02.2022
3707 Clouds 9 984 62 10000 12.86 280 12:35 17.02.2022
3708 Clouds 9 983 66 10000 12.86 270 11:21 17.02.2022
3709 Clouds 8 981 83 10000 10.8 280 08:43 17.02.2022
3710 Rain 13 978 71 10000 9.77 230 00:31 17.02.2022
3711 Rain 12 981 75 10000 11.32 230 22:59 16.02.2022
3712 Rain 11 984 74 10000 9.39 202 21:25 16.02.2022
3713 Clouds 11 985 76 10000 8.23 220 19:46 16.02.2022
3714 Rain 10 990 74 10000 8.23 230 18:38 16.02.2022
3715 -273 0 0 0 0 0 17:48 16.02.2022
3716 Clouds 10 990 72 10000 8.49 218 15:36 16.02.2022
3717 Clouds 9 990 76 10000 9.39 233 14:59 16.02.2022
3718 Rain 9 993 70 10000 10.8 220 12:35 16.02.2022
3719 Rain 9 1002 68 10000 7.72 200 11:55 16.02.2022
3720 Rain 9 1003 70 10000 8.23 210 11:24 16.02.2022
3721 Clouds 8 991 74 10000 8.75 210 10:30 16.02.2022
3722 Clouds 6 998 76 10000 7.2 190 07:21 16.02.2022
3723 Clear 5 999 76 10000 6.17 200 05:20 16.02.2022
3724 Clear 4 1003 76 10000 6.69 210 23:44 15.02.2022
3725 Clouds 5 1004 77 10000 5.14 220 22:28 15.02.2022
3726 Clouds 6 1004 79 10000 5.14 220 21:46 15.02.2022
3727 Clear 6 1004 80 10000 4.63 220 21:27 15.02.2022
3728 Clouds 6 1004 78 10000 4.47 200 20:56 15.02.2022
3729 Clouds 6 1004 80 10000 3.09 220 19:57 15.02.2022
3730 Clouds 7 1004 79 10000 2.57 220 18:56 15.02.2022
3731 Clouds 8 1004 80 10000 2.06 260 18:21 15.02.2022
3732 Clouds 8 1004 80 10000 2.57 290 17:49 15.02.2022
3733 Clouds 9 1012 67 10000 1.54 270 16:38 15.02.2022
3734 Clouds 10 1003 66 10000 3.09 270 15:28 15.02.2022
3735 Clouds 10 1003 66 10000 3.13 277 13:27 15.02.2022
3736 Clouds 10 1003 67 10000 3.6 230 12:37 15.02.2022
3737 Clouds 10 1003 68 10000 4.12 230 11:40 15.02.2022
3738 Clear 5 1000 83 10000 3.6 200 09:31 15.02.2022
3739 Clear 4 1001 80 10000 5.14 180 06:58 15.02.2022
3740 Rain 5 997 80 10000 4.12 200 05:32 15.02.2022
3741 Clear 5 1000 74 10000 5.66 160 23:33 14.02.2022
3742 Rain 6 1000 64 10000 7.2 170 21:47 14.02.2022
3743 Clear 6 999 64 10000 6.69 170 20:40 14.02.2022
3744 Clear 6 999 61 10000 6.69 170 19:44 14.02.2022
3745 Clear 6 999 61 10000 6.69 170 19:25 14.02.2022
3746 Clear 5 999 65 10000 8.23 170 18:23 14.02.2022
3747 Clear 6 999 62 10000 7.2 170 17:26 14.02.2022
3748 Clear 8 999 56 10000 7.2 170 16:25 14.02.2022
3749 Clear 8 1008 50 10000 8.23 170 14:39 14.02.2022
3750 Clear 8 1009 47 10000 7.2 160 13:34 14.02.2022
3751 Clear 8 1009 52 10000 8.23 160 12:55 14.02.2022
3752 Clear 7 1009 52 10000 7.72 150 11:55 14.02.2022
3753 Clear 6 1009 54 10000 8.23 150 11:18 14.02.2022
3754 Clear 3 1010 66 10000 7.2 150 09:19 14.02.2022
3755 Clear 1 1010 72 10000 7.2 150 07:33 14.02.2022
3756 Clear 1 1010 73 10000 8.23 160 06:32 14.02.2022
3757 Clear 4 1001 74 10000 5.14 160 22:43 13.02.2022
3758 Clear 4 1001 69 10000 4.12 160 22:25 13.02.2022
3759 Clear 4 1001 71 10000 4.12 160 21:48 13.02.2022
3760 Clear 4 1002 71 10000 4.12 150 20:42 13.02.2022
3761 Clear 4 1006 71 10000 4.63 160 19:51 13.02.2022
3762 Clear 4 1007 67 10000 4.63 170 18:56 13.02.2022
3763 Clear 5 1007 67 10000 4.63 170 18:38 13.02.2022
3764 Clear 7 1017 59 10000 4.63 170 16:39 13.02.2022
3765 Clear 9 1017 54 10000 3.6 180 15:42 13.02.2022
3766 Clear 9 1018 55 10000 3.6 180 14:38 13.02.2022
3767 Clear 8 1006 57 10000 4.92 194 13:26 13.02.2022
3768 Clear 8 1006 56 10000 5.14 190 12:40 13.02.2022
3769 Clear 6 1011 59 10000 5.66 170 10:39 13.02.2022
3770 Clear 3 1011 67 10000 5.14 160 09:49 13.02.2022
3771 Clear 0 1012 80 10000 3.09 140 08:33 13.02.2022
3772 Clear 1 1015 77 10000 4.12 160 01:26 13.02.2022
3773 Clear 2 1016 75 10000 3.09 170 00:21 13.02.2022
3774 Clear 3 1005 76 10000 4.63 170 22:34 12.02.2022
3775 Clear 3 1006 77 10000 2.57 160 22:00 12.02.2022
3776 Clear 3 1006 79 10000 3.09 170 20:55 12.02.2022
3777 Clear 2 1013 78 10000 2.06 150 20:23 12.02.2022
3778 Clear 2 1019 79 10000 1.54 130 18:54 12.02.2022
3779 Clear 2 1019 78 10000 1.54 130 18:36 12.02.2022
3780 Clear 3 1020 75 10000 2.06 160 17:39 12.02.2022
3781 Clouds 4 1020 70 10000 6.17 180 16:46 12.02.2022
3782 Clouds 6 1021 65 10000 4.12 170 15:53 12.02.2022
3783 Clouds 6 1021 62 10000 4.12 160 15:21 12.02.2022
3784 Clouds 6 1018 67 10000 3.6 180 14:29 12.02.2022
3785 Clouds 4 1020 73 10000 3.09 210 11:34 12.02.2022
3786 Clear 3 1021 82 10000 3.09 200 10:33 12.02.2022
3787 Clouds 1 1021 87 10000 2.57 190 09:38 12.02.2022
3788 Clouds 0 1021 92 10000 2.24 191 08:47 12.02.2022
3789 Clear -1 1021 92 10000 2.57 190 07:47 12.02.2022
3790 Clear 0 1021 90 10000 1.54 290 05:31 12.02.2022
3791 Clouds 1 1024 86 10000 1.54 270 02:19 12.02.2022
3792 Clouds 3 1023 91 10000 6.17 300 23:56 11.02.2022
3793 Clouds 3 1022 91 10000 4.02 282 22:24 11.02.2022
3794 Clouds 3 1021 92 10000 4.63 310 21:37 11.02.2022
3795 Clouds 4 1020 90 10000 4.12 330 20:37 11.02.2022
3796 Clouds 4 1018 92 8000 4.12 300 19:31 11.02.2022
3797 Mist 4 1017 91 5000 3.09 260 18:47 11.02.2022
3798 Clouds 4 1016 88 10000 4.12 260 17:27 11.02.2022
3799 Clouds 4 1016 86 10000 4.12 260 16:58 11.02.2022
3800 Clouds 4 1014 84 10000 4.63 270 15:33 11.02.2022
3801 Clouds 5 1014 81 10000 7.15 238 14:38 11.02.2022
3802 Clouds 5 1013 79 10000 7.72 260 14:20 11.02.2022
3803 Clouds 4 1013 79 10000 6.17 260 13:50 11.02.2022
3804 Clouds 4 1013 81 10000 5.66 240 13:31 11.02.2022
3805 Clouds 3 1009 92 10000 4.12 250 11:27 11.02.2022
3806 Snow 2 1013 93 1400 4.63 290 09:39 11.02.2022
3807 Mist 2 1011 93 2300 3.6 290 08:39 11.02.2022
3808 Mist 2 1011 94 1600 3.6 300 08:21 11.02.2022
3809 Rain 3 1009 91 10000 2.57 310 06:32 11.02.2022
3810 Drizzle 5 1010 92 10000 1.54 320 02:25 11.02.2022
3811 Rain 6 979 94 6560 2.09 299 00:46 11.02.2022
3812 Clouds 7 1006 89 9000 4.02 293 22:45 10.02.2022
3813 Clouds 7 1011 87 10000 3.58 215 21:44 10.02.2022
3814 Clouds 7 1011 84 10000 3.09 290 20:52 10.02.2022
3815 Clouds 7 1010 82 10000 4.63 270 20:29 10.02.2022
3816 Clouds 7 1010 80 10000 4.92 236 19:24 10.02.2022
3817 Clouds 7 1010 79 10000 4.63 260 18:43 10.02.2022
3818 Clouds 8 1009 75 10000 6.17 260 17:26 10.02.2022
3819 Clouds 8 1009 73 10000 6.17 260 16:47 10.02.2022
3820 Clouds 9 1009 70 10000 7.2 260 15:47 10.02.2022
3821 Clouds 9 1009 68 10000 8.23 260 15:28 10.02.2022
3822 Clouds 10 1008 65 10000 7.2 250 14:46 10.02.2022
3823 Clouds 11 1008 64 10000 7.6 225 14:23 10.02.2022
3824 Clouds 12 1008 60 10000 8.75 260 13:22 10.02.2022
3825 Clouds 12 1009 56 10000 6.26 221 12:23 10.02.2022
3826 Clear 13 1005 60 10000 6.69 240 11:33 10.02.2022
3827 Clear 11 1006 68 10000 3.6 190 10:35 10.02.2022
3828 Clear 9 1010 72 10000 5.66 200 09:50 10.02.2022
3829 Clear 8 1010 76 10000 5.14 190 09:18 10.02.2022
3830 Clouds 7 1011 82 10000 4.12 180 06:50 10.02.2022
3831 Clouds 8 1013 78 10000 3.09 220 03:55 10.02.2022
3832 Clouds 8 1014 76 10000 2.57 260 01:48 10.02.2022
3833 Clouds 9 1014 76 10000 1.34 210 00:44 10.02.2022
3834 Clouds 8 1015 76 10000 3.6 230 00:25 10.02.2022
3835 Clouds 9 1015 76 10000 4.02 206 22:58 09.02.2022
3836 Clouds 9 1015 76 10000 3.6 240 22:34 09.02.2022
3837 Clouds 9 1015 76 10000 4.12 240 21:49 09.02.2022
3838 Clouds 9 1015 76 10000 4.12 240 21:28 09.02.2022
3839 Clouds 9 1015 76 10000 4.12 240 20:47 09.02.2022
3840 Clouds 9 1015 76 10000 4.12 240 20:24 09.02.2022
3841 Clouds 9 1015 76 10000 4.63 240 19:45 09.02.2022
3842 Clouds 9 1016 76 10000 4.63 240 19:22 09.02.2022
3843 Clouds 9 1015 74 10000 3.6 240 17:35 09.02.2022
3844 Clouds 9 1015 72 10000 4.63 240 16:32 09.02.2022
3845 Clouds 9 1015 71 10000 4.63 240 15:40 09.02.2022
3846 Clouds 9 1016 70 10000 6.17 240 14:28 09.02.2022
3847 Clouds 9 1016 71 10000 5.14 230 12:28 09.02.2022
3848 Clouds 9 1017 74 10000 4.63 230 10:47 09.02.2022
3849 Clouds 8 1017 76 10000 5.14 240 10:26 09.02.2022
3850 Clouds 8 1017 80 10000 4.12 230 09:23 09.02.2022
3851 Clouds 8 1017 80 10000 4.02 229 08:59 09.02.2022
3852 Clouds 8 1017 81 10000 4.12 240 07:47 09.02.2022
3853 Clouds 8 1017 82 10000 4.92 224 05:30 09.02.2022
3854 Clouds 8 1017 82 10000 4.92 224 05:30 09.02.2022
3855 Clouds 8 1017 84 10000 5.36 228 03:50 09.02.2022
3856 Clouds 8 1017 83 10000 6.17 250 00:23 09.02.2022
3857 Clouds 8 1017 84 10000 6.17 260 23:30 08.02.2022
3858 Clouds 8 1017 84 10000 6.71 212 22:46 08.02.2022
3859 Clouds 8 1017 84 10000 8.49 225 22:21 08.02.2022
3860 Clouds 8 1017 84 10000 8.49 225 22:21 08.02.2022
3861 Drizzle 8 1017 84 10000 6.69 260 21:38 08.02.2022
3862 Drizzle 8 1016 84 10000 6.71 237 21:20 08.02.2022
3863 Clouds 7 1016 86 10000 6.69 250 20:42 08.02.2022
3864 Drizzle 8 1016 83 10000 7.2 260 19:46 08.02.2022
3865 Clouds 8 1015 80 10000 7.2 260 18:35 08.02.2022
3866 Clouds 8 1015 78 10000 7.2 260 17:38 08.02.2022
3867 Clouds 8 1015 77 10000 7.2 260 16:22 08.02.2022
3868 Clouds 8 1015 76 10000 6.17 260 15:29 08.02.2022
3869 Clouds 8 1014 76 10000 7.72 250 14:26 08.02.2022
3870 Clouds 7 1015 80 10000 7.2 260 12:41 08.02.2022
3871 Clouds 6 1015 82 10000 6.69 250 11:28 08.02.2022
3872 Clouds 5 1015 82 10000 6.26 238 10:18 08.02.2022
3873 Clouds 5 1016 82 10000 5.81 218 09:41 08.02.2022
3874 Clouds 4 1016 77 10000 5.36 235 07:46 08.02.2022
3875 Clear 3 1016 80 10000 6.26 223 05:37 08.02.2022
3876 Clear 3 1017 80 10000 4.47 237 04:39 08.02.2022
3877 Clouds 3 1017 81 10000 4.63 260 04:21 08.02.2022
3878 Clouds 3 1017 82 10000 4.63 270 03:36 08.02.2022
3879 Clouds 3 1017 82 10000 4.12 270 03:18 08.02.2022
3880 Clouds 3 1017 82 10000 4.63 270 02:58 08.02.2022
3881 Clouds 3 1017 83 10000 4.63 270 02:36 08.02.2022
3882 Clouds 4 1017 82 10000 4.12 270 02:18 08.02.2022
3883 Clouds 3 1016 83 10000 4.12 270 01:43 08.02.2022
3884 Clouds 3 1016 83 10000 5.14 280 01:24 08.02.2022
3885 Clouds 3 1016 83 10000 4.63 280 00:49 08.02.2022
3886 Clouds 3 1015 79 10000 4.12 280 23:54 07.02.2022
3887 Clouds 3 1015 78 10000 4.47 240 23:36 07.02.2022
3888 Clouds 4 1015 79 10000 5.14 290 23:18 07.02.2022
3889 Clouds 4 1014 80 10000 5.66 300 22:19 07.02.2022
3890 Clouds 3 1014 82 10000 6.17 290 21:53 07.02.2022
3891 Clouds 3 1014 80 10000 7.6 283 21:29 07.02.2022
3892 Clouds 3 1013 79 10000 7.2 300 20:56 07.02.2022
3893 Clouds 3 1013 79 10000 7.2 300 20:38 07.02.2022
3894 Clouds 3 1012 78 10000 7.2 290 19:49 07.02.2022
3895 Clouds 3 1012 81 10000 7.6 269 19:31 07.02.2022
3896 Clouds 3 1010 82 10000 6.17 290 17:52 07.02.2022
3897 Rain 4 1008 77 10000 9.77 300 16:52 07.02.2022
3898 Clouds 4 1008 79 10000 8.75 300 15:49 07.02.2022
3899 Rain 6 1006 65 10000 9.77 300 14:48 07.02.2022
3900 Clouds 6 1005 73 10000 8.75 300 13:28 07.02.2022
3901 Clouds 6 1004 78 10000 1.79 240 12:38 07.02.2022
3902 Clouds 4 1004 87 10000 0.45 309 11:57 07.02.2022
3903 Clouds 3 1003 88 10000 0.89 306 11:34 07.02.2022
3904 Clouds 3 1003 86 10000 2.24 323 10:49 07.02.2022
3905 Clouds 3 1002 88 10000 5.36 296 10:29 07.02.2022
3906 Clouds 3 1001 87 10000 0.45 319 09:53 07.02.2022
3907 Clouds 3 1000 85 10000 4.92 225 09:18 07.02.2022
3908 Clouds 2 999 85 10000 2.68 246 08:36 07.02.2022
3909 Clouds 3 997 82 10000 5.81 242 06:54 07.02.2022
3910 Clouds 3 996 82 10000 0.45 319 06:33 07.02.2022
3911 Clouds 3 990 89 2200 2.68 316 02:58 07.02.2022
3912 Rain 5 984 80 10000 0.45 310 00:44 07.02.2022
3913 Clouds 6 984 76 10000 0.45 319 23:47 06.02.2022
3914 Clouds 6 984 81 10000 0.45 323 22:48 06.02.2022
3915 Clouds 6 985 78 10000 1.34 296 21:54 06.02.2022
3916 Clouds 6 985 78 10000 1.34 296 21:35 06.02.2022
3917 Clouds 6 989 77 10000 0.45 307 20:54 06.02.2022
3918 Clouds 6 989 77 10000 0.45 307 20:31 06.02.2022
3919 Clouds 6 984 80 10000 2.24 333 19:38 06.02.2022
3920 Rain 7 983 75 10000 1.79 306 18:40 06.02.2022
3921 Rain 6 984 81 10000 2.24 257 17:55 06.02.2022
3922 Rain 7 985 80 10000 2.24 282 17:19 06.02.2022
3923 Rain 7 989 72 10000 2.24 301 16:38 06.02.2022
3924 Clouds 8 990 66 10000 1.79 316 15:49 06.02.2022
3925 Clouds 8 991 68 10000 1.79 324 15:26 06.02.2022
3926 Clouds 8 993 70 10000 1.79 25 14:36 06.02.2022
3927 Clouds 8 995 67 10000 1.79 323 13:26 06.02.2022
3928 Clouds 8 992 70 10000 2.24 322 12:52 06.02.2022
3929 Clouds 8 997 70 10000 2.68 325 11:32 06.02.2022
3930 Rain 7 998 77 10000 1.34 306 10:31 06.02.2022
3931 Rain 6 999 80 10000 0.89 329 08:59 06.02.2022
3932 Rain 5 1000 78 10000 1.79 292 08:30 06.02.2022
3933 Rain 4 1002 83 10000 1.79 15 05:31 06.02.2022
3934 Rain 5 1005 76 10000 1.79 295 02:50 06.02.2022
3935 Clouds 5 1005 70 10000 0.89 331 02:24 06.02.2022
3936 Clear 4 1007 69 10000 1.79 308 00:29 06.02.2022
3937 Clear 4 1008 70 10000 0.89 306 22:31 05.02.2022
3938 Clear 4 1009 69 10000 4.47 226 21:32 05.02.2022
3939 Clear 4 1009 66 10000 4.47 220 20:25 05.02.2022
3940 Clear 4 1009 67 10000 0.89 313 19:48 05.02.2022
3941 Clear 5 1010 66 10000 0.45 344 18:59 05.02.2022
3942 Clouds 5 1010 65 10000 1.34 292 17:45 05.02.2022
3943 Clouds 5 1010 64 10000 0.45 300 17:25 05.02.2022
3944 Clouds 6 1009 59 10000 0.45 292 15:40 05.02.2022
3945 Clouds 6 1009 59 10000 0.45 314 15:21 05.02.2022
3946 Clouds 6 1009 63 10000 0.45 329 12:54 05.02.2022
3947 Clouds 6 1009 65 10000 0.45 313 12:31 05.02.2022
3948 Clouds 5 1008 68 10000 0.89 297 10:52 05.02.2022
3949 Clouds 5 1008 68 10000 1.34 275 10:22 05.02.2022
3950 Clouds 4 1008 71 10000 1.34 311 09:44 05.02.2022
3951 Clouds 3 1007 75 10000 0.89 355 07:54 05.02.2022
3952 Clouds 3 1006 76 10000 0.89 303 06:57 05.02.2022
3953 Clouds 3 1005 78 10000 0.45 277 04:30 05.02.2022
3954 Clouds 4 1002 80 10000 2.68 231 01:19 05.02.2022
3955 Clouds 4 1002 82 10000 0.45 355 00:53 05.02.2022
3956 Rain 7 999 79 10000 1.34 209 23:58 04.02.2022
3957 Rain 8 998 72 10000 0.89 261 23:30 04.02.2022
3958 Clouds 7 998 75 10000 0.45 341 21:59 04.02.2022
3959 Clouds 7 998 75 10000 1.34 324 21:36 04.02.2022
3960 Clouds 7 998 76 10000 0.89 335 21:18 04.02.2022
3961 Clouds 7 999 75 10000 0.45 317 20:20 04.02.2022
3962 Clouds 7 1000 73 10000 4.02 222 17:43 04.02.2022
3963 Clouds 8 1001 72 10000 4.02 210 15:55 04.02.2022
3964 Clouds 8 1001 72 10000 4.02 210 15:55 04.02.2022
3965 Clouds 8 1001 69 10000 1.34 323 14:55 04.02.2022
3966 Clouds 8 1002 71 10000 1.34 325 13:39 04.02.2022
3967 Clouds 8 1003 72 10000 0.45 321 12:43 04.02.2022
3968 Clouds 7 1004 79 10000 0.45 313 11:42 04.02.2022
3969 Clouds 7 1004 79 10000 0.45 313 11:42 04.02.2022
3970 Clouds 7 1004 83 10000 3.58 223 10:37 04.02.2022
3971 Clouds 6 1004 87 10000 0.45 313 08:48 04.02.2022
3972 Clouds 5 1003 89 10000 0.89 311 06:57 04.02.2022
3973 Rain 6 1003 92 10000 0.45 201 02:48 04.02.2022
3974 Clouds 6 1003 91 10000 1.79 229 01:56 04.02.2022
3975 Clouds 5 1003 91 10000 2.24 214 23:31 03.02.2022
3976 Clouds 6 1000 92 10000 2.24 191 22:46 03.02.2022
3977 Clouds 6 1000 92 10000 2.68 139 21:49 03.02.2022
3978 Clouds 5 1005 92 10000 4.12 170 20:41 03.02.2022
3979 Clouds 6 1001 91 10000 1.79 191 20:20 03.02.2022
3980 Clouds 5 1005 92 10000 3.6 180 19:32 03.02.2022
3981 Clouds 6 1005 92 10000 2.24 188 18:40 03.02.2022
3982 Clouds 6 1006 93 10000 1.34 193 17:35 03.02.2022
3983 Rain 6 1006 90 10000 1.79 200 16:35 03.02.2022
3984 Rain 6 1016 89 10000 4.12 190 14:52 03.02.2022
3985 Clouds 5 1018 84 10000 3.6 210 12:59 03.02.2022
3986 Clouds 5 1019 79 10000 4.12 200 11:23 03.02.2022
3987 Clear 3 1019 86 10000 3.09 200 08:38 03.02.2022
3988 Clear 0 1021 86 10000 4.12 210 05:26 03.02.2022
3989 Clear 2 1011 83 10000 1.34 318 00:32 03.02.2022
3990 Clear 3 1011 81 10000 0.45 313 23:44 02.02.2022
3991 Clouds 3 1010 80 10000 0.45 313 22:35 02.02.2022
3992 Clouds 4 1010 80 10000 0.89 327 21:37 02.02.2022
3993 Clear 4 1009 80 10000 4.02 277 20:53 02.02.2022
3994 Clouds 4 1009 80 10000 2.24 294 19:59 02.02.2022
3995 Clouds 4 1008 80 10000 2.68 245 19:32 02.02.2022
3996 Clouds 4 1008 80 10000 5.81 277 18:50 02.02.2022
3997 Clouds 4 1007 80 10000 0.45 321 18:22 02.02.2022
3998 Clouds 5 1006 80 10000 1.79 240 17:20 02.02.2022
3999 Clouds 5 1005 77 10000 0.45 278 16:46 02.02.2022
4000 Rain 6 1010 72 10000 0.89 328 13:57 02.02.2022
4001 Clouds 6 1009 74 10000 0.45 278 12:25 02.02.2022
4002 Clouds 5 1009 74 10000 0.45 311 11:37 02.02.2022
4003 Clouds 5 1008 81 10000 7.72 300 10:38 02.02.2022
4004 Clouds 5 1005 77 10000 0.89 300 07:42 02.02.2022
4005 Clouds 5 1002 84 10000 0.45 315 00:34 02.02.2022
4006 Rain 4 1002 89 10000 7.2 270 21:55 01.02.2022
4007 Clouds 4 1002 87 10000 0.45 307 20:47 01.02.2022
4008 Snow 3 1003 87 10000 1.79 305 18:35 01.02.2022
4009 Clouds 3 1004 83 10000 0.89 307 16:43 01.02.2022
4010 Rain 4 1009 75 10000 1.34 309 14:56 01.02.2022
4011 Rain 3 1003 83 10000 0.45 293 12:48 01.02.2022
4012 Clouds 3 1004 86 10000 0.89 332 11:48 01.02.2022
4013 Clouds 1 1004 91 7000 4.12 290 06:57 01.02.2022
4014 Rain 2 1002 93 6000 2.57 340 23:54 31.01.2022
4015 Rain 2 1001 93 6000 2.57 340 23:36 31.01.2022
4016 Rain 2 1001 93 6000 2.57 340 23:36 31.01.2022
4017 Rain 2 1001 94 5000 2.06 340 22:27 31.01.2022
4018 Snow 2 1000 95 4200 2.57 360 21:34 31.01.2022
4019 Fog 1 999 95 600 2.57 350 20:34 31.01.2022
4020 Fog 1 993 94 300 2.06 320 19:46 31.01.2022
4021 Mist 2 992 93 1500 2.06 320 18:31 31.01.2022
4022 Mist 2 992 93 1500 2.06 320 18:31 31.01.2022
4023 Mist 2 991 93 1000 1.54 310 17:53 31.01.2022
4024 Snow 2 991 92 1000 2.06 290 16:58 31.01.2022
4025 Snow 2 990 92 1300 2.06 280 15:46 31.01.2022
4026 Rain 3 994 89 10000 2.68 294 14:27 31.01.2022
4027 Snow 3 994 88 9000 2.68 244 12:55 31.01.2022
4028 Clouds 3 995 83 4500 4.63 230 11:59 31.01.2022
4029 Rain 4 995 73 10000 0.89 318 10:58 31.01.2022
4030 Rain 4 995 71 10000 4.02 203 10:37 31.01.2022
4031 Clouds 3 996 73 10000 2.68 201 09:34 31.01.2022
4032 Clouds 2 998 74 10000 3.58 205 08:53 31.01.2022
4033 Clouds 2 998 75 10000 1.34 197 08:20 31.01.2022
4034 Clouds 2 1000 75 10000 0.45 329 06:53 31.01.2022
4035 Clouds 2 1002 71 10000 2.24 216 05:24 31.01.2022
4036 Clouds 4 1010 68 10000 6.69 290 23:37 30.01.2022
4037 Clouds 4 1010 69 10000 0.45 338 22:31 30.01.2022
4038 Clouds 4 1011 66 10000 0.45 315 21:44 30.01.2022
4039 Clouds 4 1011 65 10000 4.02 245 21:22 30.01.2022
4040 Clouds 4 1011 65 10000 0.45 54 20:51 30.01.2022
4041 Clouds 4 1011 65 10000 0.45 317 20:30 30.01.2022
4042 Clear 4 1011 65 10000 0.45 317 19:55 30.01.2022
4043 Clouds 5 1011 64 10000 0.45 332 18:51 30.01.2022
4044 Clouds 5 1011 65 10000 0.45 344 18:22 30.01.2022
4045 Clouds 5 1011 65 10000 0.45 278 17:30 30.01.2022
4046 Clouds 5 1011 64 10000 0.45 344 16:42 30.01.2022
4047 Clouds 5 1010 64 10000 0.45 355 16:23 30.01.2022
4048 Clouds 5 1010 65 10000 0.45 343 15:54 30.01.2022
4049 Clouds 5 1010 65 10000 1.34 288 15:32 30.01.2022
4050 Clouds 6 1009 64 10000 1.34 252 14:47 30.01.2022
4051 Clouds 6 1008 63 10000 2.68 309 13:47 30.01.2022
4052 Clouds 5 1008 66 10000 1.34 5 12:46 30.01.2022
4053 Clouds 5 1006 67 10000 1.79 315 10:47 30.01.2022
4054 Clouds 5 1006 66 10000 1.34 324 10:25 30.01.2022
4055 Clouds 5 1006 67 10000 0.89 277 09:22 30.01.2022
4056 Clouds 5 1005 67 10000 0.89 267 07:58 30.01.2022
4057 Clouds 5 1004 80 10000 0.89 346 02:44 30.01.2022
4058 Clouds 5 1004 79 10000 0.89 346 02:44 30.01.2022
4059 Clouds 6 1004 82 10000 0.89 360 01:54 30.01.2022
4060 Clouds 7 1004 83 10000 1.34 291 23:49 29.01.2022
4061 Clouds 7 1003 88 10000 0.45 340 22:50 29.01.2022
4062 Rain 7 1002 82 10000 1.34 331 21:29 29.01.2022
4063 Clouds 7 1003 82 10000 0.89 9 20:57 29.01.2022
4064 Clouds 7 1004 82 10000 1.34 291 19:52 29.01.2022
4065 Clouds 7 1004 82 10000 0.45 330 19:31 29.01.2022
4066 Clouds 7 1004 80 10000 1.79 11 18:44 29.01.2022
4067 Clouds 7 1005 80 10000 1.34 26 17:55 29.01.2022
4068 Clouds 6 1006 80 10000 0.45 311 16:59 29.01.2022
4069 Clouds 6 1007 80 10000 0.45 319 15:27 29.01.2022
4070 Clouds 6 1009 84 10000 0.45 313 13:48 29.01.2022
4071 Clouds 6 1009 86 10000 8.94 236 13:28 29.01.2022
4072 Clouds 6 1010 87 10000 0.45 312 12:58 29.01.2022
4073 Rain 5 1011 89 8000 0.89 290 11:39 29.01.2022
4074 Rain 4 1012 89 7000 6.69 240 10:33 29.01.2022
4075 Clouds 4 1014 80 10000 0.89 326 08:19 29.01.2022
4076 Clouds 2 1015 82 10000 3.6 240 02:26 29.01.2022
4077 Clouds 3 1021 80 10000 0.45 321 00:32 29.01.2022
4078 Clear 3 1021 80 10000 0.45 319 23:31 28.01.2022
4079 Clear 3 1022 79 10000 1.34 230 22:47 28.01.2022
4080 Clear 3 1021 79 10000 1.34 338 22:19 28.01.2022
4081 Clear 3 1021 79 10000 2.24 286 20:41 28.01.2022
4082 Clear 3 1021 78 10000 4.92 240 19:57 28.01.2022
4083 Clouds 4 1020 77 10000 2.24 240 18:52 28.01.2022
4084 Clouds 4 1020 77 10000 2.24 240 18:52 28.01.2022
4085 Clouds 4 1020 77 10000 0.45 245 18:34 28.01.2022
4086 Clouds 5 1019 74 10000 0.89 224 16:23 28.01.2022
4087 Clouds 5 1018 72 10000 0.45 334 14:58 28.01.2022
4088 Clouds 4 1017 77 10000 0.45 303 13:21 28.01.2022
4089 Clouds 4 1017 79 10000 0.45 310 11:50 28.01.2022
4090 Clouds 4 1015 81 10000 4.92 29 10:27 28.01.2022
4091 Clouds 4 1015 83 10000 0.45 338 09:47 28.01.2022
4092 Clouds 3 1013 83 10000 5.36 299 07:42 28.01.2022
4093 Clouds 4 1012 80 10000 0.45 313 06:29 28.01.2022
4094 Clouds 4 1010 80 10000 4.47 241 03:51 28.01.2022
4095 Clouds 4 1009 78 10000 5.36 290 02:28 28.01.2022
4096 Clouds 4 1008 80 10000 5.36 293 01:38 28.01.2022
4097 Clouds 4 1008 83 10000 0.45 5 00:46 28.01.2022
4098 Rain 4 1007 89 10000 1.34 296 22:20 27.01.2022
4099 Clouds 4 1003 88 10000 0.89 335 21:40 27.01.2022
4100 Rain 4 1007 85 10000 0.89 332 20:59 27.01.2022
4101 Clouds 5 1007 79 10000 1.79 323 19:47 27.01.2022
4102 Clouds 4 1008 81 10000 0.45 267 18:22 27.01.2022
4103 Clouds 4 1008 84 10000 2.24 355 16:59 27.01.2022
4104 Clouds 4 1009 80 10000 2.24 346 14:24 27.01.2022
4105 Clouds 3 1010 76 10000 1.79 298 12:53 27.01.2022
4106 Clouds 3 1010 75 10000 0.45 355 12:18 27.01.2022
4107 Clouds 2 1012 80 10000 0.45 305 09:51 27.01.2022
4108 Clouds 2 1012 83 10000 0.45 313 08:40 27.01.2022
4109 Clouds 2 1013 84 10000 0.89 343 07:53 27.01.2022
4110 Clouds 1 1016 86 10000 0.45 329 03:34 27.01.2022
4111 Clouds 1 1017 87 10000 1.34 349 00:24 27.01.2022
4112 Clouds 1 1018 86 10000 5.36 235 22:31 26.01.2022
4113 Clouds 1 1018 86 10000 0.89 355 21:44 26.01.2022
4114 Clouds 1 1018 86 10000 0.89 269 20:57 26.01.2022
4115 Clouds 1 1018 86 10000 0.45 305 20:33 26.01.2022
4116 Clouds 1 1019 84 10000 1.34 337 19:49 26.01.2022
4117 Clouds 1 1019 87 10000 1.79 245 18:52 26.01.2022
4118 Clouds 1 1019 86 10000 0.45 318 18:24 26.01.2022
4119 Clouds 1 1015 89 8000 0.89 340 17:39 26.01.2022
4120 Clouds 1 1015 89 8000 3.58 9 17:19 26.01.2022
4121 Clouds 1 1015 89 6000 2.68 209 16:25 26.01.2022
4122 Clouds 2 1015 90 8000 2.24 237 15:23 26.01.2022
4123 Clouds 2 1020 84 10000 0.45 307 12:44 26.01.2022
4124 Clouds 2 1021 88 10000 3.13 241 10:56 26.01.2022
4125 Clouds 2 1020 88 6000 2.68 229 09:58 26.01.2022
4126 Clouds 2 1020 88 6000 2.24 234 09:39 26.01.2022
4127 Clouds 2 1020 90 8000 0.45 311 07:28 26.01.2022
4128 Mist 2 1021 93 3500 1.34 228 00:42 26.01.2022
4129 Mist 2 1022 93 4500 0.45 211 23:43 25.01.2022
4130 Mist 2 1022 93 4000 0.45 199 22:49 25.01.2022
4131 Drizzle 2 1022 93 4000 1.79 239 22:19 25.01.2022
4132 Drizzle 2 1022 93 3800 1.79 229 21:34 25.01.2022
4133 Mist 2 1022 92 4000 0.89 226 20:46 25.01.2022
4134 Drizzle 3 1018 92 4200 2.06 290 19:58 25.01.2022
4135 Drizzle 3 1018 92 4200 2.06 290 19:58 25.01.2022
4136 Drizzle 3 1023 91 4200 0.89 232 19:34 25.01.2022
4137 Mist 3 1022 91 4200 0.45 231 18:20 25.01.2022
4138 Mist 3 1022 91 5000 2.57 290 17:39 25.01.2022
4139 Mist 3 1022 91 4800 0.45 328 16:35 25.01.2022
4140 Clouds 3 1022 91 7000 2.57 300 15:39 25.01.2022
4141 Clouds 3 1022 92 7000 3.09 280 15:20 25.01.2022
4142 Mist 3 1022 92 5000 3.09 300 14:56 25.01.2022
4143 Drizzle 3 1023 92 9000 3.6 300 12:32 25.01.2022
4144 Drizzle 4 1023 91 4500 1.79 298 09:58 25.01.2022
4145 Drizzle 3 1023 91 6000 1.79 232 08:29 25.01.2022
4146 Drizzle 4 1023 92 6000 0.89 243 07:28 25.01.2022
4147 Clouds 4 1023 91 9000 2.68 232 05:54 25.01.2022
4148 Drizzle 5 1024 90 10000 1.54 260 00:58 25.01.2022
4149 Clouds 5 1025 92 10000 0.45 231 23:36 24.01.2022
4150 Drizzle 5 1025 92 8000 0.45 216 23:18 24.01.2022
4151 Drizzle 5 1025 93 4000 1.03 0 22:58 24.01.2022
4152 Drizzle 5 1025 93 4000 0.89 221 22:40 24.01.2022
4153 Drizzle 5 1025 93 7000 1.79 220 21:43 24.01.2022
4154 Drizzle 5 1025 92 9000 1.03 250 21:25 24.01.2022
4155 Drizzle 5 1025 92 10000 0.51 230 20:28 24.01.2022
4156 Clouds 5 1025 92 10000 1.03 220 19:38 24.01.2022
4157 Clouds 5 1025 90 10000 1.54 290 18:50 24.01.2022
4158 Clouds 6 1025 89 10000 1.03 0 17:43 24.01.2022
4159 Clouds 6 1025 89 10000 0.51 220 17:23 24.01.2022
4160 Clouds 6 1025 88 10000 1.03 0 16:32 24.01.2022
4161 Clouds 6 1025 87 10000 1.54 270 15:51 24.01.2022
4162 Clouds 6 1034 86 10000 1.54 230 14:27 24.01.2022
4163 Clouds 6 1025 91 10000 1.03 0 12:36 24.01.2022
4164 Drizzle 6 1025 90 9000 1.54 280 11:45 24.01.2022
4165 Mist 6 1026 94 3200 0.51 0 10:24 24.01.2022
4166 Fog 5 1026 95 600 1.03 240 09:46 24.01.2022
4167 Fog 4 1026 96 3300 1.03 0 08:19 24.01.2022
4168 Drizzle 4 1025 96 3000 1.03 330 02:33 24.01.2022
4169 Drizzle 4 1025 96 3300 2.06 320 01:27 24.01.2022
4170 Drizzle 4 1025 96 3300 2.06 320 01:27 24.01.2022
4171 Mist 5 1025 96 1500 1.03 0 00:34 24.01.2022
4172 Mist 5 1025 96 4500 1.03 0 23:47 23.01.2022
4173 Drizzle 5 1025 96 5000 2.06 300 22:21 23.01.2022
4174 Clouds 5 1025 96 7000 0.45 201 21:42 23.01.2022
4175 Clouds 5 1025 96 7000 1.79 278 21:24 23.01.2022
4176 Drizzle 5 1025 96 6000 2.06 300 20:29 23.01.2022
4177 Drizzle 5 1025 95 5000 3.09 300 19:21 23.01.2022
4178 Drizzle 5 1024 95 7000 2.57 300 18:44 23.01.2022
4179 Drizzle 5 1025 95 6000 0.89 226 17:27 23.01.2022
4180 Drizzle 5 1024 93 6000 3.09 300 16:38 23.01.2022
4181 Clouds 5 1024 92 10000 3.6 300 14:56 23.01.2022
4182 Clouds 5 1024 92 10000 4.63 300 14:19 23.01.2022
4183 Clouds 5 1024 94 3200 3.6 290 12:50 23.01.2022
4184 Clouds 5 1024 93 3700 0.89 327 12:21 23.01.2022
4185 Clouds 5 1024 93 3000 3.6 280 11:51 23.01.2022
4186 Clouds 5 1024 92 6000 0.45 282 11:18 23.01.2022
4187 Clouds 4 1024 95 3600 2.24 355 10:27 23.01.2022
4188 Clouds 4 1024 95 5000 1.34 207 09:40 23.01.2022
4189 Clouds 4 1023 95 3300 3.6 280 08:51 23.01.2022
4190 Clouds 4 1022 96 8000 0.89 315 05:55 23.01.2022
4191 Drizzle 4 1021 96 2000 0.89 221 01:49 23.01.2022
4192 Drizzle 3 1021 96 2200 2.68 291 01:25 23.01.2022
4193 Rain 3 1021 96 2300 1.03 0 00:23 23.01.2022
4194 Drizzle 3 1021 94 2500 1.03 0 23:44 22.01.2022
4195 Drizzle 3 1021 93 8000 1.54 280 22:40 22.01.2022
4196 Clouds 3 1021 92 10000 1.34 232 21:28 22.01.2022
4197 Clouds 2 1021 92 10000 1.03 0 19:51 22.01.2022
4198 Clouds 2 1021 92 10000 1.54 260 18:49 22.01.2022
4199 Clouds 2 1020 90 10000 1.34 231 18:18 22.01.2022
4200 Clouds 2 1020 90 10000 1.54 290 17:40 22.01.2022
4201 Clouds 3 1020 86 10000 1.54 320 16:56 22.01.2022
4202 Clouds 3 1020 86 10000 3.6 320 15:50 22.01.2022
4203 Clouds 3 1020 84 10000 0.45 168 15:26 22.01.2022
4204 Clouds 4 1019 83 10000 4.63 330 13:46 22.01.2022
4205 Clouds 3 1015 88 10000 5.14 350 12:52 22.01.2022
4206 Clouds 3 1019 84 10000 4.63 340 12:29 22.01.2022
4207 Clouds 4 1019 85 10000 5.14 360 11:44 22.01.2022
4208 Clouds 3 1018 91 10000 4.12 340 10:29 22.01.2022
4209 Clouds 3 1018 93 10000 3.6 320 09:59 22.01.2022
4210 Clouds 2 1017 94 10000 4.12 330 08:53 22.01.2022
4211 Clouds 3 1016 94 10000 0.45 225 07:39 22.01.2022
4212 Rain 3 1013 96 6000 0.89 244 04:53 22.01.2022
4213 Snow 2 1012 94 8000 4.02 197 01:49 22.01.2022
4214 Snow 2 1014 92 4300 6.26 237 23:46 21.01.2022
4215 Clouds 2 1015 88 8000 0.89 271 22:36 21.01.2022
4216 Clouds 1 1016 84 10000 0.45 290 20:32 21.01.2022
4217 Clear 0 1016 80 10000 0.45 328 18:40 21.01.2022
4218 Clear 0 1016 77 10000 3.58 241 17:45 21.01.2022
4219 Clouds 1 1016 75 10000 0.45 313 15:47 21.01.2022
4220 Clouds 1 1016 81 10000 1.79 308 13:55 21.01.2022
4221 Clouds 0 1014 84 10000 0.89 192 12:40 21.01.2022
4222 Snow 0 1016 85 10000 0.45 325 11:29 21.01.2022
4223 Clouds 0 1016 82 10000 4.02 240 10:22 21.01.2022
4224 Clear -3 1016 77 10000 0.45 345 08:25 21.01.2022
4225 Clear -3 1016 77 10000 0.45 345 08:25 21.01.2022
4226 Clear -3 1016 78 10000 4.47 240 07:26 21.01.2022
4227 Clouds -1 1014 79 10000 0.45 128 00:59 21.01.2022
4228 Clouds 0 1012 82 10000 1.79 237 22:45 20.01.2022
4229 Clouds 0 1011 83 10000 2.68 336 21:48 20.01.2022
4230 Clouds -1 1010 85 10000 0.45 128 20:57 20.01.2022
4231 Clouds 0 1009 81 10000 0.45 339 19:40 20.01.2022
4232 Clouds 1 1009 81 10000 0.45 307 19:18 20.01.2022
4233 Clouds 1 1008 81 10000 8.49 273 17:32 20.01.2022
4234 Clouds 1 1008 80 10000 2.68 228 15:46 20.01.2022
4235 Clouds 1 1008 78 10000 0.45 312 15:26 20.01.2022
4236 Clouds 2 1008 76 10000 0.45 318 13:54 20.01.2022
4237 Clouds 2 1008 76 10000 0.45 318 13:54 20.01.2022
4238 Clouds 2 1008 77 10000 1.79 303 12:44 20.01.2022
4239 Rain 1 1008 77 10000 2.68 51 12:26 20.01.2022
4240 Clouds 1 1008 82 10000 1.34 294 10:58 20.01.2022
4241 Clouds 1 1007 89 10000 0.89 188 09:43 20.01.2022
4242 Snow 2 1006 92 900 1.34 325 08:36 20.01.2022
4243 Clouds 2 1006 78 10000 0.89 309 06:19 20.01.2022
4244 Rain 3 1006 82 10000 2.24 329 23:56 19.01.2022
4245 Clouds 4 1007 78 10000 0.45 317 22:37 19.01.2022
4246 Clouds 3 1008 79 10000 1.34 5 21:26 19.01.2022
4247 Clouds 3 1008 80 10000 0.45 313 20:55 19.01.2022
4248 Clouds 3 1008 81 10000 5.36 243 20:24 19.01.2022
4249 Clouds 2 1010 81 10000 4.92 223 18:49 19.01.2022
4250 Clouds 2 1006 84 10000 1.79 206 17:50 19.01.2022
4251 Clouds 2 1010 81 10000 2.68 205 17:18 19.01.2022
4252 Clouds 2 1010 81 10000 2.68 205 17:18 19.01.2022
4253 Clear 5 1021 72 10000 4.12 160 14:55 19.01.2022
4254 Clouds 5 1014 75 10000 0.45 129 13:20 19.01.2022
4255 Clouds 5 1026 77 10000 3.09 270 11:58 19.01.2022
4256 Clouds 3 1026 82 10000 4.12 200 11:22 19.01.2022
4257 Clear 1 1025 94 10000 1.54 180 09:35 19.01.2022
4258 Clear 1 1025 94 10000 1.54 180 09:35 19.01.2022
4259 Clear 0 1028 89 10000 2.57 150 08:20 19.01.2022
4260 Clouds 2 1031 89 10000 3.09 210 05:19 19.01.2022
4261 Clouds 4 1035 90 10000 3.09 210 00:18 19.01.2022
4262 Clouds 4 1036 89 10000 2.57 220 23:18 18.01.2022
4263 Clouds 4 1036 90 10000 2.06 250 21:44 18.01.2022
4264 Clouds 4 1037 90 10000 2.06 240 20:22 18.01.2022
4265 Clouds 4 1037 89 10000 2.57 240 19:45 18.01.2022
4266 Clouds 4 1037 89 10000 2.06 250 19:25 18.01.2022
4267 Clouds 4 1037 88 10000 2.57 260 18:18 18.01.2022
4268 Clouds 3 1037 91 10000 2.06 250 17:31 18.01.2022
4269 Clouds 4 1037 88 10000 2.57 270 16:20 18.01.2022
4270 Clouds 4 1037 87 10000 2.57 270 15:25 18.01.2022
4271 Clouds 4 1037 84 10000 3.6 290 14:22 18.01.2022
4272 Clouds 3 1037 89 10000 3.09 270 11:37 18.01.2022
4273 Clouds 2 1037 89 10000 2.57 280 10:25 18.01.2022
4274 Clouds 1 1036 89 10000 2.57 270 08:29 18.01.2022
4275 Clouds 1 1035 89 10000 3.09 290 07:43 18.01.2022
4276 Clear 0 1033 93 10000 3.09 280 00:39 18.01.2022
4277 Clear 1 1032 92 10000 2.57 280 22:46 17.01.2022
4278 Clear 1 1031 92 10000 2.57 300 21:44 17.01.2022
4279 Clear 1 1031 92 10000 3.09 300 21:24 17.01.2022
4280 Clouds 2 1028 94 10000 2.57 330 18:51 17.01.2022
4281 Clouds 2 1028 93 10000 2.06 340 18:25 17.01.2022
4282 Clouds 3 1026 92 10000 3.6 320 17:22 17.01.2022
4283 Clouds 3 1023 92 10000 5.66 310 15:58 17.01.2022
4284 Rain 4 1022 86 935 8.94 317 14:58 17.01.2022
4285 Drizzle 4 1021 91 7000 9.26 310 14:31 17.01.2022
4286 Drizzle 5 1020 91 10000 0.89 311 13:18 17.01.2022
4287 Drizzle 5 1020 90 8000 0.89 355 12:22 17.01.2022
4288 Drizzle 4 1020 90 8000 1.34 344 10:53 17.01.2022
4289 Clouds 4 1021 86 4700 0.45 322 09:53 17.01.2022
4290 Clouds 5 1021 82 10000 0.89 311 08:44 17.01.2022
4291 Clouds 5 1012 84 10000 0.89 261 07:20 17.01.2022
4292 Clouds 4 1023 79 10000 1.34 341 00:59 17.01.2022
4293 Clouds 4 1023 78 10000 0.89 316 23:33 16.01.2022
4294 Clouds 4 1023 81 10000 1.34 338 21:21 16.01.2022
4295 Clouds 3 1023 84 10000 0.89 322 20:18 16.01.2022
4296 Drizzle 3 1022 85 10000 1.34 199 18:46 16.01.2022
4297 Drizzle 2 1013 87 8000 0.89 338 17:47 16.01.2022
4298 Clouds 2 1013 84 10000 0.89 292 16:54 16.01.2022
4299 Clouds 2 1012 84 10000 0.45 272 15:40 16.01.2022
4300 Clouds 3 1012 82 10000 4.02 240 14:29 16.01.2022
4301 Clouds 3 1012 81 10000 0.89 320 13:23 16.01.2022
4302 Clear 4 1012 80 10000 2.68 219 12:21 16.01.2022
4303 Clear 3 1008 80 10000 2.68 231 11:27 16.01.2022
4304 Clear 2 1012 86 10000 0.45 183 10:27 16.01.2022
4305 Clear 1 1000 86 10000 0.45 186 09:57 16.01.2022
4306 Clear 1 1000 89 10000 0.89 172 09:37 16.01.2022
4307 Clear 0 1001 91 10000 2.57 200 09:19 16.01.2022
4308 Clouds 1 981 85 10000 2.45 180 06:35 16.01.2022
4309 Clear -1 1005 95 10000 0.89 118 00:19 16.01.2022
4310 Clear -1 1005 90 10000 1.03 0 22:50 15.01.2022
4311 Clear 0 1013 85 10000 2.06 160 21:21 15.01.2022
4312 Clear 1 1014 84 10000 0.45 169 20:44 15.01.2022
4313 Clouds 1 1014 83 10000 0.45 164 20:21 15.01.2022
4314 Clouds 2 1019 80 10000 0.89 178 19:26 15.01.2022
4315 Clouds 3 1019 78 10000 0.51 0 18:18 15.01.2022
4316 Clouds 4 1019 75 10000 1.54 340 16:49 15.01.2022
4317 Clouds 4 1020 74 10000 1.34 217 14:38 15.01.2022
4318 Clouds 5 1021 76 10000 3.09 310 12:39 15.01.2022
4319 Clouds 4 1022 82 10000 0.45 237 11:21 15.01.2022
4320 Clouds 3 1022 89 10000 3.09 280 09:46 15.01.2022
4321 Mist 4 1021 92 4500 2.68 242 01:58 15.01.2022
4322 Clouds 4 1022 92 6000 2.68 217 23:20 14.01.2022
4323 Drizzle 4 1022 91 7000 2.24 202 21:18 14.01.2022
4324 Clouds 4 1022 91 6000 2.68 234 20:25 14.01.2022
4325 Drizzle 4 1022 92 4200 0.45 285 19:50 14.01.2022
4326 Drizzle 4 1018 93 2800 2.68 228 18:38 14.01.2022
4327 Drizzle 4 1018 91 3300 3.58 326 17:36 14.01.2022
4328 Mist 3 1021 89 4500 3.13 242 16:42 14.01.2022
4329 Mist 3 1021 89 5000 0.45 321 15:30 14.01.2022
4330 Clouds 4 1016 90 6000 0.45 273 14:26 14.01.2022
4331 Clouds 3 1010 89 10000 4.47 282 12:58 14.01.2022
4332 Clear 3 1031 83 10000 0.45 336 11:52 14.01.2022
4333 Clouds 4 1022 81 10000 4.92 228 10:30 14.01.2022
4334 Clouds 2 1017 89 10000 4.92 222 08:53 14.01.2022
4335 Clouds 2 1023 88 10000 2.68 242 07:30 14.01.2022
4336 Clouds 3 1019 86 10000 4.02 298 02:27 14.01.2022
4337 Clear 3 1024 84 10000 2.68 256 00:21 14.01.2022
4338 Clear 4 1026 83 10000 4.12 290 21:47 13.01.2022
4339 Clear 4 1025 83 10000 4.92 224 21:47 13.01.2022
4340 Clear 5 1025 82 10000 4.47 234 21:29 13.01.2022
4341 Clear 5 1026 78 10000 0.45 312 19:47 13.01.2022
4342 Clear 5 1026 79 10000 3.58 203 19:28 13.01.2022
4343 Clear 5 1026 80 10000 5.36 231 18:37 13.01.2022
4344 Clear 6 1025 78 10000 4.02 222 16:53 13.01.2022
4345 Clear 7 1025 78 10000 5.36 231 15:39 13.01.2022
4346 Clear 7 1025 77 10000 4.92 223 15:21 13.01.2022
4347 Clouds 7 1027 77 10000 5.36 215 13:29 13.01.2022
4348 Clouds 6 1028 78 10000 0.45 325 11:18 13.01.2022
4349 Clouds 4 1028 83 10000 4.02 225 09:23 13.01.2022
4350 Clouds 3 1027 86 10000 5.81 224 08:29 13.01.2022
4351 Clouds 3 1027 85 10000 4.12 260 07:58 13.01.2022
4352 Clouds 3 1027 84 10000 6.71 230 07:19 13.01.2022
4353 Clouds 2 1028 86 10000 0.45 312 05:21 13.01.2022
4354 Clouds 2 1028 87 10000 3.58 238 04:55 13.01.2022
4355 Clouds 3 1029 89 10000 4.02 233 01:39 13.01.2022
4356 Clouds 3 1029 85 10000 0.89 231 23:54 12.01.2022
4357 Clouds 3 1029 85 10000 2.06 280 23:34 12.01.2022
4358 Clouds 3 1029 86 10000 1.34 292 22:35 12.01.2022
4359 Clouds 3 1029 88 10000 1.34 316 21:49 12.01.2022
4360 Clouds 3 1029 88 10000 0.45 119 21:20 12.01.2022
4361 Clouds 3 1029 88 10000 0.89 277 20:49 12.01.2022
4362 Clouds 3 1028 84 10000 1.34 227 19:22 12.01.2022
4363 Clouds 3 1028 82 10000 2.24 283 18:25 12.01.2022
4364 Clouds 3 1027 80 10000 2.68 233 16:58 12.01.2022
4365 Clouds 4 1028 78 10000 2.24 237 15:49 12.01.2022
4366 Clear 4 1028 77 10000 1.79 219 14:45 12.01.2022
4367 Clear 3 1028 79 10000 2.68 232 12:58 12.01.2022
4368 Clear -1 1038 85 10000 2.57 220 09:58 12.01.2022
4369 Clear -2 1038 88 10000 2.57 210 08:33 12.01.2022
4370 Clear -2 1037 86 10000 1.54 210 07:33 12.01.2022
4371 Clouds -3 1037 86 10000 2.06 190 05:30 12.01.2022
4372 Clouds -1 1037 85 10000 1.03 220 23:29 11.01.2022
4373 Clouds -1 1037 82 10000 2.06 210 22:41 11.01.2022
4374 Clouds -1 1037 82 10000 2.06 200 22:21 11.01.2022
4375 Clouds -1 1037 80 10000 2.06 210 20:49 11.01.2022
4376 Clouds -1 1037 81 10000 1.54 100 19:42 11.01.2022
4377 Clouds -2 1037 81 9000 0.51 0 18:31 11.01.2022
4378 Clouds -1 1036 82 9000 1.54 170 17:19 11.01.2022
4379 Clouds -1 1036 82 9000 2.57 130 16:37 11.01.2022
4380 Clouds 0 1036 81 9000 2.06 90 15:34 11.01.2022
4381 Clouds 0 1036 81 9000 1.54 80 14:41 11.01.2022
4382 Clouds 0 1036 82 8000 0.45 207 13:54 11.01.2022
4383 Clouds 0 1036 82 8000 1.54 190 13:32 11.01.2022
4384 Clouds 0 1036 84 8000 2.06 170 12:41 11.01.2022
4385 Clouds -1 1036 84 6000 2.06 60 10:59 11.01.2022
4386 Mist -1 1035 87 4600 1.54 80 08:58 11.01.2022
4387 Mist -1 1034 88 5000 0.89 180 06:36 11.01.2022
4388 Mist 2 1031 89 4500 3.09 80 00:30 11.01.2022
4389 Clouds 2 1030 89 9000 3.09 50 23:41 10.01.2022
4390 Clouds 2 1030 89 10000 2.06 60 22:51 10.01.2022
4391 Clouds 3 1029 89 10000 2.06 50 22:19 10.01.2022
4392 Clouds 3 1029 89 10000 2.57 50 21:53 10.01.2022
4393 Clouds 3 1028 90 10000 2.57 70 21:20 10.01.2022
4394 Clouds 3 1028 91 10000 2.06 50 20:56 10.01.2022
4395 Clouds 3 1028 91 10000 1.54 30 20:28 10.01.2022
4396 Clouds 3 1027 92 10000 1.03 0 19:42 10.01.2022
4397 Clouds 4 1027 90 10000 2.06 20 19:20 10.01.2022
4398 Clouds 4 1026 90 10000 2.57 30 18:48 10.01.2022
4399 Clouds 4 1025 91 7000 2.57 40 17:41 10.01.2022
4400 Clouds 4 1024 91 8000 2.06 350 16:42 10.01.2022
4401 Clouds 4 1023 89 10000 2.57 10 15:49 10.01.2022
4402 Clouds 5 1022 89 10000 2.57 340 14:30 10.01.2022
4403 Mist 4 1019 91 5000 2.57 330 11:58 10.01.2022
4404 Mist 4 1019 90 4000 2.57 320 11:25 10.01.2022
4405 Mist 3 1017 92 5000 2.57 300 09:52 10.01.2022
4406 Clouds 3 1015 90 10000 3.09 300 07:31 10.01.2022
4407 Clouds 3 1013 88 10000 2.57 290 05:49 10.01.2022
4408 Clouds 3 1009 88 10000 3.09 260 01:31 10.01.2022
4409 Clouds 3 1008 89 10000 3.09 260 00:25 10.01.2022
4410 Clouds 3 1008 89 10000 3.6 270 23:40 09.01.2022
4411 Rain 3 1007 90 9000 0.89 22 22:38 09.01.2022
4412 Rain 3 1006 90 10000 0.45 342 21:46 09.01.2022
4413 Rain 3 1006 90 10000 0.45 325 21:24 09.01.2022
4414 Rain 3 1006 90 10000 0.45 325 21:24 09.01.2022
4415 Clouds 3 1005 90 10000 0.89 355 20:53 09.01.2022
4416 Snow 3 1005 91 10000 0.45 9 20:34 09.01.2022
4417 Clouds 3 1005 91 7000 0.45 302 19:45 09.01.2022
4418 Clouds 3 1004 91 6000 4.12 250 19:23 09.01.2022
4419 Drizzle 3 1004 90 7000 0.89 298 18:56 09.01.2022
4420 Clouds 3 1003 90 7000 3.6 250 18:35 09.01.2022
4421 Clouds 3 1002 89 5000 0.45 346 17:45 09.01.2022
4422 Clouds 3 1002 87 10000 3.6 240 17:21 09.01.2022
4423 Clouds 3 1001 87 10000 3.6 240 16:34 09.01.2022
4424 Clouds 3 1000 84 10000 4.63 180 15:37 09.01.2022
4425 Clouds 3 999 79 10000 3.6 160 14:41 09.01.2022
4426 Clouds 3 999 76 10000 0.45 189 13:56 09.01.2022
4427 Clouds 3 999 76 10000 0.45 119 13:36 09.01.2022
4428 Clouds 2 997 79 10000 0.45 129 11:56 09.01.2022
4429 Clouds 2 997 78 10000 0.45 204 11:24 09.01.2022
4430 Clouds 1 997 80 10000 7.2 160 09:53 09.01.2022
4431 Clouds 0 997 80 10000 6.17 150 08:54 09.01.2022
4432 Clouds -1 997 80 10000 0.45 158 06:21 09.01.2022
4433 Clear -2 1001 87 10000 6.69 150 01:28 09.01.2022
4434 Clear -2 1002 87 10000 6.69 150 00:37 09.01.2022
4435 Clear -2 1004 89 10000 5.14 150 23:30 08.01.2022
4436 Clear -1 1005 88 10000 4.63 150 22:44 08.01.2022
4437 Clouds -1 1007 92 10000 4.12 170 21:27 08.01.2022
4438 Clouds -1 1008 92 10000 4.63 180 20:43 08.01.2022
4439 Clouds -1 1008 92 10000 4.12 190 20:21 08.01.2022
4440 Clouds 0 1009 91 10000 2.57 220 19:22 08.01.2022
4441 Clouds 1 1010 89 10000 2.57 250 17:25 08.01.2022
4442 Mist 1 1011 92 5000 2.57 230 16:42 08.01.2022
4443 Snow 1 1011 92 1400 1.54 240 15:28 08.01.2022
4444 Snow 2 1011 92 1500 2.06 220 13:57 08.01.2022
4445 Clouds 2 1011 90 7000 3.09 170 11:40 08.01.2022
4446 Clouds 2 1011 89 10000 3.09 170 10:33 08.01.2022
4447 Clouds 2 1011 87 8000 4.12 200 09:57 08.01.2022
4448 Clouds 1 1012 87 8000 4.12 200 09:33 08.01.2022
4449 Clouds 1 1011 84 10000 5.14 190 06:18 08.01.2022
4450 Clouds 1 1012 88 10000 2.57 170 01:41 08.01.2022
4451 Clouds 1 1004 88 10000 3.13 170 23:31 07.01.2022
4452 Clouds 1 1000 91 10000 2.68 198 21:49 07.01.2022
4453 Clouds 1 1004 92 10000 2.68 203 20:34 07.01.2022
4454 Snow 1 1001 90 1800 1.34 172 19:27 07.01.2022
4455 Snow 2 1005 86 3000 3.13 203 18:49 07.01.2022
4456 Snow 2 1005 82 6000 4.02 186 18:24 07.01.2022
4457 Clouds 2 1005 77 10000 0.45 138 17:24 07.01.2022
4458 Clouds 3 1015 73 10000 7.2 200 14:56 07.01.2022
4459 Clear 3 1015 73 10000 0.45 134 13:52 07.01.2022
4460 Clear 3 1015 73 10000 0.45 134 13:52 07.01.2022
4461 Clear 3 1016 73 10000 6.69 190 12:51 07.01.2022
4462 Clear 2 1016 76 10000 0.45 99 11:58 07.01.2022
4463 Clear -2 1018 87 10000 4.12 180 04:56 07.01.2022
4464 Clear -2 1020 88 10000 3.6 200 02:53 07.01.2022
4465 Clear -2 1020 87 10000 4.63 190 01:50 07.01.2022
4466 Clouds -2 1020 85 10000 4.63 180 01:26 07.01.2022
4467 Clouds -2 1020 87 10000 3.6 200 00:34 07.01.2022
4468 Clouds -1 1021 85 10000 1.34 305 22:42 06.01.2022
4469 Clouds -1 1020 89 10000 3.6 220 20:54 06.01.2022
4470 Clear -1 1021 86 10000 0.89 319 20:19 06.01.2022
4471 Clear -1 1021 85 10000 0.89 298 19:40 06.01.2022
4472 Clouds 0 1020 84 10000 0.45 350 17:52 06.01.2022
4473 Clouds 0 1020 84 10000 2.06 270 17:31 06.01.2022
4474 Clouds 1 1019 83 10000 1.54 270 16:40 06.01.2022
4475 Clouds 2 1019 80 10000 3.09 290 15:45 06.01.2022
4476 Clouds 2 1019 79 10000 3.6 290 15:23 06.01.2022
4477 Clouds 3 1018 78 10000 4.63 300 14:21 06.01.2022
4478 Clouds 3 1017 79 10000 4.63 290 13:46 06.01.2022
4479 Clouds 2 1017 83 10000 5.14 280 12:43 06.01.2022
4480 Clouds 1 1017 85 10000 5.14 290 11:41 06.01.2022
4481 Clouds 1 1017 85 10000 0.89 314 11:21 06.01.2022
4482 Clouds 0 1014 87 10000 5.14 310 08:50 06.01.2022
4483 Rain 3 1006 83 10000 0.89 329 00:42 06.01.2022
4484 Clouds 4 1006 84 10000 0.45 338 23:36 05.01.2022
4485 Clouds 4 1005 79 10000 0.45 324 22:54 05.01.2022
4486 Clouds 4 1005 78 10000 0.89 298 22:30 05.01.2022
4487 Clouds 4 1004 79 10000 0.89 299 21:46 05.01.2022
4488 Clouds 4 1004 78 10000 1.34 302 20:50 05.01.2022
4489 Clouds 4 1004 78 10000 1.34 325 19:59 05.01.2022
4490 Clouds 3 1003 80 10000 0.45 311 18:38 05.01.2022
4491 Clouds 3 1003 81 10000 1.34 344 17:23 05.01.2022
4492 Clouds 3 1002 79 10000 1.34 301 16:38 05.01.2022
4493 Clouds 3 1003 76 10000 0.89 289 15:21 05.01.2022
4494 Clouds 4 1002 76 10000 1.34 265 13:51 05.01.2022
4495 Clouds 3 1002 82 10000 0.45 306 12:58 05.01.2022
4496 Snow 2 1002 92 1700 0.45 321 10:32 05.01.2022
4497 Drizzle 3 999 94 10000 3.6 330 07:45 05.01.2022
4498 Clouds 6 997 85 10000 5.14 230 06:24 05.01.2022
4499 Clouds 6 998 87 10000 2.57 240 00:58 05.01.2022
4500 Clouds 6 997 89 10000 0.45 300 23:27 04.01.2022
4501 Clouds 6 997 90 10000 0.45 314 22:46 04.01.2022
4502 Clouds 5 997 91 10000 2.57 230 21:21 04.01.2022
4503 Clouds 5 996 93 10000 2.06 250 19:20 04.01.2022
4504 Clouds 6 995 93 10000 3.6 300 17:51 04.01.2022
4505 Rain 7 994 94 10000 3.6 300 16:43 04.01.2022
4506 Rain 7 994 95 8000 4.63 310 16:23 04.01.2022
4507 Rain 8 993 93 10000 1.54 300 14:54 04.01.2022
4508 Clouds 8 993 93 10000 1.54 300 14:34 04.01.2022
4509 Rain 8 993 95 6000 2.57 350 13:27 04.01.2022
4510 Rain 8 996 93 10000 1.03 0 10:41 04.01.2022
4511 Rain 7 997 94 10000 3.09 170 09:20 04.01.2022
4512 Rain 8 998 92 10000 3.6 170 08:30 04.01.2022
4513 Rain 8 1003 89 10000 0.89 331 02:32 04.01.2022
4514 Clouds 7 1005 88 10000 2.57 210 00:41 04.01.2022
4515 Clouds 8 1006 87 10000 0.45 325 23:26 03.01.2022
4516 Rain 9 1008 80 10000 2.24 343 21:52 03.01.2022
4517 Rain 9 1008 78 10000 0.89 307 21:33 03.01.2022
4518 Rain 9 1008 73 10000 0.89 342 20:22 03.01.2022
4519 Clouds 9 1009 74 10000 5.66 240 18:54 03.01.2022
4520 Clouds 9 1010 75 10000 0.45 300 18:28 03.01.2022
4521 Clouds 10 1010 73 10000 0.45 317 16:58 03.01.2022
4522 Clouds 10 1010 69 10000 0.45 355 15:40 03.01.2022
4523 Clouds 11 1011 65 10000 0.45 309 14:31 03.01.2022
4524 Clouds 11 1011 65 10000 0.45 325 14:31 03.01.2022
4525 Clouds 11 1012 62 10000 0.89 309 12:48 03.01.2022
4526 Clouds 11 1012 64 10000 0.89 308 11:38 03.01.2022
4527 Clouds 10 1012 68 10000 0.45 340 10:37 03.01.2022
4528 Clouds 9 1011 76 10000 0.89 327 08:48 03.01.2022
4529 Clouds 9 1011 78 10000 0.89 331 07:36 03.01.2022
4530 Clear 11 1011 70 10000 5.14 250 00:29 03.01.2022
4531 Clear 11 1011 69 10000 0.89 333 23:22 02.01.2022
4532 Clear 11 1012 70 10000 0.45 277 22:55 02.01.2022
4533 Clear 11 1012 68 10000 0.89 355 21:52 02.01.2022
4534 Clear 11 1012 67 10000 0.45 321 20:41 02.01.2022
4535 Clouds 12 1013 67 10000 0.45 317 20:22 02.01.2022
4536 Clouds 12 1013 66 10000 0.89 325 19:31 02.01.2022
4537 Clear 12 1013 66 10000 1.34 296 18:47 02.01.2022
4538 Clouds 13 1012 58 10000 1.34 333 17:56 02.01.2022
4539 Clouds 12 1011 63 10000 1.34 281 17:37 02.01.2022
4540 Clouds 12 1011 60 10000 0.45 329 17:18 02.01.2022
4541 Clear 11 1011 74 10000 4.63 170 16:27 02.01.2022
4542 Rain 12 993 81 10000 2.24 286 14:38 02.01.2022
4543 Rain 11 1006 80 10000 1.79 193 12:57 02.01.2022
4544 Rain 11 1007 81 10000 3.58 151 12:25 02.01.2022
4545 Clear 10 1008 83 10000 3.13 209 11:36 02.01.2022
4546 Clouds 10 997 85 10000 3.13 233 10:50 02.01.2022
4547 Clear 10 998 87 10000 4.02 190 09:52 02.01.2022
4548 Clear 7 1017 88 10000 4.12 170 07:26 02.01.2022
4549 Clear 7 1008 85 10000 2.57 160 02:20 02.01.2022
4550 Clear 9 1010 84 10000 1.79 190 23:41 01.01.2022
4551 Clear 8 1010 85 10000 1.79 160 23:22 01.01.2022
4552 Clouds 9 1015 82 10000 2.57 250 22:24 01.01.2022
4553 Clouds 10 1015 82 10000 0.89 182 21:44 01.01.2022
4554 Clouds 11 1016 80 10000 0.89 194 20:56 01.01.2022
4555 Clouds 11 1016 78 10000 1.03 240 20:19 01.01.2022
4556 Clouds 11 1016 78 10000 0.45 137 19:32 01.01.2022
4557 Clouds 11 1016 79 10000 2.24 209 18:29 01.01.2022
4558 Clouds 12 1016 78 10000 1.34 209 16:55 01.01.2022
4559 Clouds 12 1016 77 10000 0.45 314 16:34 01.01.2022
4560 Clouds 13 1016 76 10000 0.45 284 15:33 01.01.2022
4561 Clouds 13 1016 75 10000 2.24 280 14:22 01.01.2022
4562 Clouds 13 1016 75 10000 0.89 221 13:28 01.01.2022
4563 Clouds 13 1015 76 10000 1.34 275 11:59 01.01.2022
4564 Clouds 13 1016 76 10000 0.45 258 11:24 01.01.2022
4565 Clouds 13 1015 77 10000 0.89 324 10:43 01.01.2022
4566 Clouds 13 1015 78 10000 0.89 284 09:47 01.01.2022
4567 Clouds 12 1014 80 10000 0.45 346 08:27 01.01.2022
4568 Clouds 12 1014 81 10000 0.89 321 07:56 01.01.2022
4569 Clouds 12 1013 81 10000 0.89 11 07:37 01.01.2022
4570 Clouds 12 1013 81 10000 0.89 11 07:37 01.01.2022
4571 Clouds 12 1013 80 10000 0.45 275 06:43 01.01.2022
4572 Clouds 13 1012 80 10000 4.92 227 04:39 01.01.2022
4573 Clouds 13 1012 80 10000 2.68 242 03:48 01.01.2022
4574 Clouds 13 1011 80 10000 0.89 321 23:53 31.12.2021
4575 Clouds 13 1009 77 10000 0.45 61 21:56 31.12.2021
4576 Clouds 13 1009 76 10000 1.34 188 21:32 31.12.2021
4577 Rain 13 1008 75 10000 0.89 355 19:43 31.12.2021
4578 Clear 14 1016 71 10000 5.66 250 18:47 31.12.2021
4579 Clear 14 1008 73 10000 0.89 328 17:49 31.12.2021
4580 Rain 14 1008 73 10000 0.89 328 17:24 31.12.2021
4581 Clouds 13 1008 73 10000 0.89 327 16:51 31.12.2021
4582 Clouds 14 1008 72 10000 0.89 318 16:18 31.12.2021
4583 Clouds 14 1008 71 10000 3.13 206 15:42 31.12.2021
4584 Clouds 14 1009 69 10000 0.45 308 15:20 31.12.2021
4585 Clouds 15 1008 67 10000 0.45 311 14:38 31.12.2021
4586 Clouds 16 1008 65 10000 0.89 327 13:45 31.12.2021
4587 Clouds 16 1008 65 10000 0.89 327 13:45 31.12.2021
4588 Clouds 15 1009 67 10000 4.47 238 12:50 31.12.2021
4589 Clouds 15 1009 69 10000 1.34 317 12:20 31.12.2021
4590 Clouds 14 1009 72 10000 0.45 298 11:41 31.12.2021
4591 Clouds 14 1010 75 10000 0.89 306 10:55 31.12.2021
4592 Clouds 14 1010 75 10000 5.81 236 10:28 31.12.2021
4593 Clouds 14 1010 76 10000 0.89 317 09:34 31.12.2021
4594 Clear 14 1010 77 10000 1.34 94 08:52 31.12.2021
4595 Clouds 13 1009 79 10000 1.34 314 07:55 31.12.2021
4596 Clouds 13 1009 80 10000 0.45 311 04:55 31.12.2021
4597 Clouds 13 1008 84 10000 0.45 313 23:18 30.12.2021
4598 Clouds 13 1008 83 10000 5.36 231 22:32 30.12.2021
4599 Clouds 13 1008 81 10000 0.45 355 21:39 30.12.2021
4600 Clouds 13 1008 81 10000 0.45 355 21:19 30.12.2021
4601 Clouds 14 1008 81 10000 3.58 236 20:40 30.12.2021
4602 Clear 13 1007 84 10000 0.45 333 19:56 30.12.2021
4603 Clouds 13 1007 85 10000 4.92 235 19:31 30.12.2021
4604 Clouds 13 1006 85 10000 1.34 319 18:28 30.12.2021
4605 Clouds 14 1006 83 10000 0.45 309 16:53 30.12.2021
4606 Clouds 13 1005 83 10000 0.45 279 15:54 30.12.2021
4607 Clouds 13 1005 88 10000 0.89 5 15:21 30.12.2021
4608 Clouds 12 1005 89 4500 1.34 337 14:36 30.12.2021
4609 Rain 13 1005 85 10000 0.45 275 13:31 30.12.2021
4610 Clouds 12 1006 85 10000 0.45 341 11:58 30.12.2021
4611 Rain 11 1006 85 10000 3.58 236 10:40 30.12.2021
4612 Clouds 11 1006 87 10000 2.68 237 09:50 30.12.2021
4613 Clouds 11 1006 87 10000 2.68 237 09:50 30.12.2021
4614 Clouds 10 1005 90 10000 0.45 324 07:42 30.12.2021
4615 Clouds 9 1004 92 10000 4.63 270 06:38 30.12.2021
4616 Mist 7 991 97 4500 4.47 287 03:41 30.12.2021
4617 Clouds 6 997 94 10000 2.24 207 02:35 30.12.2021
4618 Rain 6 997 92 10000 1.79 204 23:41 29.12.2021
4619 Rain 6 997 93 10000 1.79 209 22:59 29.12.2021
4620 Clouds 6 997 93 10000 1.79 193 22:18 29.12.2021
4621 Clouds 6 997 93 10000 2.24 197 21:27 29.12.2021
4622 Clouds 5 1001 95 10000 2.24 216 20:34 29.12.2021
4623 Clouds 6 1001 95 10000 3.58 233 19:48 29.12.2021
4624 Drizzle 6 1000 95 8000 1.34 222 18:47 29.12.2021
4625 Drizzle 6 996 95 6000 3.58 233 17:54 29.12.2021
4626 Mist 6 996 95 4000 2.24 237 17:27 29.12.2021
4627 Drizzle 6 1000 95 4500 1.34 209 16:24 29.12.2021
4628 Drizzle 6 999 95 2000 2.24 231 15:48 29.12.2021
4629 Mist 6 998 94 2600 0.89 350 14:19 29.12.2021
4630 Drizzle 6 997 94 6000 2.57 220 12:37 29.12.2021
4631 Drizzle 5 997 92 9000 3.09 210 11:43 29.12.2021
4632 Clouds 4 996 91 10000 1.34 198 09:59 29.12.2021
4633 Clouds 3 995 92 10000 2.68 232 07:52 29.12.2021
4634 Clouds 3 994 92 10000 1.79 227 06:40 29.12.2021
4635 Clouds 3 994 92 10000 2.68 235 06:22 29.12.2021
4636 Clouds 3 993 92 10000 2.68 229 05:39 29.12.2021
4637 Clouds 3 991 92 10000 1.79 136 02:48 29.12.2021
4638 Clouds 3 986 92 10000 3.13 221 00:23 29.12.2021
4639 Clear 3 990 90 10000 4.47 205 23:35 28.12.2021
4640 Clouds 4 985 92 10000 2.68 209 22:42 28.12.2021
4641 Clouds 4 985 91 10000 4.02 227 22:24 28.12.2021
4642 Clouds 4 989 90 10000 0.45 177 21:38 28.12.2021
4643 Rain 3 985 90 10000 0.45 162 20:40 28.12.2021
4644 Rain 3 984 88 10000 0.45 113 19:31 28.12.2021
4645 Rain 3 985 86 10000 0.45 189 18:41 28.12.2021
4646 Clouds 3 989 86 10000 0.89 221 17:59 28.12.2021
4647 Rain 2 989 85 10000 0.89 157 16:34 28.12.2021
4648 Clouds 2 990 84 10000 0.45 224 15:50 28.12.2021
4649 Clouds 3 990 82 10000 0.89 173 15:22 28.12.2021
4650 Clouds 2 990 83 10000 0.89 164 14:50 28.12.2021
4651 Clear 2 991 83 10000 1.34 140 14:21 28.12.2021
4652 Clear 3 991 82 10000 1.79 214 13:42 28.12.2021
4653 Clear 3 992 80 10000 0.89 154 13:24 28.12.2021
4654 Clear 3 992 80 10000 0.89 126 12:49 28.12.2021
4655 Clear 3 993 79 10000 1.34 89 11:46 28.12.2021
4656 Clouds 1 994 85 10000 1.34 98 08:53 28.12.2021
4657 Snow 0 994 87 10000 0.89 196 07:28 28.12.2021
4658 Clear 0 996 86 10000 0.45 126 00:59 28.12.2021
4659 Clear -1 997 86 10000 1.79 95 23:26 27.12.2021
4660 Clear -1 998 85 10000 1.34 108 21:46 27.12.2021
4661 Clear -1 998 85 10000 0.89 92 21:26 27.12.2021
4662 Clear -1 998 86 10000 0.45 217 20:24 27.12.2021
4663 Clear 0 998 84 10000 0.45 189 19:43 27.12.2021
4664 Clouds 0 998 84 10000 1.79 110 18:54 27.12.2021
4665 Clouds 0 997 84 10000 0.45 175 17:50 27.12.2021
4666 Clouds 1 998 83 10000 0.45 165 16:57 27.12.2021
4667 Snow 1 997 83 10000 0.89 113 15:53 27.12.2021
4668 Clouds 1 998 83 10000 0.45 207 14:34 27.12.2021
4669 Clouds 1 997 82 10000 0.89 284 13:58 27.12.2021
4670 Clouds 1 997 82 10000 0.45 113 12:47 27.12.2021
4671 Clouds 0 999 83 10000 1.34 80 10:36 27.12.2021
4672 Clouds 0 999 83 10000 0.45 134 10:18 27.12.2021
4673 Snow -1 999 83 10000 0.45 242 08:41 27.12.2021
4674 Snow -1 1009 81 10000 6.17 150 07:33 27.12.2021
4675 Clouds -2 1010 72 10000 0.89 203 02:29 27.12.2021
4676 Clouds -2 1011 74 10000 0.45 177 00:29 27.12.2021
4677 Clouds -3 1011 72 10000 0.45 159 23:42 26.12.2021
4678 Clear -3 1011 73 10000 6.69 150 23:18 26.12.2021
4679 Clear -4 1012 71 10000 0.89 169 21:33 26.12.2021
4680 Clear -5 1013 71 10000 4.63 140 19:54 26.12.2021
4681 Clear -4 1013 69 10000 4.63 140 18:39 26.12.2021
4682 Clear -4 1013 69 10000 0.45 162 18:19 26.12.2021
4683 Clear -3 1013 68 10000 0.89 131 15:35 26.12.2021
4684 Clear -2 1013 74 10000 0.45 223 13:43 26.12.2021
4685 Clear -2 1014 68 10000 0.45 72 13:21 26.12.2021
4686 Clear -3 1014 70 10000 0.45 153 12:35 26.12.2021
4687 Clear -4 1014 69 10000 3.09 130 11:18 26.12.2021
4688 Clear -8 1012 83 10000 2.57 140 09:30 26.12.2021
4689 Clear -8 1012 84 10000 3.09 140 08:45 26.12.2021
4690 Clear -9 1012 84 10000 3.6 140 08:26 26.12.2021
4691 Clear -9 1012 87 10000 1.54 140 01:50 26.12.2021
4692 Clear -8 1013 91 10000 2.06 150 00:39 26.12.2021
4693 Clear -8 1013 88 10000 1.03 0 23:35 25.12.2021
4694 Clear -8 1014 89 10000 2.06 120 22:38 25.12.2021
4695 Clear -8 1014 89 10000 1.03 120 22:20 25.12.2021
4696 Clear -7 1014 89 10000 1.03 110 20:26 25.12.2021
4697 Clear -7 1014 89 10000 1.03 130 19:19 25.12.2021
4698 Clear -6 1014 89 10000 1.03 160 18:37 25.12.2021
4699 Clouds -5 1014 89 10000 2.06 80 16:50 25.12.2021
4700 Clouds -4 1013 87 10000 2.57 40 15:38 25.12.2021
4701 Clear -3 1013 84 10000 3.09 60 14:23 25.12.2021
4702 Clouds -3 1013 85 10000 2.57 50 12:40 25.12.2021
4703 Clouds -2 1012 84 10000 3.09 80 10:49 25.12.2021
4704 Clouds -3 1012 86 10000 3.6 90 09:49 25.12.2021
4705 Snow -3 1011 90 10000 3.09 40 07:28 25.12.2021
4706 Snow 0 1008 94 5000 2.06 10 01:43 25.12.2021
4707 Mist 1 1007 95 2000 3.09 20 00:23 25.12.2021
4708 Snow 1 1006 94 3500 2.57 320 22:26 24.12.2021
4709 Snow 2 1003 91 3500 3.6 350 19:29 24.12.2021
4710 Clouds 3 1003 90 9000 5.66 360 18:57 24.12.2021
4711 Clouds 8 999 83 10000 0.89 271 16:49 24.12.2021
4712 Clouds 9 999 75 10000 1.79 11 15:53 24.12.2021
4713 Clouds 9 999 74 10000 0.89 288 15:34 24.12.2021
4714 Clouds 10 999 74 10000 0.89 321 14:36 24.12.2021
4715 Clouds 10 999 74 10000 2.24 336 14:18 24.12.2021
4716 Clouds 10 999 75 10000 0.89 355 13:33 24.12.2021
4717 Clouds 10 999 75 10000 1.79 310 12:47 24.12.2021
4718 Clouds 10 999 80 10000 0.89 10 11:52 24.12.2021
4719 Clouds 9 999 84 10000 0.89 32 11:25 24.12.2021
4720 Drizzle 9 1000 86 10000 1.79 5 10:46 24.12.2021
4721 Clouds 8 1000 92 10000 0.45 318 09:32 24.12.2021
4722 Clouds 7 1000 93 8000 1.79 320 08:23 24.12.2021
4723 Clouds 7 1000 94 4700 1.79 313 07:47 24.12.2021
4724 Rain 6 1001 91 7000 4.12 260 02:33 24.12.2021
4725 Rain 4 1002 91 10000 4.12 220 23:56 23.12.2021
4726 Clouds 3 1003 86 10000 4.63 220 22:58 23.12.2021
4727 Rain 2 1003 86 10000 4.63 220 22:37 23.12.2021
4728 Clouds 2 1003 85 10000 4.12 220 22:18 23.12.2021
4729 Clouds 1 1004 86 10000 3.09 190 20:56 23.12.2021
4730 Snow 1 1006 85 10000 3.09 180 20:18 23.12.2021
4731 Snow 1 1006 85 10000 3.09 180 20:18 23.12.2021
4732 Rain 1 1007 81 10000 2.06 220 18:35 23.12.2021
4733 Snow 0 1008 77 10000 4.63 170 17:57 23.12.2021
4734 Snow 0 1009 76 10000 4.12 170 16:44 23.12.2021
4735 Clear 0 1010 74 10000 0.45 198 16:24 23.12.2021
4736 Snow 0 1010 72 10000 1.34 173 15:31 23.12.2021
4737 Clear 0 1011 71 10000 0.45 211 14:52 23.12.2021
4738 Clear 0 1011 72 10000 0.89 159 14:30 23.12.2021
4739 Snow 0 1013 73 10000 0.89 234 12:57 23.12.2021
4740 Snow -1 1014 79 10000 0.45 168 10:52 23.12.2021
4741 Snow -2 1016 78 10000 0.45 235 09:47 23.12.2021
4742 Clear -2 1017 78 10000 0.45 202 08:59 23.12.2021
4743 Clear -2 1017 78 10000 0.45 202 08:59 23.12.2021
4744 Clear -2 1018 81 10000 6.17 150 06:58 23.12.2021
4745 Clear -2 1018 84 10000 5.14 150 04:33 23.12.2021
4746 Clear -2 1023 86 10000 3.09 150 23:26 22.12.2021
4747 Clear -2 1023 86 10000 3.09 150 23:26 22.12.2021
4748 Clear -2 1024 86 10000 3.09 150 22:47 22.12.2021
4749 Clear -2 1024 85 10000 3.09 150 21:57 22.12.2021
4750 Clear -2 1024 85 10000 1.54 140 21:29 22.12.2021
4751 Clear -2 1024 85 10000 3.09 170 20:50 22.12.2021
4752 Clear -2 1025 85 10000 3.09 170 20:30 22.12.2021
4753 Clear -2 1026 82 10000 3.6 180 19:32 22.12.2021
4754 Clear -1 1027 80 10000 3.6 150 17:55 22.12.2021
4755 Clear -1 1026 79 10000 3.09 150 17:34 22.12.2021
4756 Clear 1 1027 72 10000 1.03 0 15:46 22.12.2021
4757 Clear 2 1027 70 10000 1.54 190 13:44 22.12.2021
4758 Clear 1 1028 73 10000 2.57 200 12:41 22.12.2021
4759 Clouds -1 1029 84 9000 2.57 170 10:48 22.12.2021
4760 Mist -2 1027 97 5000 2.06 180 09:40 22.12.2021
4761 Clouds -2 1028 85 10000 1.03 0 07:48 22.12.2021
4762 Clouds -1 1028 83 10000 1.03 0 05:51 22.12.2021
4763 Clouds -1 1028 90 10000 1.03 230 05:28 22.12.2021
4764 Clouds -1 1029 87 10000 0.51 230 04:55 22.12.2021
4765 Snow -1 1029 85 10000 0.51 0 04:31 22.12.2021
4766 Snow -1 1028 85 10000 1.03 210 03:34 22.12.2021
4767 Snow -1 1028 88 9000 1.03 340 01:37 22.12.2021
4768 Clouds 0 1028 88 9000 1.54 270 23:47 21.12.2021
4769 Clouds -1 1027 87 7000 1.54 340 22:29 21.12.2021
4770 Clouds -1 1027 87 7000 1.54 300 21:53 21.12.2021
4771 Mist -1 1027 87 5000 1.54 330 21:26 21.12.2021
4772 Clouds 0 1027 90 7000 0.51 0 20:23 21.12.2021
4773 Clouds 0 1027 87 7000 1.54 270 19:52 21.12.2021
4774 Clouds 0 1027 87 10000 1.54 330 19:26 21.12.2021
4775 Clouds 0 1027 86 10000 2.06 320 18:23 21.12.2021
4776 Clouds 1 1027 85 10000 2.06 320 17:52 21.12.2021
4777 Clouds 1 1026 84 10000 3.09 300 16:47 21.12.2021
4778 Clouds 1 1026 84 10000 2.57 290 15:33 21.12.2021
4779 Rain 1 1026 85 10000 2.57 290 13:51 21.12.2021
4780 Rain 1 1026 84 10000 2.57 290 13:32 21.12.2021
4781 Rain 1 1026 86 10000 2.57 280 12:25 21.12.2021
4782 Rain 1 1027 88 8000 3.6 300 10:38 21.12.2021
4783 Rain 1 1027 88 8000 3.6 310 09:41 21.12.2021
4784 Clouds 1 1026 88 10000 3.09 300 08:39 21.12.2021
4785 Clouds 1 1026 88 9000 2.06 290 07:35 21.12.2021
4786 Clouds 1 1026 88 9000 2.06 290 06:56 21.12.2021
4787 Clouds 1 1027 88 10000 0.45 315 03:24 21.12.2021
4788 Snow 1 1027 87 7000 2.06 290 01:19 21.12.2021
4789 Clouds 1 1027 87 10000 3.09 300 23:54 20.12.2021
4790 Clouds 1 1027 87 10000 2.57 260 22:35 20.12.2021
4791 Clouds 1 1027 86 10000 1.54 280 21:48 20.12.2021
4792 Clouds 1 1027 86 10000 1.54 280 21:24 20.12.2021
4793 Clouds 1 1027 87 10000 1.54 290 20:50 20.12.2021
4794 Clouds 1 1027 87 10000 2.06 280 20:19 20.12.2021
4795 Clouds 1 1027 87 10000 2.06 280 19:36 20.12.2021
4796 Clouds 1 1027 87 10000 1.54 300 19:18 20.12.2021
4797 Clouds 1 1027 87 10000 2.57 310 18:28 20.12.2021
4798 Clouds 2 1026 85 10000 2.06 310 17:49 20.12.2021
4799 Clouds 2 1026 84 10000 2.06 340 16:45 20.12.2021
4800 Clouds 2 1025 84 10000 2.57 330 15:55 20.12.2021
4801 Clouds 2 1025 83 10000 3.09 310 15:31 20.12.2021
4802 Clouds 2 1025 85 10000 5.14 310 13:31 20.12.2021
4803 Clouds 2 1025 86 10000 3.6 300 11:47 20.12.2021
4804 Clouds 1 1025 87 10000 3.6 290 10:35 20.12.2021
4805 Clouds 0 1025 90 10000 0.45 311 09:38 20.12.2021
4806 Clouds 0 1024 90 10000 3.6 290 08:49 20.12.2021
4807 Clouds 0 1024 90 10000 3.6 290 08:31 20.12.2021
4808 Clear 0 1024 90 10000 3.6 280 07:32 20.12.2021
4809 Clouds 0 1023 90 10000 4.12 280 06:32 20.12.2021
4810 Clouds 0 1023 90 10000 4.12 280 06:32 20.12.2021
4811 Clouds 4 1021 90 10000 4.12 340 00:20 20.12.2021
4812 Clouds 5 1020 90 10000 6.17 330 22:56 19.12.2021
4813 Clouds 5 1020 92 10000 4.63 330 22:24 19.12.2021
4814 Clouds 6 1020 91 10000 6.17 320 21:32 19.12.2021
4815 Clouds 6 1019 91 10000 7.2 310 20:36 19.12.2021
4816 Clouds 6 1019 91 10000 7.2 310 19:53 19.12.2021
4817 Clouds 6 1019 92 10000 7.2 310 19:34 19.12.2021
4818 Clouds 6 1020 92 10000 6.69 300 18:37 19.12.2021
4819 Clouds 6 1020 92 10000 6.17 300 17:53 19.12.2021
4820 Clouds 6 1020 92 10000 7.2 300 17:28 19.12.2021
4821 Drizzle 6 1020 91 4500 7.2 300 16:27 19.12.2021
4822 Drizzle 6 1020 90 6000 0.45 342 15:52 19.12.2021
4823 Drizzle 6 1020 89 4000 0.89 345 15:24 19.12.2021
4824 Drizzle 6 1021 88 7000 0.45 278 14:45 19.12.2021
4825 Drizzle 6 1022 87 10000 0.45 327 13:27 19.12.2021
4826 Drizzle 6 1022 87 10000 0.45 315 12:52 19.12.2021
4827 Drizzle 6 1022 86 10000 5.66 280 12:29 19.12.2021
4828 Drizzle 6 1023 88 8000 5.66 280 11:37 19.12.2021
4829 Drizzle 6 1024 88 7000 0.89 360 10:49 19.12.2021
4830 Drizzle 6 1024 88 7000 0.45 298 10:22 19.12.2021
4831 Drizzle 6 1025 86 10000 0.45 263 08:46 19.12.2021
4832 Clouds 6 1025 82 10000 6.17 280 06:30 19.12.2021
4833 Clouds 7 1028 85 10000 5.14 280 01:51 19.12.2021
4834 Drizzle 7 1029 89 10000 0.45 309 00:54 19.12.2021
4835 Drizzle 6 1030 91 7000 4.12 280 22:59 18.12.2021
4836 Drizzle 6 1030 90 10000 4.12 280 22:24 18.12.2021
4837 Drizzle 6 1031 92 6000 0.45 315 21:43 18.12.2021
4838 Drizzle 6 1031 92 8000 4.12 280 21:22 18.12.2021
4839 Drizzle 6 1032 92 6000 3.6 290 20:26 18.12.2021
4840 Drizzle 6 1032 92 4500 4.12 270 19:35 18.12.2021
4841 Drizzle 6 1033 89 4500 0.45 321 18:24 18.12.2021
4842 Drizzle 5 1033 89 4500 3.09 260 17:49 18.12.2021
4843 Drizzle 6 1033 87 7000 4.63 250 16:36 18.12.2021
4844 Clouds 6 1034 85 10000 4.12 250 16:18 18.12.2021
4845 Clouds 6 1034 85 10000 4.63 270 14:54 18.12.2021
4846 Clouds 6 1035 85 10000 5.14 270 13:45 18.12.2021
4847 Drizzle 6 1036 87 8000 4.12 270 11:57 18.12.2021
4848 Clouds 5 1037 87 10000 3.6 270 09:54 18.12.2021
4849 Clouds 5 1037 87 10000 3.6 270 09:32 18.12.2021
4850 Clouds 5 1037 88 10000 3.09 280 08:36 18.12.2021
4851 Clouds 5 1037 88 10000 2.57 280 07:24 18.12.2021
4852 Clouds 5 1038 89 10000 3.09 290 01:45 18.12.2021
4853 Clouds 5 1038 88 10000 1.54 320 23:51 17.12.2021
4854 Clouds 5 1038 87 10000 2.06 320 22:40 17.12.2021
4855 Clouds 5 1038 85 10000 3.09 340 21:49 17.12.2021
4856 Clouds 5 1037 87 10000 4.12 310 20:44 17.12.2021
4857 Clouds 5 1037 89 10000 4.12 310 19:57 17.12.2021
4858 Clouds 5 1037 91 8000 4.12 300 18:40 17.12.2021
4859 Clouds 5 1037 91 8000 3.6 290 18:18 17.12.2021
4860 Clouds 5 1037 91 6000 4.12 290 16:57 17.12.2021
4861 Clouds 5 1037 91 7000 4.12 300 16:28 17.12.2021
4862 Drizzle 5 1037 91 6000 4.12 300 15:51 17.12.2021
4863 Mist 5 1037 92 3500 4.12 290 14:43 17.12.2021
4864 Clouds 5 1037 90 6000 4.12 290 13:55 17.12.2021
4865 Drizzle 5 1038 90 4500 3.6 290 12:38 17.12.2021
4866 Mist 4 1038 91 2500 5.66 300 10:49 17.12.2021
4867 Fog 4 1037 92 600 5.66 300 09:47 17.12.2021
4868 Drizzle 5 1028 93 1300 0.45 340 08:43 17.12.2021
4869 Fog 4 1028 93 1500 0.45 327 08:18 17.12.2021
4870 Clouds 6 1027 92 10000 1.79 281 04:58 17.12.2021
4871 Clouds 6 1027 92 10000 1.34 26 00:58 17.12.2021
4872 Clouds 5 1028 93 10000 2.24 288 22:44 16.12.2021
4873 Clouds 5 1028 94 10000 2.57 280 22:22 16.12.2021
4874 Clouds 5 1028 94 10000 1.34 182 21:43 16.12.2021
4875 Clouds 5 1028 94 10000 2.57 290 20:48 16.12.2021
4876 Clouds 6 1028 93 10000 3.09 290 20:21 16.12.2021
4877 Clouds 6 1028 93 10000 0.45 124 19:30 16.12.2021
4878 Clouds 7 1027 94 10000 3.09 300 18:33 16.12.2021
4879 Clouds 8 1027 94 10000 3.09 310 17:47 16.12.2021
4880 Drizzle 8 1026 95 3500 0.89 229 16:26 16.12.2021
4881 Drizzle 8 1026 95 3800 0.89 132 15:50 16.12.2021
4882 Drizzle 8 1025 94 1300 4.02 270 13:46 16.12.2021
4883 Drizzle 8 1025 92 1600 1.34 284 12:27 16.12.2021
4884 Drizzle 8 1025 93 2000 2.68 252 11:19 16.12.2021
4885 Drizzle 8 1025 91 3500 4.12 270 10:41 16.12.2021
4886 Mist 7 1024 93 2000 3.58 238 09:43 16.12.2021
4887 Drizzle 7 1023 91 4500 0.89 243 06:51 16.12.2021
4888 Drizzle 7 1023 89 9000 0.89 192 06:18 16.12.2021
4889 Clouds 7 1023 90 10000 1.79 212 23:59 15.12.2021
4890 Clouds 7 1022 92 10000 0.45 331 23:18 15.12.2021
4891 Drizzle 7 1023 91 5000 0.45 280 22:21 15.12.2021
4892 Drizzle 7 1023 91 5000 1.34 229 21:44 15.12.2021
4893 Drizzle 8 1023 90 10000 2.24 233 21:24 15.12.2021
4894 Clouds 8 1022 89 10000 0.89 222 19:54 15.12.2021
4895 Drizzle 8 1022 87 10000 1.79 234 19:18 15.12.2021
4896 Clouds 8 1022 87 10000 0.45 303 18:24 15.12.2021
4897 Clouds 8 1022 87 10000 2.24 239 17:46 15.12.2021
4898 Clouds 8 1022 86 10000 2.68 233 17:21 15.12.2021
4899 Clouds 8 1021 87 10000 2.68 240 15:59 15.12.2021
4900 Clouds 8 1021 86 10000 3.6 250 15:41 15.12.2021
4901 Clouds 8 1021 87 10000 3.58 229 15:23 15.12.2021
4902 Clouds 8 1021 88 10000 1.79 237 13:48 15.12.2021
4903 Clouds 8 1021 85 10000 3.58 219 11:52 15.12.2021
4904 Clouds 8 1022 86 10000 4.02 226 10:22 15.12.2021
4905 Clouds 6 1021 88 10000 2.68 228 08:27 15.12.2021
4906 Clouds 6 1021 89 10000 4.92 238 05:59 15.12.2021
4907 Clouds 6 1020 93 6000 1.34 194 00:45 15.12.2021
4908 Mist 6 1020 94 2000 2.24 232 23:32 14.12.2021
4909 Drizzle 6 1020 93 2000 1.34 230 22:45 14.12.2021
4910 Drizzle 6 1019 93 2800 0.89 228 21:47 14.12.2021
4911 Clouds 6 1019 89 10000 1.79 207 20:24 14.12.2021
4912 Clouds 6 1019 89 10000 2.57 250 19:39 14.12.2021
4913 Clouds 6 1018 89 10000 1.34 238 18:42 14.12.2021
4914 Clouds 6 1018 88 10000 1.34 237 17:58 14.12.2021
4915 Clouds 6 1017 88 10000 1.79 195 16:58 14.12.2021
4916 Clouds 6 1018 88 10000 1.34 226 16:35 14.12.2021
4917 Clouds 7 1017 87 10000 1.79 230 14:39 14.12.2021
4918 Clouds 7 1017 87 10000 1.34 229 13:24 14.12.2021
4919 Clouds 7 1017 87 10000 0.89 234 11:56 14.12.2021
4920 Clouds 7 1018 88 10000 0.89 228 11:22 14.12.2021
4921 Clouds 6 1018 90 10000 0.45 219 09:55 14.12.2021
4922 Clouds 6 1018 91 10000 0.45 235 09:34 14.12.2021
4923 Clouds 6 1018 93 10000 1.34 219 08:23 14.12.2021
4924 Drizzle 6 1018 92 10000 1.34 212 07:43 14.12.2021
4925 Clouds 7 1019 92 10000 1.34 218 01:46 14.12.2021
4926 Clouds 7 1019 96 6000 0.89 216 22:50 13.12.2021
4927 Clouds 7 1019 97 6000 0.89 204 21:52 13.12.2021
4928 Clouds 7 1019 97 6000 0.89 204 21:52 13.12.2021
4929 Drizzle 7 1019 97 2800 0.89 222 20:59 13.12.2021
4930 Drizzle 7 1020 97 2200 2.57 280 20:34 13.12.2021
4931 Mist 7 1019 97 3200 0.89 270 19:52 13.12.2021
4932 Mist 7 1028 96 1600 2.06 270 17:56 13.12.2021
4933 Drizzle 7 1028 96 1800 2.06 270 17:24 13.12.2021
4934 Drizzle 7 1027 95 1800 2.06 280 15:50 13.12.2021
4935 Drizzle 7 1018 96 1800 0.89 225 15:19 13.12.2021
4936 Drizzle 6 1027 94 2700 2.57 280 13:38 13.12.2021
4937 Mist 6 1018 95 1200 1.34 254 12:46 13.12.2021
4938 Mist 6 1018 95 3500 2.24 239 11:54 13.12.2021
4939 Mist 6 1018 95 3500 1.79 231 11:35 13.12.2021
4940 Drizzle 5 1018 95 2500 0.89 229 10:43 13.12.2021
4941 Mist 5 1017 95 2600 1.34 226 08:57 13.12.2021
4942 Mist 4 1017 96 3200 0.89 216 07:46 13.12.2021
4943 Mist 5 1012 96 5000 1.79 232 05:35 13.12.2021
4944 Drizzle 4 1011 95 2500 1.79 209 03:26 13.12.2021
4945 Clouds 4 1011 94 3000 3.13 212 22:23 12.12.2021
4946 Clouds 3 1015 94 3000 4.02 218 21:38 12.12.2021
4947 Rain 3 1015 89 10000 3.13 229 19:47 12.12.2021
4948 Rain 3 1015 86 10000 3.58 227 18:36 12.12.2021
4949 Clouds 3 1015 86 10000 5.14 200 18:36 12.12.2021
4950 Clouds 3 1015 84 10000 4.63 200 17:31 12.12.2021
4951 Clouds 3 1015 81 10000 4.63 180 16:27 12.12.2021
4952 Clouds 3 1015 82 10000 2.68 171 15:46 12.12.2021
4953 Clouds 4 1015 81 10000 2.68 171 15:25 12.12.2021
4954 Rain 4 1015 80 10000 2.68 232 14:34 12.12.2021
4955 Clear 4 1016 80 10000 2.68 214 13:26 12.12.2021
4956 Clear 3 1016 81 10000 2.68 217 12:30 12.12.2021
4957 Clear 2 1016 84 10000 3.13 209 11:44 12.12.2021
4958 Clear 2 1013 85 10000 3.13 202 11:22 12.12.2021
4959 Clear 1 1005 90 10000 2.68 220 10:22 12.12.2021
4960 Clear 0 1005 93 10000 2.24 212 09:38 12.12.2021
4961 Clouds 0 1005 93 10000 2.24 215 08:33 12.12.2021
4962 Clouds -1 1004 92 10000 4.47 232 06:19 12.12.2021
4963 Clear -3 1024 92 10000 3.6 220 04:56 12.12.2021
4964 Clear -3 1024 92 10000 3.09 220 03:31 12.12.2021
4965 Clear -1 1023 90 10000 2.06 220 23:47 11.12.2021
4966 Clear 0 1022 91 10000 2.06 220 22:23 11.12.2021
4967 Clouds 0 1022 89 10000 1.54 220 21:52 11.12.2021
4968 Clouds 0 1022 89 10000 2.57 200 21:18 11.12.2021
4969 Clouds 0 1021 89 10000 1.54 220 19:30 11.12.2021
4970 Clouds 0 1020 90 9000 1.54 200 18:52 11.12.2021
4971 Clouds 0 1020 90 9000 1.03 0 18:26 11.12.2021
4972 Clouds 0 1019 89 9000 0.51 10 17:24 11.12.2021
4973 Clouds 0 1018 90 8000 0.51 0 15:55 11.12.2021
4974 Clouds 0 1018 90 8000 0.51 320 15:30 11.12.2021
4975 Clouds 0 1015 88 10000 3.09 310 12:59 11.12.2021
4976 Clouds -1 1014 87 10000 2.06 270 11:46 11.12.2021
4977 Clear -3 1012 90 10000 1.03 0 09:47 11.12.2021
4978 Clear -4 1012 91 10000 2.57 220 09:18 11.12.2021
4979 Clear -2 1005 90 10000 2.57 160 02:40 11.12.2021
4980 Clouds -1 1003 87 10000 2.06 140 00:42 11.12.2021
4981 Clouds 0 1002 89 10000 2.06 120 23:24 10.12.2021
4982 Clouds 0 1001 90 10000 2.06 130 21:57 10.12.2021
4983 Clouds 0 1001 90 10000 2.06 130 21:37 10.12.2021
4984 Clouds 0 1000 92 10000 2.06 120 19:23 10.12.2021
4985 Clouds 0 999 91 10000 2.06 140 18:57 10.12.2021
4986 Clouds 1 998 90 10000 3.09 130 17:21 10.12.2021
4987 Clouds 1 998 90 10000 3.09 140 16:32 10.12.2021
4988 Rain 2 998 85 10000 4.12 140 15:42 10.12.2021
4989 Clouds 2 998 86 10000 5.14 150 15:23 10.12.2021
4990 Clouds 3 998 83 10000 4.12 150 13:53 10.12.2021
4991 Clouds 3 998 88 10000 3.09 140 13:31 10.12.2021
4992 Clear 3 998 86 10000 3.6 150 12:47 10.12.2021
4993 Clouds 2 998 89 10000 3.09 150 11:34 10.12.2021
4994 Clouds 2 999 90 10000 2.57 140 10:50 10.12.2021
4995 Clouds 1 999 93 10000 2.57 160 09:33 10.12.2021
4996 Clouds 1 1000 94 9000 2.06 180 07:24 10.12.2021
4997 Snow 1 1003 93 2000 1.03 210 02:53 10.12.2021
4998 Snow 1 1004 93 1600 0.51 140 01:32 10.12.2021
4999 Snow 1 1005 93 1500 0.51 0 23:39 09.12.2021
5000 Snow 1 1005 91 1300 0.51 280 22:41 09.12.2021
5001 Snow 1 1005 91 1300 0.51 0 22:21 09.12.2021
5002 Mist 1 1005 91 2000 1.03 300 21:38 09.12.2021
5003 Snow 1 1006 91 2000 1.03 0 20:34 09.12.2021
5004 Mist 1 1005 91 1800 1.03 0 19:38 09.12.2021
5005 Snow 1 1005 91 3200 1.03 300 19:19 09.12.2021
5006 Mist 1 1006 90 4200 1.03 0 18:18 09.12.2021
5007 Mist 1 1006 90 3500 1.03 330 17:47 09.12.2021
5008 Mist 1 1006 90 3500 1.54 320 17:24 09.12.2021
5009 Mist 2 1006 89 3200 2.06 300 16:25 09.12.2021
5010 Clouds 2 1005 87 7000 2.06 220 14:59 09.12.2021
5011 Rain 2 1005 85 10000 2.57 180 13:52 09.12.2021
5012 Clouds 2 1005 85 10000 2.06 150 12:48 09.12.2021
5013 Rain 2 1005 85 10000 3.09 170 11:33 09.12.2021
5014 Clouds 1 1005 87 9000 2.57 150 10:20 09.12.2021
5015 Snow 1 1004 83 10000 2.57 100 07:34 09.12.2021
5016 Clouds 1 1004 83 9000 2.57 70 03:56 09.12.2021
5017 Clouds 1 1004 79 10000 2.06 60 00:25 09.12.2021
5018 Clouds 1 1004 78 10000 2.06 100 23:37 08.12.2021
5019 Clouds 1 1004 79 10000 2.57 100 22:57 08.12.2021
5020 Clouds 1 1004 78 10000 2.57 100 22:36 08.12.2021
5021 Clouds 1 1004 78 10000 3.09 130 21:38 08.12.2021
5022 Clear 1 1004 78 10000 4.12 120 20:50 08.12.2021
5023 Clear 1 1004 79 10000 3.09 120 19:57 08.12.2021
5024 Clear 1 1004 79 10000 3.6 130 19:20 08.12.2021
5025 Clear 1 1004 79 10000 4.63 130 18:22 08.12.2021
5026 Clear 1 1004 80 10000 0.45 233 16:55 08.12.2021
5027 Clear 1 1004 78 10000 0.45 166 15:45 08.12.2021
5028 Clear 1 1004 77 10000 0.89 242 15:22 08.12.2021
5029 Rain 2 1004 75 10000 4.12 130 13:27 08.12.2021
5030 Clouds 3 1004 76 10000 0.45 202 10:45 08.12.2021
5031 Clouds 3 1004 76 10000 0.45 202 10:45 08.12.2021
5032 Clouds 2 1004 78 10000 0.45 201 10:23 08.12.2021
5033 Clouds 1 1005 84 10000 0.89 217 08:54 08.12.2021
5034 Clouds 1 1005 88 10000 0.45 236 06:36 08.12.2021
5035 Snow 0 1009 90 7000 4.63 150 01:20 08.12.2021
5036 Clouds 1 1007 87 9000 5.14 150 23:29 07.12.2021
5037 Clouds 1 1011 88 10000 3.6 150 21:26 07.12.2021
5038 Clouds 1 1011 88 10000 0.45 228 20:26 07.12.2021
5039 Clouds 1 1016 87 10000 0.45 228 20:26 07.12.2021
5040 Clouds 1 1002 87 10000 0.89 118 19:23 07.12.2021
5041 Snow 1 1012 84 10000 4.12 150 18:32 07.12.2021
5042 Snow 2 1012 82 10000 4.12 150 17:27 07.12.2021
5043 Clouds 2 1012 82 10000 4.12 150 16:57 07.12.2021
5044 Clouds 2 1003 85 10000 0.45 93 16:27 07.12.2021
5045 Clouds 2 1002 84 10000 4.12 150 14:47 07.12.2021
5046 Clouds 2 998 85 10000 0.45 213 13:45 07.12.2021
5047 Clouds 2 998 85 10000 0.45 197 12:41 07.12.2021
5048 Snow 1 998 87 10000 0.45 158 11:23 07.12.2021
5049 Clear 0 998 88 10000 0.45 140 09:43 07.12.2021
5050 Clear -1 997 89 10000 3.6 160 07:52 07.12.2021
5051 Clouds -1 997 89 10000 3.6 140 05:55 07.12.2021
5052 Clouds 0 998 91 10000 4.12 150 05:27 07.12.2021
5053 Mist 0 1000 91 4000 1.54 130 23:41 06.12.2021
5054 Mist 0 1000 92 4000 1.54 150 22:44 06.12.2021
5055 Mist 0 1000 94 4000 1.54 150 22:18 06.12.2021
5056 Mist 0 1001 94 4000 1.03 140 21:42 06.12.2021
5057 Snow 0 1001 94 3000 0.51 280 20:33 06.12.2021
5058 Mist 0 1002 94 3000 1.03 0 19:27 06.12.2021
5059 Snow 0 1002 94 3200 0.51 0 18:57 06.12.2021
5060 Snow 0 1002 94 3000 1.03 0 17:56 06.12.2021
5061 Snow 1 1002 94 3000 1.03 0 17:36 06.12.2021
5062 Snow 0 1002 94 5000 2.06 290 16:21 06.12.2021
5063 Clouds 1 1002 91 7000 1.54 290 15:38 06.12.2021
5064 Rain 1 1002 91 8000 1.54 10 13:45 06.12.2021
5065 Snow 1 1002 94 3300 2.57 350 12:39 06.12.2021
5066 Snow 1 1002 93 2800 2.06 360 10:32 06.12.2021
5067 Snow 1 1000 95 1600 2.57 360 08:45 06.12.2021
5068 Snow 1 998 93 2200 3.6 10 04:56 06.12.2021
5069 Clouds 2 996 91 10000 2.06 340 22:52 05.12.2021
5070 Clear 3 996 88 10000 1.54 300 21:43 05.12.2021
5071 Clouds 3 995 88 10000 1.54 310 21:19 05.12.2021
5072 Clouds 3 995 87 10000 1.54 320 20:19 05.12.2021
5073 Clouds 3 995 87 10000 1.03 320 19:33 05.12.2021
5074 Clouds 3 994 86 10000 2.06 290 18:47 05.12.2021
5075 Clouds 3 994 86 10000 1.54 270 18:19 05.12.2021
5076 Clouds 3 994 86 10000 2.06 290 17:48 05.12.2021
5077 Clouds 4 993 84 10000 2.06 280 16:47 05.12.2021
5078 Clouds 4 993 84 10000 2.06 280 16:26 05.12.2021
5079 Clouds 5 993 82 10000 2.06 270 15:34 05.12.2021
5080 Clouds 5 992 81 10000 0.89 239 14:37 05.12.2021
5081 Clouds 5 992 82 10000 2.57 290 14:19 05.12.2021
5082 Clouds 6 991 82 10000 1.79 220 13:22 05.12.2021
5083 Clouds 5 991 83 10000 4.02 243 12:40 05.12.2021
5084 Clouds 5 991 83 10000 3.58 235 12:18 05.12.2021
5085 Clouds 5 991 82 10000 0.89 308 11:29 05.12.2021
5086 Clouds 4 991 85 10000 0.45 290 09:59 05.12.2021
5087 Clouds 4 990 88 10000 0.89 321 08:24 05.12.2021
5088 Clouds 3 987 94 10000 3.58 246 03:27 05.12.2021
5089 Snow 2 985 92 7000 1.34 184 23:45 04.12.2021
5090 Snow 2 984 91 4800 0.45 234 21:55 04.12.2021
5091 Clear 2 985 88 10000 0.45 205 20:57 04.12.2021
5092 Clear 2 985 88 10000 0.45 69 20:27 04.12.2021
5093 Clear 1 985 88 10000 0.45 157 19:32 04.12.2021
5094 Clear 1 986 88 10000 0.45 171 18:21 04.12.2021
5095 Clear 1 986 87 10000 0.45 123 17:40 04.12.2021
5096 Clouds 1 986 87 10000 0.45 167 16:52 04.12.2021
5097 Clouds 1 986 87 10000 0.45 205 16:31 04.12.2021
5098 Clouds 2 986 85 10000 0.45 155 15:57 04.12.2021
5099 Clouds 2 988 86 2200 1.79 123 11:55 04.12.2021
5100 Snow 2 989 87 3000 5.66 170 11:33 04.12.2021
5101 Snow 2 989 87 4500 1.79 165 10:56 04.12.2021
5102 Snow 1 989 91 2000 3.58 138 08:52 04.12.2021
5103 Snow 1 990 89 3200 3.13 171 07:22 04.12.2021
5104 Snow 2 991 74 10000 1.34 118 04:42 04.12.2021
5105 Clouds 2 993 72 10000 3.58 195 00:47 04.12.2021
5106 Clear 2 994 75 10000 3.58 138 23:27 03.12.2021
5107 Clear 1 994 77 10000 6.26 192 22:48 03.12.2021
5108 Clear 1 995 73 10000 0.45 328 21:50 03.12.2021
5109 Clear 1 995 76 10000 0.45 13 20:56 03.12.2021
5110 Clear 1 996 76 10000 5.36 199 20:26 03.12.2021
5111 Clouds 1 997 74 10000 5.36 235 18:49 03.12.2021
5112 Clouds 1 997 74 10000 4.47 240 18:22 03.12.2021
5113 Clear 1 998 72 10000 4.02 235 17:30 03.12.2021
5114 Clear 3 998 63 10000 0.45 144 13:35 03.12.2021
5115 Clear 3 998 63 10000 0.45 263 12:20 03.12.2021
5116 Clear 2 999 70 10000 1.79 298 11:19 03.12.2021
5117 Clear -2 998 84 10000 2.68 229 08:40 03.12.2021
5118 Clear -2 997 87 10000 1.79 216 07:43 03.12.2021
5119 Clear -2 997 87 10000 1.79 204 06:41 03.12.2021
5120 Clouds 0 994 84 10000 2.06 270 00:49 03.12.2021
5121 Clouds 0 994 84 10000 1.34 196 23:48 02.12.2021
5122 Clouds 0 993 81 10000 1.34 235 22:54 02.12.2021
5123 Clouds 1 992 77 10000 0.45 202 21:41 02.12.2021
5124 Clear 1 991 75 10000 3.09 280 20:46 02.12.2021
5125 Clouds 2 991 72 10000 3.09 300 20:23 02.12.2021
5126 Clouds 3 990 69 10000 3.6 300 19:22 02.12.2021
5127 Clouds 3 988 73 10000 2.57 290 17:21 02.12.2021
5128 Clouds 4 987 71 10000 0.89 237 15:41 02.12.2021
5129 Clouds 5 986 68 10000 4.12 310 14:57 02.12.2021
5130 Clouds 5 986 68 10000 3.09 280 13:44 02.12.2021
5131 Clouds 5 986 69 10000 6.17 300 12:50 02.12.2021
5132 Clouds 5 985 72 10000 2.24 236 11:53 02.12.2021
5133 Clouds 4 985 83 10000 0.45 289 09:28 02.12.2021
5134 Clouds 3 984 84 10000 2.68 243 08:20 02.12.2021
5135 Clouds 6 980 84 10000 0.45 312 01:59 02.12.2021
5136 Clouds 6 979 86 10000 0.45 289 00:51 02.12.2021
5137 Clouds 8 979 75 10000 2.24 289 22:41 01.12.2021
5138 Clouds 8 978 76 10000 1.34 351 22:23 01.12.2021
5139 Clouds 9 978 79 10000 1.79 347 20:35 01.12.2021
5140 Clouds 9 978 81 10000 1.34 321 19:51 01.12.2021
5141 Clouds 8 978 81 10000 1.34 344 19:21 01.12.2021
5142 Clouds 8 978 82 10000 5.81 221 17:42 01.12.2021
5143 Clouds 8 979 82 10000 0.45 90 16:40 01.12.2021
5144 Clouds 8 981 84 10000 0.45 346 14:50 01.12.2021
5145 Rain 8 982 87 10000 3.58 234 13:44 01.12.2021
5146 Clouds 7 983 89 10000 0.89 320 12:30 01.12.2021
5147 Clouds 6 985 91 10000 4.47 213 10:42 01.12.2021
5148 Rain 6 986 94 10000 4.02 198 08:58 01.12.2021
5149 Rain 6 987 94 10000 0.89 5 08:26 01.12.2021
5150 Rain 5 987 95 10000 0.45 321 07:33 01.12.2021
5151 Rain 5 991 91 10000 2.24 206 04:22 01.12.2021
5152 Clouds 5 991 90 10000 0.89 193 03:41 01.12.2021
5153 Clouds 5 992 87 10000 5.36 239 00:52 01.12.2021
5154 Clouds 5 992 87 10000 0.45 322 23:53 30.11.2021
5155 Clear 5 991 87 10000 0.45 323 22:49 30.11.2021
5156 Clouds 5 990 86 10000 8.23 300 21:30 30.11.2021
5157 Clouds 6 989 83 10000 1.34 277 20:44 30.11.2021
5158 Clouds 6 988 86 10000 0.45 236 19:53 30.11.2021
5159 Clouds 6 988 89 10000 1.34 245 19:30 30.11.2021
5160 Clouds 5 987 91 10000 0.45 360 18:36 30.11.2021
5161 Rain 4 986 90 10000 1.79 322 16:49 30.11.2021
5162 Rain 4 985 88 10000 0.45 296 15:18 30.11.2021
5163 Rain 4 985 87 10000 1.34 95 14:20 30.11.2021
5164 Rain 4 985 85 10000 1.34 315 13:26 30.11.2021
5165 Rain 4 986 85 10000 1.34 274 12:45 30.11.2021
5166 Rain 4 986 85 10000 1.79 333 11:49 30.11.2021
5167 Rain 3 987 87 10000 1.79 325 11:19 30.11.2021
5168 Clouds 3 987 87 10000 2.68 332 10:32 30.11.2021
5169 Snow 3 990 88 10000 1.79 347 08:52 30.11.2021
5170 Snow 3 991 87 10000 0.89 5 08:22 30.11.2021
5171 Snow 2 992 87 10000 1.34 280 07:47 30.11.2021
5172 Clouds 2 996 89 10000 0.45 346 02:41 30.11.2021
5173 Clouds 2 996 91 10000 1.34 298 01:42 30.11.2021
5174 Drizzle 2 995 93 6000 0.45 345 00:24 30.11.2021
5175 Drizzle 2 995 93 4000 0.45 298 23:24 29.11.2021
5176 Mist 2 995 92 4000 0.45 275 22:56 29.11.2021
5177 Mist 2 995 92 4000 2.68 242 22:33 29.11.2021
5178 Snow 2 994 91 5000 2.24 223 21:39 29.11.2021
5179 Snow 2 994 91 5000 2.24 223 21:18 29.11.2021
5180 Snow 2 994 90 4000 2.24 223 20:40 29.11.2021
5181 Snow 2 994 90 10000 0.45 316 19:56 29.11.2021
5182 Snow 2 994 90 10000 2.24 223 19:36 29.11.2021
5183 Snow 2 994 90 10000 2.24 223 19:36 29.11.2021
5184 Clouds 2 993 90 10000 3.58 297 18:52 29.11.2021
5185 Clouds 1 1006 90 10000 5.35 288 17:55 29.11.2021
5186 Rain 2 1005 91 5560 4.8 288 17:20 29.11.2021
5187 Rain 2 1005 91 5560 4.8 288 16:32 29.11.2021
5188 Clouds 2 1005 86 8571 4.51 292 15:52 29.11.2021
5189 Clouds 3 1004 81 10000 4.34 294 14:43 29.11.2021
5190 Clouds 3 1003 86 6515 4.72 292 13:36 29.11.2021
5191 Clouds 2 1003 83 10000 4.79 287 12:44 29.11.2021
5192 Clouds 2 1003 79 10000 4.75 285 11:43 29.11.2021
5193 Clouds 2 1003 84 10000 4.24 286 10:59 29.11.2021
5194 Clouds 1 1003 89 10000 4.1 289 09:56 29.11.2021
5195 Snow 1 999 93 10000 2.06 280 06:43 29.11.2021
5196 Clouds 1 998 93 10000 2.06 260 04:53 29.11.2021
5197 Clouds 1 997 93 10000 1.54 270 00:44 29.11.2021
5198 Clouds 1 997 93 10000 1.54 280 23:47 28.11.2021
5199 Clouds 2 997 86 10000 2.57 260 23:28 28.11.2021
5200 Clouds 2 997 86 10000 2.06 250 21:53 28.11.2021
5201 Clouds 1 997 93 10000 1.54 250 21:28 28.11.2021
5202 Clouds 2 997 86 10000 2.06 250 20:35 28.11.2021
5203 Clouds 2 997 86 10000 1.03 250 19:29 28.11.2021
5204 Clouds 2 996 86 10000 1.03 0 18:40 28.11.2021
5205 Clouds 1 996 86 10000 1.03 220 17:57 28.11.2021
5206 Clouds 1 996 86 10000 1.03 220 17:32 28.11.2021
5207 Clouds 2 996 86 10000 0.51 0 16:44 28.11.2021
5208 Clouds 2 996 86 10000 1.03 250 16:26 28.11.2021
5209 Clouds 2 996 86 10000 1.54 230 15:43 28.11.2021
5210 Clear 3 996 80 10000 2.06 270 14:50 28.11.2021
5211 Clear 3 996 87 10000 1.54 240 13:51 28.11.2021
5212 Clear 2 996 93 10000 2.06 200 12:54 28.11.2021
5213 Clear 1 996 93 10000 1.54 220 11:29 28.11.2021
5214 Clear 1 996 93 10000 2.06 210 10:22 28.11.2021
5215 Clear 1 996 86 10000 1.54 200 09:40 28.11.2021
5216 Clear 1 995 86 10000 1.03 130 08:28 28.11.2021
5217 Snow 2 996 93 10000 3.09 260 00:49 28.11.2021
5218 Clear 4 994 81 10000 3.6 180 21:46 27.11.2021
5219 Clouds 3 994 80 10000 3.6 160 19:50 27.11.2021
5220 Clouds 4 993 75 10000 3.09 170 18:26 27.11.2021
5221 Clouds 5 992 70 10000 3.6 140 15:59 27.11.2021
5222 Clouds 5 991 70 10000 5.14 140 14:35 27.11.2021
5223 Clouds 4 992 75 10000 5.14 170 13:21 27.11.2021
5224 Clear 4 991 75 10000 5.14 170 11:28 27.11.2021
5225 Clear 3 991 75 10000 5.66 160 10:19 27.11.2021
5226 Clear 1 991 80 10000 4.12 150 08:53 27.11.2021
5227 Clear 1 990 80 10000 4.12 160 06:58 27.11.2021
5228 Clear 1 990 80 10000 3.6 150 04:40 27.11.2021
5229 Clouds 1 992 80 10000 1.54 160 00:23 27.11.2021
5230 Clouds 1 993 80 10000 3.6 170 22:50 26.11.2021
5231 Clouds 2 993 75 10000 2.57 170 22:23 26.11.2021
5232 Clouds 2 994 75 10000 2.57 200 21:23 26.11.2021
5233 Clouds 2 994 75 10000 3.09 180 20:41 26.11.2021
5234 Clouds 3 994 69 10000 2.57 220 19:56 26.11.2021
5235 Clouds 3 995 69 10000 3.6 220 18:47 26.11.2021
5236 Clouds 4 995 70 10000 2.06 230 17:45 26.11.2021
5237 Clouds 4 995 70 10000 1.54 240 17:21 26.11.2021
5238 Clouds 5 996 75 10000 1.54 270 15:23 26.11.2021
5239 Clouds 6 979 77 10000 1.79 215 13:35 26.11.2021
5240 Clouds 4 988 84 10000 0.45 203 10:46 26.11.2021
5241 Clouds 4 989 85 10000 0.45 136 09:55 26.11.2021
5242 Clouds 3 989 88 10000 1.34 194 08:56 26.11.2021
5243 Clouds 3 990 86 10000 1.79 231 08:21 26.11.2021
5244 Clouds 3 991 86 10000 1.34 221 06:48 26.11.2021
5245 Clouds 3 991 86 10000 2.24 198 06:24 26.11.2021
5246 Clouds 3 992 88 10000 0.45 313 03:54 26.11.2021
5247 Clouds 3 994 85 10000 2.24 218 01:27 26.11.2021
5248 Clouds 3 994 85 10000 2.24 218 01:27 26.11.2021
5249 Clouds 3 995 84 10000 2.68 228 22:43 25.11.2021
5250 Clouds 2 995 84 10000 0.45 318 21:24 25.11.2021
5251 Clouds 3 995 85 10000 1.34 191 19:55 25.11.2021
5252 Clouds 3 996 85 10000 0.89 202 18:45 25.11.2021
5253 Drizzle 3 996 88 10000 0.89 222 17:47 25.11.2021
5254 Drizzle 3 996 88 10000 0.45 324 17:25 25.11.2021
5255 Drizzle 2 996 88 10000 0.45 321 16:32 25.11.2021
5256 Clouds 3 996 82 10000 0.45 292 14:59 25.11.2021
5257 Clouds 3 1009 85 10000 3.6 250 13:26 25.11.2021
5258 Clouds 3 990 85 10000 0.89 232 12:23 25.11.2021
5259 Clouds 3 990 88 10000 3.09 210 11:49 25.11.2021
5260 Clouds 1 998 87 10000 0.51 0 09:26 25.11.2021
5261 Clouds 1 999 87 10000 3.6 200 05:48 25.11.2021
5262 Clouds 2 1001 83 10000 2.06 130 02:48 25.11.2021
5263 Clouds 3 1004 81 10000 0.89 117 22:57 24.11.2021
5264 Clouds 4 1004 80 10000 1.34 128 22:24 24.11.2021
5265 Clouds 4 1004 79 10000 1.79 99 21:32 24.11.2021
5266 Clouds 5 1005 78 10000 1.79 99 20:52 24.11.2021
5267 Clouds 5 1006 81 10000 1.79 91 20:19 24.11.2021
5268 Clouds 6 1007 87 10000 0.45 130 18:31 24.11.2021
5269 Clouds 6 1007 88 10000 1.03 130 17:57 24.11.2021
5270 Clouds 7 1008 90 10000 1.03 150 15:47 24.11.2021
5271 Clouds 7 1009 89 10000 0.51 0 14:47 24.11.2021
5272 Clouds 7 1009 88 10000 0.51 200 14:20 24.11.2021
5273 Clouds 7 1010 89 10000 1.54 230 12:47 24.11.2021
5274 Clouds 6 1011 93 8000 1.54 270 11:21 24.11.2021
5275 Clouds 6 1011 93 6000 1.54 280 10:49 24.11.2021
5276 Clouds 6 1012 94 6000 1.03 0 10:23 24.11.2021
5277 Mist 5 1012 95 5000 2.57 250 07:55 24.11.2021
5278 Mist 5 1012 95 5000 0.89 225 06:55 24.11.2021
5279 Clouds 5 1013 93 6000 0.89 216 03:55 24.11.2021
5280 Clouds 5 1013 93 9000 1.79 223 00:53 24.11.2021
5281 Clouds 5 1014 93 6000 0.45 347 22:58 23.11.2021
5282 Clouds 5 1014 93 6000 1.79 236 22:34 23.11.2021
5283 Clouds 6 1014 93 7000 0.45 212 21:44 23.11.2021
5284 Drizzle 6 1014 93 5000 0.45 224 20:19 23.11.2021
5285 Drizzle 5 1015 94 3200 2.68 236 18:44 23.11.2021
5286 Drizzle 5 1015 94 2000 2.24 239 18:24 23.11.2021
5287 Drizzle 5 1015 93 3000 1.34 241 17:23 23.11.2021
5288 Clouds 5 1014 91 7000 2.68 234 16:35 23.11.2021
5289 Clouds 5 1020 88 10000 1.79 280 15:23 23.11.2021
5290 Drizzle 5 1020 86 3000 3.13 240 14:32 23.11.2021
5291 Clouds 5 1015 82 10000 2.68 235 11:57 23.11.2021
5292 Clouds 3 1015 84 10000 1.79 217 10:24 23.11.2021
5293 Clouds 3 1007 83 10000 3.58 224 09:43 23.11.2021
5294 Clouds 1 1006 89 10000 3.58 217 07:42 23.11.2021
5295 Clear -1 1014 92 10000 2.68 187 03:58 23.11.2021
5296 Clear 0 1014 90 10000 2.24 186 03:25 23.11.2021
5297 Clear 1 1014 88 10000 2.06 290 23:26 22.11.2021
5298 Clouds 2 1015 87 10000 1.54 300 22:56 22.11.2021
5299 Clouds 2 1014 85 10000 2.57 320 22:29 22.11.2021
5300 Clouds 3 1013 82 10000 2.57 320 21:44 22.11.2021
5301 Clouds 4 1013 83 10000 2.57 320 20:56 22.11.2021
5302 Clouds 4 1013 82 10000 2.57 330 20:23 22.11.2021
5303 Clouds 4 1013 84 10000 3.09 310 19:20 22.11.2021
5304 Clouds 4 1012 85 10000 3.09 330 18:40 22.11.2021
5305 Clouds 4 1012 87 10000 3.6 330 17:46 22.11.2021
5306 Clouds 5 1011 85 10000 2.57 330 16:30 22.11.2021
5307 Clouds 6 1010 87 10000 4.12 340 14:28 22.11.2021
5308 Clouds 6 1009 91 10000 4.63 350 12:48 22.11.2021
5309 Clouds 6 1009 94 10000 4.63 350 11:27 22.11.2021
5310 Clouds 6 1007 96 8000 3.6 350 09:56 22.11.2021
5311 Drizzle 6 1006 96 6000 3.6 350 08:42 22.11.2021
5312 Mist 6 1005 95 2500 0.45 252 07:24 22.11.2021
5313 Clouds 7 1001 94 4000 2.57 340 00:21 22.11.2021
5314 Mist 7 1000 94 4000 2.06 320 23:19 21.11.2021
5315 Mist 7 1000 93 3900 2.06 330 22:42 21.11.2021
5316 Mist 7 999 93 1700 0.89 201 20:44 21.11.2021
5317 Mist 7 999 93 2500 0.45 233 20:26 21.11.2021
5318 Mist 7 998 92 3000 0.89 212 18:49 21.11.2021
5319 Drizzle 7 998 89 4500 1.79 216 17:52 21.11.2021
5320 Clouds 7 998 87 10000 1.34 212 17:29 21.11.2021
5321 Clouds 8 997 82 10000 2.24 191 14:49 21.11.2021
5322 Clouds 7 997 83 10000 0.89 213 14:18 21.11.2021
5323 Clouds 7 997 83 10000 0.89 285 12:55 21.11.2021
5324 Drizzle 7 997 83 10000 0.45 249 12:19 21.11.2021
5325 Drizzle 7 997 83 10000 0.45 305 11:36 21.11.2021
5326 Clouds 7 998 85 10000 2.24 233 10:19 21.11.2021
5327 Clouds 7 998 86 10000 0.45 338 09:45 21.11.2021
5328 Clouds 7 998 86 10000 0.45 329 08:31 21.11.2021
5329 Clouds 7 998 86 10000 1.34 187 07:52 21.11.2021
5330 Clouds 6 999 86 10000 0.45 216 06:26 21.11.2021
5331 Clouds 6 999 87 10000 2.24 228 05:41 21.11.2021
5332 Clouds 6 1000 86 10000 0.89 234 03:22 21.11.2021
5333 Clouds 6 1000 84 10000 0.45 211 02:55 21.11.2021
5334 Clouds 7 1001 84 10000 3.6 250 01:25 21.11.2021
5335 Clouds 7 1002 84 10000 0.45 139 00:42 21.11.2021
5336 Clouds 8 1004 80 10000 2.68 230 22:35 20.11.2021
5337 Clouds 9 1004 80 10000 3.13 232 21:32 20.11.2021
5338 Clouds 9 1005 82 10000 3.58 281 19:58 20.11.2021
5339 Clouds 9 1006 81 10000 2.68 227 18:45 20.11.2021
5340 Clouds 10 1006 82 10000 1.79 223 18:23 20.11.2021
5341 Clouds 10 1007 83 10000 3.13 223 17:22 20.11.2021
5342 Clouds 10 1008 87 10000 2.24 240 15:23 20.11.2021
5343 Clouds 10 1009 87 10000 1.79 290 14:39 20.11.2021
5344 Clouds 10 1009 89 10000 0.45 314 14:20 20.11.2021
5345 Clouds 10 1011 91 10000 2.68 237 11:56 20.11.2021
5346 Clouds 10 1011 91 10000 2.68 237 11:56 20.11.2021
5347 Drizzle 10 1012 91 2000 0.45 347 09:58 20.11.2021
5348 Mist 10 1012 91 4000 0.45 330 08:44 20.11.2021
5349 Drizzle 10 1012 88 10000 0.89 187 06:50 20.11.2021
5350 Drizzle 10 1012 86 10000 0.45 306 05:21 20.11.2021
5351 Clouds 10 1012 85 10000 1.34 231 04:49 20.11.2021
5352 Clouds 11 1013 82 10000 0.89 284 00:45 20.11.2021
5353 Clouds 10 1013 84 10000 1.34 5 00:26 20.11.2021
5354 Clouds 10 1013 86 10000 0.45 5 22:54 19.11.2021
5355 Clouds 10 1013 88 10000 0.89 360 21:36 19.11.2021
5356 Clouds 10 1013 89 10000 0.45 342 20:54 19.11.2021
5357 Clouds 10 1013 90 10000 0.89 355 20:35 19.11.2021
5358 Clouds 10 1013 92 10000 1.34 348 19:49 19.11.2021
5359 Drizzle 10 1013 91 10000 0.45 335 18:50 19.11.2021
5360 Drizzle 10 1013 91 10000 0.89 346 18:18 19.11.2021
5361 Drizzle 10 1013 92 4500 0.89 360 16:47 19.11.2021
5362 Clouds 10 1013 88 10000 1.34 293 15:31 19.11.2021
5363 Clouds 11 1013 87 10000 0.45 335 12:53 19.11.2021
5364 Clouds 10 1013 87 10000 0.89 351 10:27 19.11.2021
5365 Clouds 10 1013 88 10000 2.68 243 08:47 19.11.2021
5366 Clouds 10 1013 88 10000 0.45 333 07:34 19.11.2021
5367 Clouds 9 1012 85 10000 0.45 305 04:24 19.11.2021
5368 Clouds 9 1012 85 10000 0.45 42 01:32 19.11.2021
5369 Clouds 8 1012 83 10000 5.36 228 23:50 18.11.2021
5370 Clouds 9 1012 77 10000 0.89 13 21:48 18.11.2021
5371 Rain 9 1012 76 10000 2.24 18 20:48 18.11.2021
5372 Clouds 9 1012 76 10000 0.89 355 20:29 18.11.2021
5373 Clouds 9 1013 76 10000 0.45 338 19:43 18.11.2021
5374 Clouds 8 1013 77 10000 1.34 5 18:41 18.11.2021
5375 Clouds 9 1013 77 10000 1.34 9 18:20 18.11.2021
5376 Clouds 9 1013 78 10000 0.89 319 17:44 18.11.2021
5377 Clouds 9 1013 78 10000 0.89 319 16:44 18.11.2021
5378 Clouds 10 1013 76 10000 0.89 344 15:25 18.11.2021
5379 Clouds 10 1013 80 10000 0.89 302 13:29 18.11.2021
5380 Clouds 9 1014 83 10000 0.45 298 12:33 18.11.2021
5381 Clouds 9 1014 82 10000 0.45 333 11:42 18.11.2021
5382 Clouds 8 1014 83 10000 0.45 305 11:24 18.11.2021
5383 Clouds 8 1018 83 10000 3.58 102 09:34 18.11.2021
5384 Clouds 6 1017 85 10000 2.24 181 07:34 18.11.2021
5385 Clouds 6 1016 86 10000 2.24 49 05:55 18.11.2021
5386 Clouds 6 1017 86 10000 2.24 49 05:36 18.11.2021
5387 Clouds 6 1015 86 10000 2.68 99 01:23 18.11.2021
5388 Clouds 7 1014 86 10000 1.79 110 22:49 17.11.2021
5389 Clouds 7 1014 86 10000 2.24 110 22:20 17.11.2021
5390 Clouds 7 1013 85 10000 2.68 71 21:38 17.11.2021
5391 Clouds 7 1013 84 10000 1.79 50 20:56 17.11.2021
5392 Clouds 6 1012 84 10000 1.34 340 18:34 17.11.2021
5393 Clouds 6 1011 85 10000 0.89 115 17:28 17.11.2021
5394 Clouds 6 1011 87 10000 0.45 167 14:51 17.11.2021
5395 Mist 6 1011 89 4500 0.45 109 12:41 17.11.2021
5396 Drizzle 6 1011 91 4000 2.68 201 11:49 17.11.2021
5397 Drizzle 6 1011 91 3500 0.45 209 10:32 17.11.2021
5398 Mist 6 1011 92 3500 1.54 240 09:26 17.11.2021
5399 Drizzle 6 1011 90 3500 0.45 151 07:45 17.11.2021
5400 Mist 6 1019 89 5000 1.03 50 04:47 17.11.2021
5401 Clouds 6 1020 88 6000 0.51 340 02:37 17.11.2021
5402 Clouds 7 1011 89 6000 1.54 300 23:27 16.11.2021
5403 Clouds 7 1011 86 9000 1.54 330 21:48 16.11.2021
5404 Clouds 7 1011 82 10000 1.03 320 20:18 16.11.2021
5405 Clouds 8 1011 81 10000 0.51 0 18:54 16.11.2021
5406 Clouds 8 1011 80 10000 0.51 0 18:36 16.11.2021
5407 Clouds 8 1011 80 10000 0.51 0 18:36 16.11.2021
5408 Clouds 8 1012 79 10000 2.06 190 17:44 16.11.2021
5409 Clouds 8 1012 78 10000 0.45 79 16:58 16.11.2021
5410 Clouds 9 1012 76 10000 0.89 277 16:18 16.11.2021
5411 Clouds 9 1009 77 10000 5.14 170 15:41 16.11.2021
5412 Clouds 10 1013 73 10000 3.13 50 12:43 16.11.2021
5413 Clouds 9 1014 80 10000 2.68 321 10:21 16.11.2021
5414 Clouds 8 1014 87 10000 0.89 251 09:38 16.11.2021
5415 Clouds 5 1015 91 7000 0.45 164 07:34 16.11.2021
5416 Clouds 5 1015 93 7000 3.09 140 06:43 16.11.2021
5417 Clear 3 1013 95 6000 4.12 70 23:26 15.11.2021
5418 Clear 3 1013 93 7000 3.6 80 22:40 15.11.2021
5419 Clear 4 1016 91 7000 4.63 80 21:57 15.11.2021
5420 Clear 4 1016 91 7000 0.45 92 21:31 15.11.2021
5421 Clear 4 1016 89 7000 3.6 90 20:35 15.11.2021
5422 Clouds 5 1017 87 10000 1.34 108 19:18 15.11.2021
5423 Clouds 6 1017 85 10000 0.45 278 17:33 15.11.2021
5424 Clouds 6 1017 82 10000 0.89 86 15:52 15.11.2021
5425 Clouds 7 1017 82 10000 2.57 110 15:33 15.11.2021
5426 Clouds 7 1018 82 10000 0.45 180 14:27 15.11.2021
5427 Clouds 6 1014 84 10000 0.89 210 12:37 15.11.2021
5428 Clouds 6 1018 86 9000 1.79 117 10:33 15.11.2021
5429 Clouds 5 1018 90 8000 4.63 90 09:22 15.11.2021
5430 Clouds 5 1027 89 7000 4.12 90 07:23 15.11.2021
5431 Drizzle 6 1018 91 2500 3.6 60 00:56 15.11.2021
5432 Drizzle 7 1027 89 4200 3.6 60 22:44 14.11.2021
5433 Drizzle 7 1017 92 2500 2.06 20 21:45 14.11.2021
5434 Clouds 8 1017 89 10000 0.45 161 19:22 14.11.2021
5435 Clouds 8 1017 88 10000 3.6 20 18:55 14.11.2021
5436 Clouds 8 1017 87 10000 0.45 209 18:37 14.11.2021
5437 Clouds 8 1016 87 10000 0.45 199 18:18 14.11.2021
5438 Clouds 8 1016 87 10000 3.6 50 17:58 14.11.2021
5439 Clouds 8 1016 87 10000 3.6 50 17:40 14.11.2021
5440 Clouds 8 1016 87 10000 4.12 30 17:22 14.11.2021
5441 Clouds 8 1016 87 10000 3.6 30 16:59 14.11.2021
5442 Clouds 9 1016 87 10000 0.45 129 16:40 14.11.2021
5443 Clouds 9 1015 86 10000 3.09 40 16:19 14.11.2021
5444 Clouds 9 1015 85 10000 0.45 207 15:20 14.11.2021
5445 Clouds 9 1015 85 10000 1.54 10 14:45 14.11.2021
5446 Clouds 9 1015 86 10000 2.06 10 14:22 14.11.2021
5447 Clouds 9 1014 86 10000 1.03 0 13:52 14.11.2021
5448 Clouds 9 1014 86 10000 1.54 20 13:28 14.11.2021
5449 Clouds 9 1014 86 10000 1.03 0 12:23 14.11.2021
5450 Clouds 8 1014 88 9000 1.03 0 11:28 14.11.2021
5451 Clouds 8 1014 89 9000 1.54 30 10:39 14.11.2021
5452 Clouds 7 1013 91 7000 0.45 174 09:42 14.11.2021
5453 Clouds 6 1004 94 10000 0.45 112 08:52 14.11.2021
5454 Clouds 6 1011 93 7000 1.03 150 06:51 14.11.2021
5455 Clouds 6 1018 86 10000 0.45 279 23:28 13.11.2021
5456 Clouds 6 1008 88 10000 0.45 315 22:21 13.11.2021
5457 Clouds 6 1008 87 10000 0.89 273 21:49 13.11.2021
5458 Clouds 6 1017 86 10000 0.45 302 21:18 13.11.2021
5459 Clouds 6 1007 87 10000 0.89 228 19:37 13.11.2021
5460 Clouds 6 1007 86 10000 0.89 294 18:33 13.11.2021
5461 Clear 7 1007 84 10000 0.45 266 17:46 13.11.2021
5462 Clear 7 1006 83 10000 1.34 247 16:35 13.11.2021
5463 Clear 8 1006 80 10000 1.34 275 14:57 13.11.2021
5464 Clear 8 1006 80 10000 1.34 275 14:19 13.11.2021
5465 Clear 9 1002 79 10000 0.45 118 12:56 13.11.2021
5466 Clear 8 1003 79 10000 0.45 233 12:20 13.11.2021
5467 Clear 8 1007 80 10000 1.34 131 11:28 13.11.2021
5468 Clear 7 1007 81 10000 0.89 148 10:44 13.11.2021
5469 Clear 7 1006 81 10000 0.89 148 09:53 13.11.2021
5470 Clear 6 1016 84 10000 0.89 249 09:33 13.11.2021
5471 Clear 6 1006 85 10000 1.79 154 08:56 13.11.2021
5472 Clear 5 1015 85 10000 1.79 154 08:22 13.11.2021
5473 Clear 4 1006 88 10000 0.45 295 04:43 13.11.2021
5474 Clear 4 1006 88 10000 0.45 126 04:25 13.11.2021
5475 Clear 4 1006 88 10000 0.89 305 00:39 13.11.2021
5476 Clouds 4 1007 90 8000 0.45 299 22:46 12.11.2021
5477 Clouds 4 1008 90 8000 0.89 307 21:45 12.11.2021
5478 Clear 4 1008 88 8000 0.89 324 19:46 12.11.2021
5479 Clear 4 1009 89 8000 4.63 150 19:27 12.11.2021
5480 Clear 4 1009 88 10000 0.89 311 18:28 12.11.2021
5481 Clear 6 1005 83 10000 0.45 219 16:23 12.11.2021
5482 Clear 7 1005 79 10000 0.89 94 15:32 12.11.2021
5483 Clear 7 1005 79 10000 0.89 94 15:32 12.11.2021
5484 Clouds 7 1000 85 10000 4.12 130 11:54 12.11.2021
5485 Clouds 5 1021 92 10000 3.6 120 10:51 12.11.2021
5486 Clouds 4 1023 88 9000 0.45 268 09:37 12.11.2021
5487 Mist 4 1023 95 1500 4.12 130 08:38 12.11.2021
5488 Mist 4 1023 95 1500 4.12 130 08:38 12.11.2021
5489 Fog 3 1011 96 100 2.06 150 02:32 12.11.2021
5490 Fog 3 1012 96 700 0.45 285 23:42 11.11.2021
5491 Mist 3 1012 94 4500 1.54 150 22:31 11.11.2021
5492 Mist 3 1012 94 5000 3.09 150 21:27 11.11.2021
5493 Clouds 3 1012 94 6000 0.45 296 20:42 11.11.2021
5494 Clouds 4 1004 94 9000 3.09 160 19:20 11.11.2021
5495 Clear 5 1015 88 10000 0.89 190 17:44 11.11.2021
5496 Clear 6 1014 83 10000 0.89 295 16:58 11.11.2021
5497 Clear 9 1014 77 10000 0.89 230 14:58 11.11.2021
5498 Clear 9 1011 78 10000 0.89 122 14:29 11.11.2021
5499 Clear 9 1011 77 10000 0.45 132 13:40 11.11.2021
5500 Clear 9 1004 79 10000 1.54 220 12:51 11.11.2021
5501 Clear 8 1015 81 10000 0.45 215 10:58 11.11.2021
5502 Clear 6 1015 87 9000 0.89 291 09:39 11.11.2021
5503 Mist 4 1011 94 5000 0.89 293 08:19 11.11.2021
5504 Clouds 4 1011 94 7000 0.89 301 05:55 11.11.2021
5505 Clear 4 1004 94 10000 1.54 180 00:34 11.11.2021
5506 Clear 4 1012 89 10000 2.06 170 22:32 10.11.2021
5507 Clear 4 1012 89 10000 1.54 170 21:33 10.11.2021
5508 Clear 5 1016 86 10000 2.57 160 20:51 10.11.2021
5509 Clear 5 1016 85 10000 3.09 160 19:48 10.11.2021
5510 Clear 5 1016 84 10000 3.6 160 19:30 10.11.2021
5511 Clear 7 1015 81 10000 0.89 314 16:40 10.11.2021
5512 Clear 8 1015 78 10000 0.89 295 15:46 10.11.2021
5513 Clear 9 1016 74 10000 0.89 155 14:23 10.11.2021
5514 Clear 9 1016 73 10000 1.79 287 13:27 10.11.2021
5515 Clear 9 1013 77 10000 0.45 97 11:39 10.11.2021
5516 Clear 6 1017 84 10000 0.89 237 09:18 10.11.2021
5517 Clear 5 1017 86 10000 0.89 101 08:40 10.11.2021
5518 Clear 4 1016 88 10000 0.45 236 06:44 10.11.2021
5519 Clear 5 1013 87 10000 0.45 288 05:57 10.11.2021
5520 Clear 5 1018 85 10000 2.06 140 01:44 10.11.2021
5521 Clear 5 1019 87 10000 1.79 304 21:59 09.11.2021
5522 Clear 5 1019 87 10000 1.79 291 20:39 09.11.2021
5523 Clear 6 1020 82 10000 1.54 160 19:29 09.11.2021
5524 Clear 7 1021 80 10000 0.89 112 18:48 09.11.2021
5525 Clouds 9 1020 75 10000 2.24 305 16:40 09.11.2021
5526 Clouds 11 1020 69 10000 1.79 290 15:20 09.11.2021
5527 Clouds 11 1020 73 10000 0.45 143 13:31 09.11.2021
5528 Clouds 11 1021 75 10000 0.89 292 12:28 09.11.2021
5529 Clouds 9 1021 80 10000 2.06 210 10:58 09.11.2021
5530 Clouds 9 1021 86 10000 0.45 295 09:59 09.11.2021
5531 Clouds 7 1020 91 10000 1.79 203 08:54 09.11.2021
5532 Clouds 7 1019 88 10000 0.89 197 07:28 09.11.2021
5533 Clouds 7 1017 88 10000 0.89 216 02:37 09.11.2021
5534 Clouds 7 1016 88 10000 1.79 221 01:51 09.11.2021
5535 Clouds 7 1016 87 10000 1.79 220 00:39 09.11.2021
5536 Clouds 7 1015 85 10000 1.34 207 23:30 08.11.2021
5537 Clouds 7 1015 85 10000 2.24 216 22:38 08.11.2021
5538 Clouds 8 1015 83 10000 1.79 130 21:45 08.11.2021
5539 Clouds 7 1014 82 10000 1.34 120 20:34 08.11.2021
5540 Clouds 8 1014 82 10000 0.89 106 19:27 08.11.2021
5541 Clouds 8 1013 81 10000 2.24 38 17:41 08.11.2021
5542 Clouds 9 1009 79 10000 1.34 246 15:56 08.11.2021
5543 Clouds 10 1008 79 10000 0.45 319 14:56 08.11.2021
5544 Clouds 10 1008 79 10000 0.45 321 14:25 08.11.2021
5545 Clouds 10 1012 78 10000 3.13 69 13:18 08.11.2021
5546 Clouds 9 1012 80 10000 2.68 75 11:55 08.11.2021
5547 Clouds 9 1011 79 10000 1.79 84 10:50 08.11.2021
5548 Clouds 8 1011 82 10000 3.13 75 08:58 08.11.2021
5549 Clouds 8 1010 83 10000 3.58 72 08:19 08.11.2021
5550 Clouds 8 1009 83 10000 4.02 88 06:56 08.11.2021
5551 Clouds 7 1007 82 10000 2.68 41 03:35 08.11.2021
5552 Clouds 7 1006 84 10000 1.79 66 01:24 08.11.2021
5553 Clouds 7 1006 83 10000 2.24 75 23:25 07.11.2021
5554 Clouds 8 1006 84 10000 2.68 61 21:26 07.11.2021
5555 Rain 8 1005 85 10000 1.79 86 20:28 07.11.2021
5556 Clouds 8 1005 81 10000 1.79 71 19:19 07.11.2021
5557 Clouds 9 1004 79 10000 2.68 96 17:44 07.11.2021
5558 Clouds 9 1004 79 10000 4.02 87 16:42 07.11.2021
5559 Clouds 9 1004 78 10000 4.92 95 15:42 07.11.2021
5560 Clouds 9 1004 77 10000 3.13 72 14:28 07.11.2021
5561 Clouds 9 1004 78 10000 4.02 21 12:55 07.11.2021
5562 Clouds 9 1005 78 10000 2.68 90 11:42 07.11.2021
5563 Clouds 8 1006 77 5000 3.13 68 09:22 07.11.2021
5564 Clouds 7 1008 72 10000 1.34 9 04:33 07.11.2021
5565 Clear 7 1011 72 10000 2.24 52 02:28 07.11.2021
5566 Clear 6 1014 80 10000 3.13 200 22:57 06.11.2021
5567 Clear 6 1014 80 10000 1.34 57 22:32 06.11.2021
5568 Clear 6 1011 80 10000 2.24 202 21:28 06.11.2021
5569 Clear 6 1015 78 10000 1.34 105 20:32 06.11.2021
5570 Clear 7 1016 78 10000 0.89 251 18:56 06.11.2021
5571 Clear 9 1016 75 10000 3.13 206 16:38 06.11.2021
5572 Clouds 11 1018 70 10000 1.79 68 14:31 06.11.2021
5573 Clouds 11 1018 70 10000 3.13 120 13:38 06.11.2021
5574 Clouds 10 1019 75 10000 2.24 105 11:25 06.11.2021
5575 Clouds 8 1019 84 10000 3.13 52 09:22 06.11.2021
5576 Clouds 7 1018 85 10000 1.34 113 04:56 06.11.2021
5577 Clouds 7 1017 89 10000 4.02 232 01:27 06.11.2021
5578 Clouds 7 1013 92 10000 0.89 317 23:34 05.11.2021
5579 Clouds 8 1016 90 10000 0.45 75 22:33 05.11.2021
5580 Clouds 8 1017 90 10000 1.34 37 22:33 05.11.2021
5581 Clouds 8 1015 91 10000 1.34 96 20:50 05.11.2021
5582 Clouds 8 1015 91 10000 0.89 60 20:19 05.11.2021
5583 Clouds 8 1015 91 10000 1.34 75 19:37 05.11.2021
5584 Clouds 8 1014 91 10000 0.45 53 18:39 05.11.2021
5585 Clouds 8 1013 90 10000 0.45 43 17:26 05.11.2021
5586 Clouds 8 1013 92 10000 0.89 98 15:34 05.11.2021
5587 Rain 8 1012 93 10000 2.24 38 13:35 05.11.2021
5588 Rain 7 1010 92 10000 1.79 65 10:37 05.11.2021
5589 Rain 7 1008 91 10000 1.79 90 08:39 05.11.2021
5590 Rain 7 1006 91 10000 1.34 114 07:26 05.11.2021
5591 Clouds 8 1003 86 10000 4.02 93 04:44 05.11.2021
5592 Clouds 8 1002 87 10000 1.79 118 02:25 05.11.2021
5593 Clouds 8 1001 85 10000 3.13 43 00:40 05.11.2021
5594 Clouds 8 1000 88 10000 3.13 96 23:18 04.11.2021
5595 Clouds 7 999 90 10000 1.79 309 22:19 04.11.2021
5596 Clouds 7 998 90 10000 1.79 107 21:32 04.11.2021
5597 Clouds 7 997 90 10000 1.79 75 20:41 04.11.2021
5598 Clouds 7 996 90 10000 3.58 58 20:21 04.11.2021
5599 Rain 7 996 90 10000 4.02 77 19:44 04.11.2021
5600 Rain 7 995 89 10000 4.47 79 18:44 04.11.2021
5601 Rain 7 993 89 10000 4.47 84 17:48 04.11.2021
5602 Clouds 6 992 91 10000 3.13 104 16:41 04.11.2021
5603 Clouds 7 990 90 10000 2.68 79 14:38 04.11.2021
5604 Rain 7 988 94 10000 2.68 129 12:32 04.11.2021
5605 Mist 7 987 95 3700 0.45 151 09:31 04.11.2021
5606 Rain 8 988 94 2600 0.89 124 08:30 04.11.2021
5607 Rain 8 988 94 2600 0.45 141 07:34 04.11.2021
5608 Clouds 8 991 89 10000 1.54 50 02:37 04.11.2021
5609 Rain 9 993 86 10000 2.06 110 22:50 03.11.2021
5610 Clouds 9 993 83 10000 2.57 110 21:49 03.11.2021
5611 Clouds 9 993 83 10000 0.45 271 21:30 03.11.2021
5612 Clouds 9 993 82 10000 0.45 171 20:35 03.11.2021
5613 Clouds 9 993 82 10000 1.34 284 19:58 03.11.2021
5614 Clouds 9 993 81 10000 1.79 294 18:57 03.11.2021
5615 Clear 10 993 80 10000 1.79 323 18:23 03.11.2021
5616 Clear 10 993 80 10000 1.34 309 17:36 03.11.2021
5617 Clear 10 994 77 10000 0.45 170 16:26 03.11.2021
5618 Clear 11 994 75 10000 0.45 206 15:43 03.11.2021
5619 Clouds 11 994 72 10000 0.45 105 13:57 03.11.2021
5620 Clear 11 991 76 10000 0.45 83 11:59 03.11.2021
5621 Clear 11 992 76 10000 0.45 184 11:25 03.11.2021
5622 Clouds 10 995 77 10000 0.45 155 10:46 03.11.2021
5623 Clouds 8 1004 83 10000 0.89 291 09:31 03.11.2021
5624 Clouds 6 996 88 10000 1.34 158 08:23 03.11.2021
5625 Clouds 5 995 87 10000 0.89 187 07:39 03.11.2021
5626 Clouds 5 995 90 10000 1.79 135 05:35 03.11.2021
5627 Clouds 7 994 89 10000 0.89 211 02:28 03.11.2021
5628 Clouds 8 994 89 10000 1.79 222 23:56 02.11.2021
5629 Clouds 7 994 90 10000 2.24 231 22:47 02.11.2021
5630 Clear 7 994 89 10000 0.45 257 21:39 02.11.2021
5631 Clear 7 994 87 10000 1.34 185 20:33 02.11.2021
5632 Clear 8 994 88 10000 0.45 164 19:53 02.11.2021
5633 Clear 8 994 88 10000 0.45 164 19:53 02.11.2021
5634 Clear 8 994 85 10000 1.54 280 19:18 02.11.2021
5635 Clear 9 994 85 10000 2.57 220 18:26 02.11.2021
5636 Clear 10 993 84 10000 0.45 93 17:43 02.11.2021
5637 Clouds 11 993 82 10000 1.34 207 16:31 02.11.2021
5638 Clouds 11 993 80 10000 0.89 200 15:48 02.11.2021
5639 Clouds 12 993 78 10000 1.79 90 14:31 02.11.2021
5640 Clouds 12 993 79 10000 2.24 20 13:28 02.11.2021
5641 Clouds 12 993 81 10000 1.34 79 12:43 02.11.2021
5642 Clouds 11 993 90 10000 2.24 230 11:38 02.11.2021
5643 Clouds 10 993 94 10000 2.57 220 10:54 02.11.2021
5644 Clouds 9 993 96 10000 1.34 220 10:29 02.11.2021
5645 Fog 8 993 96 10000 0.45 288 08:45 02.11.2021
5646 Clouds 8 992 96 6000 1.54 200 07:36 02.11.2021
5647 Rain 8 993 96 5000 0.45 276 03:51 02.11.2021
5648 Rain 8 993 95 10000 2.57 140 02:35 02.11.2021
5649 Rain 9 995 95 5000 0.89 203 23:20 01.11.2021
5650 Rain 9 995 95 1800 0.45 234 21:28 01.11.2021
5651 Rain 9 996 95 2500 2.06 220 20:40 01.11.2021
5652 Rain 9 996 94 4500 2.06 180 19:58 01.11.2021
5653 Rain 9 996 94 4500 2.06 180 19:35 01.11.2021
5654 Rain 10 996 93 4200 0.45 229 18:23 01.11.2021
5655 Rain 10 996 92 6000 2.06 180 17:35 01.11.2021
5656 Rain 10 996 91 8000 0.45 277 16:50 01.11.2021
5657 Clouds 11 996 88 10000 0.45 316 15:56 01.11.2021
5658 Clouds 11 996 89 10000 0.89 248 15:27 01.11.2021
5659 Clouds 11 996 89 10000 1.79 230 14:44 01.11.2021
5660 Clouds 11 996 88 10000 0.45 280 14:23 01.11.2021
5661 Clouds 12 996 88 10000 0.45 240 13:50 01.11.2021
5662 Clouds 11 996 88 10000 0.45 240 12:34 01.11.2021
5663 Clouds 11 996 83 10000 1.34 234 11:26 01.11.2021
5664 Clouds 11 996 79 10000 1.34 296 09:43 01.11.2021
5665 Clouds 10 995 80 10000 1.79 302 08:18 01.11.2021
5666 Clear 9 1003 82 10000 0.45 205 07:40 01.11.2021
5667 Clear 10 993 78 10000 0.89 312 03:48 01.11.2021
5668 Clear 10 994 76 10000 1.79 297 01:37 01.11.2021
5669 Clear 12 996 73 10000 4.92 296 22:32 31.10.2021
5670 Clear 12 997 69 10000 1.79 173 20:50 31.10.2021
5671 Clear 12 997 69 10000 1.79 173 20:50 31.10.2021
5672 Clear 13 998 68 10000 3.13 307 19:22 31.10.2021
5673 Clear 13 998 69 10000 2.24 276 18:40 31.10.2021
5674 Clear 13 999 68 10000 2.24 23 17:32 31.10.2021
5675 Clear 15 1000 59 10000 2.24 266 15:50 31.10.2021
5676 Clear 15 1001 60 10000 3.58 326 14:23 31.10.2021
5677 Clear 16 1002 60 10000 2.68 300 12:50 31.10.2021
5678 Clear 16 1002 60 10000 1.34 148 11:41 31.10.2021
5679 Clear 14 1003 63 10000 1.34 257 10:44 31.10.2021
5680 Clear 12 1004 68 10000 0.89 243 09:22 31.10.2021
5681 Clear 11 1004 73 10000 1.79 175 08:29 31.10.2021
5682 Clear 10 1012 68 10000 1.79 269 01:37 31.10.2021
5683 Clear 12 1001 63 10000 2.68 222 22:47 30.10.2021
5684 Clear 12 1010 66 10000 1.79 307 21:35 30.10.2021
5685 Clear 11 1010 67 10000 0.89 223 20:50 30.10.2021
5686 Clear 12 1009 65 10000 1.34 286 18:48 30.10.2021
5687 Clear 13 999 62 10000 3.13 281 17:25 30.10.2021
5688 Clear 14 1000 57 10000 4.92 323 15:21 30.10.2021
5689 Clear 13 1000 61 10000 4.02 293 13:40 30.10.2021
5690 Clouds 13 1000 63 10000 3.58 316 13:21 30.10.2021
5691 Clear 12 1000 64 10000 5.36 292 12:51 30.10.2021
5692 Clear 12 1001 67 10000 3.58 251 11:44 30.10.2021
5693 Clear 11 1002 71 10000 2.24 231 10:32 30.10.2021
5694 Clear 8 1003 77 10000 2.68 147 08:53 30.10.2021
5695 Clear 8 1003 78 10000 2.68 334 07:29 30.10.2021
5696 Clear 8 1004 77 10000 1.79 289 05:39 30.10.2021
5697 Clear 9 1005 69 10000 0.89 308 01:37 30.10.2021
5698 Clear 9 1005 71 10000 1.34 245 22:54 29.10.2021
5699 Clear 9 1005 71 10000 1.34 294 22:32 29.10.2021
5700 Clear 9 1013 70 10000 1.34 330 20:46 29.10.2021
5701 Clear 9 1013 71 10000 5.66 160 20:24 29.10.2021
5702 Clear 11 1004 63 10000 0.45 285 18:38 29.10.2021
5703 Clear 13 1004 62 10000 1.79 296 17:24 29.10.2021
5704 Clear 14 1005 58 10000 1.79 316 15:21 29.10.2021
5705 Clear 12 1006 66 10000 3.13 313 12:26 29.10.2021
5706 Clear 10 1007 72 10000 1.79 293 10:46 29.10.2021
5707 Clear 6 1008 84 10000 0.89 300 08:47 29.10.2021
5708 Clear 8 1009 79 10000 1.34 221 00:46 29.10.2021
5709 Clear 9 1009 79 10000 1.34 324 23:46 28.10.2021
5710 Clear 9 1009 77 10000 0.45 290 22:20 28.10.2021
5711 Clear 10 1010 77 10000 0.45 281 20:57 28.10.2021
5712 Clear 10 1010 77 10000 1.34 303 19:52 28.10.2021
5713 Clear 11 1010 74 10000 0.45 246 18:30 28.10.2021
5714 Clear 13 1011 71 10000 0.45 262 17:20 28.10.2021
5715 Clear 14 1011 65 10000 3.13 317 16:24 28.10.2021
5716 Clear 15 1012 64 10000 1.79 306 14:40 28.10.2021
5717 Clear 15 1012 64 10000 1.79 334 13:32 28.10.2021
5718 Clear 14 1013 70 10000 1.34 181 12:49 28.10.2021
5719 Clouds 12 1014 82 9000 1.34 345 11:26 28.10.2021
5720 Mist 9 1023 90 4700 0.89 281 10:23 28.10.2021
5721 Mist 8 1023 99 5000 2.06 160 09:36 28.10.2021
5722 Fog 8 1003 93 7000 3.6 150 08:36 28.10.2021
5723 Fog 6 1011 95 500 0.51 0 07:41 28.10.2021
5724 Fog 7 1012 95 600 1.54 160 01:37 28.10.2021
5725 Clear 8 1016 90 10000 2.06 180 22:47 27.10.2021
5726 Clouds 9 1016 89 10000 0.89 58 21:53 27.10.2021
5727 Clouds 10 1016 87 10000 0.45 53 21:20 27.10.2021
5728 Clouds 11 1016 83 10000 0.45 84 20:43 27.10.2021
5729 Clouds 11 1016 81 10000 0.45 95 19:46 27.10.2021
5730 Clouds 12 1016 81 10000 0.89 103 18:56 27.10.2021
5731 Clouds 13 1016 78 10000 2.24 19 17:39 27.10.2021
5732 Clouds 13 1016 77 10000 0.45 81 16:25 27.10.2021
5733 Clouds 13 1017 75 10000 1.79 110 15:24 27.10.2021
5734 Clouds 14 1013 78 10000 1.34 234 14:20 27.10.2021
5735 Clouds 12 1017 81 10000 3.58 230 11:18 27.10.2021
5736 Clouds 10 1026 80 10000 4.12 220 10:37 27.10.2021
5737 Clear 9 1013 89 10000 2.24 197 09:23 27.10.2021
5738 Clear 8 1004 89 10000 1.34 200 07:44 27.10.2021
5739 Clear 9 1004 86 10000 2.68 199 05:49 27.10.2021
5740 Clear 9 1014 84 10000 2.24 213 01:26 27.10.2021
5741 Clear 10 1015 81 10000 3.6 220 00:54 27.10.2021
5742 Clear 10 1015 79 10000 1.34 51 23:55 26.10.2021
5743 Clear 10 1015 79 10000 3.13 72 22:47 26.10.2021
5744 Clear 10 1014 79 10000 1.79 83 22:25 26.10.2021
5745 Clear 10 1015 79 10000 0.89 28 21:51 26.10.2021
5746 Clouds 11 1014 80 10000 1.79 58 19:59 26.10.2021
5747 Clouds 12 1014 81 10000 3.13 113 19:22 26.10.2021
5748 Clouds 12 1010 81 10000 1.79 215 18:23 26.10.2021
5749 Clouds 13 1013 75 10000 2.57 250 15:51 26.10.2021
5750 Clouds 14 1001 75 10000 4.02 241 13:45 26.10.2021
5751 Clouds 10 1001 82 10000 1.79 237 11:18 26.10.2021
5752 Rain 9 1001 84 10000 0.45 220 09:27 26.10.2021
5753 Clouds 7 1000 85 10000 3.09 160 07:23 26.10.2021
5754 Clear 7 1011 81 10000 1.79 326 00:29 26.10.2021
5755 Clear 7 1011 81 10000 1.79 326 00:29 26.10.2021
5756 Clear 7 1011 79 10000 1.79 304 23:37 25.10.2021
5757 Clear 7 1011 78 10000 0.89 293 22:34 25.10.2021
5758 Clear 7 1011 77 10000 0.89 288 21:47 25.10.2021
5759 Clear 8 1011 74 10000 0.89 278 20:48 25.10.2021
5760 Clear 8 1011 74 10000 0.45 307 19:44 25.10.2021
5761 Clear 8 1011 74 10000 0.45 307 19:23 25.10.2021
5762 Clear 9 1012 73 10000 1.79 188 18:40 25.10.2021
5763 Clear 10 1011 68 10000 0.45 262 17:42 25.10.2021
5764 Clear 12 1008 61 10000 0.45 225 15:24 25.10.2021
5765 Clear 11 1013 63 10000 1.34 271 12:39 25.10.2021
5766 Clear 10 1013 66 10000 1.34 278 11:25 25.10.2021
5767 Clear 5 1014 78 10000 0.89 266 09:23 25.10.2021
5768 Clear 4 1014 81 10000 0.89 257 07:26 25.10.2021
5769 Clear 4 1014 81 10000 0.89 257 07:26 25.10.2021
5770 Clear 5 1014 79 10000 1.34 274 05:24 25.10.2021
5771 Clear 5 1014 79 10000 1.34 274 05:24 25.10.2021
5772 Clear 7 1015 72 10000 0.89 275 00:52 25.10.2021
5773 Clear 7 1015 71 10000 0.45 282 00:34 25.10.2021
5774 Clear 7 1015 71 10000 0.45 282 00:34 25.10.2021
5775 Clear 7 1015 71 10000 0.45 282 00:34 25.10.2021
5776 Clear 7 1015 70 10000 0.45 311 23:44 24.10.2021
5777 Clear 7 1015 74 10000 0.89 259 22:39 24.10.2021
5778 Clear 7 1016 74 10000 0.45 261 22:20 24.10.2021
5779 Clear 7 1016 73 10000 3.09 160 21:33 24.10.2021
5780 Clear 7 1016 74 10000 0.89 266 20:42 24.10.2021
5781 Clear 8 1017 70 10000 1.34 292 19:49 24.10.2021
5782 Clear 9 1017 68 10000 0.89 282 18:30 24.10.2021
5783 Clear 10 1017 64 10000 1.34 303 17:46 24.10.2021
5784 Clear 12 1019 56 10000 3.13 305 15:57 24.10.2021
5785 Clear 12 1019 55 10000 3.13 305 15:20 24.10.2021
5786 Clear 11 1020 63 10000 0.89 129 13:23 24.10.2021
5787 Clear 10 1021 71 10000 1.34 276 12:26 24.10.2021
5788 Clear 10 1021 75 10000 0.89 342 11:36 24.10.2021
5789 Clear 6 1031 88 10000 0.89 338 10:38 24.10.2021
5790 Clear 6 1031 88 10000 0.89 338 10:38 24.10.2021
5791 Fog 4 1010 93 10000 3.09 160 08:43 24.10.2021
5792 Clouds 4 1022 91 10000 2.57 180 02:58 24.10.2021
5793 Clear 6 1021 87 10000 2.57 220 23:51 23.10.2021
5794 Clear 7 1021 86 10000 2.06 240 22:40 23.10.2021
5795 Clear 7 1020 82 10000 0.45 217 20:59 23.10.2021
5796 Clouds 8 1020 81 10000 2.06 260 19:36 23.10.2021
5797 Clouds 8 1019 80 10000 0.89 46 18:43 23.10.2021
5798 Clouds 9 1019 79 10000 2.24 98 17:44 23.10.2021
5799 Clouds 9 1018 76 10000 2.68 97 17:18 23.10.2021
5800 Clouds 10 1017 72 10000 0.89 134 15:56 23.10.2021
5801 Clouds 10 1017 70 10000 2.24 127 13:32 23.10.2021
5802 Clouds 7 1009 84 10000 1.34 71 00:42 23.10.2021
5803 Clouds 8 1009 83 10000 1.79 128 23:36 22.10.2021
5804 Clouds 8 1006 83 10000 2.68 113 21:29 22.10.2021
5805 Clouds 10 1004 61 10000 5.81 80 19:29 22.10.2021
5806 Clouds 10 1004 61 10000 4.47 76 18:24 22.10.2021
5807 Clouds 11 1003 60 10000 5.36 19 16:30 22.10.2021
5808 Clouds 11 1004 57 10000 3.13 92 14:44 22.10.2021
5809 Clouds 10 1004 58 10000 5.81 44 12:41 22.10.2021
5810 Clouds 9 1004 68 10000 5.36 33 10:56 22.10.2021
5811 Clouds 8 1004 72 10000 4.02 68 09:57 22.10.2021
5812 Clouds 7 1004 74 10000 2.68 70 09:34 22.10.2021
5813 Clear 6 1004 82 10000 2.24 37 07:40 22.10.2021
5814 Clear 6 1004 82 10000 2.24 52 07:21 22.10.2021
5815 Clouds 8 1001 81 10000 1.79 105 00:54 22.10.2021
5816 Clouds 8 1000 81 10000 2.24 123 23:50 21.10.2021
5817 Rain 9 999 82 10000 4.02 122 22:43 21.10.2021
5818 Rain 9 998 80 10000 2.68 319 21:28 21.10.2021
5819 Clouds 12 997 65 10000 6.26 44 20:23 21.10.2021
5820 Rain 12 996 59 10000 6.26 44 19:55 21.10.2021
5821 Clear 13 996 60 10000 4.02 52 19:25 21.10.2021
5822 Clear 13 995 59 10000 2.24 37 18:33 21.10.2021
5823 Clear 13 995 56 10000 3.13 68 17:51 21.10.2021
5824 Clouds 14 1004 52 10000 6.26 49 16:50 21.10.2021
5825 Clouds 14 1003 53 10000 5.81 68 15:33 21.10.2021
5826 Clouds 14 1002 57 10000 4.92 121 14:56 21.10.2021
5827 Clouds 14 1002 56 10000 4.92 121 14:37 21.10.2021
5828 Clouds 14 1002 56 10000 4.92 121 14:37 21.10.2021
5829 Clouds 16 987 55 10000 10.28 27 11:56 21.10.2021
5830 Clouds 16 987 74 10000 3.58 98 09:42 21.10.2021
5831 Clear 16 986 74 10000 3.13 297 07:54 21.10.2021
5832 Rain 16 987 78 10000 3.58 26 06:45 21.10.2021
5833 Rain 18 1004 69 10000 0.89 340 00:39 21.10.2021
5834 Clear 18 996 66 10000 0.89 342 22:36 20.10.2021
5835 Clouds 19 997 65 10000 1.34 25 21:48 20.10.2021
5836 Clear 19 997 64 10000 1.34 78 20:59 20.10.2021
5837 Clear 19 998 64 10000 3.13 47 20:39 20.10.2021
5838 Clear 19 997 63 10000 4.02 20 20:19 20.10.2021
5839 Clouds 19 998 58 10000 3.58 324 19:23 20.10.2021
5840 Clear 20 998 53 10000 2.24 53 18:45 20.10.2021
5841 Clear 20 998 51 10000 1.79 42 17:33 20.10.2021
5842 Clear 21 999 49 10000 2.24 308 14:56 20.10.2021
5843 Clear 15 1012 81 10000 4.63 180 09:57 20.10.2021
5844 Clear 13 1014 86 10000 5.66 190 06:57 20.10.2021
5845 Clear 15 997 88 10000 0.89 219 02:37 20.10.2021
5846 Clouds 14 1009 88 10000 0.89 219 00:34 20.10.2021
5847 Clouds 14 1009 88 10000 0.89 219 00:34 20.10.2021
5848 Clouds 15 1009 84 10000 0.45 82 22:58 19.10.2021
5849 Clouds 15 1009 81 10000 3.13 230 21:38 19.10.2021
5850 Clouds 15 1010 79 10000 1.79 223 20:29 19.10.2021
5851 Clouds 15 1010 78 10000 2.68 141 19:59 19.10.2021
5852 Clouds 15 1010 77 10000 3.13 209 19:37 19.10.2021
5853 Clouds 15 1010 74 10000 2.68 214 18:45 19.10.2021
5854 Clouds 16 1010 71 10000 0.89 349 17:52 19.10.2021
5855 Clouds 17 1011 66 10000 2.24 202 15:30 19.10.2021
5856 Clear 17 1020 61 10000 0.45 247 14:44 19.10.2021
5857 Clear 17 1021 61 10000 0.45 193 13:56 19.10.2021
5858 Clear 14 1022 67 10000 0.89 235 12:24 19.10.2021
5859 Clouds 14 1009 71 10000 0.45 190 11:30 19.10.2021
5860 Clear 10 1022 85 10000 3.09 170 09:55 19.10.2021
5861 Clear 9 1023 83 10000 1.03 0 08:57 19.10.2021
5862 Clear 9 1004 91 10000 1.34 170 02:38 19.10.2021
5863 Clear 9 1013 83 10000 0.45 301 00:22 19.10.2021
5864 Clear 9 1013 84 10000 3.09 190 23:49 18.10.2021
5865 Clear 10 1012 83 10000 3.6 180 22:59 18.10.2021
5866 Clear 10 1012 84 10000 4.12 180 22:31 18.10.2021
5867 Clear 10 1012 84 10000 4.12 180 22:31 18.10.2021
5868 Clear 10 1016 82 10000 1.03 190 20:57 18.10.2021
5869 Clear 10 1015 81 10000 1.03 190 20:33 18.10.2021
5870 Clear 11 1015 78 10000 1.54 160 19:49 18.10.2021
5871 Clear 12 1015 77 10000 1.03 180 19:28 18.10.2021
5872 Clear 13 1015 70 10000 0.51 0 18:50 18.10.2021
5873 Clear 16 1016 56 10000 2.06 170 14:59 18.10.2021
5874 Clear 13 1006 73 10000 1.03 0 12:53 18.10.2021
5875 Clear 10 1016 86 10000 0.45 302 10:26 18.10.2021
5876 Clouds 9 1016 87 10000 0.45 150 09:27 18.10.2021
5877 Clouds 9 1014 85 10000 1.03 300 02:28 18.10.2021
5878 Clear 9 1013 79 10000 2.57 220 23:20 17.10.2021
5879 Clear 9 1013 80 10000 0.89 76 21:52 17.10.2021
5880 Clear 9 1013 79 10000 0.89 115 20:59 17.10.2021
5881 Clear 9 1012 78 10000 0.89 98 20:35 17.10.2021
5882 Clear 10 1012 76 10000 0.89 131 19:39 17.10.2021
5883 Clouds 10 1009 74 10000 1.83 241 18:58 17.10.2021
5884 Clear 12 1012 65 10000 1.54 280 17:32 17.10.2021
5885 Clouds 13 1012 59 10000 0.45 49 15:41 17.10.2021
5886 Clouds 13 1012 58 10000 0.45 158 14:24 17.10.2021
5887 Clouds 13 1012 59 10000 0.45 158 13:42 17.10.2021
5888 Clouds 12 1013 69 10000 0.89 22 11:57 17.10.2021
5889 Clouds 9 1012 86 10000 0.89 219 10:43 17.10.2021
5890 Clouds 8 1012 89 10000 0.89 209 09:41 17.10.2021
5891 Clouds 7 1011 90 10000 2.06 220 07:19 17.10.2021
5892 Clouds 7 1012 91 10000 2.57 200 00:53 17.10.2021
5893 Clouds 6 1012 92 10000 2.57 190 00:22 17.10.2021
5894 Clouds 8 1012 89 10000 1.03 180 21:52 16.10.2021
5895 Clouds 9 1012 86 10000 1.54 180 20:32 16.10.2021
5896 Clouds 10 1012 84 10000 1.03 150 19:46 16.10.2021
5897 Clouds 10 1012 84 10000 0.45 143 19:23 16.10.2021
5898 Clouds 10 1013 83 10000 0.51 70 18:56 16.10.2021
5899 Clouds 10 1012 82 10000 0.51 70 18:38 16.10.2021
5900 Clouds 10 1012 81 10000 0.51 30 18:18 16.10.2021
5901 Clouds 11 1022 74 10000 0.89 113 17:27 16.10.2021
5902 Clouds 12 1022 71 10000 0.45 102 15:33 16.10.2021
5903 Clouds 11 1011 82 10000 0.45 143 12:26 16.10.2021
5904 Clouds 9 1013 88 10000 0.45 202 10:48 16.10.2021
5905 Clouds 6 1001 95 10000 2.06 240 08:32 16.10.2021
5906 Clear 6 1011 92 10000 2.57 230 01:26 16.10.2021
5907 Clear 7 1011 90 10000 0.45 136 23:57 15.10.2021
5908 Clear 7 1010 91 10000 0.45 217 23:24 15.10.2021
5909 Clear 8 1010 91 10000 2.57 250 22:19 15.10.2021
5910 Clear 8 1010 91 10000 0.45 207 21:29 15.10.2021
5911 Clouds 9 1010 90 10000 0.45 104 20:50 15.10.2021
5912 Clouds 10 1009 88 10000 2.24 76 19:38 15.10.2021
5913 Clouds 10 1008 88 10000 0.45 160 18:41 15.10.2021
5914 Clouds 11 1007 86 10000 0.45 127 17:58 15.10.2021
5915 Clouds 14 1005 69 10000 4.47 39 15:37 15.10.2021
5916 Clouds 16 1005 65 10000 1.34 58 13:39 15.10.2021
5917 Clouds 15 1006 67 10000 2.68 37 11:46 15.10.2021
5918 Clouds 14 1006 75 10000 2.24 349 10:58 15.10.2021
5919 Clouds 13 1006 80 10000 3.13 342 10:19 15.10.2021
5920 Clouds 11 1003 84 10000 2.24 214 06:57 15.10.2021
5921 Clouds 11 1010 86 10000 2.68 60 02:21 15.10.2021
5922 Clear 11 1010 87 10000 2.24 91 00:22 15.10.2021
5923 Clouds 11 1011 89 10000 2.24 48 22:52 14.10.2021
5924 Clouds 11 1011 90 10000 1.79 59 21:46 14.10.2021
5925 Clouds 11 1011 91 10000 1.34 62 21:19 14.10.2021
5926 Clouds 11 1011 93 10000 1.34 70 20:20 14.10.2021
5927 Clouds 11 1011 94 10000 1.34 26 19:42 14.10.2021
5928 Clouds 11 1012 92 6000 0.89 109 17:39 14.10.2021
5929 Clouds 12 1012 91 10000 3.13 86 16:56 14.10.2021
5930 Clouds 12 1012 92 10000 0.89 58 16:21 14.10.2021
5931 Clouds 11 1012 94 5000 0.89 51 14:44 14.10.2021
5932 Drizzle 11 1012 93 4800 1.34 63 14:24 14.10.2021
5933 Drizzle 10 1013 93 5000 2.24 70 12:35 14.10.2021
5934 Clouds 9 1013 96 7000 3.6 260 10:46 14.10.2021
5935 Clouds 7 1011 93 10000 0.89 218 07:45 14.10.2021
5936 Clouds 7 1011 93 10000 0.45 226 04:23 14.10.2021
5937 Clouds 6 1012 91 10000 1.34 220 00:36 14.10.2021
5938 Clear 5 1015 90 10000 3.09 220 22:39 13.10.2021
5939 Clear 5 1014 87 10000 2.06 220 21:36 13.10.2021
5940 Clear 6 1014 82 10000 2.06 260 20:41 13.10.2021
5941 Clouds 8 1014 79 10000 0.51 0 19:20 13.10.2021
5942 Clouds 8 1014 77 10000 1.03 310 18:37 13.10.2021
5943 Clouds 11 1013 65 10000 2.24 113 16:35 13.10.2021
5944 Clouds 10 1013 67 10000 2.24 184 14:46 13.10.2021
5945 Clouds 10 1013 68 10000 2.68 117 14:23 13.10.2021
5946 Clouds 10 1013 79 10000 2.68 31 12:42 13.10.2021
5947 Clouds 9 1012 86 10000 2.68 67 11:36 13.10.2021
5948 Clouds 6 1012 92 10000 1.34 115 09:56 13.10.2021
5949 Clouds 5 1011 93 10000 0.45 149 07:53 13.10.2021
5950 Clouds 4 1008 92 10000 2.06 280 03:37 13.10.2021
5951 Clear 4 1008 90 10000 2.57 290 02:21 13.10.2021
5952 Clear 5 1007 90 10000 0.45 109 23:33 12.10.2021
5953 Clouds 6 1007 92 10000 2.06 290 22:50 12.10.2021
5954 Clouds 6 1007 92 10000 0.45 103 22:26 12.10.2021
5955 Clouds 7 1006 90 10000 2.57 300 20:54 12.10.2021
5956 Clouds 7 1006 92 10000 0.45 125 20:30 12.10.2021
5957 Clouds 7 1005 91 10000 2.06 260 19:36 12.10.2021
5958 Clouds 8 1005 90 10000 0.89 228 18:25 12.10.2021
5959 Clouds 10 1005 86 10000 1.79 53 17:20 12.10.2021
5960 Clouds 10 1005 90 10000 0.89 139 16:22 12.10.2021
5961 Clouds 10 1005 89 10000 0.89 89 15:31 12.10.2021
5962 Clouds 10 1005 89 10000 0.89 89 15:31 12.10.2021
5963 Clouds 10 1005 89 10000 0.89 89 15:30 12.10.2021
5964 Rain 10 1005 90 8000 3.13 88 13:46 12.10.2021
5965 Rain 10 1006 91 10000 0.89 96 13:18 12.10.2021
5966 Clouds 10 1007 86 10000 1.79 79 11:29 12.10.2021
5967 Clouds 9 1008 90 10000 2.24 61 09:34 12.10.2021
5968 Clouds 8 1008 93 10000 0.89 68 08:20 12.10.2021
5969 Clouds 8 1009 93 10000 1.34 86 06:44 12.10.2021
5970 Clouds 8 1010 93 10000 0.45 87 04:38 12.10.2021
5971 Clouds 9 1011 94 10000 1.34 193 02:46 12.10.2021
5972 Clouds 10 1011 87 10000 0.45 67 23:49 11.10.2021
5973 Clouds 10 1011 87 10000 1.34 141 23:28 11.10.2021
5974 Clouds 10 1012 87 10000 1.79 91 22:47 11.10.2021
5975 Clouds 9 1012 90 10000 0.89 69 21:20 11.10.2021
5976 Clouds 9 1012 90 10000 0.89 74 19:53 11.10.2021
5977 Clouds 9 1012 90 10000 0.89 74 19:34 11.10.2021
5978 Clouds 10 1013 88 7000 1.03 0 18:23 11.10.2021
5979 Clouds 10 1013 88 7000 1.03 0 18:23 11.10.2021
5980 Mist 10 1013 92 1800 0.45 138 16:40 11.10.2021
5981 Clouds 10 1010 92 10000 0.89 151 16:20 11.10.2021
5982 Drizzle 10 1013 91 3000 0.89 127 15:44 11.10.2021
5983 Mist 10 1013 89 4000 0.45 143 14:53 11.10.2021
5984 Drizzle 11 1013 84 2800 0.45 140 14:19 11.10.2021
5985 Clouds 12 1013 75 10000 0.89 150 13:35 11.10.2021
5986 Clouds 10 1023 74 10000 3.6 260 11:18 11.10.2021
5987 Clear 7 1023 81 10000 3.09 210 09:46 11.10.2021
5988 Clear 6 1003 80 10000 0.45 230 07:57 11.10.2021
5989 Clear 5 1005 82 10000 2.06 180 01:44 11.10.2021
5990 Clear 6 1005 81 10000 0.45 134 00:57 11.10.2021
5991 Clear 6 1005 80 10000 0.45 129 00:39 11.10.2021
5992 Clear 6 1014 79 10000 0.89 319 22:41 10.10.2021
5993 Clear 7 1014 76 10000 1.03 230 21:49 10.10.2021
5994 Clear 7 1014 74 10000 2.57 130 21:19 10.10.2021
5995 Clear 7 1017 75 10000 1.03 0 20:39 10.10.2021
5996 Clear 9 1014 73 10000 3.09 120 20:19 10.10.2021
5997 Clear 9 1017 70 10000 1.03 90 19:41 10.10.2021
5998 Clear 10 1017 62 10000 2.57 60 18:57 10.10.2021
5999 Clear 12 1017 57 10000 2.06 60 18:20 10.10.2021
6000 Clear 15 1027 40 10000 0.45 169 15:49 10.10.2021
6001 Clear 15 1018 44 10000 0.45 203 14:57 10.10.2021
6002 Clear 13 1019 48 10000 3.6 130 13:41 10.10.2021
6003 Clear 13 1016 51 10000 0.45 276 12:43 10.10.2021
6004 Clear 11 1016 62 10000 1.03 0 11:31 10.10.2021
6005 Clear 9 1009 71 10000 1.03 0 10:29 10.10.2021
6006 Clear 6 1009 79 10000 1.54 210 09:19 10.10.2021
6007 Clear 4 1008 86 10000 2.57 210 08:50 10.10.2021
6008 Clear 4 1009 75 10000 1.03 0 04:57 10.10.2021
6009 Clear 5 1010 74 10000 1.54 100 02:20 10.10.2021
6010 Clear 5 1018 76 10000 1.03 130 00:50 10.10.2021
6011 Clear 6 1019 74 10000 1.03 110 23:45 09.10.2021
6012 Clear 6 1022 77 10000 1.54 100 22:20 09.10.2021
6013 Clear 7 1022 70 10000 2.57 80 21:30 09.10.2021
6014 Clear 8 1022 66 10000 1.03 0 20:42 09.10.2021
6015 Clear 9 1022 62 10000 0.45 172 19:41 09.10.2021
6016 Clear 11 1022 57 10000 5.14 70 18:48 09.10.2021
6017 Clear 13 1022 52 10000 5.66 70 18:27 09.10.2021
6018 Clear 15 1031 47 10000 0.45 179 16:21 09.10.2021
6019 Clear 15 1022 47 10000 0.45 202 14:48 09.10.2021
6020 Clear 14 1022 51 10000 1.34 305 13:40 09.10.2021
6021 Clear 13 1019 59 10000 0.45 264 12:35 09.10.2021
6022 Clear 12 1020 61 10000 5.14 90 12:35 09.10.2021
6023 Clear 10 1012 75 10000 1.03 0 10:47 09.10.2021
6024 Clear 10 1011 77 10000 1.03 0 10:21 09.10.2021
6025 Clear 7 1011 82 10000 0.45 123 09:29 09.10.2021
6026 Fog 4 1018 95 10000 0.51 0 08:20 09.10.2021
6027 Fog 5 1010 96 4000 1.03 360 06:47 09.10.2021
6028 Clear 6 1010 90 10000 1.03 90 05:20 09.10.2021
6029 Clear 6 1019 93 10000 1.54 130 02:47 09.10.2021
6030 Clear 6 1022 90 10000 0.51 0 00:45 09.10.2021
6031 Clear 7 1022 88 10000 1.54 80 23:35 08.10.2021
6032 Clear 8 1022 87 10000 1.54 70 22:49 08.10.2021
6033 Clear 9 1022 82 10000 1.03 0 21:47 08.10.2021
6034 Clear 10 1022 75 10000 2.06 60 20:31 08.10.2021
6035 Clear 12 1021 65 10000 4.12 60 18:50 08.10.2021
6036 Clear 15 1030 53 10000 4.63 70 17:26 08.10.2021
6037 Clear 16 1030 47 10000 5.14 70 16:45 08.10.2021
6038 Clear 16 1030 47 10000 0.89 89 16:22 08.10.2021
6039 Clouds 16 1021 54 10000 1.79 182 13:49 08.10.2021
6040 Clouds 15 1031 62 10000 0.45 129 11:57 08.10.2021
6041 Clouds 14 1022 71 10000 0.45 297 10:59 08.10.2021
6042 Clouds 14 1022 79 10000 4.12 60 10:25 08.10.2021
6043 Clouds 12 1029 93 7000 2.57 80 06:51 08.10.2021
6044 Clouds 13 1016 84 10000 1.54 360 23:29 07.10.2021
6045 Clouds 13 1020 81 10000 2.06 360 22:57 07.10.2021
6046 Clouds 13 1020 81 10000 2.06 340 21:33 07.10.2021
6047 Clouds 13 1020 79 10000 0.45 112 20:49 07.10.2021
6048 Clouds 13 1020 77 10000 1.03 340 19:39 07.10.2021
6049 Clouds 14 1020 74 10000 1.54 20 18:59 07.10.2021
6050 Clouds 16 1028 65 10000 0.45 122 17:38 07.10.2021
6051 Clouds 16 1028 61 10000 1.34 145 16:42 07.10.2021
6052 Clouds 16 1028 62 10000 1.79 158 14:58 07.10.2021
6053 Clouds 16 1019 67 10000 0.45 174 13:44 07.10.2021
6054 Clouds 15 1028 68 10000 0.45 174 13:20 07.10.2021
6055 Clear 14 1019 75 10000 1.79 143 11:49 07.10.2021
6056 Clear 13 1019 77 10000 1.54 320 10:48 07.10.2021
6057 Clear 13 1019 76 10000 1.54 260 10:19 07.10.2021
6058 Clear 9 1007 89 10000 1.03 200 08:56 07.10.2021
6059 Clear 7 1015 92 10000 0.51 0 08:25 07.10.2021
6060 Clear 7 1015 92 10000 0.51 0 08:25 07.10.2021
6061 Fog 8 1006 92 10000 1.03 0 07:40 07.10.2021
6062 Clear 7 1006 94 10000 0.51 0 06:54 07.10.2021
6063 Clear 8 1015 92 10000 0.51 0 02:22 07.10.2021
6064 Clear 9 1014 89 10000 2.06 190 23:37 06.10.2021
6065 Clear 10 1014 87 10000 1.54 190 22:41 06.10.2021
6066 Clear 10 1013 85 10000 2.06 200 21:46 06.10.2021
6067 Clear 12 1013 80 10000 1.54 160 20:34 06.10.2021
6068 Clear 12 1012 78 10000 0.51 0 19:46 06.10.2021
6069 Clear 14 1020 70 10000 1.54 230 18:33 06.10.2021
6070 Clouds 15 1010 66 10000 1.54 250 16:52 06.10.2021
6071 Clouds 15 1010 66 10000 1.79 29 15:25 06.10.2021
6072 Clouds 15 1009 66 10000 2.24 63 13:51 06.10.2021
6073 Clouds 15 1009 68 10000 0.89 112 12:55 06.10.2021
6074 Clouds 15 1009 67 10000 0.89 112 12:31 06.10.2021
6075 Clouds 15 1009 69 10000 3.13 83 11:49 06.10.2021
6076 Clear 14 1007 77 10000 0.89 86 09:58 06.10.2021
6077 Clear 13 1007 80 10000 1.79 37 09:38 06.10.2021
6078 Clouds 13 1007 81 10000 0.45 94 08:42 06.10.2021
6079 Rain 13 1005 84 10000 1.34 129 06:48 06.10.2021
6080 Clear 12 1013 91 10000 4.63 210 05:26 06.10.2021
6081 Clear 14 1002 90 10000 1.34 291 00:26 06.10.2021
6082 Clear 14 1002 90 10000 1.34 184 23:52 05.10.2021
6083 Clear 14 1002 90 10000 1.34 184 23:52 05.10.2021
6084 Clear 14 1002 90 10000 2.06 180 23:32 05.10.2021
6085 Clouds 14 1002 88 10000 0.45 185 22:44 05.10.2021
6086 Rain 14 1001 88 10000 0.45 206 21:58 05.10.2021
6087 Rain 14 1001 88 10000 0.45 206 21:58 05.10.2021
6088 Clouds 14 1001 90 10000 2.57 230 21:36 05.10.2021
6089 Clouds 14 1001 91 10000 0.45 313 20:41 05.10.2021
6090 Clouds 14 1001 91 10000 0.89 217 20:22 05.10.2021
6091 Clouds 14 1001 91 10000 1.54 260 19:33 05.10.2021
6092 Clouds 15 1001 91 10000 3.09 300 18:49 05.10.2021
6093 Clouds 15 1000 89 10000 2.57 280 16:36 05.10.2021
6094 Rain 17 1000 88 10000 0.45 153 14:34 05.10.2021
6095 Clouds 17 1000 82 10000 4.63 170 13:33 05.10.2021
6096 Clouds 17 999 84 10000 0.45 280 12:38 05.10.2021
6097 Clouds 16 990 90 10000 0.89 127 11:59 05.10.2021
6098 Clouds 15 990 93 10000 0.51 0 10:44 05.10.2021
6099 Clouds 13 998 95 10000 1.03 0 08:56 05.10.2021
6100 Rain 12 1006 88 10000 0.51 0 03:56 05.10.2021
6101 Clouds 12 1009 88 10000 1.03 80 23:53 04.10.2021
6102 Rain 13 1010 85 10000 0.51 0 22:35 04.10.2021
6103 Clouds 13 1010 82 10000 1.03 0 19:38 04.10.2021
6104 Rain 13 1010 80 10000 0.89 86 18:34 04.10.2021
6105 Clouds 15 1010 71 10000 1.34 108 16:24 04.10.2021
6106 Clouds 15 1010 74 10000 2.24 143 15:31 04.10.2021
6107 Clouds 16 1010 75 10000 1.34 119 14:42 04.10.2021
6108 Clouds 17 1019 73 10000 1.79 151 13:57 04.10.2021
6109 Clouds 17 1010 76 10000 1.79 151 13:24 04.10.2021
6110 Clouds 17 1009 78 10000 1.34 141 12:26 04.10.2021
6111 Clouds 17 1009 83 10000 1.79 122 11:30 04.10.2021
6112 Clouds 17 1018 82 10000 1.54 360 10:18 04.10.2021
6113 Clouds 14 1008 87 10000 1.03 0 08:41 04.10.2021
6114 Clouds 14 1007 88 10000 1.03 0 07:26 04.10.2021
6115 Clear 15 1004 79 10000 0.89 290 00:40 04.10.2021
6116 Clear 15 1003 76 10000 0.89 233 22:37 03.10.2021
6117 Clear 16 1002 74 10000 1.34 182 21:41 03.10.2021
6118 Clear 16 1002 74 10000 1.34 182 21:22 03.10.2021
6119 Clear 17 1001 70 10000 1.34 259 19:59 03.10.2021
6120 Clear 17 1001 70 10000 1.34 259 19:30 03.10.2021
6121 Clear 19 1000 65 10000 1.79 234 18:27 03.10.2021
6122 Clear 21 1000 58 10000 2.24 358 17:24 03.10.2021
6123 Clear 21 1000 56 10000 3.13 306 14:47 03.10.2021
6124 Clear 20 1000 58 10000 3.58 302 14:24 03.10.2021
6125 Clear 20 1000 58 10000 3.58 231 13:34 03.10.2021
6126 Clear 19 1001 61 10000 3.13 309 12:29 03.10.2021
6127 Clear 16 1001 69 10000 2.24 281 10:43 03.10.2021
6128 Clear 14 1001 74 10000 4.47 244 08:53 03.10.2021
6129 Clear 14 1002 71 10000 4.02 307 03:29 03.10.2021
6130 Clear 16 1003 75 10000 1.79 207 22:43 02.10.2021
6131 Clear 16 1004 78 10000 0.45 181 21:30 02.10.2021
6132 Clear 16 1004 73 10000 1.34 305 19:51 02.10.2021
6133 Clear 17 1001 72 10000 1.34 107 18:55 02.10.2021
6134 Clear 19 1004 62 10000 1.79 314 17:57 02.10.2021
6135 Clear 19 1005 63 10000 0.89 309 17:36 02.10.2021
6136 Clear 22 1005 52 10000 1.34 286 15:53 02.10.2021
6137 Clear 6 1016 88 10000 0.89 166 06:59 01.10.2021
6138 Clouds 15 1026 53 10000 0.89 54 15:37 30.09.2021
6139 Clouds 15 1018 59 10000 2.68 178 13:51 30.09.2021
6140 Clouds 15 1018 64 10000 3.13 139 11:38 30.09.2021
6141 Clouds 14 1018 66 10000 1.79 345 10:44 30.09.2021
6142 Clear 12 1017 71 10000 2.68 74 09:44 30.09.2021
6143 Clear 9 1017 79 10000 3.13 45 08:30 30.09.2021
6144 Clear 9 1017 79 10000 1.79 89 07:34 30.09.2021
6145 Clear 10 1015 76 10000 0.89 34 05:18 30.09.2021
6146 Clear 12 1014 72 10000 1.79 75 01:20 30.09.2021
6147 Clouds 13 1013 73 10000 1.34 63 00:18 30.09.2021
6148 Clear 14 1012 75 10000 0.89 83 22:37 29.09.2021
6149 Clouds 15 1011 75 10000 2.24 82 21:25 29.09.2021
6150 Clouds 16 1010 69 10000 0.45 309 20:27 29.09.2021
6151 Clouds 15 1010 73 10000 0.45 203 19:51 29.09.2021
6152 Clear 16 1006 70 10000 2.57 220 18:45 29.09.2021
6153 Clear 18 1009 59 10000 1.34 85 17:41 29.09.2021
6154 Clouds 19 1008 58 10000 3.58 41 16:48 29.09.2021
6155 Clouds 19 1008 71 10000 0.89 123 15:58 29.09.2021
6156 Clouds 18 1008 79 10000 2.24 216 14:39 29.09.2021
6157 Clouds 17 1009 85 10000 0.89 70 13:42 29.09.2021
6158 Rain 17 1009 87 10000 0.89 70 13:18 29.09.2021
6159 Rain 17 1008 88 10000 3.09 170 12:19 29.09.2021
6160 Clear 16 1017 91 10000 0.89 292 10:49 29.09.2021
6161 Clear 16 1008 91 10000 0.89 292 09:51 29.09.2021
6162 Clear 15 1008 91 10000 0.89 200 09:24 29.09.2021
6163 Clouds 14 1009 93 9000 2.06 90 07:33 29.09.2021
6164 Clouds 14 1010 94 10000 2.06 70 04:19 29.09.2021
6165 Clouds 14 1012 90 10000 1.03 80 23:27 28.09.2021
6166 Clouds 14 1013 91 10000 0.51 0 22:24 28.09.2021
6167 Clouds 14 1013 89 10000 0.51 0 21:44 28.09.2021
6168 Clouds 14 1010 89 10000 1.03 100 20:43 28.09.2021
6169 Clouds 15 1013 87 10000 1.03 0 19:46 28.09.2021
6170 Clouds 15 1014 87 10000 1.03 0 18:50 28.09.2021
6171 Clouds 15 1014 86 10000 1.03 0 18:18 28.09.2021
6172 Clouds 15 1014 86 10000 2.06 310 16:38 28.09.2021
6173 Clouds 15 1014 92 10000 0.45 121 14:30 28.09.2021
6174 Clouds 14 1015 95 8000 0.89 121 13:19 28.09.2021
6175 Clouds 14 1011 96 10000 2.57 280 12:21 28.09.2021
6176 Clouds 14 1014 92 10000 1.79 72 11:47 28.09.2021
6177 Clouds 14 1014 92 10000 1.79 72 11:23 28.09.2021
6178 Clouds 15 1010 91 10000 4.12 290 10:21 28.09.2021
6179 Clouds 15 1010 91 10000 4.12 290 10:21 28.09.2021
6180 Clouds 15 1010 91 10000 4.12 290 10:21 28.09.2021
6181 Clouds 15 1010 91 10000 4.12 290 10:21 28.09.2021
6182 Clouds 16 1010 95 7000 1.34 340 09:22 28.09.2021
6183 Clouds 16 1009 95 7000 0.45 236 08:39 28.09.2021
6184 Clouds 15 1009 95 10000 2.06 270 07:49 28.09.2021
6185 Clear 15 1008 94 10000 0.45 204 05:41 28.09.2021
6186 Clear 17 1006 91 10000 1.34 230 01:26 28.09.2021
6187 Clear 17 1006 90 10000 1.34 225 00:28 28.09.2021
6188 Clear 17 1006 91 10000 0.45 201 23:44 27.09.2021
6189 Clouds 18 1006 90 10000 0.45 216 23:23 27.09.2021
6190 Clear 17 1018 90 10000 1.54 230 22:20 27.09.2021
6191 Clear 18 1006 89 10000 0.51 0 20:49 27.09.2021
6192 Clear 19 1005 88 10000 0.51 0 20:24 27.09.2021
6193 Clear 19 1005 86 10000 0.51 0 19:36 27.09.2021
6194 Clouds 19 1005 85 10000 1.54 280 18:52 27.09.2021
6195 Clouds 19 1005 85 10000 1.54 280 18:52 27.09.2021
6196 Clouds 21 1005 82 10000 1.03 0 17:36 27.09.2021
6197 Clouds 21 1005 78 10000 0.45 205 16:53 27.09.2021
6198 Clouds 22 1005 74 10000 0.51 0 15:46 27.09.2021
6199 Clouds 22 1005 73 10000 0.51 0 15:27 27.09.2021
6200 Clouds 21 1005 80 10000 1.03 0 13:44 27.09.2021
6201 Clouds 20 1005 84 10000 0.45 150 12:22 27.09.2021
6202 Rain 18 1005 93 10000 0.45 138 10:48 27.09.2021
6203 Clouds 17 1005 94 10000 1.54 140 09:38 27.09.2021
6204 Clouds 16 1006 95 10000 1.03 0 07:44 27.09.2021
6205 Clear 17 1017 88 10000 2.57 150 03:31 27.09.2021
6206 Clear 18 1005 83 10000 2.06 140 23:42 26.09.2021
6207 Clear 19 1005 80 10000 2.57 140 21:57 26.09.2021
6208 Clear 19 1005 79 10000 3.6 140 21:27 26.09.2021
6209 Clear 19 1005 79 10000 3.6 140 21:27 26.09.2021
6210 Clear 19 1005 78 10000 3.6 150 20:25 26.09.2021
6211 Clear 20 1005 73 10000 3.6 150 19:54 26.09.2021
6212 Clear 20 1005 72 10000 3.09 140 19:25 26.09.2021
6213 Clear 20 1005 72 10000 3.09 140 19:25 26.09.2021
6214 Clear 20 1005 72 10000 3.09 140 19:25 26.09.2021
6215 Clear 21 1005 70 10000 2.57 140 18:41 26.09.2021
6216 Clear 23 1005 66 10000 4.12 150 17:38 26.09.2021
6217 Clear 23 1005 65 10000 3.6 150 17:20 26.09.2021
6218 Clear 25 1005 56 10000 0.45 197 16:23 26.09.2021
6219 Clear 25 1005 57 10000 3.09 150 15:27 26.09.2021
6220 Clear 25 1005 55 10000 0.89 148 14:23 26.09.2021
6221 Clear 25 1006 58 10000 0.45 113 13:43 26.09.2021
6222 Clear 24 1006 63 10000 0.45 217 12:31 26.09.2021
6223 Clear 23 1006 66 10000 0.45 119 11:56 26.09.2021
6224 Clear 22 1006 69 10000 0.45 93 11:32 26.09.2021
6225 Clear 17 1018 84 10000 4.12 150 09:52 26.09.2021
6226 Clear 15 1018 87 10000 4.12 150 08:52 26.09.2021
6227 Clouds 15 1006 92 10000 3.6 170 01:18 26.09.2021
6228 Clear 15 1006 91 10000 1.03 0 00:20 26.09.2021
6229 Clear 16 1006 89 10000 1.03 180 22:40 25.09.2021
6230 Clear 16 1006 89 10000 1.03 140 22:20 25.09.2021
6231 Clear 16 1006 91 10000 1.54 60 21:47 25.09.2021
6232 Clear 17 1005 85 10000 1.54 80 20:53 25.09.2021
6233 Clear 18 1005 82 10000 1.03 0 19:54 25.09.2021
6234 Clouds 20 1005 76 10000 1.54 350 18:39 25.09.2021
6235 Clouds 21 1005 75 10000 1.54 330 17:46 25.09.2021
6236 Clouds 22 1017 62 10000 3.6 280 14:49 25.09.2021
6237 Clouds 22 1017 64 10000 4.12 270 13:56 25.09.2021
6238 Clouds 21 1017 66 10000 4.63 270 12:48 25.09.2021
6239 Clouds 20 1003 69 10000 1.79 232 11:38 25.09.2021
6240 Clouds 18 1003 74 10000 1.79 232 10:24 25.09.2021
6241 Clouds 17 1003 77 10000 1.79 232 09:25 25.09.2021
6242 Clouds 16 1016 83 10000 3.09 260 07:52 25.09.2021
6243 Clouds 17 1002 79 10000 0.45 294 01:34 25.09.2021
6244 Clouds 18 1002 75 10000 0.45 322 23:33 24.09.2021
6245 Clouds 16 1016 86 10000 2.57 230 21:41 24.09.2021
6246 Clouds 16 1016 83 10000 3.09 220 20:33 24.09.2021
6247 Clouds 16 1016 83 10000 2.06 240 19:45 24.09.2021
6248 Clouds 17 1002 75 10000 1.79 232 18:32 24.09.2021
6249 Clouds 17 1002 74 10000 1.79 232 17:53 24.09.2021
6250 Clouds 17 1002 74 10000 1.79 232 17:35 24.09.2021
6251 Clouds 17 1002 70 10000 1.79 232 16:45 24.09.2021
6252 Clouds 17 1002 70 10000 1.79 232 13:55 24.09.2021
6253 Clouds 17 1002 70 10000 1.79 232 12:45 24.09.2021
6254 Clouds 17 1002 69 10000 1.79 232 12:27 24.09.2021
6255 Clouds 17 1002 70 10000 1.79 232 11:50 24.09.2021
6256 Clouds 15 1016 74 10000 5.66 300 10:25 24.09.2021
6257 Clouds 13 1015 80 10000 6.17 310 08:29 24.09.2021
6258 Clouds 13 1014 82 10000 4.63 300 07:32 24.09.2021
6259 Clouds 13 1014 81 10000 4.63 300 06:44 24.09.2021
6260 Clouds 14 1013 79 10000 5.66 300 04:54 24.09.2021
6261 Clouds 18 1011 64 10000 0.45 283 23:57 23.09.2021
6262 Clear 19 1011 59 10000 0.45 309 22:20 23.09.2021
6263 Clear 19 1011 59 10000 0.45 318 21:47 23.09.2021
6264 Clear 19 1011 58 10000 0.45 296 20:33 23.09.2021
6265 Clear 19 1011 55 10000 0.45 329 19:28 23.09.2021
6266 Clear 20 1012 55 10000 0.45 250 17:46 23.09.2021
6267 Clouds 22 1014 51 10000 1.34 313 15:28 23.09.2021
6268 Clouds 22 1014 50 10000 0.45 329 14:59 23.09.2021
6269 Clear 21 1016 56 10000 0.45 333 13:45 23.09.2021
6270 Clear 20 1016 58 10000 6.17 260 13:19 23.09.2021
6271 Clear 20 1016 60 10000 0.45 310 12:49 23.09.2021
6272 Clear 20 1017 63 10000 0.45 324 12:22 23.09.2021
6273 Clear 18 1018 70 10000 3.6 250 11:32 23.09.2021
6274 Clear 16 1019 82 10000 4.12 210 10:25 23.09.2021
6275 Clear 14 1019 80 10000 4.63 200 09:51 23.09.2021
6276 Clear 10 1020 93 10000 3.09 210 07:54 23.09.2021
6277 Clear 9 1023 93 10000 2.06 240 03:31 23.09.2021
6278 Clouds 11 1024 90 10000 3.09 220 23:24 22.09.2021
6279 Clear 11 1024 90 10000 2.57 220 22:29 22.09.2021
6280 Clear 11 1025 90 10000 2.57 220 21:55 22.09.2021
6281 Clear 11 1025 89 10000 2.57 220 21:33 22.09.2021
6282 Clouds 12 1025 85 10000 1.54 240 20:52 22.09.2021
6283 Clouds 14 1025 83 10000 1.54 240 19:29 22.09.2021
6284 Clouds 15 1025 78 10000 1.54 260 18:39 22.09.2021
6285 Clouds 16 1025 70 10000 2.87 294 17:47 22.09.2021
6286 Clouds 16 1025 70 10000 3.54 293 16:37 22.09.2021
6287 Clouds 16 1026 69 10000 4.63 320 15:19 22.09.2021
6288 Clouds 15 1027 74 10000 5.14 310 13:48 22.09.2021
6289 Clouds 14 1027 81 10000 4.63 320 11:57 22.09.2021
6290 Clouds 13 1027 84 10000 5.66 310 10:52 22.09.2021
6291 Clouds 12 1027 89 10000 4.63 310 09:25 22.09.2021
6292 Clouds 12 1026 90 10000 5.14 310 08:29 22.09.2021
6293 Clouds 12 1026 91 10000 4.63 310 07:19 22.09.2021
6294 Clouds 12 1025 91 10000 3.09 300 05:56 22.09.2021
6295 Clouds 12 1025 91 10000 3.09 300 05:34 22.09.2021
6296 Clouds 12 1025 89 10000 3.6 290 03:50 22.09.2021
6297 Clouds 13 1026 77 10000 3.09 260 00:22 22.09.2021
6298 Clouds 13 1027 77 10000 2.57 260 22:56 21.09.2021
6299 Clouds 13 1027 80 10000 2.57 270 21:36 21.09.2021
6300 Clouds 13 1028 84 10000 3.01 279 20:27 21.09.2021
6301 Clouds 13 1028 82 10000 2.65 292 19:22 21.09.2021
6302 Clouds 14 1027 76 10000 3.57 305 17:39 21.09.2021
6303 Clouds 14 1027 72 10000 0.45 305 16:38 21.09.2021
6304 Clouds 14 1028 70 10000 3.6 290 15:52 21.09.2021
6305 Clouds 14 1028 70 10000 3.09 280 14:58 21.09.2021
6306 Clouds 15 1028 63 10000 3.6 310 13:57 21.09.2021
6307 Clouds 15 1028 63 10000 3.6 310 13:39 21.09.2021
6308 Clouds 15 1028 67 10000 3.6 300 12:40 21.09.2021
6309 Clear 13 1027 71 10000 2.57 250 10:33 21.09.2021
6310 Clear 11 1026 87 10000 0.51 0 08:40 21.09.2021
6311 Clear 11 1026 87 10000 2.06 250 07:20 21.09.2021
6312 Clear 11 1025 87 10000 0.51 0 01:52 21.09.2021
6313 Clear 12 1024 82 10000 0.51 0 22:42 20.09.2021
6314 Clear 12 1024 76 10000 0 0 21:42 20.09.2021
6315 Clear 12 1023 82 10000 0.51 310 20:58 20.09.2021
6316 Clouds 12 1023 80 10000 1.03 10 19:40 20.09.2021
6317 Clouds 13 1022 76 10000 2.06 30 17:54 20.09.2021
6318 Clouds 13 1022 71 10000 2.06 50 16:57 20.09.2021
6319 Clouds 13 1021 70 10000 3.6 60 15:57 20.09.2021
6320 Clouds 13 1021 69 10000 0.45 165 15:34 20.09.2021
6321 Clouds 14 1021 72 10000 3.09 60 14:26 20.09.2021
6322 Clouds 13 1021 81 10000 2.57 40 12:44 20.09.2021
6323 Clouds 13 1021 81 10000 2.57 30 12:21 20.09.2021
6324 Clouds 12 1021 85 10000 2.06 330 10:49 20.09.2021
6325 Clear 11 1020 87 10000 1.54 360 09:48 20.09.2021
6326 Clear 11 1020 91 10000 1.54 360 09:29 20.09.2021
6327 Clear 10 1020 91 10000 1.54 350 08:35 20.09.2021
6328 Clouds 10 1019 90 10000 1.03 0 06:21 20.09.2021
6329 Clouds 11 1018 80 10000 0.51 0 22:57 19.09.2021
6330 Clouds 11 1018 81 10000 0.51 0 21:50 19.09.2021
6331 Clouds 12 1018 81 10000 1.03 360 20:59 19.09.2021
6332 Clouds 12 1017 79 10000 1.03 360 19:54 19.09.2021
6333 Clouds 13 1017 74 10000 2.57 40 18:42 19.09.2021
6334 Clouds 13 1017 69 10000 3.6 40 17:42 19.09.2021
6335 Clouds 13 1017 68 10000 3.09 40 16:35 19.09.2021
6336 Clouds 14 1017 68 10000 3.09 20 15:31 19.09.2021
6337 Clouds 13 1017 69 10000 3.09 30 14:49 19.09.2021
6338 Clouds 13 1017 68 10000 2.06 80 13:52 19.09.2021
6339 Clouds 13 1018 69 10000 3.6 70 12:55 19.09.2021
6340 Clouds 12 1018 69 10000 2.57 50 11:49 19.09.2021
6341 Clouds 12 1018 70 10000 2.06 50 11:22 19.09.2021
6342 Clouds 11 1017 78 10000 2.57 50 09:51 19.09.2021
6343 Clouds 11 1017 84 10000 2.06 50 09:23 19.09.2021
6344 Clouds 10 1017 91 10000 2.06 30 06:49 19.09.2021
6345 Clouds 13 1017 94 10000 1.03 340 00:48 19.09.2021
6346 Clouds 13 1017 94 10000 2.06 360 23:19 18.09.2021
6347 Clouds 13 1017 94 10000 3.6 20 21:56 18.09.2021
6348 Clouds 14 1017 93 10000 2.57 10 20:46 18.09.2021
6349 Drizzle 14 1016 93 4000 4.12 20 19:42 18.09.2021
6350 Drizzle 14 1016 95 4000 2.57 340 19:22 18.09.2021
6351 Clouds 14 1016 93 10000 2.57 340 18:58 18.09.2021
6352 Clouds 15 1016 93 4000 4.12 350 18:29 18.09.2021
6353 Clouds 15 1015 88 10000 3.09 290 16:35 18.09.2021
6354 Drizzle 14 1016 92 2200 3.09 300 13:59 18.09.2021
6355 Drizzle 14 1016 91 3500 3.6 290 13:31 18.09.2021
6356 Clouds 14 1016 82 10000 0.45 297 12:52 18.09.2021
6357 Clouds 14 1015 83 10000 2.57 290 12:18 18.09.2021
6358 Clouds 14 1015 81 10000 3.6 290 11:30 18.09.2021
6359 Clouds 14 1015 81 10000 0.45 34 10:30 18.09.2021
6360 Clouds 14 1015 82 10000 0.45 313 10:30 18.09.2021
6361 Clouds 13 1015 86 10000 3.09 280 09:23 18.09.2021
6362 Clouds 13 1015 87 10000 2.06 280 08:25 18.09.2021
6363 Clouds 14 1014 90 10000 2.5 278 00:53 18.09.2021
6364 Clouds 14 1014 89 10000 2.32 277 23:56 17.09.2021
6365 Clouds 14 1014 89 10000 2.28 269 22:54 17.09.2021
6366 Clouds 14 1014 88 10000 2.13 272 22:25 17.09.2021
6367 Clouds 14 1014 86 10000 1.54 270 21:33 17.09.2021
6368 Clouds 15 1014 82 10000 2.57 300 19:52 17.09.2021
6369 Clouds 16 1014 78 10000 2.57 320 18:42 17.09.2021
6370 Clouds 16 1014 79 10000 3.6 300 16:42 17.09.2021
6371 Clouds 16 1014 79 10000 4.12 300 15:21 17.09.2021
6372 Clouds 16 1014 87 10000 4.77 278 11:53 17.09.2021
6373 Clouds 15 1014 88 10000 3.09 310 10:23 17.09.2021
6374 Clouds 15 1014 89 10000 3.09 280 07:48 17.09.2021
6375 Clouds 15 1014 87 10000 3.09 260 05:45 17.09.2021
6376 Clear 14 1015 89 10000 2.06 250 00:33 17.09.2021
6377 Clear 15 1015 84 10000 1.54 280 22:42 16.09.2021
6378 Clear 15 1014 82 10000 1.54 250 22:24 16.09.2021
6379 Clouds 15 1015 86 10000 2.06 260 21:36 16.09.2021
6380 Clouds 16 1014 87 10000 1.54 260 20:30 16.09.2021
6381 Clouds 17 1014 85 10000 2.57 270 18:52 16.09.2021
6382 Clouds 17 1014 86 10000 3.09 0 18:19 16.09.2021
6383 Clouds 17 1014 88 10000 3.09 290 17:19 16.09.2021
6384 Clouds 18 1014 80 10000 2.57 270 14:51 16.09.2021
6385 Clouds 18 1014 84 10000 2.06 260 13:40 16.09.2021
6386 Clouds 17 1014 85 10000 2.06 270 12:46 16.09.2021
6387 Clouds 17 1014 91 10000 2.06 270 11:50 16.09.2021
6388 Clouds 17 1014 92 10000 4.63 310 10:56 16.09.2021
6389 Clouds 17 1014 94 8000 3.09 320 10:23 16.09.2021
6390 Mist 18 1013 95 4800 2.57 320 09:31 16.09.2021
6391 Mist 18 1012 96 4800 2.57 300 07:59 16.09.2021
6392 Clouds 18 1012 94 10000 2.06 260 06:58 16.09.2021
6393 Clouds 18 1012 94 10000 2.06 260 06:38 16.09.2021
6394 Clouds 19 1011 89 10000 2.57 260 03:54 16.09.2021
6395 Clear 18 1011 94 10000 3.09 190 00:58 16.09.2021
6396 Clouds 18 1011 94 10000 2.57 210 23:31 15.09.2021
6397 Clouds 19 1012 91 10000 3.6 220 22:44 15.09.2021
6398 Clouds 19 1012 93 10000 3.6 180 21:31 15.09.2021
6399 Rain 19 1011 88 10000 3.6 170 20:51 15.09.2021
6400 Rain 20 1011 86 10000 3.09 160 19:33 15.09.2021
6401 Rain 20 1012 87 10000 2.57 160 18:57 15.09.2021
6402 Rain 21 1012 86 10000 3.09 170 17:45 15.09.2021
6403 Rain 22 1012 83 10000 3.09 190 16:43 15.09.2021
6404 Rain 23 1013 73 10000 2.06 160 15:25 15.09.2021
6405 Rain 24 1013 67 10000 2.57 150 14:43 15.09.2021
6406 Clouds 24 1013 69 10000 3.09 160 13:48 15.09.2021
6407 Clear 23 1013 67 10000 0.45 196 13:29 15.09.2021
6408 Clear 24 1014 65 10000 4.63 150 12:33 15.09.2021
6409 Clear 23 1014 66 10000 5.14 170 11:51 15.09.2021
6410 Clear 22 1014 70 10000 0.45 92 10:58 15.09.2021
6411 Clear 22 1014 72 10000 0.45 148 10:35 15.09.2021
6412 Clouds 18 1014 78 10000 0.45 105 09:23 15.09.2021
6413 Clear 16 1014 85 10000 4.12 150 07:27 15.09.2021
6414 Clear 16 1015 85 10000 4.12 160 02:21 15.09.2021
6415 Clear 17 1016 86 10000 2.57 150 22:36 14.09.2021
6416 Clear 18 1016 85 10000 1.54 120 21:34 14.09.2021
6417 Clear 18 1016 81 10000 1.03 130 20:25 14.09.2021
6418 Clear 20 1016 76 10000 1.03 130 19:40 14.09.2021
6419 Clouds 24 1016 61 10000 1.03 0 17:33 14.09.2021
6420 Clouds 25 1016 56 10000 1.03 0 16:49 14.09.2021
6421 Clouds 25 1016 55 10000 0.45 213 15:25 14.09.2021
6422 Clouds 24 1017 60 10000 2.06 130 14:19 14.09.2021
6423 Clouds 22 1018 67 10000 0.45 196 11:48 14.09.2021
6424 Clouds 20 1018 76 10000 2.06 50 10:47 14.09.2021
6425 Clouds 17 1018 83 10000 0.45 152 09:49 14.09.2021
6426 Clouds 13 1018 96 10000 1.54 180 08:24 14.09.2021
6427 Clouds 12 1018 94 10000 1.03 0 05:38 14.09.2021
6428 Clear 14 1019 89 10000 0.51 90 23:34 13.09.2021
6429 Clear 16 1019 87 10000 0 0 22:29 13.09.2021
6430 Clear 16 1019 85 10000 0 0 21:59 13.09.2021
6431 Clear 16 1018 85 10000 0 0 21:39 13.09.2021
6432 Clear 18 1018 75 10000 0.51 0 19:41 13.09.2021
6433 Clouds 20 1018 75 10000 2.06 350 18:45 13.09.2021
6434 Clouds 21 1018 69 10000 2.57 330 17:39 13.09.2021
6435 Clouds 21 1018 66 10000 3.6 330 16:50 13.09.2021
6436 Clouds 21 1018 68 10000 4.12 320 14:56 13.09.2021
6437 Clouds 20 1019 74 10000 1.34 147 11:52 13.09.2021
6438 Clouds 20 1018 78 10000 1.54 0 10:58 13.09.2021
6439 Clouds 15 1018 94 10000 1.03 0 08:55 13.09.2021
6440 Clouds 15 1018 91 10000 1.03 230 01:24 13.09.2021
6441 Clear 16 1017 88 10000 1.54 300 22:55 12.09.2021
6442 Clouds 17 1017 86 10000 1.54 300 22:24 12.09.2021
6443 Clouds 18 1017 83 10000 1.54 270 21:23 12.09.2021
6444 Clouds 19 1016 78 10000 1.03 300 20:21 12.09.2021
6445 Clouds 19 1016 77 10000 1.03 290 19:49 12.09.2021
6446 Clouds 20 1016 74 10000 0.45 141 19:18 12.09.2021
6447 Clouds 22 1016 68 10000 1.34 148 18:19 12.09.2021
6448 Clouds 22 1016 65 10000 1.34 136 15:59 12.09.2021
6449 Clouds 22 1017 68 10000 1.34 145 14:50 12.09.2021
6450 Clouds 21 1018 76 10000 0.45 157 12:47 12.09.2021
6451 Clear 19 1018 92 10000 1.54 210 10:35 12.09.2021
6452 Clouds 17 1017 95 10000 1.54 200 08:40 12.09.2021
6453 Clouds 16 1017 95 9000 1.54 240 07:39 12.09.2021
6454 Clear 17 1018 96 10000 3.09 220 00:56 12.09.2021
6455 Fog 17 1018 94 10000 3.09 220 23:18 11.09.2021
6456 Clear 17 1017 94 10000 3.09 210 21:40 11.09.2021
6457 Clouds 18 1017 93 10000 2.57 220 20:18 11.09.2021
6458 Clouds 19 1016 92 10000 2.57 220 20:18 11.09.2021
6459 Clouds 21 1016 85 10000 2.06 180 18:32 11.09.2021
6460 Clouds 21 1016 88 10000 3.6 190 17:29 11.09.2021
6461 Clouds 20 1017 94 10000 3.09 210 15:39 11.09.2021
6462 Rain 22 1017 81 10000 2.57 260 13:30 11.09.2021
6463 Clouds 21 1017 82 10000 0.89 94 12:30 11.09.2021
6464 Rain 20 1018 84 10000 0.45 31 11:18 11.09.2021
6465 Rain 19 1017 87 10000 3.09 220 09:31 11.09.2021
6466 Clouds 16 1016 91 10000 2.57 210 07:44 11.09.2021
6467 Clear 16 1016 93 10000 2.57 210 06:47 11.09.2021
6468 Clear 18 1015 90 10000 3.09 190 22:48 10.09.2021
6469 Clear 18 1015 90 10000 3.09 190 22:48 10.09.2021
6470 Clear 19 1015 89 10000 3.6 170 22:22 10.09.2021
6471 Clear 19 1015 90 10000 4.12 170 21:46 10.09.2021
6472 Clear 20 1015 91 10000 2.06 190 19:49 10.09.2021
6473 Clouds 23 1015 81 10000 4.12 180 18:20 10.09.2021
6474 Clouds 26 1014 64 10000 3.18 245 16:40 10.09.2021
6475 Rain 26 1015 58 10000 0.89 131 13:55 10.09.2021
6476 Clear 24 1015 56 10000 2.57 200 11:54 10.09.2021
6477 Clear 19 1015 59 10000 2.06 0 08:36 10.09.2021
6478 Clear 16 1014 70 10000 1.34 309 07:48 10.09.2021
6479 Clear 18 1014 70 10000 0.89 304 00:42 10.09.2021
6480 Clear 19 1014 64 10000 4.63 160 22:31 09.09.2021
6481 Clear 19 1013 68 10000 4.12 160 21:39 09.09.2021
6482 Clear 20 1013 65 10000 0.45 260 20:46 09.09.2021
6483 Clear 23 1013 51 10000 0.89 287 19:33 09.09.2021
6484 Clear 25 1013 44 10000 0.89 300 18:26 09.09.2021
6485 Clear 26 1013 43 10000 1.34 246 16:40 09.09.2021
6486 Clear 26 1013 43 10000 2.68 288 15:27 09.09.2021
6487 Clear 24 1014 47 10000 0.89 204 12:48 09.09.2021
6488 Clear 22 1014 50 10000 2.68 272 11:33 09.09.2021
6489 Clear 19 1014 59 10000 0.45 113 09:50 09.09.2021
6490 Clear 17 1015 60 10000 0.89 301 08:47 09.09.2021
6491 Clear 13 1015 78 10000 1.34 270 06:25 09.09.2021
6492 Clear 16 1016 69 10000 0.89 240 02:18 09.09.2021
6493 Clear 16 1017 72 10000 1.54 140 22:40 08.09.2021
6494 Clear 17 1017 68 10000 0.45 328 21:23 08.09.2021
6495 Clear 19 1017 66 10000 2.57 110 19:56 08.09.2021
6496 Clear 23 1017 50 10000 3.09 120 18:55 08.09.2021
6497 Clear 25 1018 42 10000 1.79 304 18:29 08.09.2021
6498 Clear 25 1018 43 10000 0.89 294 17:55 08.09.2021
6499 Clear 25 1019 44 10000 3.58 325 16:28 08.09.2021
6500 Clear 25 1020 45 10000 2.68 300 14:25 08.09.2021
6501 Clear 24 1021 53 10000 1.79 256 12:46 08.09.2021
6502 Clear 23 1021 59 10000 0.45 297 12:26 08.09.2021
6503 Clear 21 1022 69 10000 2.57 150 11:29 08.09.2021
6504 Clear 19 1022 75 10000 1.34 302 10:33 08.09.2021
6505 Clear 18 1022 79 10000 0.89 242 09:59 08.09.2021
6506 Clear 13 1022 88 10000 0.45 281 08:31 08.09.2021
6507 Clear 12 1022 100 10000 2.06 160 07:35 08.09.2021
6508 Clear 12 1023 95 10000 0.45 260 05:28 08.09.2021
6509 Clear 15 1024 87 10000 0.51 150 22:43 07.09.2021
6510 Clear 16 1024 81 10000 0.51 140 21:52 07.09.2021
6511 Clear 19 1023 72 10000 0.51 0 19:52 07.09.2021
6512 Clouds 21 1023 63 10000 1.03 0 18:45 07.09.2021
6513 Clouds 22 1024 59 10000 1.03 0 17:49 07.09.2021
6514 Clouds 22 1024 59 10000 0.89 141 16:38 07.09.2021
6515 Clouds 22 1024 58 10000 0.45 91 15:36 07.09.2021
6516 Clouds 22 1025 59 10000 0.89 128 14:42 07.09.2021
6517 Clouds 20 1025 67 10000 1.79 179 12:41 07.09.2021
6518 Clear 19 1025 74 10000 0.45 115 11:37 07.09.2021
6519 Clear 17 1025 81 10000 0.45 120 10:41 07.09.2021
6520 Clear 15 1024 89 10000 2.06 280 08:34 07.09.2021
6521 Clear 15 1024 88 10000 1.54 220 07:23 07.09.2021
6522 Clear 15 1023 91 10000 2.06 280 05:40 07.09.2021
6523 Clear 15 1023 90 10000 0.51 50 02:34 07.09.2021
6524 Rain 15 1024 87 10000 1.54 200 00:46 07.09.2021
6525 Clear 17 1024 77 10000 2.06 190 23:34 06.09.2021
6526 Clear 17 1024 79 10000 1.03 150 22:53 06.09.2021
6527 Clear 16 1024 84 10000 1.03 150 22:33 06.09.2021
6528 Clear 18 1023 74 10000 1.03 0 20:56 06.09.2021
6529 Clear 21 1023 68 10000 1.03 340 19:31 06.09.2021
6530 Clear 22 1023 63 10000 1.03 0 18:50 06.09.2021
6531 Clouds 23 1023 60 10000 1.79 132 18:23 06.09.2021
6532 Clouds 23 1023 55 10000 0.45 119 17:36 06.09.2021
6533 Clouds 24 1023 53 10000 1.79 117 15:52 06.09.2021
6534 Clouds 23 1024 62 10000 1.34 128 13:48 06.09.2021
6535 Clear 22 1024 63 10000 0.45 203 12:48 06.09.2021
6536 Clear 20 1024 63 10000 0.89 310 10:54 06.09.2021
6537 Clear 14 1024 79 10000 0.89 301 08:35 06.09.2021
6538 Clear 12 1023 80 10000 0.89 295 06:47 06.09.2021
6539 Clear 15 1023 83 10000 0.45 304 23:40 05.09.2021
6540 Clear 16 1023 81 10000 0.45 294 23:18 05.09.2021
6541 Clear 16 1023 82 10000 0.45 307 22:30 05.09.2021
6542 Clear 17 1022 79 10000 2.06 120 21:49 05.09.2021
6543 Clear 19 1022 73 10000 2.06 130 20:50 05.09.2021
6544 Clear 19 1022 73 10000 2.06 130 20:50 05.09.2021
6545 Clear 21 1022 67 10000 4.63 90 18:56 05.09.2021
6546 Clear 24 1022 57 10000 0.89 308 17:34 05.09.2021
6547 Clouds 24 1022 53 10000 0.45 180 15:31 05.09.2021
6548 Clouds 23 1022 58 10000 0.45 126 14:23 05.09.2021
6549 Clouds 21 1022 68 10000 3.09 150 12:34 05.09.2021
6550 Clouds 17 1023 88 7000 2.06 110 10:59 05.09.2021
6551 Clouds 16 1023 90 7000 2.06 110 10:33 05.09.2021
6552 Fog 13 1022 99 2500 1.03 0 09:25 05.09.2021
6553 Mist 12 1022 96 1200 1.03 0 08:22 05.09.2021
6554 Fog 11 1021 95 3000 1.03 200 03:19 05.09.2021
6555 Clouds 12 1020 93 9000 0.51 0 00:30 05.09.2021
6556 Clouds 13 1020 92 8000 0.51 0 23:43 04.09.2021
6557 Clouds 13 1020 92 8000 1.03 0 22:36 04.09.2021
6558 Clouds 14 1020 91 8000 1.54 300 21:58 04.09.2021
6559 Clouds 16 1018 83 10000 0.89 148 19:54 04.09.2021
6560 Clouds 17 1018 81 10000 1.34 129 19:29 04.09.2021
6561 Clouds 20 1019 75 10000 3.6 300 16:27 04.09.2021
6562 Clouds 17 1019 82 10000 3.6 330 13:36 04.09.2021
6563 Clouds 19 1019 73 10000 2.57 300 11:21 04.09.2021
6564 Clear 15 1018 88 10000 2.06 270 09:33 04.09.2021
6565 Clear 11 1018 100 10000 1.54 0 06:55 04.09.2021
6566 Clear 14 1018 91 10000 2.57 210 00:30 04.09.2021
6567 Clear 14 1018 89 10000 2.57 220 23:32 03.09.2021
6568 Clear 15 1018 86 10000 1.03 250 23:32 03.09.2021
6569 Clear 15 1019 87 10000 1.07 238 22:45 03.09.2021
6570 Clear 17 1018 80 10000 1.54 260 21:36 03.09.2021
6571 Clear 18 1018 78 10000 1.54 280 20:52 03.09.2021
6572 Clear 21 1018 64 10000 1.34 128 19:57 03.09.2021
6573 Clear 21 1018 62 10000 1.34 128 19:29 03.09.2021
6574 Clouds 23 1018 57 10000 1.79 144 17:58 03.09.2021
6575 Clouds 23 1019 54 10000 2.24 127 16:44 03.09.2021
6576 Clouds 23 1020 53 10000 2.24 136 15:34 03.09.2021
6577 Clouds 22 1021 63 10000 2.24 44 12:59 03.09.2021
6578 Clear 19 1022 76 10000 1.54 260 10:43 03.09.2021
6579 Fog 14 1022 94 10000 2.06 200 09:20 03.09.2021
6580 Fog 12 1023 100 8000 2.06 180 07:51 03.09.2021
6581 Mist 11 1023 97 1100 2.06 210 06:26 03.09.2021
6582 Clear 14 1025 89 10000 0 0 23:54 02.09.2021
6583 Clear 16 1025 86 10000 1.03 320 21:49 02.09.2021
6584 Clouds 19 1025 71 10000 1.03 300 20:25 02.09.2021
6585 Clouds 22 1026 59 10000 1.34 132 17:33 02.09.2021
6586 Clouds 22 1026 61 10000 0.89 135 16:20 02.09.2021
6587 Clouds 22 1027 60 10000 1.79 101 15:29 02.09.2021
6588 Clouds 21 1027 66 10000 0.45 312 13:23 02.09.2021
6589 Clouds 19 1028 75 10000 1.79 134 11:41 02.09.2021
6590 Clouds 18 1027 78 10000 1.34 79 10:53 02.09.2021
6591 Clouds 15 1027 87 9000 1.54 320 08:57 02.09.2021
6592 Clear 11 1026 96 7000 2.06 250 07:22 02.09.2021
6593 Clear 11 1026 95 10000 1.54 240 05:31 02.09.2021
6594 Clear 12 1026 93 10000 1.54 240 02:36 02.09.2021
6595 Clear 12 1026 94 10000 1.54 240 01:48 02.09.2021
6596 Clear 14 1026 90 10000 2.06 290 23:41 01.09.2021
6597 Clear 15 1026 90 10000 1.54 280 22:42 01.09.2021
6598 Clouds 16 1026 87 10000 1.54 290 21:46 01.09.2021
6599 Clouds 16 1025 85 10000 2.06 350 20:54 01.09.2021
6600 Clouds 19 1024 73 10000 0.89 151 19:24 01.09.2021
6601 Clouds 20 1025 69 10000 2.24 143 17:51 01.09.2021
6602 Clouds 20 1025 69 10000 2.24 143 17:51 01.09.2021
6603 Clouds 20 1025 68 10000 0.89 106 16:55 01.09.2021
6604 Clouds 20 1025 70 10000 1.34 83 16:33 01.09.2021
6605 Clouds 19 1025 74 10000 2.24 97 13:57 01.09.2021
6606 Clouds 16 1026 84 10000 4.12 280 11:47 01.09.2021
6607 Clouds 16 1026 84 10000 4.12 280 11:47 01.09.2021
6608 Clouds 15 1025 87 10000 1.79 141 09:41 01.09.2021
6609 Clear 12 1024 93 10000 2.57 250 07:58 01.09.2021
6610 Clear 11 1024 89 10000 0.89 113 06:42 01.09.2021
6611 Clear 13 1022 86 10000 0.89 147 23:29 31.08.2021
6612 Clouds 15 1021 81 10000 2.06 300 21:45 31.08.2021
6613 Clouds 17 1021 75 10000 2.24 122 19:49 31.08.2021
6614 Clouds 17 1019 80 10000 3.13 105 18:56 31.08.2021
6615 Clouds 18 1019 82 10000 1.34 137 17:39 31.08.2021
6616 Clouds 17 1019 87 10000 0.89 94 17:21 31.08.2021
6617 Clouds 16 1019 91 10000 0.89 98 16:28 31.08.2021
6618 Rain 16 1019 93 10000 1.79 101 14:57 31.08.2021
6619 Mist 14 1018 95 2500 0.89 66 11:41 31.08.2021
6620 Drizzle 14 1018 95 5000 0.89 66 11:18 31.08.2021
6621 Drizzle 14 1018 95 8000 1.34 146 10:42 31.08.2021
6622 Drizzle 14 1017 95 4000 2.24 158 09:41 31.08.2021
6623 Mist 14 1017 95 3500 1.79 158 07:39 31.08.2021
6624 Clouds 15 1016 93 10000 1.34 137 05:56 31.08.2021
6625 Rain 15 1015 96 10000 0.89 120 23:36 30.08.2021
6626 Clouds 15 1015 95 10000 0.89 115 22:32 30.08.2021
6627 Rain 15 1015 95 10000 1.34 129 21:35 30.08.2021
6628 Rain 15 1014 95 10000 2.57 290 20:40 30.08.2021
6629 Rain 16 1014 91 10000 2.24 134 19:33 30.08.2021
6630 Clouds 17 1015 86 10000 0.89 111 18:58 30.08.2021
6631 Clouds 17 1014 78 10000 2.24 144 17:49 30.08.2021
6632 Clouds 18 1014 71 10000 1.79 118 16:27 30.08.2021
6633 Clouds 18 1014 71 10000 2.68 115 15:40 30.08.2021
6634 Clouds 19 1014 70 10000 1.79 166 13:55 30.08.2021
6635 Clouds 17 1014 77 10000 1.34 142 12:54 30.08.2021
6636 Clouds 16 1015 81 10000 1.54 270 10:42 30.08.2021
6637 Clouds 13 1013 93 10000 0.51 0 03:24 30.08.2021
6638 Clouds 14 1014 89 10000 1.54 290 21:35 29.08.2021
6639 Clouds 15 1014 85 10000 0.89 149 20:46 29.08.2021
6640 Clouds 17 1013 79 10000 0.89 128 19:27 29.08.2021
6641 Clouds 19 1013 69 10000 0.45 127 17:58 29.08.2021
6642 Clouds 18 1014 73 10000 2.24 149 15:54 29.08.2021
6643 Clouds 19 1014 69 10000 1.34 112 14:27 29.08.2021
6644 Clouds 18 1014 71 10000 0.45 137 13:55 29.08.2021
6645 Clouds 17 1014 75 10000 0.45 75 12:43 29.08.2021
6646 Clouds 17 1015 80 10000 2.06 260 11:59 29.08.2021
6647 Clouds 17 1015 81 10000 2.06 260 11:39 29.08.2021
6648 Clouds 15 1015 85 10000 2.06 220 10:46 29.08.2021
6649 Clouds 15 1015 89 10000 2.57 210 10:27 29.08.2021
6650 Mist 14 1015 94 4000 3.09 210 09:26 29.08.2021
6651 Clear 12 1015 96 10000 2.06 230 03:26 29.08.2021
6652 Clear 13 1016 93 10000 1.54 250 22:43 28.08.2021
6653 Clouds 14 1016 92 10000 1.54 280 20:31 28.08.2021
6654 Clouds 15 1015 91 10000 2.06 290 19:19 28.08.2021
6655 Clouds 16 1015 86 10000 1.34 149 18:22 28.08.2021
6656 Clouds 16 1015 84 10000 1.34 139 17:45 28.08.2021
6657 Clouds 15 1015 88 10000 1.34 142 16:21 28.08.2021
6658 Rain 15 1016 92 8000 1.34 105 14:51 28.08.2021
6659 Clouds 15 1015 89 10000 1.34 101 13:47 28.08.2021
6660 Clouds 15 1015 92 10000 1.34 122 12:47 28.08.2021
6661 Rain 14 1